Wetterdaten: Freitag, 20.04.2018
Datum Zeit Temp. A. Pool Temp. Feuchte A. Luftdruck Regen Wind Richtung Richtung Sonnenschein ET UV Solar Taupunkt Windchill Windben Empfang
20.04.2018 00:00 14,9 C 12,8 C 65 % 1026,1 hPa 0,0 l/m 2,0 km/h (1 Bft) O-NO 60 0 min 0,000 mm 0,0 UV-I 0 W/m 8,4 C 14,9 C 3,2 km/h (1 Bft) 100,00 %
20.04.2018 00:02 14,4 C 12,8 C 66 % 1026,1 hPa 0,0 l/m 2,6 km/h (1 Bft) O-NO 60 0 min 0,000 mm 0,0 UV-I 0 W/m 8,1 C 14,4 C 4,8 km/h (1 Bft) 100,00 %
20.04.2018 00:03 14,2 C 12,8 C 67 % 1026,0 hPa 0,0 l/m 2,2 km/h (1 Bft) O-NO 60 0 min 0,000 mm 0,0 UV-I 0 W/m 8,2 C 14,2 C 3,2 km/h (1 Bft) 100,00 %
20.04.2018 00:04 14,0 C 12,8 C 68 % 1026,0 hPa 0,0 l/m 1,5 km/h (1 Bft) O-NO 60 0 min 0,000 mm 0,0 UV-I 0 W/m 8,2 C 14,0 C 3,2 km/h (1 Bft) 95,65 %
20.04.2018 00:05 14,0 C 12,8 C 68 % 1026,0 hPa 0,0 l/m 2,5 km/h (1 Bft) O-NO 60 0 min 0,000 mm 0,0 UV-I 0 W/m 8,2 C 14,0 C 3,2 km/h (1 Bft) 93,33 %
20.04.2018 00:06 14,2 C 12,8 C 68 % 1026,0 hPa 0,0 l/m 2,0 km/h (1 Bft) O-NO 60 0 min 0,000 mm 0,0 UV-I 0 W/m 8,4 C 14,2 C 3,2 km/h (1 Bft) 91,67 %
20.04.2018 00:07 14,3 C 12,8 C 68 % 1026,0 hPa 0,0 l/m 1,9 km/h (1 Bft) O-NO 60 0 min 0,000 mm 0,0 UV-I 0 W/m 8,5 C 14,3 C 3,2 km/h (1 Bft) 97,56 %
20.04.2018 00:08 14,5 C 12,8 C 67 % 1026,0 hPa 0,0 l/m 2,2 km/h (1 Bft) O-NO 60 0 min 0,000 mm 0,0 UV-I 0 W/m 8,4 C 14,5 C 3,2 km/h (1 Bft) 100,00 %
20.04.2018 00:09 14,5 C 12,8 C 67 % 1026,0 hPa 0,0 l/m 1,5 km/h (1 Bft) O-NO 60 0 min 0,000 mm 0,0 UV-I 0 W/m 8,4 C 14,5 C 1,6 km/h (1 Bft) 96,30 %
20.04.2018 00:10 14,4 C 12,8 C 67 % 1026,0 hPa 0,0 l/m 1,1 km/h (1 Bft) O-NO 60 0 min 0,000 mm 0,0 UV-I 0 W/m 8,4 C 14,4 C 1,6 km/h (1 Bft) 100,00 %
20.04.2018 00:11 14,3 C 12,8 C 67 % 1026,0 hPa 0,0 l/m 1,0 km/h (0 Bft) O-NO 60 0 min 0,000 mm 0,0 UV-I 0 W/m 8,3 C 14,3 C 1,6 km/h (1 Bft) 92,31 %
20.04.2018 00:12 14,2 C 12,8 C 67 % 1026,0 hPa 0,0 l/m 1,2 km/h (1 Bft) O-NO 60 0 min 0,000 mm 0,0 UV-I 0 W/m 8,2 C 14,2 C 1,6 km/h (1 Bft) 100,00 %
20.04.2018 00:13 14,2 C 12,8 C 68 % 1025,9 hPa 0,0 l/m 0,6 km/h (0 Bft) O-NO 60 0 min 0,000 mm 0,0 UV-I 0 W/m 8,4 C 14,2 C 1,6 km/h (1 Bft) 92,31 %
20.04.2018 00:14 14,3 C 12,8 C 68 % 1026,0 hPa 0,0 l/m 0,0 km/h (0 Bft) O-NO 60 0 min 0,000 mm 0,0 UV-I 0 W/m 8,5 C 14,3 C 0,0 km/h (0 Bft) 96,30 %
20.04.2018 00:15 14,3 C 12,8 C 67 % 1026,0 hPa 0,0 l/m 0,0 km/h (0 Bft) O-NO 60 0 min 0,000 mm 0,0 UV-I 0 W/m 8,3 C 14,3 C 0,0 km/h (0 Bft) 100,00 %
20.04.2018 00:16 14,3 C 12,8 C 67 % 1026,0 hPa 0,0 l/m 0,0 km/h (0 Bft) O-NO 60 0 min 0,000 mm 0,0 UV-I 0 W/m 8,3 C 14,3 C 0,0 km/h (0 Bft) 93,33 %
20.04.2018 00:17 14,2 C 12,8 C 67 % 1026,0 hPa 0,0 l/m 0,0 km/h (0 Bft) O-NO 60 0 min 0,000 mm 0,0 UV-I 0 W/m 8,2 C 14,2 C 0,0 km/h (0 Bft) 95,65 %
20.04.2018 00:18 14,1 C 12,8 C 68 % 1025,9 hPa 0,0 l/m 0,0 km/h (0 Bft) O-NO 60 0 min 0,000 mm 0,0 UV-I 0 W/m 8,3 C 14,1 C 0,0 km/h (0 Bft) 96,00 %
20.04.2018 00:19 13,7 C 12,8 C 69 % 1025,9 hPa 0,0 l/m 0,0 km/h (0 Bft) O-NO 60 0 min 0,000 mm 0,0 UV-I 0 W/m 8,1 C 13,7 C 0,0 km/h (0 Bft) 92,31 %
20.04.2018 00:20 13,4 C 12,8 C 70 % 1025,9 hPa 0,0 l/m 0,0 km/h (0 Bft) O-NO 60 0 min 0,000 mm 0,0 UV-I 0 W/m 8,0 C 13,4 C 0,0 km/h (0 Bft) 91,67 %
20.04.2018 00:21 13,1 C 12,8 C 71 % 1026,0 hPa 0,0 l/m 0,0 km/h (0 Bft) O-NO 60 0 min 0,000 mm 0,0 UV-I 0 W/m 8,0 C 13,1 C 0,0 km/h (0 Bft) 100,00 %
20.04.2018 00:22 12,9 C 12,8 C 73 % 1025,9 hPa 0,0 l/m 0,0 km/h (0 Bft) O-NO 60 0 min 0,000 mm 0,0 UV-I 0 W/m 8,2 C 12,9 C 0,0 km/h (0 Bft) 96,67 %
20.04.2018 00:23 12,7 C 12,8 C 73 % 1026,0 hPa 0,0 l/m 0,0 km/h (0 Bft) O-NO 60 0 min 0,000 mm 0,0 UV-I 0 W/m 8,0 C 12,7 C 0,0 km/h (0 Bft) 95,65 %
20.04.2018 00:24 12,6 C 12,8 C 74 % 1026,0 hPa 0,0 l/m 0,0 km/h (0 Bft) O-NO 60 0 min 0,000 mm 0,0 UV-I 0 W/m 8,1 C 12,6 C 0,0 km/h (0 Bft) 100,00 %
20.04.2018 00:25 12,5 C 12,8 C 74 % 1026,0 hPa 0,0 l/m 0,0 km/h (0 Bft) O-NO 60 0 min 0,000 mm 0,0 UV-I 0 W/m 8,0 C 12,5 C 0,0 km/h (0 Bft) 96,15 %
20.04.2018 00:26 12,3 C 12,8 C 76 % 1026,0 hPa 0,0 l/m 0,0 km/h (0 Bft) O-NO 60 0 min 0,000 mm 0,0 UV-I 0 W/m 8,2 C 12,3 C 0,0 km/h (0 Bft) 100,00 %
20.04.2018 00:27 12,3 C 12,8 C 76 % 1026,0 hPa 0,0 l/m 0,0 km/h (0 Bft) O-NO 60 0 min 0,000 mm 0,0 UV-I 0 W/m 8,2 C 12,3 C 0,0 km/h (0 Bft) 91,30 %
20.04.2018 00:28 12,4 C 12,8 C 76 % 1026,0 hPa 0,0 l/m 0,0 km/h (0 Bft) O-NO 60 0 min 0,000 mm 0,0 UV-I 0 W/m 8,3 C 12,4 C 0,0 km/h (0 Bft) 100,00 %
20.04.2018 00:29 12,4 C 12,8 C 76 % 1025,9 hPa 0,0 l/m 0,0 km/h (0 Bft) O-NO 60 0 min 0,000 mm 0,0 UV-I 0 W/m 8,3 C 12,4 C 0,0 km/h (0 Bft) 91,67 %
20.04.2018 00:30 12,3 C 12,8 C 76 % 1025,9 hPa 0,0 l/m 0,0 km/h (0 Bft) O-NO 60 0 min 0,000 mm 0,0 UV-I 0 W/m 8,2 C 12,3 C 0,0 km/h (0 Bft) 100,00 %
20.04.2018 00:31 12,3 C 12,8 C 76 % 1025,9 hPa 0,0 l/m 0,0 km/h (0 Bft) O-NO 60 0 min 0,000 mm 0,0 UV-I 0 W/m 8,2 C 12,3 C 0,0 km/h (0 Bft) 96,30 %
20.04.2018 00:32 12,2 C 12,8 C 77 % 1026,0 hPa 0,0 l/m 0,0 km/h (0 Bft) O-NO 60 0 min 0,000 mm 0,0 UV-I 0 W/m 8,3 C 12,2 C 0,0 km/h (0 Bft) 95,65 %
20.04.2018 00:33 12,1 C 12,8 C 77 % 1026,0 hPa 0,0 l/m 0,0 km/h (0 Bft) O-NO 60 0 min 0,000 mm 0,0 UV-I 0 W/m 8,2 C 12,1 C 0,0 km/h (0 Bft) 100,00 %
20.04.2018 00:34 12,0 C 12,8 C 77 % 1026,0 hPa 0,0 l/m 0,0 km/h (0 Bft) O-NO 60 0 min 0,000 mm 0,0 UV-I 0 W/m 8,1 C 12,0 C 0,0 km/h (0 Bft) 91,30 %
20.04.2018 00:35 11,8 C 12,8 C 77 % 1026,0 hPa 0,0 l/m 0,0 km/h (0 Bft) O-NO 60 0 min 0,000 mm 0,0 UV-I 0 W/m 7,9 C 11,8 C 0,0 km/h (0 Bft) 100,00 %
20.04.2018 00:36 11,8 C 12,8 C 78 % 1026,0 hPa 0,0 l/m 0,0 km/h (0 Bft) O-NO 60 0 min 0,000 mm 0,0 UV-I 0 W/m 8,1 C 11,8 C 0,0 km/h (0 Bft) 91,30 %
20.04.2018 00:37 11,8 C 12,8 C 78 % 1026,0 hPa 0,0 l/m 0,0 km/h (0 Bft) O-NO 60 0 min 0,000 mm 0,0 UV-I 0 W/m 8,1 C 11,8 C 0,0 km/h (0 Bft) 100,00 %
20.04.2018 00:38 11,9 C 12,8 C 78 % 1026,0 hPa 0,0 l/m 0,0 km/h (0 Bft) O-NO 60 0 min 0,000 mm 0,0 UV-I 0 W/m 8,2 C 11,9 C 0,0 km/h (0 Bft) 95,65 %
20.04.2018 00:39 12,0 C 12,8 C 78 % 1026,0 hPa 0,0 l/m 0,0 km/h (0 Bft) O-NO 60 0 min 0,000 mm 0,0 UV-I 0 W/m 8,3 C 12,0 C 0,0 km/h (0 Bft) 100,00 %
20.04.2018 00:40 12,1 C 12,8 C 78 % 1026,0 hPa 0,0 l/m 0,0 km/h (0 Bft) O-NO 60 0 min 0,000 mm 0,0 UV-I 0 W/m 8,4 C 12,1 C 0,0 km/h (0 Bft) 91,30 %
20.04.2018 00:41 12,2 C 12,8 C 77 % 1025,9 hPa 0,0 l/m 0,0 km/h (0 Bft) O-NO 60 0 min 0,000 mm 0,0 UV-I 0 W/m 8,3 C 12,2 C 0,0 km/h (0 Bft) 96,30 %
20.04.2018 00:42 12,4 C 12,8 C 77 % 1026,0 hPa 0,0 l/m 0,0 km/h (0 Bft) O-NO 60 0 min 0,000 mm 0,0 UV-I 0 W/m 8,5 C 12,4 C 0,0 km/h (0 Bft) 100,00 %
20.04.2018 00:43 12,7 C 12,8 C 75 % 1026,0 hPa 0,0 l/m 0,0 km/h (0 Bft) O-NO 60 0 min 0,000 mm 0,0 UV-I 0 W/m 8,4 C 12,7 C 0,0 km/h (0 Bft) 91,67 %
20.04.2018 00:44 12,8 C 12,8 C 74 % 1026,0 hPa 0,0 l/m 0,0 km/h (0 Bft) O-NO 60 0 min 0,000 mm 0,0 UV-I 0 W/m 8,3 C 12,8 C 0,0 km/h (0 Bft) 100,00 %
20.04.2018 00:45 12,9 C 12,8 C 73 % 1026,0 hPa 0,0 l/m 0,0 km/h (0 Bft) O-NO 60 0 min 0,000 mm 0,0 UV-I 0 W/m 8,2 C 12,9 C 0,0 km/h (0 Bft) 100,00 %
20.04.2018 00:46 13,1 C 12,8 C 73 % 1026,0 hPa 0,0 l/m 0,0 km/h (0 Bft) O-NO 60 0 min 0,000 mm 0,0 UV-I 0 W/m 8,4 C 13,1 C 0,0 km/h (0 Bft) 92,31 %
20.04.2018 00:47 13,2 C 12,8 C 72 % 1026,0 hPa 0,0 l/m 0,0 km/h (0 Bft) O-NO 60 0 min 0,000 mm 0,0 UV-I 0 W/m 8,3 C 13,2 C 0,0 km/h (0 Bft) 100,00 %
20.04.2018 00:48 13,2 C 12,8 C 72 % 1026,0 hPa 0,0 l/m 0,0 km/h (0 Bft) O-NO 60 0 min 0,000 mm 0,0 UV-I 0 W/m 8,3 C 13,2 C 0,0 km/h (0 Bft) 100,00 %
20.04.2018 00:49 13,3 C 12,8 C 72 % 1026,0 hPa 0,0 l/m 0,9 km/h (0 Bft) O-NO 60 0 min 0,000 mm 0,0 UV-I 0 W/m 8,4 C 13,3 C 3,2 km/h (1 Bft) 96,15 %
20.04.2018 00:50 13,3 C 12,8 C 72 % 1026,0 hPa 0,0 l/m 1,9 km/h (1 Bft) O-NO 60 0 min 0,000 mm 0,0 UV-I 0 W/m 8,4 C 13,3 C 3,2 km/h (1 Bft) 100,00 %
20.04.2018 00:51 13,3 C 12,8 C 72 % 1026,0 hPa 0,0 l/m 2,0 km/h (1 Bft) O-NO 60 0 min 0,000 mm 0,0 UV-I 0 W/m 8,4 C 13,3 C 3,2 km/h (1 Bft) 96,15 %
20.04.2018 00:52 13,3 C 12,8 C 72 % 1026,0 hPa 0,0 l/m 2,7 km/h (1 Bft) O-NO 60 0 min 0,000 mm 0,0 UV-I 0 W/m 8,4 C 13,3 C 3,2 km/h (1 Bft) 100,00 %
20.04.2018 00:53 13,3 C 12,8 C 72 % 1026,0 hPa 0,0 l/m 2,7 km/h (1 Bft) O-NO 60 0 min 0,000 mm 0,0 UV-I 0 W/m 8,4 C 13,3 C 3,2 km/h (1 Bft) 96,15 %
20.04.2018 00:54 13,3 C 12,8 C 71 % 1026,0 hPa 0,0 l/m 2,9 km/h (1 Bft) O-NO 60 0 min 0,000 mm 0,0 UV-I 0 W/m 8,2 C 13,3 C 3,2 km/h (1 Bft) 100,00 %
20.04.2018 00:55 13,4 C 12,8 C 72 % 1026,0 hPa 0,0 l/m 3,2 km/h (1 Bft) O-NO 60 0 min 0,000 mm 0,0 UV-I 0 W/m 8,5 C 13,4 C 3,2 km/h (1 Bft) 100,00 %
20.04.2018 00:56 13,4 C 12,8 C 71 % 1026,0 hPa 0,0 l/m 3,0 km/h (1 Bft) O-NO 60 0 min 0,000 mm 0,0 UV-I 0 W/m 8,3 C 13,4 C 4,8 km/h (1 Bft) 100,00 %
20.04.2018 00:57 13,4 C 12,8 C 71 % 1025,9 hPa 0,0 l/m 3,1 km/h (1 Bft) O-NO 60 0 min 0,000 mm 0,0 UV-I 0 W/m 8,3 C 13,4 C 3,2 km/h (1 Bft) 100,00 %
20.04.2018 00:58 13,3 C 12,8 C 71 % 1025,9 hPa 0,0 l/m 3,0 km/h (1 Bft) O-NO 60 0 min 0,000 mm 0,0 UV-I 0 W/m 8,2 C 13,3 C 3,2 km/h (1 Bft) 100,00 %
20.04.2018 00:59 13,3 C 12,8 C 72 % 1026,0 hPa 0,0 l/m 1,9 km/h (1 Bft) O-NO 60 0 min 0,000 mm 0,0 UV-I 0 W/m 8,4 C 13,3 C 3,2 km/h (1 Bft) 91,30 %
20.04.2018 01:00 13,3 C 12,8 C 72 % 1026,0 hPa 0,0 l/m 1,6 km/h (1 Bft) O-NO 60 0 min 0,000 mm 0,0 UV-I 0 W/m 8,4 C 13,3 C 3,2 km/h (1 Bft) 100,00 %
20.04.2018 01:01 13,2 C 12,8 C 72 % 1026,0 hPa 0,0 l/m 0,3 km/h (0 Bft) O-NO 60 0 min 0,000 mm 0,0 UV-I 0 W/m 8,3 C 13,2 C 1,6 km/h (1 Bft) 97,08 %
20.04.2018 01:02 13,2 C 12,8 C 72 % 1025,9 hPa 0,0 l/m 0,0 km/h (0 Bft) O-NO 60 0 min 0,000 mm 0,0 UV-I 0 W/m 8,3 C 13,2 C 0,0 km/h (0 Bft) 100,00 %
20.04.2018 01:03 13,2 C 12,8 C 72 % 1025,9 hPa 0,0 l/m 0,0 km/h (0 Bft) O-NO 60 0 min 0,000 mm 0,0 UV-I 0 W/m 8,3 C 13,2 C 0,0 km/h (0 Bft) 100,00 %
20.04.2018 01:04 13,3 C 12,8 C 72 % 1025,9 hPa 0,0 l/m 0,0 km/h (0 Bft) O-NO 60 0 min 0,000 mm 0,0 UV-I 0 W/m 8,4 C 13,3 C 0,0 km/h (0 Bft) 96,30 %
20.04.2018 01:05 13,4 C 12,8 C 72 % 1025,9 hPa 0,0 l/m 0,0 km/h (0 Bft) O-NO 60 0 min 0,000 mm 0,0 UV-I 0 W/m 8,5 C 13,4 C 0,0 km/h (0 Bft) 95,65 %
20.04.2018 01:06 13,4 C 12,8 C 71 % 1025,9 hPa 0,0 l/m 1,3 km/h (1 Bft) O-NO 60 0 min 0,000 mm 0,0 UV-I 0 W/m 8,3 C 13,4 C 4,8 km/h (1 Bft) 100,00 %
20.04.2018 01:07 13,5 C 12,8 C 71 % 1026,0 hPa 0,0 l/m 2,6 km/h (1 Bft) O-NO 60 0 min 0,000 mm 0,0 UV-I 0 W/m 8,3 C 13,5 C 4,8 km/h (1 Bft) 100,00 %
20.04.2018 01:08 13,5 C 12,8 C 71 % 1025,9 hPa 0,0 l/m 2,6 km/h (1 Bft) O-NO 60 0 min 0,000 mm 0,0 UV-I 0 W/m 8,3 C 13,5 C 4,8 km/h (1 Bft) 100,00 %
20.04.2018 01:09 13,3 C 12,8 C 71 % 1025,9 hPa 0,0 l/m 1,7 km/h (1 Bft) O-NO 60 0 min 0,000 mm 0,0 UV-I 0 W/m 8,2 C 13,3 C 3,2 km/h (1 Bft) 100,00 %
20.04.2018 01:10 13,3 C 12,8 C 72 % 1025,9 hPa 0,0 l/m 1,7 km/h (1 Bft) O-NO 60 0 min 0,000 mm 0,0 UV-I 0 W/m 8,4 C 13,3 C 3,2 km/h (1 Bft) 95,65 %
20.04.2018 01:11 13,3 C 12,8 C 72 % 1025,9 hPa 0,0 l/m 2,0 km/h (1 Bft) O-NO 60 0 min 0,000 mm 0,0 UV-I 0 W/m 8,4 C 13,3 C 3,2 km/h (1 Bft) 100,00 %
20.04.2018 01:12 13,3 C 12,8 C 71 % 1025,9 hPa 0,0 l/m 1,1 km/h (1 Bft) O-NO 60 0 min 0,000 mm 0,0 UV-I 0 W/m 8,2 C 13,3 C 1,6 km/h (1 Bft) 100,00 %
20.04.2018 01:13 13,3 C 12,8 C 71 % 1025,9 hPa 0,0 l/m 2,7 km/h (1 Bft) O-SO 103 0 min 0,000 mm 0,0 UV-I 0 W/m 8,2 C 13,3 C 6,4 km/h (2 Bft) 100,00 %
20.04.2018 01:14 13,2 C 12,8 C 72 % 1025,9 hPa 0,0 l/m 4,0 km/h (1 Bft) O-SO 114 0 min 0,000 mm 0,0 UV-I 0 W/m 8,3 C 13,2 C 4,8 km/h (1 Bft) 100,00 %
20.04.2018 01:15 13,2 C 12,8 C 72 % 1025,9 hPa 0,0 l/m 2,3 km/h (1 Bft) O-SO 114 0 min 0,000 mm 0,0 UV-I 0 W/m 8,3 C 13,2 C 4,8 km/h (1 Bft) 100,00 %
20.04.2018 01:16 13,2 C 12,8 C 72 % 1025,9 hPa 0,0 l/m 2,3 km/h (1 Bft) O-SO 114 0 min 0,000 mm 0,0 UV-I 0 W/m 8,3 C 13,2 C 3,2 km/h (1 Bft) 100,00 %
20.04.2018 01:17 13,2 C 12,8 C 72 % 1025,9 hPa 0,0 l/m 3,0 km/h (1 Bft) O-SO 114 0 min 0,000 mm 0,0 UV-I 0 W/m 8,3 C 13,2 C 4,8 km/h (1 Bft) 100,00 %
20.04.2018 01:18 13,2 C 12,8 C 72 % 1025,9 hPa 0,0 l/m 3,2 km/h (1 Bft) O-SO 114 0 min 0,000 mm 0,0 UV-I 0 W/m 8,3 C 13,2 C 3,2 km/h (1 Bft) 96,15 %
20.04.2018 01:19 13,3 C 12,8 C 72 % 1025,9 hPa 0,0 l/m 3,8 km/h (1 Bft) O-SO 114 0 min 0,000 mm 0,0 UV-I 0 W/m 8,4 C 13,3 C 4,8 km/h (1 Bft) 100,00 %
20.04.2018 01:20 13,3 C 12,8 C 71 % 1025,9 hPa 0,0 l/m 2,8 km/h (1 Bft) O-SO 114 0 min 0,000 mm 0,0 UV-I 0 W/m 8,2 C 13,3 C 6,4 km/h (2 Bft) 100,00 %
20.04.2018 01:21 13,3 C 12,8 C 71 % 1025,9 hPa 0,0 l/m 1,2 km/h (1 Bft) O-SO 114 0 min 0,000 mm 0,0 UV-I 0 W/m 8,2 C 13,3 C 1,6 km/h (1 Bft) 100,00 %
20.04.2018 01:22 13,3 C 12,8 C 71 % 1025,9 hPa 0,0 l/m 1,1 km/h (1 Bft) O-SO 114 0 min 0,000 mm 0,0 UV-I 0 W/m 8,2 C 13,3 C 1,6 km/h (1 Bft) 100,00 %
20.04.2018 01:23 13,2 C 12,8 C 72 % 1025,9 hPa 0,0 l/m 2,2 km/h (1 Bft) O-SO 114 0 min 0,000 mm 0,0 UV-I 0 W/m 8,3 C 13,2 C 3,2 km/h (1 Bft) 100,00 %
20.04.2018 01:24 13,1 C 12,8 C 72 % 1025,9 hPa 0,0 l/m 2,3 km/h (1 Bft) O-SO 114 0 min 0,000 mm 0,0 UV-I 0 W/m 8,2 C 13,1 C 3,2 km/h (1 Bft) 100,00 %
20.04.2018 01:25 12,9 C 12,8 C 73 % 1025,8 hPa 0,0 l/m 2,1 km/h (1 Bft) O-SO 114 0 min 0,000 mm 0,0 UV-I 0 W/m 8,2 C 12,9 C 3,2 km/h (1 Bft) 100,00 %
20.04.2018 01:26 12,9 C 12,8 C 73 % 1025,8 hPa 0,0 l/m 1,0 km/h (0 Bft) O-SO 114 0 min 0,000 mm 0,0 UV-I 0 W/m 8,2 C 12,9 C 3,2 km/h (1 Bft) 100,00 %
20.04.2018 01:27 12,9 C 12,8 C 73 % 1025,8 hPa 0,0 l/m 0,9 km/h (0 Bft) O-SO 114 0 min 0,000 mm 0,0 UV-I 0 W/m 8,2 C 12,9 C 1,6 km/h (1 Bft) 100,00 %
20.04.2018 01:28 12,9 C 12,8 C 73 % 1025,8 hPa 0,0 l/m 0,9 km/h (0 Bft) O-SO 114 0 min 0,000 mm 0,0 UV-I 0 W/m 8,2 C 12,9 C 1,6 km/h (1 Bft) 100,00 %
20.04.2018 01:29 13,0 C 12,8 C 73 % 1025,8 hPa 0,0 l/m 2,1 km/h (1 Bft) O-SO 114 0 min 0,000 mm 0,0 UV-I 0 W/m 8,3 C 13,0 C 3,2 km/h (1 Bft) 100,00 %
20.04.2018 01:30 13,1 C 12,8 C 73 % 1025,8 hPa 0,0 l/m 1,8 km/h (1 Bft) O-SO 114 0 min 0,000 mm 0,0 UV-I 0 W/m 8,4 C 13,1 C 3,2 km/h (1 Bft) 100,00 %
20.04.2018 01:31 13,2 C 12,8 C 72 % 1025,8 hPa 0,0 l/m 2,2 km/h (1 Bft) O-SO 114 0 min 0,000 mm 0,0 UV-I 0 W/m 8,3 C 13,2 C 3,2 km/h (1 Bft) 100,00 %
20.04.2018 01:32 13,1 C 12,8 C 72 % 1025,7 hPa 0,0 l/m 2,3 km/h (1 Bft) O-SO 114 0 min 0,000 mm 0,0 UV-I 0 W/m 8,2 C 13,1 C 4,8 km/h (1 Bft) 95,83 %
20.04.2018 01:33 12,9 C 12,8 C 72 % 1025,7 hPa 0,0 l/m 2,7 km/h (1 Bft) O-SO 114 0 min 0,000 mm 0,0 UV-I 0 W/m 8,0 C 12,9 C 3,2 km/h (1 Bft) 100,00 %
20.04.2018 01:34 12,8 C 12,8 C 73 % 1025,8 hPa 0,0 l/m 1,8 km/h (1 Bft) O-SO 114 0 min 0,000 mm 0,0 UV-I 0 W/m 8,1 C 12,8 C 3,2 km/h (1 Bft) 100,00 %
20.04.2018 01:35 12,6 C 12,8 C 73 % 1025,8 hPa 0,0 l/m 0,6 km/h (0 Bft) O-SO 114 0 min 0,000 mm 0,0 UV-I 0 W/m 7,9 C 12,6 C 1,6 km/h (1 Bft) 100,00 %
20.04.2018 01:36 12,4 C 12,8 C 74 % 1025,8 hPa 0,0 l/m 0,0 km/h (0 Bft) O-SO 114 0 min 0,000 mm 0,0 UV-I 0 W/m 7,9 C 12,4 C 0,0 km/h (0 Bft) 100,00 %
20.04.2018 01:37 12,2 C 12,8 C 75 % 1025,8 hPa 0,0 l/m 0,0 km/h (0 Bft) O-SO 114 0 min 0,000 mm 0,0 UV-I 0 W/m 7,9 C 12,2 C 0,0 km/h (0 Bft) 100,00 %
20.04.2018 01:38 12,2 C 12,8 C 76 % 1025,8 hPa 0,0 l/m 0,6 km/h (0 Bft) O-SO 114 0 min 0,000 mm 0,0 UV-I 0 W/m 8,1 C 12,2 C 1,6 km/h (1 Bft) 100,00 %
20.04.2018 01:39 12,1 C 12,8 C 76 % 1025,8 hPa 0,0 l/m 0,2 km/h (0 Bft) O-SO 114 0 min 0,000 mm 0,0 UV-I 0 W/m 8,0 C 12,1 C 1,6 km/h (1 Bft) 100,00 %
20.04.2018 01:40 12,2 C 12,8 C 76 % 1025,7 hPa 0,0 l/m 0,0 km/h (0 Bft) O-SO 114 0 min 0,000 mm 0,0 UV-I 0 W/m 8,1 C 12,2 C 0,0 km/h (0 Bft) 100,00 %
20.04.2018 01:41 12,2 C 12,8 C 76 % 1025,7 hPa 0,0 l/m 0,0 km/h (0 Bft) O-SO 114 0 min 0,000 mm 0,0 UV-I 0 W/m 8,1 C 12,2 C 0,0 km/h (0 Bft) 100,00 %
20.04.2018 01:42 12,1 C 12,8 C 77 % 1025,7 hPa 0,0 l/m 0,0 km/h (0 Bft) O-SO 114 0 min 0,000 mm 0,0 UV-I 0 W/m 8,2 C 12,1 C 0,0 km/h (0 Bft) 100,00 %
20.04.2018 01:43 12,1 C 12,8 C 77 % 1025,7 hPa 0,0 l/m 0,0 km/h (0 Bft) O-SO 114 0 min 0,000 mm 0,0 UV-I 0 W/m 8,2 C 12,1 C 0,0 km/h (0 Bft) 100,00 %
20.04.2018 01:44 12,1 C 12,8 C 77 % 1025,7 hPa 0,0 l/m 0,0 km/h (0 Bft) O-SO 114 0 min 0,000 mm 0,0 UV-I 0 W/m 8,2 C 12,1 C 0,0 km/h (0 Bft) 100,00 %
20.04.2018 01:45 12,1 C 12,8 C 77 % 1025,7 hPa 0,0 l/m 1,3 km/h (1 Bft) O-SO 114 0 min 0,000 mm 0,0 UV-I 0 W/m 8,2 C 12,1 C 3,2 km/h (1 Bft) 100,00 %
20.04.2018 01:46 11,9 C 12,8 C 77 % 1025,7 hPa 0,0 l/m 2,7 km/h (1 Bft) O-SO 114 0 min 0,000 mm 0,0 UV-I 0 W/m 8,0 C 11,9 C 4,8 km/h (1 Bft) 100,00 %
20.04.2018 01:47 11,7 C 12,8 C 77 % 1025,7 hPa 0,0 l/m 3,2 km/h (1 Bft) O-SO 114 0 min 0,000 mm 0,0 UV-I 0 W/m 7,8 C 11,7 C 4,8 km/h (1 Bft) 100,00 %
20.04.2018 01:48 11,7 C 12,8 C 77 % 1025,8 hPa 0,0 l/m 3,6 km/h (1 Bft) O-SO 114 0 min 0,000 mm 0,0 UV-I 0 W/m 7,8 C 11,7 C 4,8 km/h (1 Bft) 100,00 %
20.04.2018 01:49 11,7 C 12,8 C 78 % 1025,7 hPa 0,0 l/m 3,9 km/h (1 Bft) O-SO 114 0 min 0,000 mm 0,0 UV-I 0 W/m 8,0 C 11,7 C 4,8 km/h (1 Bft) 100,00 %
20.04.2018 01:50 11,7 C 12,8 C 78 % 1025,7 hPa 0,0 l/m 3,4 km/h (1 Bft) O-SO 114 0 min 0,000 mm 0,0 UV-I 0 W/m 8,0 C 11,7 C 4,8 km/h (1 Bft) 100,00 %
20.04.2018 01:51 11,8 C 12,8 C 78 % 1025,7 hPa 0,0 l/m 3,2 km/h (1 Bft) O-SO 114 0 min 0,000 mm 0,0 UV-I 0 W/m 8,1 C 11,8 C 4,8 km/h (1 Bft) 100,00 %
20.04.2018 01:52 11,8 C 12,8 C 78 % 1025,7 hPa 0,0 l/m 3,8 km/h (1 Bft) O-SO 114 0 min 0,000 mm 0,0 UV-I 0 W/m 8,1 C 11,8 C 6,4 km/h (2 Bft) 100,00 %
20.04.2018 01:53 11,8 C 12,8 C 78 % 1025,7 hPa 0,0 l/m 4,0 km/h (1 Bft) O-SO 114 0 min 0,000 mm 0,0 UV-I 0 W/m 8,1 C 11,8 C 6,4 km/h (2 Bft) 100,00 %
20.04.2018 01:54 12,0 C 12,8 C 78 % 1025,7 hPa 0,0 l/m 4,2 km/h (1 Bft) O-SO 114 0 min 0,000 mm 0,0 UV-I 0 W/m 8,3 C 12,0 C 4,8 km/h (1 Bft) 100,00 %
20.04.2018 01:55 12,1 C 12,8 C 77 % 1025,7 hPa 0,0 l/m 3,8 km/h (1 Bft) O-SO 114 0 min 0,000 mm 0,0 UV-I 0 W/m 8,2 C 12,1 C 4,8 km/h (1 Bft) 100,00 %
20.04.2018 01:56 12,3 C 12,8 C 77 % 1025,7 hPa 0,0 l/m 3,9 km/h (1 Bft) O-SO 113 0 min 0,000 mm 0,0 UV-I 0 W/m 8,4 C 12,3 C 6,4 km/h (2 Bft) 100,00 %
20.04.2018 01:57 12,3 C 12,8 C 76 % 1025,7 hPa 0,0 l/m 3,3 km/h (1 Bft) O-SO 113 0 min 0,000 mm 0,0 UV-I 0 W/m 8,2 C 12,3 C 4,8 km/h (1 Bft) 100,00 %
20.04.2018 01:58 12,3 C 12,8 C 76 % 1025,7 hPa 0,0 l/m 3,7 km/h (1 Bft) O-SO 113 0 min 0,000 mm 0,0 UV-I 0 W/m 8,2 C 12,3 C 4,8 km/h (1 Bft) 100,00 %
20.04.2018 01:59 12,2 C 12,8 C 76 % 1025,6 hPa 0,0 l/m 4,6 km/h (1 Bft) O-SO 113 0 min 0,000 mm 0,0 UV-I 0 W/m 8,1 C 12,2 C 6,4 km/h (2 Bft) 100,00 %
20.04.2018 02:00 12,2 C 12,8 C 76 % 1025,6 hPa 0,0 l/m 4,3 km/h (1 Bft) O-SO 113 0 min 0,000 mm 0,0 UV-I 0 W/m 8,1 C 12,2 C 4,8 km/h (1 Bft) 100,00 %
20.04.2018 02:01 12,2 C 12,8 C 77 % 1025,6 hPa 0,0 l/m 4,2 km/h (1 Bft) O-SO 112 0 min 0,000 mm 0,0 UV-I 0 W/m 8,3 C 12,2 C 4,8 km/h (1 Bft) 100,00 %
20.04.2018 02:03 12,3 C 12,8 C 76 % 1025,6 hPa 0,0 l/m 3,6 km/h (1 Bft) O-SO 112 0 min 0,000 mm 0,0 UV-I 0 W/m 8,2 C 12,3 C 4,8 km/h (1 Bft) 100,00 %
20.04.2018 02:04 12,3 C 12,8 C 76 % 1025,6 hPa 0,0 l/m 4,2 km/h (1 Bft) O-SO 112 0 min 0,000 mm 0,0 UV-I 0 W/m 8,2 C 12,3 C 6,4 km/h (2 Bft) 100,00 %
20.04.2018 02:05 12,4 C 12,8 C 76 % 1025,6 hPa 0,0 l/m 4,1 km/h (1 Bft) O-SO 111 0 min 0,000 mm 0,0 UV-I 0 W/m 8,3 C 12,4 C 4,8 km/h (1 Bft) 91,67 %
20.04.2018 02:06 12,6 C 12,8 C 75 % 1025,6 hPa 0,0 l/m 3,6 km/h (1 Bft) O-SO 111 0 min 0,000 mm 0,0 UV-I 0 W/m 8,3 C 12,6 C 4,8 km/h (1 Bft) 100,00 %
20.04.2018 02:07 12,5 C 12,8 C 75 % 1025,6 hPa 0,0 l/m 3,8 km/h (1 Bft) O-SO 111 0 min 0,000 mm 0,0 UV-I 0 W/m 8,2 C 12,5 C 4,8 km/h (1 Bft) 100,00 %
20.04.2018 02:08 12,4 C 12,8 C 75 % 1025,6 hPa 0,0 l/m 4,1 km/h (1 Bft) O-SO 111 0 min 0,000 mm 0,0 UV-I 0 W/m 8,1 C 12,4 C 4,8 km/h (1 Bft) 95,83 %
20.04.2018 02:09 12,3 C 12,8 C 75 % 1025,6 hPa 0,0 l/m 4,4 km/h (1 Bft) O-SO 104 0 min 0,000 mm 0,0 UV-I 0 W/m 8,0 C 12,3 C 4,8 km/h (1 Bft) 100,00 %
20.04.2018 02:10 12,2 C 12,8 C 75 % 1025,6 hPa 0,0 l/m 5,3 km/h (1 Bft) O 94 0 min 0,000 mm 0,0 UV-I 0 W/m 7,9 C 12,2 C 9,7 km/h (2 Bft) 100,00 %
20.04.2018 02:11 12,2 C 12,8 C 76 % 1025,6 hPa 0,0 l/m 6,0 km/h (2 Bft) O 98 0 min 0,000 mm 0,0 UV-I 0 W/m 8,1 C 12,2 C 11,3 km/h (2 Bft) 100,00 %
20.04.2018 02:12 12,3 C 12,8 C 76 % 1025,6 hPa 0,0 l/m 5,2 km/h (1 Bft) O-SO 106 0 min 0,000 mm 0,0 UV-I 0 W/m 8,2 C 12,3 C 6,4 km/h (2 Bft) 100,00 %
20.04.2018 02:13 12,2 C 12,8 C 76 % 1025,6 hPa 0,0 l/m 4,8 km/h (1 Bft) O 96 0 min 0,000 mm 0,0 UV-I 0 W/m 8,1 C 12,2 C 9,7 km/h (2 Bft) 100,00 %
20.04.2018 02:14 12,3 C 12,8 C 76 % 1025,6 hPa 0,0 l/m 4,5 km/h (1 Bft) O 96 0 min 0,000 mm 0,0 UV-I 0 W/m 8,2 C 12,3 C 6,4 km/h (2 Bft) 100,00 %
20.04.2018 02:15 12,3 C 12,8 C 76 % 1025,6 hPa 0,0 l/m 8,8 km/h (2 Bft) O 98 0 min 0,000 mm 0,0 UV-I 0 W/m 8,2 C 10,8 C 11,3 km/h (2 Bft) 100,00 %
20.04.2018 02:16 12,4 C 12,8 C 76 % 1025,7 hPa 0,0 l/m 5,6 km/h (1 Bft) O 96 0 min 0,000 mm 0,0 UV-I 0 W/m 8,3 C 12,4 C 9,7 km/h (2 Bft) 96,30 %
20.04.2018 02:17 12,6 C 12,8 C 76 % 1025,6 hPa 0,0 l/m 4,7 km/h (1 Bft) O 93 0 min 0,000 mm 0,0 UV-I 0 W/m 8,5 C 12,6 C 9,7 km/h (2 Bft) 100,00 %
20.04.2018 02:18 12,8 C 12,8 C 74 % 1025,6 hPa 0,0 l/m 3,8 km/h (1 Bft) O 94 0 min 0,000 mm 0,0 UV-I 0 W/m 8,3 C 12,8 C 4,8 km/h (1 Bft) 100,00 %
20.04.2018 02:19 12,9 C 12,8 C 73 % 1025,6 hPa 0,0 l/m 3,9 km/h (1 Bft) O 94 0 min 0,000 mm 0,0 UV-I 0 W/m 8,2 C 12,9 C 4,8 km/h (1 Bft) 100,00 %
20.04.2018 02:20 12,9 C 12,8 C 73 % 1025,6 hPa 0,0 l/m 3,0 km/h (1 Bft) O 94 0 min 0,000 mm 0,0 UV-I 0 W/m 8,2 C 12,9 C 4,8 km/h (1 Bft) 100,00 %
20.04.2018 02:21 13,1 C 12,8 C 73 % 1025,6 hPa 0,0 l/m 5,5 km/h (1 Bft) SO 127 0 min 0,000 mm 0,0 UV-I 0 W/m 8,4 C 13,1 C 9,7 km/h (2 Bft) 100,00 %
20.04.2018 02:22 13,4 C 12,8 C 73 % 1025,6 hPa 0,0 l/m 5,6 km/h (1 Bft) O 91 0 min 0,000 mm 0,0 UV-I 0 W/m 8,7 C 13,4 C 9,7 km/h (2 Bft) 100,00 %
20.04.2018 02:23 13,8 C 12,8 C 72 % 1025,5 hPa 0,0 l/m 5,6 km/h (1 Bft) O 90 0 min 0,000 mm 0,0 UV-I 0 W/m 8,8 C 13,8 C 9,7 km/h (2 Bft) 100,00 %
20.04.2018 02:24 14,1 C 12,8 C 70 % 1025,5 hPa 0,0 l/m 6,4 km/h (2 Bft) O 101 0 min 0,000 mm 0,0 UV-I 0 W/m 8,7 C 14,1 C 11,3 km/h (2 Bft) 100,00 %
20.04.2018 02:25 14,2 C 12,8 C 69 % 1025,5 hPa 0,0 l/m 5,4 km/h (1 Bft) O 90 0 min 0,000 mm 0,0 UV-I 0 W/m 8,6 C 14,2 C 6,4 km/h (2 Bft) 100,00 %
20.04.2018 02:26 14,3 C 12,8 C 69 % 1025,5 hPa 0,0 l/m 4,1 km/h (1 Bft) O 96 0 min 0,000 mm 0,0 UV-I 0 W/m 8,7 C 14,3 C 6,4 km/h (2 Bft) 100,00 %
20.04.2018 02:27 14,4 C 12,8 C 68 % 1025,5 hPa 0,0 l/m 3,9 km/h (1 Bft) O 96 0 min 0,000 mm 0,0 UV-I 0 W/m 8,6 C 14,4 C 4,8 km/h (1 Bft) 100,00 %
20.04.2018 02:28 14,4 C 12,8 C 68 % 1025,5 hPa 0,0 l/m 3,8 km/h (1 Bft) O 96 0 min 0,000 mm 0,0 UV-I 0 W/m 8,6 C 14,4 C 4,8 km/h (1 Bft) 100,00 %
20.04.2018 02:29 14,3 C 12,8 C 68 % 1025,5 hPa 0,0 l/m 3,5 km/h (1 Bft) O 96 0 min 0,000 mm 0,0 UV-I 0 W/m 8,5 C 14,3 C 4,8 km/h (1 Bft) 100,00 %
20.04.2018 02:30 14,2 C 12,8 C 68 % 1025,5 hPa 0,0 l/m 3,4 km/h (1 Bft) O 96 0 min 0,000 mm 0,0 UV-I 0 W/m 8,4 C 14,2 C 4,8 km/h (1 Bft) 96,15 %
20.04.2018 02:31 14,2 C 12,8 C 68 % 1025,5 hPa 0,0 l/m 3,0 km/h (1 Bft) O 96 0 min 0,000 mm 0,0 UV-I 0 W/m 8,4 C 14,2 C 4,8 km/h (1 Bft) 95,83 %
20.04.2018 02:32 14,1 C 12,8 C 69 % 1025,5 hPa 0,0 l/m 2,8 km/h (1 Bft) O 96 0 min 0,000 mm 0,0 UV-I 0 W/m 8,5 C 14,1 C 4,8 km/h (1 Bft) 91,67 %
20.04.2018 02:33 13,9 C 12,8 C 69 % 1025,5 hPa 0,0 l/m 3,4 km/h (1 Bft) O 96 0 min 0,000 mm 0,0 UV-I 0 W/m 8,3 C 13,9 C 4,8 km/h (1 Bft) 94,74 %
20.04.2018 02:34 13,9 C 12,8 C 69 % 1025,5 hPa 0,0 l/m 4,2 km/h (1 Bft) O 96 0 min 0,000 mm 0,0 UV-I 0 W/m 8,3 C 13,9 C 4,8 km/h (1 Bft) 96,15 %
20.04.2018 02:35 13,8 C 12,8 C 69 % 1025,5 hPa 0,0 l/m 3,1 km/h (1 Bft) O 96 0 min 0,000 mm 0,0 UV-I 0 W/m 8,2 C 13,8 C 4,8 km/h (1 Bft) 95,83 %
20.04.2018 02:36 13,7 C 12,8 C 70 % 1025,5 hPa 0,0 l/m 3,4 km/h (1 Bft) O 96 0 min 0,000 mm 0,0 UV-I 0 W/m 8,3 C 13,7 C 4,8 km/h (1 Bft) 92,86 %
20.04.2018 02:37 13,6 C 12,8 C 70 % 1025,5 hPa 0,0 l/m 3,9 km/h (1 Bft) O 96 0 min 0,000 mm 0,0 UV-I 0 W/m 8,2 C 13,6 C 4,8 km/h (1 Bft) 96,30 %
20.04.2018 02:38 13,4 C 12,8 C 70 % 1025,5 hPa 0,0 l/m 4,0 km/h (1 Bft) O 96 0 min 0,000 mm 0,0 UV-I 0 W/m 8,0 C 13,4 C 4,8 km/h (1 Bft) 95,65 %
20.04.2018 02:39 13,3 C 12,8 C 71 % 1025,5 hPa 0,0 l/m 3,9 km/h (1 Bft) O 96 0 min 0,000 mm 0,0 UV-I 0 W/m 8,2 C 13,3 C 4,8 km/h (1 Bft) 95,83 %
20.04.2018 02:40 13,2 C 12,8 C 71 % 1025,5 hPa 0,0 l/m 3,6 km/h (1 Bft) O 96 0 min 0,000 mm 0,0 UV-I 0 W/m 8,1 C 13,2 C 4,8 km/h (1 Bft) 95,83 %
20.04.2018 02:41 13,1 C 12,8 C 71 % 1025,5 hPa 0,0 l/m 4,1 km/h (1 Bft) O 96 0 min 0,000 mm 0,0 UV-I 0 W/m 8,0 C 13,1 C 4,8 km/h (1 Bft) 95,65 %
20.04.2018 02:42 13,0 C 12,8 C 72 % 1025,4 hPa 0,0 l/m 3,0 km/h (1 Bft) O 96 0 min 0,000 mm 0,0 UV-I 0 W/m 8,1 C 13,0 C 3,2 km/h (1 Bft) 93,33 %
20.04.2018 02:43 12,9 C 12,8 C 73 % 1025,4 hPa 0,0 l/m 3,1 km/h (1 Bft) O 96 0 min 0,000 mm 0,0 UV-I 0 W/m 8,2 C 12,9 C 3,2 km/h (1 Bft) 93,10 %
20.04.2018 02:44 12,9 C 12,8 C 73 % 1025,5 hPa 0,0 l/m 2,8 km/h (1 Bft) O 96 0 min 0,000 mm 0,0 UV-I 0 W/m 8,2 C 12,9 C 4,8 km/h (1 Bft) 100,00 %
20.04.2018 02:45 12,8 C 12,8 C 73 % 1025,4 hPa 0,0 l/m 3,0 km/h (1 Bft) O 96 0 min 0,000 mm 0,0 UV-I 0 W/m 8,1 C 12,8 C 3,2 km/h (1 Bft) 91,30 %
20.04.2018 02:46 12,8 C 12,8 C 73 % 1025,4 hPa 0,0 l/m 2,8 km/h (1 Bft) O 96 0 min 0,000 mm 0,0 UV-I 0 W/m 8,1 C 12,8 C 3,2 km/h (1 Bft) 100,00 %
20.04.2018 02:47 12,8 C 12,8 C 73 % 1025,4 hPa 0,0 l/m 2,9 km/h (1 Bft) O 96 0 min 0,000 mm 0,0 UV-I 0 W/m 8,1 C 12,8 C 3,2 km/h (1 Bft) 91,30 %
20.04.2018 02:48 12,8 C 12,8 C 73 % 1025,4 hPa 0,0 l/m 2,9 km/h (1 Bft) O 96 0 min 0,000 mm 0,0 UV-I 0 W/m 8,1 C 12,8 C 4,8 km/h (1 Bft) 95,83 %
20.04.2018 02:49 12,8 C 12,8 C 73 % 1025,4 hPa 0,0 l/m 2,7 km/h (1 Bft) O 96 0 min 0,000 mm 0,0 UV-I 0 W/m 8,1 C 12,8 C 3,2 km/h (1 Bft) 96,15 %
20.04.2018 02:50 12,8 C 12,8 C 73 % 1025,4 hPa 0,0 l/m 2,6 km/h (1 Bft) O 96 0 min 0,000 mm 0,0 UV-I 0 W/m 8,1 C 12,8 C 3,2 km/h (1 Bft) 88,89 %
20.04.2018 02:51 12,8 C 12,8 C 73 % 1025,3 hPa 0,0 l/m 2,3 km/h (1 Bft) O 96 0 min 0,000 mm 0,0 UV-I 0 W/m 8,1 C 12,8 C 3,2 km/h (1 Bft) 100,00 %
20.04.2018 02:52 12,8 C 12,8 C 73 % 1025,3 hPa 0,0 l/m 3,0 km/h (1 Bft) O 96 0 min 0,000 mm 0,0 UV-I 0 W/m 8,1 C 12,8 C 3,2 km/h (1 Bft) 91,67 %
20.04.2018 02:53 12,7 C 12,8 C 73 % 1025,4 hPa 0,0 l/m 3,2 km/h (1 Bft) O 96 0 min 0,000 mm 0,0 UV-I 0 W/m 8,0 C 12,7 C 4,8 km/h (1 Bft) 98,09 %
20.04.2018 02:54 12,7 C 12,8 C 73 % 1025,4 hPa 0,0 l/m 2,4 km/h (1 Bft) O 96 0 min 0,000 mm 0,0 UV-I 0 W/m 8,0 C 12,7 C 3,2 km/h (1 Bft) 92,11 %
20.04.2018 02:55 12,7 C 12,8 C 74 % 1025,4 hPa 0,0 l/m 2,8 km/h (1 Bft) O 96 0 min 0,000 mm 0,0 UV-I 0 W/m 8,2 C 12,7 C 4,8 km/h (1 Bft) 100,00 %
20.04.2018 02:56 12,6 C 12,8 C 74 % 1025,4 hPa 0,0 l/m 3,0 km/h (1 Bft) O 96 0 min 0,000 mm 0,0 UV-I 0 W/m 8,1 C 12,6 C 3,2 km/h (1 Bft) 92,59 %
20.04.2018 02:57 12,6 C 12,8 C 74 % 1025,4 hPa 0,0 l/m 3,4 km/h (1 Bft) O 96 0 min 0,000 mm 0,0 UV-I 0 W/m 8,1 C 12,6 C 4,8 km/h (1 Bft) 95,65 %
20.04.2018 02:58 12,5 C 12,8 C 74 % 1025,4 hPa 0,0 l/m 3,8 km/h (1 Bft) O 96 0 min 0,000 mm 0,0 UV-I 0 W/m 8,0 C 12,5 C 4,8 km/h (1 Bft) 96,30 %
20.04.2018 02:59 12,4 C 12,8 C 74 % 1025,3 hPa 0,0 l/m 4,0 km/h (1 Bft) O 96 0 min 0,000 mm 0,0 UV-I 0 W/m 7,9 C 12,4 C 4,8 km/h (1 Bft) 91,30 %
20.04.2018 03:00 12,4 C 12,8 C 74 % 1025,3 hPa 0,0 l/m 3,7 km/h (1 Bft) O 96 0 min 0,025 mm 0,0 UV-I 0 W/m 7,9 C 12,4 C 4,8 km/h (1 Bft) 100,00 %
20.04.2018 03:01 12,4 C 12,8 C 75 % 1025,3 hPa 0,0 l/m 3,9 km/h (1 Bft) O 96 0 min 0,000 mm 0,0 UV-I 0 W/m 8,1 C 12,4 C 4,8 km/h (1 Bft) 91,67 %
20.04.2018 03:02 12,4 C 12,8 C 74 % 1025,3 hPa 0,0 l/m 3,4 km/h (1 Bft) O 96 0 min 0,000 mm 0,0 UV-I 0 W/m 7,9 C 12,4 C 4,8 km/h (1 Bft) 100,00 %
20.04.2018 03:03 12,4 C 12,8 C 74 % 1025,3 hPa 0,0 l/m 3,0 km/h (1 Bft) O 96 0 min 0,000 mm 0,0 UV-I 0 W/m 7,9 C 12,4 C 3,2 km/h (1 Bft) 93,33 %
20.04.2018 03:04 12,5 C 12,8 C 74 % 1025,3 hPa 0,0 l/m 2,7 km/h (1 Bft) O 96 0 min 0,000 mm 0,0 UV-I 0 W/m 8,0 C 12,5 C 3,2 km/h (1 Bft) 100,00 %
20.04.2018 03:05 12,6 C 12,8 C 74 % 1025,3 hPa 0,0 l/m 2,9 km/h (1 Bft) O 96 0 min 0,000 mm 0,0 UV-I 0 W/m 8,1 C 12,6 C 3,2 km/h (1 Bft) 92,59 %
20.04.2018 03:06 12,6 C 12,8 C 74 % 1025,3 hPa 0,0 l/m 3,0 km/h (1 Bft) O 96 0 min 0,000 mm 0,0 UV-I 0 W/m 8,1 C 12,6 C 3,2 km/h (1 Bft) 95,65 %
20.04.2018 03:07 12,6 C 12,8 C 74 % 1025,3 hPa 0,0 l/m 3,1 km/h (1 Bft) O 96 0 min 0,000 mm 0,0 UV-I 0 W/m 8,1 C 12,6 C 3,2 km/h (1 Bft) 95,83 %
20.04.2018 03:08 12,6 C 12,8 C 74 % 1025,3 hPa 0,0 l/m 2,7 km/h (1 Bft) O 96 0 min 0,000 mm 0,0 UV-I 0 W/m 8,1 C 12,6 C 3,2 km/h (1 Bft) 100,00 %
20.04.2018 03:09 12,6 C 12,8 C 74 % 1025,3 hPa 0,0 l/m 2,8 km/h (1 Bft) O 96 0 min 0,000 mm 0,0 UV-I 0 W/m 8,1 C 12,6 C 3,2 km/h (1 Bft) 96,67 %
20.04.2018 03:10 12,5 C 12,8 C 74 % 1025,3 hPa 0,0 l/m 3,2 km/h (1 Bft) O 96 0 min 0,000 mm 0,0 UV-I 0 W/m 8,0 C 12,5 C 3,2 km/h (1 Bft) 96,15 %
20.04.2018 03:11 12,5 C 12,8 C 74 % 1025,3 hPa 0,0 l/m 3,2 km/h (1 Bft) O 96 0 min 0,000 mm 0,0 UV-I 0 W/m 8,0 C 12,5 C 3,2 km/h (1 Bft) 100,00 %
20.04.2018 03:12 12,5 C 12,8 C 74 % 1025,3 hPa 0,0 l/m 3,1 km/h (1 Bft) O 96 0 min 0,000 mm 0,0 UV-I 0 W/m 8,0 C 12,5 C 3,2 km/h (1 Bft) 95,65 %
20.04.2018 03:13 12,5 C 12,8 C 75 % 1025,3 hPa 0,0 l/m 3,8 km/h (1 Bft) O 96 0 min 0,000 mm 0,0 UV-I 0 W/m 8,2 C 12,5 C 4,8 km/h (1 Bft) 97,84 %
20.04.2018 03:14 12,6 C 12,8 C 74 % 1025,3 hPa 0,0 l/m 3,9 km/h (1 Bft) O 96 0 min 0,000 mm 0,0 UV-I 0 W/m 8,1 C 12,6 C 4,8 km/h (1 Bft) 95,45 %
20.04.2018 03:15 12,6 C 12,8 C 74 % 1025,2 hPa 0,0 l/m 2,7 km/h (1 Bft) O 96 0 min 0,000 mm 0,0 UV-I 0 W/m 8,1 C 12,6 C 4,8 km/h (1 Bft) 95,83 %
20.04.2018 03:16 12,6 C 12,8 C 74 % 1025,2 hPa 0,0 l/m 3,2 km/h (1 Bft) O 96 0 min 0,000 mm 0,0 UV-I 0 W/m 8,1 C 12,6 C 4,8 km/h (1 Bft) 91,67 %
20.04.2018 03:17 12,7 C 12,8 C 74 % 1025,2 hPa 0,0 l/m 3,2 km/h (1 Bft) O 96 0 min 0,000 mm 0,0 UV-I 0 W/m 8,2 C 12,7 C 3,2 km/h (1 Bft) 96,55 %
20.04.2018 03:18 12,7 C 12,8 C 74 % 1025,2 hPa 0,0 l/m 3,6 km/h (1 Bft) O 96 0 min 0,000 mm 0,0 UV-I 0 W/m 8,2 C 12,7 C 4,8 km/h (1 Bft) 95,83 %
20.04.2018 03:19 12,6 C 12,8 C 74 % 1025,2 hPa 0,0 l/m 2,8 km/h (1 Bft) O 96 0 min 0,000 mm 0,0 UV-I 0 W/m 8,1 C 12,6 C 4,8 km/h (1 Bft) 100,00 %
20.04.2018 03:20 12,6 C 12,8 C 74 % 1025,2 hPa 0,0 l/m 3,1 km/h (1 Bft) O 96 0 min 0,000 mm 0,0 UV-I 0 W/m 8,1 C 12,6 C 4,8 km/h (1 Bft) 95,83 %
20.04.2018 03:21 12,6 C 12,8 C 74 % 1025,2 hPa 0,0 l/m 3,8 km/h (1 Bft) O 96 0 min 0,000 mm 0,0 UV-I 0 W/m 8,1 C 12,6 C 4,8 km/h (1 Bft) 96,15 %
20.04.2018 03:22 12,4 C 12,8 C 74 % 1025,2 hPa 0,0 l/m 4,0 km/h (1 Bft) O 96 0 min 0,000 mm 0,0 UV-I 0 W/m 7,9 C 12,4 C 4,8 km/h (1 Bft) 100,00 %
20.04.2018 03:23 12,3 C 12,8 C 75 % 1025,2 hPa 0,0 l/m 3,5 km/h (1 Bft) O 96 0 min 0,000 mm 0,0 UV-I 0 W/m 8,0 C 12,3 C 4,8 km/h (1 Bft) 95,65 %
20.04.2018 03:24 12,3 C 12,8 C 75 % 1025,1 hPa 0,0 l/m 3,9 km/h (1 Bft) O 96 0 min 0,000 mm 0,0 UV-I 0 W/m 8,0 C 12,3 C 4,8 km/h (1 Bft) 100,00 %
20.04.2018 03:25 12,3 C 12,8 C 75 % 1025,2 hPa 0,0 l/m 4,0 km/h (1 Bft) O 95 0 min 0,000 mm 0,0 UV-I 0 W/m 8,0 C 12,3 C 6,4 km/h (2 Bft) 95,65 %
20.04.2018 03:26 12,3 C 12,8 C 75 % 1025,2 hPa 0,0 l/m 3,6 km/h (1 Bft) O 94 0 min 0,000 mm 0,0 UV-I 0 W/m 8,0 C 12,3 C 6,4 km/h (2 Bft) 100,00 %
20.04.2018 03:27 12,3 C 12,8 C 75 % 1025,2 hPa 0,0 l/m 2,7 km/h (1 Bft) O 94 0 min 0,000 mm 0,0 UV-I 0 W/m 8,0 C 12,3 C 4,8 km/h (1 Bft) 95,65 %
20.04.2018 03:28 12,3 C 12,8 C 75 % 1025,2 hPa 0,0 l/m 3,0 km/h (1 Bft) O 94 0 min 0,000 mm 0,0 UV-I 0 W/m 8,0 C 12,3 C 3,2 km/h (1 Bft) 95,83 %
20.04.2018 03:29 12,3 C 12,8 C 75 % 1025,2 hPa 0,0 l/m 3,5 km/h (1 Bft) O 94 0 min 0,000 mm 0,0 UV-I 0 W/m 8,0 C 12,3 C 4,8 km/h (1 Bft) 100,00 %
20.04.2018 03:30 12,3 C 12,8 C 75 % 1025,2 hPa 0,0 l/m 3,1 km/h (1 Bft) O 94 0 min 0,000 mm 0,0 UV-I 0 W/m 8,0 C 12,3 C 3,2 km/h (1 Bft) 100,00 %
20.04.2018 03:31 12,2 C 12,8 C 75 % 1025,2 hPa 0,0 l/m 2,6 km/h (1 Bft) O 94 0 min 0,000 mm 0,0 UV-I 0 W/m 7,9 C 12,2 C 3,2 km/h (1 Bft) 95,65 %
20.04.2018 03:32 12,2 C 12,8 C 75 % 1025,2 hPa 0,0 l/m 3,1 km/h (1 Bft) O 94 0 min 0,000 mm 0,0 UV-I 0 W/m 7,9 C 12,2 C 4,8 km/h (1 Bft) 95,83 %
20.04.2018 03:33 12,2 C 12,8 C 75 % 1025,2 hPa 0,0 l/m 3,2 km/h (1 Bft) O 94 0 min 0,000 mm 0,0 UV-I 0 W/m 7,9 C 12,2 C 4,8 km/h (1 Bft) 100,00 %
20.04.2018 03:34 12,1 C 12,8 C 76 % 1025,2 hPa 0,0 l/m 3,2 km/h (1 Bft) O 92 0 min 0,000 mm 0,0 UV-I 0 W/m 8,0 C 12,1 C 4,8 km/h (1 Bft) 95,65 %
20.04.2018 03:35 12,1 C 12,8 C 76 % 1025,2 hPa 0,0 l/m 4,9 km/h (1 Bft) O-NO 71 0 min 0,000 mm 0,0 UV-I 0 W/m 8,0 C 12,1 C 6,4 km/h (2 Bft) 100,00 %
20.04.2018 03:36 12,0 C 12,8 C 76 % 1025,2 hPa 0,0 l/m 5,0 km/h (1 Bft) O-NO 65 0 min 0,000 mm 0,0 UV-I 0 W/m 7,9 C 12,0 C 6,4 km/h (2 Bft) 95,83 %
20.04.2018 03:37 11,9 C 12,8 C 76 % 1025,2 hPa 0,0 l/m 4,2 km/h (1 Bft) O-NO 65 0 min 0,000 mm 0,0 UV-I 0 W/m 7,8 C 11,9 C 6,4 km/h (2 Bft) 100,00 %
20.04.2018 03:38 11,9 C 12,8 C 76 % 1025,2 hPa 0,0 l/m 4,1 km/h (1 Bft) O-NO 65 0 min 0,000 mm 0,0 UV-I 0 W/m 7,8 C 11,9 C 4,8 km/h (1 Bft) 100,00 %
20.04.2018 03:39 11,8 C 12,8 C 77 % 1025,2 hPa 0,0 l/m 3,3 km/h (1 Bft) O-NO 65 0 min 0,000 mm 0,0 UV-I 0 W/m 7,9 C 11,8 C 4,8 km/h (1 Bft) 96,97 %
20.04.2018 03:40 11,8 C 12,8 C 77 % 1025,1 hPa 0,0 l/m 3,8 km/h (1 Bft) O-NO 65 0 min 0,000 mm 0,0 UV-I 0 W/m 7,9 C 11,8 C 4,8 km/h (1 Bft) 100,00 %
20.04.2018 03:41 11,9 C 12,8 C 77 % 1025,1 hPa 0,0 l/m 2,7 km/h (1 Bft) O-NO 65 0 min 0,000 mm 0,0 UV-I 0 W/m 8,0 C 11,9 C 3,2 km/h (1 Bft) 95,83 %
20.04.2018 03:42 11,8 C 12,8 C 76 % 1025,1 hPa 0,0 l/m 2,9 km/h (1 Bft) O-NO 65 0 min 0,000 mm 0,0 UV-I 0 W/m 7,7 C 11,8 C 4,8 km/h (1 Bft) 100,00 %
20.04.2018 03:43 11,7 C 12,8 C 77 % 1025,1 hPa 0,0 l/m 3,6 km/h (1 Bft) O-NO 65 0 min 0,000 mm 0,0 UV-I 0 W/m 7,8 C 11,7 C 4,8 km/h (1 Bft) 100,00 %
20.04.2018 03:44 11,6 C 12,8 C 77 % 1025,1 hPa 0,0 l/m 3,4 km/h (1 Bft) O-NO 65 0 min 0,000 mm 0,0 UV-I 0 W/m 7,7 C 11,6 C 4,8 km/h (1 Bft) 100,00 %
20.04.2018 03:45 11,5 C 12,8 C 78 % 1025,1 hPa 0,0 l/m 3,7 km/h (1 Bft) O-NO 65 0 min 0,000 mm 0,0 UV-I 0 W/m 7,8 C 11,5 C 4,8 km/h (1 Bft) 100,00 %
20.04.2018 03:46 11,4 C 12,8 C 78 % 1025,1 hPa 0,0 l/m 3,7 km/h (1 Bft) O-NO 75 0 min 0,000 mm 0,0 UV-I 0 W/m 7,7 C 11,4 C 4,8 km/h (1 Bft) 100,00 %
20.04.2018 03:47 11,4 C 12,8 C 78 % 1025,1 hPa 0,0 l/m 3,5 km/h (1 Bft) O-NO 75 0 min 0,000 mm 0,0 UV-I 0 W/m 7,7 C 11,4 C 4,8 km/h (1 Bft) 100,00 %
20.04.2018 03:48 11,3 C 12,8 C 78 % 1025,1 hPa 0,0 l/m 3,9 km/h (1 Bft) O-NO 75 0 min 0,000 mm 0,0 UV-I 0 W/m 7,6 C 11,3 C 4,8 km/h (1 Bft) 100,00 %
20.04.2018 03:49 11,3 C 12,8 C 78 % 1025,1 hPa 0,0 l/m 3,5 km/h (1 Bft) O-NO 75 0 min 0,000 mm 0,0 UV-I 0 W/m 7,6 C 11,3 C 4,8 km/h (1 Bft) 95,83 %
20.04.2018 03:50 11,2 C 12,8 C 79 % 1025,1 hPa 0,0 l/m 3,8 km/h (1 Bft) O-NO 75 0 min 0,000 mm 0,0 UV-I 0 W/m 7,7 C 11,2 C 4,8 km/h (1 Bft) 100,00 %
20.04.2018 03:51 11,2 C 12,8 C 79 % 1025,1 hPa 0,0 l/m 3,8 km/h (1 Bft) O-NO 75 0 min 0,000 mm 0,0 UV-I 0 W/m 7,7 C 11,2 C 4,8 km/h (1 Bft) 100,00 %
20.04.2018 03:52 11,2 C 12,8 C 79 % 1025,1 hPa 0,0 l/m 3,8 km/h (1 Bft) O-NO 75 0 min 0,000 mm 0,0 UV-I 0 W/m 7,7 C 11,2 C 4,8 km/h (1 Bft) 100,00 %
20.04.2018 03:53 11,3 C 12,8 C 79 % 1025,1 hPa 0,0 l/m 4,4 km/h (1 Bft) O-NO 75 0 min 0,000 mm 0,0 UV-I 0 W/m 7,8 C 11,3 C 4,8 km/h (1 Bft) 97,73 %
20.04.2018 03:54 11,6 C 12,8 C 79 % 1025,1 hPa 0,0 l/m 3,7 km/h (1 Bft) O-NO 74 0 min 0,000 mm 0,0 UV-I 0 W/m 8,1 C 11,6 C 4,8 km/h (1 Bft) 100,00 %
20.04.2018 03:55 11,7 C 12,8 C 78 % 1025,1 hPa 0,0 l/m 4,4 km/h (1 Bft) O-NO 74 0 min 0,000 mm 0,0 UV-I 0 W/m 8,0 C 11,7 C 6,4 km/h (2 Bft) 100,00 %
20.04.2018 03:56 11,8 C 12,8 C 78 % 1025,1 hPa 0,0 l/m 4,3 km/h (1 Bft) O 86 0 min 0,000 mm 0,0 UV-I 0 W/m 8,1 C 11,8 C 4,8 km/h (1 Bft) 100,00 %
20.04.2018 03:57 11,9 C 12,8 C 78 % 1025,1 hPa 0,0 l/m 3,9 km/h (1 Bft) O 85 0 min 0,000 mm 0,0 UV-I 0 W/m 8,2 C 11,9 C 6,4 km/h (2 Bft) 100,00 %
20.04.2018 03:58 11,9 C 12,8 C 77 % 1025,1 hPa 0,0 l/m 3,6 km/h (1 Bft) O 85 0 min 0,000 mm 0,0 UV-I 0 W/m 8,0 C 11,9 C 4,8 km/h (1 Bft) 100,00 %
20.04.2018 03:59 11,9 C 12,8 C 77 % 1025,1 hPa 0,0 l/m 4,5 km/h (1 Bft) O 82 0 min 0,000 mm 0,0 UV-I 0 W/m 8,0 C 11,9 C 6,4 km/h (2 Bft) 100,00 %
20.04.2018 04:00 11,9 C 12,8 C 77 % 1025,1 hPa 0,0 l/m 4,8 km/h (1 Bft) O 82 0 min 0,026 mm 0,0 UV-I 0 W/m 8,0 C 11,9 C 6,4 km/h (2 Bft) 100,00 %
20.04.2018 04:02 11,9 C 12,8 C 77 % 1025,1 hPa 0,0 l/m 4,9 km/h (1 Bft) O 80 0 min 0,000 mm 0,0 UV-I 0 W/m 8,0 C 11,9 C 6,4 km/h (2 Bft) 95,83 %
20.04.2018 04:04 11,9 C 12,8 C 77 % 1025,1 hPa 0,0 l/m 4,8 km/h (1 Bft) O 80 0 min 0,000 mm 0,0 UV-I 0 W/m 8,0 C 11,9 C 6,4 km/h (2 Bft) 100,00 %
20.04.2018 04:05 11,8 C 12,8 C 77 % 1025,1 hPa 0,0 l/m 4,8 km/h (1 Bft) O 80 0 min 0,000 mm 0,0 UV-I 0 W/m 7,9 C 11,8 C 6,4 km/h (2 Bft) 100,00 %
20.04.2018 04:06 11,8 C 12,8 C 77 % 1025,1 hPa 0,0 l/m 4,0 km/h (1 Bft) O-NO 78 0 min 0,000 mm 0,0 UV-I 0 W/m 7,9 C 11,8 C 6,4 km/h (2 Bft) 100,00 %
20.04.2018 04:07 11,8 C 12,8 C 77 % 1025,1 hPa 0,0 l/m 4,2 km/h (1 Bft) O-NO 76 0 min 0,000 mm 0,0 UV-I 0 W/m 7,9 C 11,8 C 6,4 km/h (2 Bft) 100,00 %
20.04.2018 04:08 11,7 C 12,8 C 77 % 1025,1 hPa 0,0 l/m 5,3 km/h (1 Bft) O 96 0 min 0,000 mm 0,0 UV-I 0 W/m 7,8 C 11,7 C 8,0 km/h (2 Bft) 100,00 %
20.04.2018 04:09 11,7 C 12,8 C 77 % 1025,1 hPa 0,0 l/m 5,9 km/h (2 Bft) O 98 0 min 0,000 mm 0,0 UV-I 0 W/m 7,8 C 11,7 C 6,4 km/h (2 Bft) 100,00 %
20.04.2018 04:10 11,6 C 12,8 C 78 % 1025,1 hPa 0,0 l/m 6,2 km/h (2 Bft) O 88 0 min 0,000 mm 0,0 UV-I 0 W/m 7,9 C 11,6 C 9,7 km/h (2 Bft) 100,00 %
20.04.2018 04:11 11,4 C 12,8 C 78 % 1025,1 hPa 0,0 l/m 8,0 km/h (2 Bft) O 92 0 min 0,000 mm 0,0 UV-I 0 W/m 7,7 C 10,3 C 9,7 km/h (2 Bft) 100,00 %
20.04.2018 04:12 11,3 C 12,8 C 79 % 1025,1 hPa 0,0 l/m 6,0 km/h (2 Bft) O-SO 107 0 min 0,000 mm 0,0 UV-I 0 W/m 7,8 C 11,3 C 6,4 km/h (2 Bft) 100,00 %
20.04.2018 04:13 11,3 C 12,8 C 79 % 1025,1 hPa 0,0 l/m 6,7 km/h (2 Bft) O-SO 107 0 min 0,000 mm 0,0 UV-I 0 W/m 7,8 C 11,1 C 9,7 km/h (2 Bft) 99,62 %
20.04.2018 04:14 11,4 C 12,8 C 79 % 1025,2 hPa 0,0 l/m 7,3 km/h (2 Bft) O 99 0 min 0,000 mm 0,0 UV-I 0 W/m 7,9 C 10,8 C 9,7 km/h (2 Bft) 100,00 %
20.04.2018 04:15 11,5 C 12,8 C 79 % 1025,1 hPa 0,0 l/m 6,7 km/h (2 Bft) O-SO 116 0 min 0,000 mm 0,0 UV-I 0 W/m 8,0 C 11,3 C 9,7 km/h (2 Bft) 96,30 %
20.04.2018 04:16 11,5 C 12,8 C 79 % 1025,2 hPa 0,0 l/m 4,3 km/h (1 Bft) O-SO 104 0 min 0,000 mm 0,0 UV-I 0 W/m 8,0 C 11,5 C 4,8 km/h (1 Bft) 100,00 %
20.04.2018 04:17 11,5 C 12,8 C 79 % 1025,1 hPa 0,0 l/m 3,8 km/h (1 Bft) O-SO 107 0 min 0,000 mm 0,0 UV-I 0 W/m 8,0 C 11,5 C 6,4 km/h (2 Bft) 100,00 %
20.04.2018 04:18 11,6 C 12,8 C 79 % 1025,1 hPa 0,0 l/m 5,0 km/h (1 Bft) SO 126 0 min 0,000 mm 0,0 UV-I 0 W/m 8,1 C 11,6 C 8,0 km/h (2 Bft) 96,15 %
20.04.2018 04:19 11,7 C 12,8 C 79 % 1025,2 hPa 0,0 l/m 6,2 km/h (2 Bft) O-SO 123 0 min 0,000 mm 0,0 UV-I 0 W/m 8,2 C 11,7 C 9,7 km/h (2 Bft) 93,33 %
20.04.2018 04:20 11,7 C 12,8 C 78 % 1025,1 hPa 0,0 l/m 5,8 km/h (2 Bft) O-SO 108 0 min 0,000 mm 0,0 UV-I 0 W/m 8,0 C 11,7 C 11,3 km/h (2 Bft) 100,00 %
20.04.2018 04:21 11,8 C 12,8 C 78 % 1025,2 hPa 0,0 l/m 5,5 km/h (1 Bft) O 101 0 min 0,000 mm 0,0 UV-I 0 W/m 8,1 C 11,8 C 9,7 km/h (2 Bft) 100,00 %
20.04.2018 04:22 11,8 C 12,8 C 78 % 1025,1 hPa 0,0 l/m 6,0 km/h (2 Bft) O-SO 102 0 min 0,000 mm 0,0 UV-I 0 W/m 8,1 C 11,8 C 11,3 km/h (2 Bft) 100,00 %
20.04.2018 04:23 11,8 C 12,8 C 78 % 1025,1 hPa 0,0 l/m 8,8 km/h (2 Bft) O-SO 112 0 min 0,000 mm 0,0 UV-I 0 W/m 8,1 C 10,3 C 12,9 km/h (3 Bft) 100,00 %
20.04.2018 04:24 11,8 C 12,8 C 78 % 1025,1 hPa 0,0 l/m 7,0 km/h (2 Bft) O 85 0 min 0,000 mm 0,0 UV-I 0 W/m 8,1 C 11,4 C 9,7 km/h (2 Bft) 100,00 %
20.04.2018 04:25 11,8 C 12,8 C 78 % 1025,1 hPa 0,0 l/m 8,8 km/h (2 Bft) O-SO 105 0 min 0,000 mm 0,0 UV-I 0 W/m 8,1 C 10,3 C 11,3 km/h (2 Bft) 100,00 %
20.04.2018 04:26 11,8 C 12,8 C 78 % 1025,1 hPa 0,0 l/m 7,9 km/h (2 Bft) O-SO 103 0 min 0,000 mm 0,0 UV-I 0 W/m 8,1 C 10,8 C 11,3 km/h (2 Bft) 99,30 %
20.04.2018 04:27 11,9 C 12,8 C 78 % 1025,1 hPa 0,0 l/m 7,3 km/h (2 Bft) O 89 0 min 0,000 mm 0,0 UV-I 0 W/m 8,2 C 11,3 C 11,3 km/h (2 Bft) 100,00 %
20.04.2018 04:28 12,0 C 12,8 C 77 % 1025,1 hPa 0,0 l/m 9,8 km/h (2 Bft) O 98 0 min 0,000 mm 0,0 UV-I 0 W/m 8,1 C 9,9 C 11,3 km/h (2 Bft) 100,00 %
20.04.2018 04:29 12,0 C 12,8 C 77 % 1025,1 hPa 0,0 l/m 8,7 km/h (2 Bft) O-SO 104 0 min 0,000 mm 0,0 UV-I 0 W/m 8,1 C 10,5 C 11,3 km/h (2 Bft) 100,00 %
20.04.2018 04:30 12,1 C 12,8 C 77 % 1025,1 hPa 0,0 l/m 8,8 km/h (2 Bft) O-SO 105 0 min 0,000 mm 0,0 UV-I 0 W/m 8,2 C 10,6 C 11,3 km/h (2 Bft) 100,00 %
20.04.2018 04:31 12,1 C 12,8 C 77 % 1025,1 hPa 0,0 l/m 6,8 km/h (2 Bft) O-SO 107 0 min 0,000 mm 0,0 UV-I 0 W/m 8,2 C 11,8 C 9,7 km/h (2 Bft) 100,00 %
20.04.2018 04:32 12,1 C 12,8 C 77 % 1025,1 hPa 0,0 l/m 7,0 km/h (2 Bft) O-SO 103 0 min 0,000 mm 0,0 UV-I 0 W/m 8,2 C 11,7 C 9,7 km/h (2 Bft) 100,00 %
20.04.2018 04:33 11,9 C 12,8 C 77 % 1025,0 hPa 0,0 l/m 7,6 km/h (2 Bft) O 96 0 min 0,000 mm 0,0 UV-I 0 W/m 8,0 C 11,1 C 12,9 km/h (3 Bft) 100,00 %
20.04.2018 04:34 11,9 C 12,8 C 77 % 1025,0 hPa 0,0 l/m 9,7 km/h (2 Bft) O 96 0 min 0,000 mm 0,0 UV-I 0 W/m 8,0 C 9,9 C 11,3 km/h (2 Bft) 100,00 %
20.04.2018 04:35 11,9 C 12,8 C 77 % 1025,0 hPa 0,0 l/m 11,3 km/h (2 Bft) O-SO 110 0 min 0,000 mm 0,0 UV-I 0 W/m 8,0 C 9,0 C 12,9 km/h (3 Bft) 100,00 %
20.04.2018 04:36 11,8 C 12,8 C 77 % 1025,0 hPa 0,0 l/m 10,0 km/h (2 Bft) O-SO 105 0 min 0,000 mm 0,0 UV-I 0 W/m 7,9 C 9,6 C 12,9 km/h (3 Bft) 100,00 %
20.04.2018 04:37 11,8 C 12,8 C 77 % 1025,0 hPa 0,0 l/m 10,2 km/h (2 Bft) O 94 0 min 0,000 mm 0,0 UV-I 0 W/m 7,9 C 9,5 C 12,9 km/h (3 Bft) 100,00 %
20.04.2018 04:38 11,8 C 12,8 C 78 % 1025,0 hPa 0,0 l/m 11,4 km/h (2 Bft) O-SO 106 0 min 0,000 mm 0,0 UV-I 0 W/m 8,1 C 8,9 C 14,5 km/h (3 Bft) 100,00 %
20.04.2018 04:39 11,9 C 12,8 C 78 % 1025,0 hPa 0,0 l/m 11,1 km/h (2 Bft) O 93 0 min 0,000 mm 0,0 UV-I 0 W/m 8,2 C 9,1 C 12,9 km/h (3 Bft) 100,00 %
20.04.2018 04:40 11,9 C 12,8 C 77 % 1025,0 hPa 0,0 l/m 9,1 km/h (2 Bft) O-SO 108 0 min 0,000 mm 0,0 UV-I 0 W/m 8,0 C 10,2 C 12,9 km/h (3 Bft) 100,00 %
20.04.2018 04:41 11,9 C 12,8 C 77 % 1025,0 hPa 0,0 l/m 6,2 km/h (2 Bft) O-SO 117 0 min 0,000 mm 0,0 UV-I 0 W/m 8,0 C 11,9 C 11,3 km/h (2 Bft) 91,30 %
20.04.2018 04:42 11,9 C 12,8 C 77 % 1025,0 hPa 0,0 l/m 10,1 km/h (2 Bft) O 99 0 min 0,000 mm 0,0 UV-I 0 W/m 8,0 C 9,6 C 14,5 km/h (3 Bft) 100,00 %
20.04.2018 04:43 11,9 C 12,8 C 77 % 1025,0 hPa 0,0 l/m 8,3 km/h (2 Bft) O-SO 105 0 min 0,000 mm 0,0 UV-I 0 W/m 8,0 C 10,7 C 11,3 km/h (2 Bft) 100,00 %
20.04.2018 04:44 11,9 C 12,8 C 77 % 1024,9 hPa 0,0 l/m 8,5 km/h (2 Bft) O 96 0 min 0,000 mm 0,0 UV-I 0 W/m 8,0 C 10,5 C 12,9 km/h (3 Bft) 95,83 %
20.04.2018 04:45 11,9 C 12,8 C 77 % 1025,0 hPa 0,0 l/m 9,3 km/h (2 Bft) O 88 0 min 0,000 mm 0,0 UV-I 0 W/m 8,0 C 10,1 C 12,9 km/h (3 Bft) 95,65 %
20.04.2018 04:46 11,8 C 12,8 C 78 % 1025,0 hPa 0,0 l/m 8,7 km/h (2 Bft) O 92 0 min 0,000 mm 0,0 UV-I 0 W/m 8,1 C 10,3 C 11,3 km/h (2 Bft) 100,00 %
20.04.2018 04:47 11,8 C 12,8 C 78 % 1024,9 hPa 0,0 l/m 7,3 km/h (2 Bft) O-SO 106 0 min 0,000 mm 0,0 UV-I 0 W/m 8,1 C 11,2 C 11,3 km/h (2 Bft) 95,65 %
20.04.2018 04:48 11,8 C 12,8 C 78 % 1024,9 hPa 0,0 l/m 10,1 km/h (2 Bft) O 92 0 min 0,000 mm 0,0 UV-I 0 W/m 8,1 C 9,5 C 11,3 km/h (2 Bft) 100,00 %
20.04.2018 04:49 11,8 C 12,8 C 78 % 1024,9 hPa 0,0 l/m 8,2 km/h (2 Bft) O 82 0 min 0,000 mm 0,0 UV-I 0 W/m 8,1 C 10,6 C 11,3 km/h (2 Bft) 99,18 %
20.04.2018 04:50 11,9 C 12,8 C 78 % 1024,9 hPa 0,0 l/m 8,6 km/h (2 Bft) O 88 0 min 0,000 mm 0,0 UV-I 0 W/m 8,2 C 10,5 C 11,3 km/h (2 Bft) 95,45 %
20.04.2018 04:51 11,9 C 12,8 C 77 % 1024,9 hPa 0,0 l/m 6,4 km/h (2 Bft) O 92 0 min 0,000 mm 0,0 UV-I 0 W/m 8,0 C 11,9 C 9,7 km/h (2 Bft) 96,15 %
20.04.2018 04:52 11,9 C 12,8 C 77 % 1024,9 hPa 0,0 l/m 8,0 km/h (2 Bft) O 98 0 min 0,000 mm 0,0 UV-I 0 W/m 8,0 C 10,8 C 11,3 km/h (2 Bft) 95,83 %
20.04.2018 04:53 11,8 C 12,8 C 77 % 1024,9 hPa 0,0 l/m 6,3 km/h (2 Bft) O 85 0 min 0,000 mm 0,0 UV-I 0 W/m 7,9 C 11,8 C 9,7 km/h (2 Bft) 100,00 %
20.04.2018 04:54 11,8 C 12,8 C 77 % 1024,9 hPa 0,0 l/m 5,4 km/h (1 Bft) O-NO 71 0 min 0,000 mm 0,0 UV-I 0 W/m 7,9 C 11,8 C 6,4 km/h (2 Bft) 96,15 %
20.04.2018 04:55 11,8 C 12,8 C 77 % 1024,9 hPa 0,0 l/m 6,1 km/h (2 Bft) O-NO 74 0 min 0,000 mm 0,0 UV-I 0 W/m 7,9 C 11,8 C 8,0 km/h (2 Bft) 100,00 %
20.04.2018 04:56 11,8 C 12,8 C 77 % 1024,9 hPa 0,0 l/m 5,1 km/h (1 Bft) O 87 0 min 0,000 mm 0,0 UV-I 0 W/m 7,9 C 11,8 C 6,4 km/h (2 Bft) 95,65 %
20.04.2018 04:57 11,7 C 12,8 C 78 % 1024,9 hPa 0,0 l/m 5,7 km/h (1 Bft) O 98 0 min 0,000 mm 0,0 UV-I 0 W/m 8,0 C 11,7 C 8,0 km/h (2 Bft) 100,00 %
20.04.2018 04:58 11,7 C 12,8 C 77 % 1024,9 hPa 0,0 l/m 6,1 km/h (2 Bft) O 86 0 min 0,000 mm 0,0 UV-I 0 W/m 7,8 C 11,7 C 9,7 km/h (2 Bft) 96,15 %
20.04.2018 04:59 11,7 C 12,8 C 78 % 1024,9 hPa 0,0 l/m 5,3 km/h (1 Bft) O 90 0 min 0,000 mm 0,0 UV-I 0 W/m 8,0 C 11,7 C 9,7 km/h (2 Bft) 95,83 %
20.04.2018 05:00 11,7 C 12,8 C 78 % 1024,9 hPa 0,0 l/m 5,3 km/h (1 Bft) O 91 0 min 0,000 mm 0,0 UV-I 0 W/m 8,0 C 11,7 C 9,7 km/h (2 Bft) 95,65 %
20.04.2018 05:01 11,6 C 12,8 C 78 % 1024,9 hPa 0,0 l/m 4,7 km/h (1 Bft) O 85 0 min 0,025 mm 0,0 UV-I 0 W/m 7,9 C 11,6 C 6,4 km/h (2 Bft) 100,00 %
20.04.2018 05:02 11,6 C 12,8 C 78 % 1024,9 hPa 0,0 l/m 3,7 km/h (1 Bft) O 93 0 min 0,000 mm 0,0 UV-I 0 W/m 7,9 C 11,6 C 4,8 km/h (1 Bft) 96,15 %
20.04.2018 05:03 11,6 C 12,8 C 78 % 1024,9 hPa 0,0 l/m 4,5 km/h (1 Bft) O 82 0 min 0,000 mm 0,0 UV-I 0 W/m 7,9 C 11,6 C 4,8 km/h (1 Bft) 95,83 %
20.04.2018 05:04 11,5 C 12,8 C 78 % 1024,9 hPa 0,0 l/m 4,3 km/h (1 Bft) O 83 0 min 0,000 mm 0,0 UV-I 0 W/m 7,8 C 11,5 C 6,4 km/h (2 Bft) 100,00 %
20.04.2018 05:05 11,5 C 12,8 C 78 % 1024,8 hPa 0,0 l/m 3,5 km/h (1 Bft) O 83 0 min 0,000 mm 0,0 UV-I 0 W/m 7,8 C 11,5 C 4,8 km/h (1 Bft) 95,83 %
20.04.2018 05:06 11,4 C 12,8 C 78 % 1024,9 hPa 0,0 l/m 2,8 km/h (1 Bft) O 83 0 min 0,000 mm 0,0 UV-I 0 W/m 7,7 C 11,4 C 4,8 km/h (1 Bft) 100,00 %
20.04.2018 05:07 11,3 C 12,8 C 79 % 1024,9 hPa 0,0 l/m 4,3 km/h (1 Bft) O 83 0 min 0,000 mm 0,0 UV-I 0 W/m 7,8 C 11,3 C 4,8 km/h (1 Bft) 93,33 %
20.04.2018 05:08 11,3 C 12,8 C 79 % 1024,9 hPa 0,0 l/m 3,6 km/h (1 Bft) O 83 0 min 0,000 mm 0,0 UV-I 0 W/m 7,8 C 11,3 C 4,8 km/h (1 Bft) 96,67 %
20.04.2018 05:09 11,3 C 12,8 C 79 % 1024,9 hPa 0,0 l/m 4,1 km/h (1 Bft) O 83 0 min 0,000 mm 0,0 UV-I 0 W/m 7,8 C 11,3 C 4,8 km/h (1 Bft) 92,86 %
20.04.2018 05:10 11,2 C 12,8 C 79 % 1024,9 hPa 0,0 l/m 3,5 km/h (1 Bft) O 83 0 min 0,000 mm 0,0 UV-I 0 W/m 7,7 C 11,2 C 4,8 km/h (1 Bft) 97,56 %
20.04.2018 05:11 11,2 C 12,8 C 79 % 1024,9 hPa 0,0 l/m 4,7 km/h (1 Bft) O 94 0 min 0,000 mm 0,0 UV-I 0 W/m 7,7 C 11,2 C 4,8 km/h (1 Bft) 100,00 %
20.04.2018 05:12 11,1 C 12,8 C 79 % 1024,9 hPa 0,0 l/m 3,8 km/h (1 Bft) O 94 0 min 0,000 mm 0,0 UV-I 0 W/m 7,6 C 11,1 C 4,8 km/h (1 Bft) 91,30 %
20.04.2018 05:13 11,1 C 12,8 C 80 % 1024,9 hPa 0,0 l/m 3,6 km/h (1 Bft) O 94 0 min 0,000 mm 0,0 UV-I 0 W/m 7,8 C 11,1 C 4,8 km/h (1 Bft) 100,00 %
20.04.2018 05:14 10,9 C 12,8 C 80 % 1024,8 hPa 0,0 l/m 3,5 km/h (1 Bft) O 94 0 min 0,000 mm 0,0 UV-I 0 W/m 7,6 C 10,9 C 4,8 km/h (1 Bft) 96,67 %
20.04.2018 05:15 10,9 C 12,8 C 80 % 1024,9 hPa 0,0 l/m 3,9 km/h (1 Bft) O 94 0 min 0,000 mm 0,0 UV-I 0 W/m 7,6 C 10,9 C 4,8 km/h (1 Bft) 100,00 %
20.04.2018 05:16 10,9 C 12,8 C 80 % 1024,9 hPa 0,0 l/m 4,7 km/h (1 Bft) O 97 0 min 0,000 mm 0,0 UV-I 0 W/m 7,6 C 10,9 C 6,4 km/h (2 Bft) 96,30 %
20.04.2018 05:17 10,9 C 12,8 C 80 % 1024,9 hPa 0,0 l/m 2,9 km/h (1 Bft) O 97 0 min 0,000 mm 0,0 UV-I 0 W/m 7,6 C 10,9 C 3,2 km/h (1 Bft) 95,65 %
20.04.2018 05:18 10,8 C 12,8 C 80 % 1024,9 hPa 0,0 l/m 4,0 km/h (1 Bft) O 97 0 min 0,000 mm 0,0 UV-I 0 W/m 7,5 C 10,8 C 4,8 km/h (1 Bft) 100,00 %
20.04.2018 05:19 10,7 C 12,8 C 81 % 1024,9 hPa 0,0 l/m 2,0 km/h (1 Bft) O 97 0 min 0,000 mm 0,0 UV-I 0 W/m 7,6 C 10,7 C 4,8 km/h (1 Bft) 85,71 %
20.04.2018 05:20 10,5 C 12,8 C 81 % 1024,9 hPa 0,0 l/m 2,7 km/h (1 Bft) O-SO 107 0 min 0,000 mm 0,0 UV-I 0 W/m 7,4 C 10,5 C 4,8 km/h (1 Bft) 100,00 %
20.04.2018 05:21 10,4 C 12,8 C 82 % 1024,9 hPa 0,0 l/m 3,0 km/h (1 Bft) O-SO 107 0 min 0,000 mm 0,0 UV-I 0 W/m 7,5 C 10,4 C 4,8 km/h (1 Bft) 100,00 %
20.04.2018 05:22 10,3 C 12,8 C 82 % 1024,8 hPa 0,0 l/m 2,5 km/h (1 Bft) O-SO 107 0 min 0,000 mm 0,0 UV-I 0 W/m 7,4 C 10,3 C 3,2 km/h (1 Bft) 100,00 %
20.04.2018 05:23 10,2 C 12,8 C 83 % 1024,8 hPa 0,0 l/m 3,1 km/h (1 Bft) O-SO 107 0 min 0,000 mm 0,0 UV-I 0 W/m 7,4 C 10,2 C 3,2 km/h (1 Bft) 91,67 %
20.04.2018 05:24 10,1 C 12,8 C 83 % 1024,8 hPa 0,0 l/m 3,1 km/h (1 Bft) O-SO 107 0 min 0,000 mm 0,0 UV-I 0 W/m 7,3 C 10,1 C 4,8 km/h (1 Bft) 97,37 %
20.04.2018 05:25 10,1 C 12,8 C 83 % 1024,8 hPa 0,0 l/m 3,1 km/h (1 Bft) O-SO 107 0 min 0,000 mm 0,0 UV-I 0 W/m 7,3 C 10,1 C 4,8 km/h (1 Bft) 100,00 %
20.04.2018 05:26 10,0 C 12,8 C 84 % 1024,8 hPa 0,0 l/m 2,7 km/h (1 Bft) O-SO 105 0 min 0,000 mm 0,0 UV-I 0 W/m 7,4 C 10,0 C 4,8 km/h (1 Bft) 100,00 %
20.04.2018 05:27 10,0 C 12,8 C 84 % 1024,8 hPa 0,0 l/m 4,1 km/h (1 Bft) O-SO 105 0 min 0,000 mm 0,0 UV-I 0 W/m 7,4 C 10,0 C 4,8 km/h (1 Bft) 100,00 %
20.04.2018 05:28 10,2 C 12,8 C 84 % 1024,8 hPa 0,0 l/m 3,9 km/h (1 Bft) O 80 0 min 0,000 mm 0,0 UV-I 0 W/m 7,6 C 10,2 C 4,8 km/h (1 Bft) 95,83 %
20.04.2018 05:29 10,4 C 12,8 C 84 % 1024,8 hPa 0,0 l/m 3,3 km/h (1 Bft) O 80 0 min 0,000 mm 0,0 UV-I 0 W/m 7,8 C 10,4 C 4,8 km/h (1 Bft) 95,65 %
20.04.2018 05:30 10,6 C 12,8 C 83 % 1024,8 hPa 0,0 l/m 2,9 km/h (1 Bft) O 80 0 min 0,000 mm 0,0 UV-I 0 W/m 7,8 C 10,6 C 3,2 km/h (1 Bft) 100,00 %
20.04.2018 05:31 10,7 C 12,8 C 82 % 1024,8 hPa 0,0 l/m 3,1 km/h (1 Bft) O 80 0 min 0,000 mm 0,0 UV-I 0 W/m 7,8 C 10,7 C 4,8 km/h (1 Bft) 95,65 %
20.04.2018 05:32 10,8 C 12,8 C 81 % 1024,8 hPa 0,0 l/m 4,0 km/h (1 Bft) O 80 0 min 0,000 mm 0,0 UV-I 0 W/m 7,7 C 10,8 C 6,4 km/h (2 Bft) 95,83 %
20.04.2018 05:33 10,8 C 12,8 C 81 % 1024,8 hPa 0,0 l/m 3,0 km/h (1 Bft) O 80 0 min 0,000 mm 0,0 UV-I 0 W/m 7,7 C 10,8 C 4,8 km/h (1 Bft) 100,00 %
20.04.2018 05:34 10,8 C 12,8 C 81 % 1024,8 hPa 0,0 l/m 5,6 km/h (1 Bft) O-NO 74 0 min 0,000 mm 0,0 UV-I 0 W/m 7,7 C 10,8 C 8,0 km/h (2 Bft) 100,00 %
20.04.2018 05:35 10,9 C 12,8 C 81 % 1024,8 hPa 0,0 l/m 3,9 km/h (1 Bft) O 82 0 min 0,000 mm 0,0 UV-I 0 W/m 7,8 C 10,9 C 4,8 km/h (1 Bft) 100,00 %
20.04.2018 05:36 11,0 C 12,8 C 81 % 1024,8 hPa 0,0 l/m 5,1 km/h (1 Bft) O 92 0 min 0,000 mm 0,0 UV-I 0 W/m 7,9 C 11,0 C 6,4 km/h (2 Bft) 100,00 %
20.04.2018 05:37 10,9 C 12,8 C 80 % 1024,7 hPa 0,0 l/m 3,7 km/h (1 Bft) O 86 0 min 0,000 mm 0,0 UV-I 0 W/m 7,6 C 10,9 C 4,8 km/h (1 Bft) 100,00 %
20.04.2018 05:38 10,8 C 12,8 C 81 % 1024,7 hPa 0,0 l/m 4,8 km/h (1 Bft) O 90 0 min 0,000 mm 0,0 UV-I 0 W/m 7,7 C 10,8 C 6,4 km/h (2 Bft) 96,15 %
20.04.2018 05:39 10,8 C 12,8 C 81 % 1024,7 hPa 0,0 l/m 4,7 km/h (1 Bft) O 101 0 min 0,000 mm 0,0 UV-I 0 W/m 7,7 C 10,8 C 6,4 km/h (2 Bft) 100,00 %
20.04.2018 05:40 10,8 C 12,8 C 81 % 1024,7 hPa 0,0 l/m 5,9 km/h (2 Bft) O 100 0 min 0,000 mm 0,0 UV-I 0 W/m 7,7 C 10,8 C 6,4 km/h (2 Bft) 100,00 %
20.04.2018 05:41 10,8 C 12,8 C 81 % 1024,7 hPa 0,0 l/m 5,0 km/h (1 Bft) O 86 0 min 0,000 mm 0,0 UV-I 0 W/m 7,7 C 10,8 C 6,4 km/h (2 Bft) 96,30 %
20.04.2018 05:42 10,7 C 12,8 C 81 % 1024,7 hPa 0,0 l/m 5,4 km/h (1 Bft) O 94 0 min 0,000 mm 0,0 UV-I 0 W/m 7,6 C 10,7 C 6,4 km/h (2 Bft) 100,00 %
20.04.2018 05:43 10,7 C 12,8 C 81 % 1024,6 hPa 0,0 l/m 6,6 km/h (2 Bft) O 86 0 min 0,000 mm 0,0 UV-I 0 W/m 7,6 C 10,6 C 9,7 km/h (2 Bft) 98,30 %
20.04.2018 05:44 10,7 C 12,8 C 81 % 1024,6 hPa 0,0 l/m 5,3 km/h (1 Bft) O 90 0 min 0,000 mm 0,0 UV-I 0 W/m 7,6 C 10,7 C 9,7 km/h (2 Bft) 98,18 %
20.04.2018 05:45 10,7 C 12,8 C 81 % 1024,7 hPa 0,0 l/m 5,2 km/h (1 Bft) O 90 0 min 0,000 mm 0,0 UV-I 0 W/m 7,6 C 10,7 C 6,4 km/h (2 Bft) 100,00 %
20.04.2018 05:46 10,7 C 12,8 C 81 % 1024,7 hPa 0,0 l/m 5,8 km/h (2 Bft) O 94 0 min 0,000 mm 0,0 UV-I 0 W/m 7,6 C 10,7 C 6,4 km/h (2 Bft) 100,00 %
20.04.2018 05:47 10,6 C 12,8 C 81 % 1024,7 hPa 0,0 l/m 4,2 km/h (1 Bft) O 93 0 min 0,000 mm 0,0 UV-I 0 W/m 7,5 C 10,6 C 4,8 km/h (1 Bft) 100,00 %
20.04.2018 05:48 10,6 C 12,8 C 82 % 1024,7 hPa 0,0 l/m 5,2 km/h (1 Bft) O-SO 105 0 min 0,000 mm 0,0 UV-I 0 W/m 7,7 C 10,6 C 6,4 km/h (2 Bft) 100,00 %
20.04.2018 05:49 10,7 C 12,8 C 82 % 1024,6 hPa 0,0 l/m 4,3 km/h (1 Bft) O 94 0 min 0,000 mm 0,0 UV-I 0 W/m 7,8 C 10,7 C 6,4 km/h (2 Bft) 100,00 %
20.04.2018 05:50 10,7 C 12,8 C 81 % 1024,6 hPa 0,0 l/m 4,9 km/h (1 Bft) O 92 0 min 0,000 mm 0,0 UV-I 0 W/m 7,6 C 10,7 C 9,7 km/h (2 Bft) 100,00 %
20.04.2018 05:51 10,7 C 12,8 C 81 % 1024,6 hPa 0,0 l/m 5,4 km/h (1 Bft) O 90 0 min 0,000 mm 0,0 UV-I 0 W/m 7,6 C 10,7 C 6,4 km/h (2 Bft) 96,55 %
20.04.2018 05:52 10,7 C 12,8 C 81 % 1024,6 hPa 0,0 l/m 5,0 km/h (1 Bft) O 89 0 min 0,000 mm 0,0 UV-I 1 W/m 7,6 C 10,7 C 6,4 km/h (2 Bft) 100,00 %
20.04.2018 05:53 10,7 C 12,8 C 81 % 1024,7 hPa 0,0 l/m 5,0 km/h (1 Bft) O 94 0 min 0,000 mm 0,0 UV-I 5 W/m 7,6 C 10,7 C 6,4 km/h (2 Bft) 100,00 %
20.04.2018 05:54 10,7 C 12,8 C 81 % 1024,7 hPa 0,0 l/m 6,1 km/h (2 Bft) O-NO 74 0 min 0,000 mm 0,0 UV-I 5 W/m 7,6 C 10,7 C 8,0 km/h (2 Bft) 100,00 %
20.04.2018 05:55 10,7 C 12,8 C 81 % 1024,7 hPa 0,0 l/m 6,1 km/h (2 Bft) O 79 0 min 0,000 mm 0,0 UV-I 5 W/m 7,6 C 10,7 C 6,4 km/h (2 Bft) 100,00 %
20.04.2018 05:56 10,7 C 12,8 C 81 % 1024,7 hPa 0,0 l/m 5,8 km/h (2 Bft) O 90 0 min 0,000 mm 0,0 UV-I 5 W/m 7,6 C 10,7 C 9,7 km/h (2 Bft) 100,00 %
20.04.2018 05:57 10,7 C 12,8 C 81 % 1024,7 hPa 0,0 l/m 4,2 km/h (1 Bft) O 84 0 min 0,000 mm 0,0 UV-I 5 W/m 7,6 C 10,7 C 4,8 km/h (1 Bft) 96,15 %
20.04.2018 05:58 10,7 C 12,8 C 81 % 1024,7 hPa 0,0 l/m 3,9 km/h (1 Bft) O 83 0 min 0,000 mm 0,0 UV-I 5 W/m 7,6 C 10,7 C 4,8 km/h (1 Bft) 100,00 %
20.04.2018 05:59 10,8 C 12,8 C 81 % 1024,7 hPa 0,0 l/m 3,8 km/h (1 Bft) O 81 0 min 0,000 mm 0,0 UV-I 5 W/m 7,7 C 10,8 C 4,8 km/h (1 Bft) 100,00 %
20.04.2018 06:00 10,7 C 12,8 C 81 % 1024,7 hPa 0,0 l/m 4,7 km/h (1 Bft) O 88 0 min 0,026 mm 0,0 UV-I 6 W/m 7,6 C 10,7 C 6,4 km/h (2 Bft) 95,83 %
20.04.2018 06:01 10,6 C 12,8 C 81 % 1024,7 hPa 0,0 l/m 4,3 km/h (1 Bft) O-SO 107 0 min 0,000 mm 0,0 UV-I 7 W/m 7,5 C 10,6 C 4,8 km/h (1 Bft) 95,65 %
20.04.2018 06:02 10,4 C 12,8 C 82 % 1024,7 hPa 0,0 l/m 4,3 km/h (1 Bft) O-SO 107 0 min 0,000 mm 0,0 UV-I 7 W/m 7,5 C 10,4 C 4,8 km/h (1 Bft) 100,00 %
20.04.2018 06:03 10,3 C 12,8 C 81 % 1024,7 hPa 0,0 l/m 3,4 km/h (1 Bft) O-SO 113 0 min 0,000 mm 0,0 UV-I 7 W/m 7,2 C 10,3 C 4,8 km/h (1 Bft) 100,00 %
20.04.2018 06:04 10,2 C 12,8 C 82 % 1024,7 hPa 0,0 l/m 3,2 km/h (1 Bft) O-SO 113 0 min 0,000 mm 0,0 UV-I 7 W/m 7,3 C 10,2 C 4,8 km/h (1 Bft) 96,00 %
20.04.2018 06:05 10,2 C 12,8 C 83 % 1024,7 hPa 0,0 l/m 3,4 km/h (1 Bft) O-SO 113 0 min 0,000 mm 0,0 UV-I 8 W/m 7,4 C 10,2 C 4,8 km/h (1 Bft) 100,00 %
20.04.2018 06:06 9,9 C 12,8 C 83 % 1024,8 hPa 0,0 l/m 4,0 km/h (1 Bft) O-SO 112 0 min 0,000 mm 0,0 UV-I 9 W/m 7,2 C 9,9 C 4,8 km/h (1 Bft) 100,00 %
20.04.2018 06:07 9,8 C 12,8 C 83 % 1024,8 hPa 0,0 l/m 5,8 km/h (2 Bft) O-SO 103 0 min 0,000 mm 0,0 UV-I 9 W/m 7,1 C 9,8 C 9,7 km/h (2 Bft) 100,00 %
20.04.2018 06:08 9,7 C 12,8 C 84 % 1024,7 hPa 0,0 l/m 4,3 km/h (1 Bft) O-SO 104 0 min 0,000 mm 0,0 UV-I 9 W/m 7,1 C 9,7 C 6,4 km/h (2 Bft) 100,00 %
20.04.2018 06:09 9,7 C 12,8 C 84 % 1024,8 hPa 0,0 l/m 3,5 km/h (1 Bft) O-SO 104 0 min 0,000 mm 0,0 UV-I 11 W/m 7,1 C 9,7 C 4,8 km/h (1 Bft) 100,00 %
20.04.2018 06:10 9,7 C 12,8 C 85 % 1024,8 hPa 0,0 l/m 4,6 km/h (1 Bft) O 101 0 min 0,000 mm 0,0 UV-I 11 W/m 7,3 C 9,7 C 4,8 km/h (1 Bft) 100,00 %
20.04.2018 06:11 9,8 C 12,8 C 85 % 1024,8 hPa 0,0 l/m 4,7 km/h (1 Bft) O 92 0 min 0,000 mm 0,0 UV-I 11 W/m 7,4 C 9,8 C 6,4 km/h (2 Bft) 100,00 %
20.04.2018 06:12 10,0 C 12,8 C 85 % 1024,8 hPa 0,0 l/m 4,8 km/h (1 Bft) O 92 0 min 0,000 mm 0,0 UV-I 12 W/m 7,6 C 10,0 C 6,4 km/h (2 Bft) 100,00 %
20.04.2018 06:13 10,2 C 12,8 C 85 % 1024,8 hPa 0,0 l/m 4,0 km/h (1 Bft) O 94 0 min 0,000 mm 0,0 UV-I 12 W/m 7,8 C 10,2 C 6,4 km/h (2 Bft) 100,00 %
20.04.2018 06:14 10,4 C 12,8 C 84 % 1024,8 hPa 0,0 l/m 3,1 km/h (1 Bft) O 94 0 min 0,000 mm 0,0 UV-I 14 W/m 7,8 C 10,4 C 4,8 km/h (1 Bft) 100,00 %
20.04.2018 06:15 10,6 C 12,8 C 83 % 1024,8 hPa 0,0 l/m 3,3 km/h (1 Bft) O 94 0 min 0,000 mm 0,0 UV-I 14 W/m 7,8 C 10,6 C 4,8 km/h (1 Bft) 100,00 %
20.04.2018 06:16 10,7 C 12,8 C 83 % 1024,8 hPa 0,0 l/m 3,4 km/h (1 Bft) O 94 1 min 0,000 mm 0,0 UV-I 16 W/m 7,9 C 10,7 C 4,8 km/h (1 Bft) 96,15 %
20.04.2018 06:17 10,7 C 12,8 C 82 % 1024,8 hPa 0,0 l/m 3,9 km/h (1 Bft) O 89 1 min 0,000 mm 0,0 UV-I 16 W/m 7,8 C 10,7 C 4,8 km/h (1 Bft) 100,00 %
20.04.2018 06:18 10,8 C 12,8 C 82 % 1024,8 hPa 0,0 l/m 4,8 km/h (1 Bft) O 89 1 min 0,000 mm 0,0 UV-I 17 W/m 7,9 C 10,8 C 6,4 km/h (2 Bft) 100,00 %
20.04.2018 06:19 10,8 C 12,8 C 81 % 1024,8 hPa 0,0 l/m 4,3 km/h (1 Bft) O 89 1 min 0,000 mm 0,0 UV-I 18 W/m 7,7 C 10,8 C 6,4 km/h (2 Bft) 100,00 %
20.04.2018 06:20 10,7 C 12,8 C 81 % 1024,8 hPa 0,0 l/m 5,0 km/h (1 Bft) O 90 1 min 0,000 mm 0,0 UV-I 19 W/m 7,6 C 10,7 C 6,4 km/h (2 Bft) 100,00 %
20.04.2018 06:21 10,7 C 12,8 C 81 % 1024,8 hPa 0,0 l/m 5,1 km/h (1 Bft) O 94 1 min 0,000 mm 0,0 UV-I 19 W/m 7,6 C 10,7 C 6,4 km/h (2 Bft) 100,00 %
20.04.2018 06:22 10,7 C 12,8 C 81 % 1024,8 hPa 0,0 l/m 4,9 km/h (1 Bft) O 96 1 min 0,000 mm 0,0 UV-I 22 W/m 7,6 C 10,7 C 6,4 km/h (2 Bft) 95,65 %
20.04.2018 06:23 10,6 C 12,8 C 81 % 1024,8 hPa 0,0 l/m 4,5 km/h (1 Bft) O 96 1 min 0,000 mm 0,0 UV-I 23 W/m 7,5 C 10,6 C 6,4 km/h (2 Bft) 100,00 %
20.04.2018 06:24 10,6 C 12,8 C 82 % 1024,8 hPa 0,0 l/m 4,3 km/h (1 Bft) O 88 1 min 0,000 mm 0,0 UV-I 24 W/m 7,7 C 10,6 C 6,4 km/h (2 Bft) 100,00 %
20.04.2018 06:25 10,6 C 12,8 C 82 % 1024,8 hPa 0,0 l/m 4,8 km/h (1 Bft) O 90 1 min 0,000 mm 0,0 UV-I 25 W/m 7,7 C 10,6 C 6,4 km/h (2 Bft) 95,83 %
20.04.2018 06:26 10,6 C 12,8 C 82 % 1024,8 hPa 0,0 l/m 3,8 km/h (1 Bft) O 90 1 min 0,000 mm 0,0 UV-I 26 W/m 7,7 C 10,6 C 4,8 km/h (1 Bft) 100,00 %
20.04.2018 06:27 10,6 C 12,8 C 82 % 1024,8 hPa 0,0 l/m 3,8 km/h (1 Bft) O 87 1 min 0,000 mm 0,0 UV-I 26 W/m 7,7 C 10,6 C 6,4 km/h (2 Bft) 95,83 %
20.04.2018 06:28 10,6 C 12,8 C 82 % 1024,9 hPa 0,0 l/m 4,0 km/h (1 Bft) O 87 0 min 0,000 mm 0,0 UV-I 26 W/m 7,7 C 10,6 C 6,4 km/h (2 Bft) 100,00 %
20.04.2018 06:29 10,6 C 12,8 C 82 % 1024,9 hPa 0,0 l/m 4,8 km/h (1 Bft) O 86 0 min 0,000 mm 0,0 UV-I 26 W/m 7,7 C 10,6 C 6,4 km/h (2 Bft) 96,15 %
20.04.2018 06:30 10,6 C 12,8 C 82 % 1024,9 hPa 0,0 l/m 4,0 km/h (1 Bft) O-NO 78 0 min 0,000 mm 0,0 UV-I 27 W/m 7,7 C 10,6 C 6,4 km/h (2 Bft) 95,83 %
20.04.2018 06:31 10,7 C 12,8 C 82 % 1024,8 hPa 0,0 l/m 3,8 km/h (1 Bft) O-NO 78 1 min 0,000 mm 0,0 UV-I 32 W/m 7,8 C 10,7 C 4,8 km/h (1 Bft) 96,15 %
20.04.2018 06:32 10,7 C 12,8 C 82 % 1024,9 hPa 0,0 l/m 4,7 km/h (1 Bft) O-NO 78 1 min 0,000 mm 0,0 UV-I 35 W/m 7,8 C 10,7 C 6,4 km/h (2 Bft) 100,00 %
20.04.2018 06:33 10,7 C 12,8 C 82 % 1024,9 hPa 0,0 l/m 3,5 km/h (1 Bft) O-NO 78 1 min 0,000 mm 0,0 UV-I 38 W/m 7,8 C 10,7 C 4,8 km/h (1 Bft) 96,15 %
20.04.2018 06:34 10,6 C 12,8 C 82 % 1024,9 hPa 0,0 l/m 3,8 km/h (1 Bft) O-NO 78 1 min 0,000 mm 0,0 UV-I 39 W/m 7,7 C 10,6 C 4,8 km/h (1 Bft) 100,00 %
20.04.2018 06:35 10,6 C 12,8 C 82 % 1024,9 hPa 0,0 l/m 3,6 km/h (1 Bft) O-NO 78 1 min 0,000 mm 0,0 UV-I 40 W/m 7,7 C 10,6 C 4,8 km/h (1 Bft) 91,30 %
20.04.2018 06:36 10,6 C 12,8 C 82 % 1024,9 hPa 0,0 l/m 3,9 km/h (1 Bft) O-NO 78 0 min 0,000 mm 0,0 UV-I 39 W/m 7,7 C 10,6 C 4,8 km/h (1 Bft) 100,00 %
20.04.2018 06:37 10,6 C 12,8 C 82 % 1024,9 hPa 0,0 l/m 2,4 km/h (1 Bft) O-NO 78 0 min 0,000 mm 0,0 UV-I 34 W/m 7,7 C 10,6 C 3,2 km/h (1 Bft) 92,86 %
20.04.2018 06:38 10,6 C 12,8 C 82 % 1024,9 hPa 0,0 l/m 3,1 km/h (1 Bft) O-NO 78 0 min 0,000 mm 0,0 UV-I 32 W/m 7,7 C 10,6 C 4,8 km/h (1 Bft) 100,00 %
20.04.2018 06:39 10,5 C 12,8 C 82 % 1024,9 hPa 0,0 l/m 3,4 km/h (1 Bft) O-NO 78 0 min 0,000 mm 0,0 UV-I 32 W/m 7,6 C 10,5 C 4,8 km/h (1 Bft) 96,15 %
20.04.2018 06:40 10,4 C 12,8 C 82 % 1024,9 hPa 0,0 l/m 3,4 km/h (1 Bft) O-NO 78 0 min 0,000 mm 0,0 UV-I 32 W/m 7,5 C 10,4 C 4,8 km/h (1 Bft) 100,00 %
20.04.2018 06:41 10,4 C 12,8 C 82 % 1024,9 hPa 0,0 l/m 3,0 km/h (1 Bft) O-NO 78 0 min 0,000 mm 0,0 UV-I 32 W/m 7,5 C 10,4 C 4,8 km/h (1 Bft) 96,15 %
20.04.2018 06:42 10,3 C 12,8 C 82 % 1024,9 hPa 0,0 l/m 2,0 km/h (1 Bft) O-NO 78 0 min 0,000 mm 0,0 UV-I 33 W/m 7,4 C 10,3 C 3,2 km/h (1 Bft) 95,83 %
20.04.2018 06:43 10,3 C 12,8 C 83 % 1024,9 hPa 0,0 l/m 2,9 km/h (1 Bft) O-NO 78 0 min 0,000 mm 0,0 UV-I 35 W/m 7,5 C 10,3 C 4,8 km/h (1 Bft) 100,00 %
20.04.2018 06:44 10,3 C 12,8 C 83 % 1024,9 hPa 0,0 l/m 2,9 km/h (1 Bft) O-NO 78 0 min 0,000 mm 0,0 UV-I 45 W/m 7,5 C 10,3 C 4,8 km/h (1 Bft) 87,50 %
20.04.2018 06:45 10,3 C 12,8 C 83 % 1024,9 hPa 0,0 l/m 3,0 km/h (1 Bft) O-NO 78 1 min 0,000 mm 0,0 UV-I 58 W/m 7,5 C 10,3 C 4,8 km/h (1 Bft) 100,00 %
20.04.2018 06:46 10,3 C 12,8 C 83 % 1024,9 hPa 0,0 l/m 3,5 km/h (1 Bft) O-NO 78 1 min 0,000 mm 0,0 UV-I 64 W/m 7,5 C 10,3 C 4,8 km/h (1 Bft) 91,30 %
20.04.2018 06:47 10,3 C 12,8 C 83 % 1024,9 hPa 0,0 l/m 3,1 km/h (1 Bft) O-NO 78 1 min 0,000 mm 0,0 UV-I 66 W/m 7,5 C 10,3 C 4,8 km/h (1 Bft) 100,00 %
20.04.2018 06:48 10,3 C 12,8 C 83 % 1024,9 hPa 0,0 l/m 3,6 km/h (1 Bft) O-NO 78 1 min 0,000 mm 0,0 UV-I 69 W/m 7,5 C 10,3 C 4,8 km/h (1 Bft) 93,75 %
20.04.2018 06:49 10,2 C 12,8 C 83 % 1024,9 hPa 0,0 l/m 3,7 km/h (1 Bft) O-NO 78 1 min 0,000 mm 0,0 UV-I 70 W/m 7,4 C 10,2 C 4,8 km/h (1 Bft) 91,67 %
20.04.2018 06:50 10,2 C 12,8 C 83 % 1024,9 hPa 0,0 l/m 4,2 km/h (1 Bft) O-NO 78 1 min 0,000 mm 0,0 UV-I 72 W/m 7,4 C 10,2 C 4,8 km/h (1 Bft) 96,55 %
20.04.2018 06:51 10,2 C 12,8 C 83 % 1025,0 hPa 0,0 l/m 4,5 km/h (1 Bft) O-NO 76 1 min 0,000 mm 0,0 UV-I 75 W/m 7,4 C 10,2 C 4,8 km/h (1 Bft) 92,59 %
20.04.2018 06:52 10,2 C 12,8 C 84 % 1025,0 hPa 0,0 l/m 4,1 km/h (1 Bft) O-NO 76 1 min 0,000 mm 0,0 UV-I 76 W/m 7,6 C 10,2 C 6,4 km/h (2 Bft) 92,31 %
20.04.2018 06:53 10,2 C 12,8 C 84 % 1025,0 hPa 0,0 l/m 4,8 km/h (1 Bft) O-NO 75 1 min 0,000 mm 0,0 UV-I 78 W/m 7,6 C 10,2 C 6,4 km/h (2 Bft) 95,83 %
20.04.2018 06:54 10,2 C 12,8 C 84 % 1025,0 hPa 0,0 l/m 4,6 km/h (1 Bft) O-NO 62 1 min 0,000 mm 0,0 UV-I 77 W/m 7,6 C 10,2 C 4,8 km/h (1 Bft) 100,00 %
20.04.2018 06:55 10,3 C 12,8 C 84 % 1025,0 hPa 0,0 l/m 5,4 km/h (1 Bft) NO 46 1 min 0,000 mm 0,0 UV-I 79 W/m 7,7 C 10,3 C 6,4 km/h (2 Bft) 92,59 %
20.04.2018 06:56 10,3 C 12,8 C 84 % 1025,0 hPa 0,0 l/m 5,3 km/h (1 Bft) NO 42 1 min 0,000 mm 0,0 UV-I 85 W/m 7,7 C 10,3 C 6,4 km/h (2 Bft) 95,65 %
20.04.2018 06:57 10,3 C 12,8 C 84 % 1025,0 hPa 0,0 l/m 7,1 km/h (2 Bft) NO 53 1 min 0,000 mm 0,0 UV-I 89 W/m 7,7 C 9,8 C 8,0 km/h (2 Bft) 95,83 %
20.04.2018 06:59 10,4 C 12,8 C 84 % 1025,0 hPa 0,0 l/m 7,0 km/h (2 Bft) NO 46 2 min 0,000 mm 0,0 UV-I 91 W/m 7,8 C 10,0 C 9,7 km/h (2 Bft) 94,34 %
20.04.2018 07:00 10,5 C 12,8 C 84 % 1025,0 hPa 0,0 l/m 7,7 km/h (2 Bft) NO 47 1 min 0,000 mm 0,0 UV-I 95 W/m 7,9 C 9,6 C 9,7 km/h (2 Bft) 100,00 %
20.04.2018 07:01 10,5 C 12,8 C 83 % 1025,1 hPa 0,0 l/m 6,6 km/h (2 Bft) O-NO 57 1 min 0,025 mm 0,0 UV-I 97 W/m 7,7 C 10,4 C 8,0 km/h (2 Bft) 96,30 %
20.04.2018 07:02 10,5 C 12,8 C 84 % 1025,0 hPa 0,0 l/m 6,7 km/h (2 Bft) NO 41 1 min 0,000 mm 0,0 UV-I 98 W/m 7,9 C 10,3 C 9,7 km/h (2 Bft) 95,65 %
20.04.2018 07:03 10,6 C 12,8 C 84 % 1025,0 hPa 0,0 l/m 7,5 km/h (2 Bft) NO 36 1 min 0,000 mm 0,0 UV-I 100 W/m 8,0 C 9,8 C 9,7 km/h (2 Bft) 92,59 %
20.04.2018 07:04 10,6 C 12,8 C 84 % 1025,0 hPa 0,0 l/m 7,1 km/h (2 Bft) NO 49 1 min 0,000 mm 0,0 UV-I 104 W/m 8,0 C 10,1 C 9,7 km/h (2 Bft) 91,30 %
20.04.2018 07:05 10,6 C 12,8 C 83 % 1025,0 hPa 0,0 l/m 6,7 km/h (2 Bft) NO 44 1 min 0,000 mm 0,0 UV-I 106 W/m 7,8 C 10,4 C 8,0 km/h (2 Bft) 95,83 %
20.04.2018 07:06 10,6 C 12,8 C 83 % 1025,0 hPa 0,0 l/m 5,5 km/h (1 Bft) O-NO 61 1 min 0,000 mm 0,0 UV-I 108 W/m 7,8 C 10,6 C 8,0 km/h (2 Bft) 100,00 %
20.04.2018 07:07 10,6 C 12,8 C 84 % 1025,0 hPa 0,0 l/m 5,8 km/h (2 Bft) NO 38 1 min 0,000 mm 0,0 UV-I 111 W/m 8,0 C 10,6 C 8,0 km/h (2 Bft) 93,10 %
20.04.2018 07:08 10,7 C 12,8 C 83 % 1025,0 hPa 0,0 l/m 5,9 km/h (2 Bft) O-NO 64 1 min 0,000 mm 0,0 UV-I 113 W/m 7,9 C 10,7 C 6,4 km/h (2 Bft) 96,30 %
20.04.2018 07:09 10,7 C 12,8 C 83 % 1025,0 hPa 0,0 l/m 6,8 km/h (2 Bft) NO 52 1 min 0,000 mm 0,0 UV-I 115 W/m 7,9 C 10,4 C 9,7 km/h (2 Bft) 95,65 %
20.04.2018 07:10 10,7 C 12,8 C 83 % 1025,0 hPa 0,0 l/m 5,5 km/h (1 Bft) NO 50 1 min 0,000 mm 0,0 UV-I 119 W/m 7,9 C 10,7 C 8,0 km/h (2 Bft) 93,33 %
20.04.2018 07:11 10,8 C 12,8 C 84 % 1025,0 hPa 0,0 l/m 8,0 km/h (2 Bft) O-NO 59 1 min 0,000 mm 0,0 UV-I 121 W/m 8,2 C 9,7 C 9,7 km/h (2 Bft) 92,31 %
20.04.2018 07:12 10,8 C 12,8 C 84 % 1025,0 hPa 0,0 l/m 6,4 km/h (2 Bft) N-NO 30 1 min 0,000 mm 0,0 UV-I 123 W/m 8,2 C 10,8 C 8,0 km/h (2 Bft) 92,59 %
20.04.2018 07:13 10,9 C 12,8 C 84 % 1025,0 hPa 0,0 l/m 8,4 km/h (2 Bft) NO 38 1 min 0,000 mm 0,0 UV-I 125 W/m 8,3 C 9,5 C 9,7 km/h (2 Bft) 100,00 %
20.04.2018 07:14 10,9 C 12,8 C 83 % 1025,0 hPa 0,0 l/m 8,1 km/h (2 Bft) NO 43 1 min 0,000 mm 0,0 UV-I 128 W/m 8,1 C 9,7 C 9,7 km/h (2 Bft) 91,67 %
20.04.2018 07:15 11,0 C 12,8 C 83 % 1025,1 hPa 0,0 l/m 8,2 km/h (2 Bft) O-NO 61 1 min 0,000 mm 0,0 UV-I 130 W/m 8,2 C 9,8 C 9,7 km/h (2 Bft) 100,00 %
20.04.2018 07:16 11,1 C 12,8 C 83 % 1025,0 hPa 0,0 l/m 7,2 km/h (2 Bft) NO 48 1 min 0,000 mm 0,0 UV-I 133 W/m 8,3 C 10,5 C 8,0 km/h (2 Bft) 93,33 %
20.04.2018 07:17 11,1 C 12,8 C 83 % 1025,0 hPa 0,0 l/m 8,8 km/h (2 Bft) NO 43 1 min 0,000 mm 0,0 UV-I 136 W/m 8,3 C 9,5 C 12,9 km/h (3 Bft) 96,55 %
20.04.2018 07:18 11,2 C 12,8 C 83 % 1025,0 hPa 0,0 l/m 6,6 km/h (2 Bft) NO 42 1 min 0,000 mm 0,0 UV-I 139 W/m 8,4 C 11,1 C 9,7 km/h (2 Bft) 95,83 %
20.04.2018 07:19 11,2 C 12,8 C 83 % 1025,0 hPa 0,0 l/m 9,7 km/h (2 Bft) NO 42 1 min 0,000 mm 0,0 UV-I 141 W/m 8,4 C 9,1 C 12,9 km/h (3 Bft) 91,30 %
20.04.2018 07:20 11,3 C 12,8 C 83 % 1025,0 hPa 0,0 l/m 7,6 km/h (2 Bft) NO 41 1 min 0,000 mm 0,0 UV-I 144 W/m 8,5 C 10,5 C 9,7 km/h (2 Bft) 100,00 %
20.04.2018 07:21 11,3 C 12,8 C 83 % 1025,0 hPa 0,0 l/m 8,7 km/h (2 Bft) NO 36 1 min 0,000 mm 0,0 UV-I 147 W/m 8,5 C 9,8 C 14,5 km/h (3 Bft) 91,30 %
20.04.2018 07:22 11,4 C 12,8 C 83 % 1025,0 hPa 0,0 l/m 9,5 km/h (2 Bft) NO 38 1 min 0,000 mm 0,0 UV-I 149 W/m 8,6 C 9,4 C 11,3 km/h (2 Bft) 100,00 %
20.04.2018 07:23 11,5 C 12,8 C 82 % 1025,0 hPa 0,0 l/m 9,5 km/h (2 Bft) NO 36 1 min 0,000 mm 0,0 UV-I 151 W/m 8,5 C 9,5 C 12,9 km/h (3 Bft) 83,33 %
20.04.2018 07:24 11,6 C 12,8 C 82 % 1025,0 hPa 0,0 l/m 8,3 km/h (2 Bft) N-NO 32 1 min 0,000 mm 0,0 UV-I 155 W/m 8,6 C 10,3 C 11,3 km/h (2 Bft) 96,88 %
20.04.2018 07:25 11,6 C 12,8 C 82 % 1025,0 hPa 0,0 l/m 9,8 km/h (2 Bft) O-NO 67 1 min 0,000 mm 0,0 UV-I 156 W/m 8,6 C 9,5 C 16,1 km/h (3 Bft) 92,59 %
20.04.2018 07:26 11,7 C 12,8 C 82 % 1025,0 hPa 0,0 l/m 8,5 km/h (2 Bft) O-NO 69 1 min 0,000 mm 0,0 UV-I 159 W/m 8,7 C 10,3 C 11,3 km/h (2 Bft) 92,31 %
20.04.2018 07:27 11,8 C 12,8 C 82 % 1025,0 hPa 0,0 l/m 7,7 km/h (2 Bft) NO 36 1 min 0,000 mm 0,0 UV-I 162 W/m 8,8 C 10,9 C 9,7 km/h (2 Bft) 100,00 %
20.04.2018 07:28 11,8 C 12,8 C 82 % 1025,0 hPa 0,0 l/m 8,8 km/h (2 Bft) O-NO 59 1 min 0,000 mm 0,0 UV-I 164 W/m 8,8 C 10,3 C 12,9 km/h (3 Bft) 96,15 %
20.04.2018 07:29 11,9 C 12,8 C 81 % 1025,0 hPa 0,0 l/m 8,4 km/h (2 Bft) NO 44 1 min 0,000 mm 0,0 UV-I 166 W/m 8,7 C 10,6 C 11,3 km/h (2 Bft) 100,00 %
20.04.2018 07:30 12,0 C 12,8 C 81 % 1025,0 hPa 0,0 l/m 6,0 km/h (2 Bft) O-NO 69 1 min 0,000 mm 0,0 UV-I 169 W/m 8,8 C 12,0 C 9,7 km/h (2 Bft) 96,15 %
20.04.2018 07:31 12,1 C 12,8 C 81 % 1025,0 hPa 0,0 l/m 6,8 km/h (2 Bft) O-NO 65 1 min 0,000 mm 0,0 UV-I 172 W/m 8,9 C 11,8 C 11,3 km/h (2 Bft) 100,00 %
20.04.2018 07:32 12,2 C 12,8 C 80 % 1025,0 hPa 0,0 l/m 6,8 km/h (2 Bft) O-NO 71 1 min 0,000 mm 0,0 UV-I 175 W/m 8,9 C 11,9 C 12,9 km/h (3 Bft) 95,65 %
20.04.2018 07:33 12,3 C 12,8 C 80 % 1025,0 hPa 0,0 l/m 7,6 km/h (2 Bft) O-NO 77 1 min 0,000 mm 0,0 UV-I 177 W/m 8,9 C 11,5 C 12,9 km/h (3 Bft) 100,00 %
20.04.2018 07:34 12,4 C 12,8 C 79 % 1025,0 hPa 0,0 l/m 7,8 km/h (2 Bft) O 94 1 min 0,000 mm 0,0 UV-I 179 W/m 8,9 C 11,5 C 12,9 km/h (3 Bft) 95,65 %
20.04.2018 07:35 12,5 C 12,8 C 79 % 1025,0 hPa 0,0 l/m 8,1 km/h (2 Bft) O-NO 71 1 min 0,000 mm 0,0 UV-I 180 W/m 9,0 C 11,4 C 12,9 km/h (3 Bft) 100,00 %
20.04.2018 07:36 12,6 C 12,8 C 79 % 1024,9 hPa 0,0 l/m 8,4 km/h (2 Bft) O 80 1 min 0,000 mm 0,0 UV-I 183 W/m 9,1 C 11,3 C 11,3 km/h (2 Bft) 96,15 %
20.04.2018 07:37 12,6 C 12,8 C 79 % 1024,9 hPa 0,0 l/m 6,8 km/h (2 Bft) O 89 1 min 0,000 mm 0,0 UV-I 186 W/m 9,1 C 12,4 C 9,7 km/h (2 Bft) 100,00 %
20.04.2018 07:38 12,7 C 12,8 C 79 % 1024,9 hPa 0,0 l/m 8,8 km/h (2 Bft) O 94 1 min 0,000 mm 0,0 UV-I 189 W/m 9,2 C 11,2 C 11,3 km/h (2 Bft) 100,00 %
20.04.2018 07:39 12,7 C 12,8 C 78 % 1024,9 hPa 0,0 l/m 11,0 km/h (2 Bft) O-NO 77 1 min 0,000 mm 0,0 UV-I 191 W/m 9,0 C 10,1 C 14,5 km/h (3 Bft) 100,00 %
20.04.2018 07:40 12,7 C 12,8 C 78 % 1025,0 hPa 0,0 l/m 8,2 km/h (2 Bft) O-NO 58 1 min 0,000 mm 0,0 UV-I 194 W/m 9,0 C 11,6 C 9,7 km/h (2 Bft) 100,00 %
20.04.2018 07:41 12,8 C 12,8 C 78 % 1024,9 hPa 0,0 l/m 9,0 km/h (2 Bft) O-NO 72 1 min 0,000 mm 0,0 UV-I 196 W/m 9,1 C 11,2 C 11,3 km/h (2 Bft) 100,00 %
20.04.2018 07:42 12,8 C 12,8 C 78 % 1025,0 hPa 0,0 l/m 10,1 km/h (2 Bft) O-NO 65 1 min 0,000 mm 0,0 UV-I 199 W/m 9,1 C 10,6 C 14,5 km/h (3 Bft) 100,00 %
20.04.2018 07:43 12,8 C 12,8 C 78 % 1025,0 hPa 0,0 l/m 10,0 km/h (2 Bft) O-NO 71 1 min 0,000 mm 0,0 UV-I 201 W/m 9,1 C 10,7 C 14,5 km/h (3 Bft) 100,00 %
20.04.2018 07:44 12,9 C 12,8 C 78 % 1025,0 hPa 0,0 l/m 9,8 km/h (2 Bft) NO 55 1 min 0,000 mm 0,0 UV-I 205 W/m 9,2 C 10,9 C 16,1 km/h (3 Bft) 100,00 %
20.04.2018 07:45 12,9 C 12,8 C 78 % 1024,9 hPa 0,0 l/m 8,8 km/h (2 Bft) O-NO 59 1 min 0,000 mm 0,0 UV-I 208 W/m 9,2 C 11,4 C 12,9 km/h (3 Bft) 100,00 %
20.04.2018 07:46 13,0 C 12,8 C 78 % 1025,0 hPa 0,0 l/m 11,5 km/h (2 Bft) O-NO 71 1 min 0,000 mm 0,0 UV-I 210 W/m 9,3 C 10,2 C 16,1 km/h (3 Bft) 100,00 %
20.04.2018 07:47 13,1 C 12,8 C 77 % 1025,0 hPa 0,0 l/m 12,5 km/h (3 Bft) NO 47 1 min 0,000 mm 0,0 UV-I 212 W/m 9,2 C 9,9 C 16,1 km/h (3 Bft) 95,65 %
20.04.2018 07:48 13,1 C 12,8 C 77 % 1025,0 hPa 0,0 l/m 10,5 km/h (2 Bft) O-NO 77 1 min 0,000 mm 0,0 UV-I 216 W/m 9,2 C 10,8 C 12,9 km/h (3 Bft) 100,00 %
20.04.2018 07:49 13,2 C 12,8 C 77 % 1025,0 hPa 0,0 l/m 8,2 km/h (2 Bft) O 83 1 min 0,000 mm 0,0 UV-I 218 W/m 9,3 C 12,1 C 12,9 km/h (3 Bft) 90,91 %
20.04.2018 07:50 13,2 C 12,8 C 77 % 1025,0 hPa 0,0 l/m 12,5 km/h (3 Bft) O-NO 67 1 min 0,000 mm 0,0 UV-I 221 W/m 9,3 C 10,0 C 16,1 km/h (3 Bft) 100,00 %
20.04.2018 07:51 13,3 C 12,8 C 77 % 1025,0 hPa 0,0 l/m 9,3 km/h (2 Bft) O 86 1 min 0,000 mm 0,0 UV-I 224 W/m 9,4 C 11,6 C 14,5 km/h (3 Bft) 100,00 %
20.04.2018 07:52 13,4 C 12,8 C 77 % 1025,0 hPa 0,0 l/m 9,2 km/h (2 Bft) O 84 1 min 0,000 mm 0,0 UV-I 227 W/m 9,5 C 11,8 C 12,9 km/h (3 Bft) 100,00 %
20.04.2018 07:53 13,4 C 12,8 C 77 % 1025,0 hPa 0,0 l/m 10,2 km/h (2 Bft) O-NO 71 1 min 0,000 mm 0,0 UV-I 230 W/m 9,5 C 11,3 C 12,9 km/h (3 Bft) 100,00 %
20.04.2018 07:54 13,5 C 12,8 C 77 % 1025,0 hPa 0,0 l/m 10,8 km/h (2 Bft) O 83 1 min 0,000 mm 0,0 UV-I 234 W/m 9,5 C 11,1 C 12,9 km/h (3 Bft) 96,55 %
20.04.2018 07:55 13,6 C 12,8 C 76 % 1025,0 hPa 0,0 l/m 11,6 km/h (2 Bft) O-NO 60 1 min 0,000 mm 0,0 UV-I 236 W/m 9,4 C 10,8 C 14,5 km/h (3 Bft) 100,00 %
20.04.2018 07:56 13,6 C 12,8 C 76 % 1025,0 hPa 0,0 l/m 10,5 km/h (2 Bft) O 89 1 min 0,000 mm 0,0 UV-I 239 W/m 9,4 C 11,3 C 14,5 km/h (3 Bft) 100,00 %
20.04.2018 07:57 13,7 C 12,8 C 76 % 1025,0 hPa 0,0 l/m 11,2 km/h (2 Bft) O 80 1 min 0,000 mm 0,0 UV-I 242 W/m 9,5 C 11,1 C 16,1 km/h (3 Bft) 96,15 %
20.04.2018 07:58 13,8 C 12,8 C 76 % 1025,0 hPa 0,0 l/m 11,3 km/h (2 Bft) O 92 1 min 0,000 mm 0,0 UV-I 244 W/m 9,6 C 11,2 C 16,1 km/h (3 Bft) 100,00 %
20.04.2018 07:59 13,8 C 12,8 C 76 % 1025,0 hPa 0,0 l/m 13,6 km/h (3 Bft) O-NO 69 1 min 0,000 mm 0,0 UV-I 246 W/m 9,6 C 10,2 C 16,1 km/h (3 Bft) 100,00 %
20.04.2018 08:00 13,9 C 12,8 C 76 % 1025,0 hPa 0,0 l/m 12,5 km/h (3 Bft) O 86 1 min 0,102 mm 0,0 UV-I 250 W/m 9,7 C 10,8 C 16,1 km/h (3 Bft) 100,00 %
20.04.2018 08:01 13,9 C 12,8 C 75 % 1025,0 hPa 0,0 l/m 10,8 km/h (2 Bft) O-NO 64 1 min 0,000 mm 0,0 UV-I 251 W/m 9,5 C 11,5 C 12,9 km/h (3 Bft) 91,67 %
20.04.2018 08:02 13,9 C 12,8 C 76 % 1025,0 hPa 0,0 l/m 14,2 km/h (3 Bft) O-NO 69 1 min 0,000 mm 0,0 UV-I 255 W/m 9,7 C 10,1 C 17,7 km/h (3 Bft) 96,15 %
20.04.2018 08:03 14,1 C 12,8 C 75 % 1025,0 hPa 0,0 l/m 12,6 km/h (3 Bft) O-NO 71 1 min 0,000 mm 0,0 UV-I 257 W/m 9,7 C 11,0 C 16,1 km/h (3 Bft) 100,00 %
20.04.2018 08:04 14,1 C 12,8 C 75 % 1025,0 hPa 0,0 l/m 11,7 km/h (2 Bft) O 86 1 min 0,000 mm 0,0 UV-I 259 W/m 9,7 C 11,4 C 16,1 km/h (3 Bft) 100,00 %
20.04.2018 08:05 14,1 C 12,8 C 75 % 1025,0 hPa 0,0 l/m 13,0 km/h (3 Bft) O 80 1 min 0,000 mm 0,0 UV-I 263 W/m 9,7 C 10,8 C 17,7 km/h (3 Bft) 100,00 %
20.04.2018 08:06 14,2 C 12,8 C 75 % 1025,0 hPa 0,0 l/m 13,2 km/h (3 Bft) O 80 1 min 0,000 mm 0,0 UV-I 265 W/m 9,8 C 10,9 C 22,5 km/h (4 Bft) 100,00 %
20.04.2018 08:07 14,2 C 12,8 C 75 % 1024,9 hPa 0,0 l/m 12,2 km/h (2 Bft) NO 56 1 min 0,000 mm 0,5 UV-I 268 W/m 9,8 C 11,3 C 16,1 km/h (3 Bft) 100,00 %
20.04.2018 08:08 14,3 C 12,8 C 74 % 1025,0 hPa 0,0 l/m 15,4 km/h (3 Bft) O 85 1 min 0,000 mm 0,5 UV-I 270 W/m 9,7 C 10,2 C 19,3 km/h (3 Bft) 100,00 %
20.04.2018 08:09 14,3 C 12,8 C 75 % 1025,0 hPa 0,0 l/m 12,5 km/h (3 Bft) O 88 1 min 0,000 mm 0,5 UV-I 273 W/m 9,9 C 11,3 C 17,7 km/h (3 Bft) 100,00 %
20.04.2018 08:10 14,4 C 12,8 C 74 % 1025,0 hPa 0,0 l/m 16,7 km/h (3 Bft) O-NO 74 1 min 0,000 mm 0,5 UV-I 276 W/m 9,8 C 9,9 C 22,5 km/h (4 Bft) 96,15 %
20.04.2018 08:11 14,4 C 12,8 C 74 % 1025,0 hPa 0,0 l/m 13,6 km/h (3 Bft) O-NO 74 1 min 0,000 mm 0,5 UV-I 278 W/m 9,8 C 11,0 C 19,3 km/h (3 Bft) 100,00 %
20.04.2018 08:12 14,4 C 12,8 C 74 % 1024,9 hPa 0,0 l/m 15,2 km/h (3 Bft) O 86 1 min 0,000 mm 0,5 UV-I 279 W/m 9,8 C 10,4 C 17,7 km/h (3 Bft) 92,86 %
20.04.2018 08:13 14,5 C 12,8 C 74 % 1025,0 hPa 0,0 l/m 15,6 km/h (3 Bft) O-NO 69 1 min 0,000 mm 0,5 UV-I 284 W/m 9,9 C 10,4 C 24,1 km/h (4 Bft) 100,00 %
20.04.2018 08:14 14,6 C 12,8 C 74 % 1024,9 hPa 0,0 l/m 12,7 km/h (3 Bft) O 89 1 min 0,000 mm 0,5 UV-I 286 W/m 10,0 C 11,5 C 16,1 km/h (3 Bft) 95,65 %
20.04.2018 08:15 14,6 C 12,8 C 74 % 1025,0 hPa 0,0 l/m 13,8 km/h (3 Bft) O-NO 68 1 min 0,000 mm 0,5 UV-I 289 W/m 10,0 C 11,1 C 20,9 km/h (4 Bft) 100,00 %
20.04.2018 08:16 14,6 C 12,8 C 74 % 1025,0 hPa 0,0 l/m 14,3 km/h (3 Bft) O 89 1 min 0,000 mm 0,5 UV-I 291 W/m 10,0 C 10,9 C 20,9 km/h (4 Bft) 100,00 %
20.04.2018 08:17 14,7 C 12,8 C 74 % 1025,0 hPa 0,0 l/m 16,5 km/h (3 Bft) O-SO 105 1 min 0,000 mm 0,5 UV-I 295 W/m 10,1 C 10,3 C 19,3 km/h (3 Bft) 100,00 %
20.04.2018 08:18 14,7 C 12,8 C 74 % 1025,0 hPa 0,0 l/m 16,2 km/h (3 Bft) O 82 1 min 0,000 mm 0,5 UV-I 297 W/m 10,1 C 10,4 C 20,9 km/h (4 Bft) 96,30 %
20.04.2018 08:19 14,8 C 12,2 C 73 % 1025,0 hPa 0,0 l/m 14,3 km/h (3 Bft) O 88 1 min 0,000 mm 0,5 UV-I 300 W/m 10,0 C 11,2 C 19,3 km/h (3 Bft) 93,10 %
20.04.2018 08:20 14,8 C 12,8 C 73 % 1025,0 hPa 0,0 l/m 12,4 km/h (3 Bft) O-SO 103 1 min 0,000 mm 0,6 UV-I 303 W/m 10,0 C 11,9 C 19,3 km/h (3 Bft) 100,00 %
20.04.2018 08:21 14,9 C 12,8 C 73 % 1025,0 hPa 0,0 l/m 15,4 km/h (3 Bft) O-NO 59 1 min 0,000 mm 0,6 UV-I 306 W/m 10,1 C 10,9 C 22,5 km/h (4 Bft) 100,00 %
20.04.2018 08:22 14,9 C 12,8 C 73 % 1024,9 hPa 0,0 l/m 10,0 km/h (2 Bft) O-NO 65 1 min 0,000 mm 0,6 UV-I 309 W/m 10,1 C 13,0 C 17,7 km/h (3 Bft) 100,00 %
20.04.2018 08:23 15,0 C 12,8 C 73 % 1024,9 hPa 0,0 l/m 17,2 km/h (3 Bft) O-NO 65 1 min 0,000 mm 0,6 UV-I 312 W/m 10,2 C 10,5 C 22,5 km/h (4 Bft) 100,00 %
20.04.2018 08:24 15,1 C 12,8 C 73 % 1024,9 hPa 0,0 l/m 15,3 km/h (3 Bft) O-NO 64 1 min 0,000 mm 0,6 UV-I 315 W/m 10,3 C 11,2 C 17,7 km/h (3 Bft) 100,00 %
20.04.2018 08:25 15,1 C 12,8 C 73 % 1024,9 hPa 0,0 l/m 15,0 km/h (3 Bft) O 91 1 min 0,000 mm 0,6 UV-I 318 W/m 10,3 C 11,3 C 17,7 km/h (3 Bft) 96,55 %
20.04.2018 08:26 15,2 C 12,8 C 72 % 1024,9 hPa 0,0 l/m 15,8 km/h (3 Bft) O 88 1 min 0,000 mm 0,6 UV-I 321 W/m 10,2 C 11,2 C 20,9 km/h (4 Bft) 100,00 %
20.04.2018 08:27 15,2 C 12,8 C 72 % 1024,9 hPa 0,0 l/m 16,6 km/h (3 Bft) O 98 1 min 0,000 mm 0,6 UV-I 324 W/m 10,2 C 10,9 C 22,5 km/h (4 Bft) 100,00 %
20.04.2018 08:28 15,2 C 12,8 C 72 % 1024,9 hPa 0,0 l/m 16,9 km/h (3 Bft) O-SO 121 1 min 0,000 mm 0,6 UV-I 326 W/m 10,2 C 10,8 C 22,5 km/h (4 Bft) 100,00 %
20.04.2018 08:29 15,2 C 12,8 C 72 % 1024,9 hPa 0,0 l/m 16,0 km/h (3 Bft) O-NO 74 1 min 0,000 mm 0,6 UV-I 330 W/m 10,2 C 11,1 C 17,7 km/h (3 Bft) 100,00 %
20.04.2018 08:30 15,3 C 12,8 C 73 % 1024,9 hPa 0,0 l/m 16,1 km/h (3 Bft) O-NO 67 1 min 0,000 mm 0,7 UV-I 332 W/m 10,5 C 11,2 C 20,9 km/h (4 Bft) 100,00 %
20.04.2018 08:31 15,3 C 12,8 C 72 % 1024,9 hPa 0,0 l/m 15,9 km/h (3 Bft) O 89 1 min 0,000 mm 0,7 UV-I 335 W/m 10,3 C 11,3 C 20,9 km/h (4 Bft) 100,00 %
20.04.2018 08:32 15,3 C 12,8 C 72 % 1024,9 hPa 0,0 l/m 17,2 km/h (3 Bft) O 98 1 min 0,000 mm 0,7 UV-I 338 W/m 10,3 C 10,9 C 22,5 km/h (4 Bft) 100,00 %
20.04.2018 08:33 15,4 C 12,8 C 72 % 1024,9 hPa 0,0 l/m 12,2 km/h (2 Bft) O-NO 57 1 min 0,000 mm 0,7 UV-I 340 W/m 10,4 C 12,7 C 17,7 km/h (3 Bft) 100,00 %
20.04.2018 08:34 15,4 C 12,8 C 72 % 1024,9 hPa 0,0 l/m 13,6 km/h (3 Bft) O-NO 68 1 min 0,000 mm 0,7 UV-I 343 W/m 10,4 C 12,1 C 17,7 km/h (3 Bft) 100,00 %
20.04.2018 08:35 15,5 C 12,8 C 72 % 1024,8 hPa 0,0 l/m 9,3 km/h (2 Bft) O 88 1 min 0,000 mm 0,7 UV-I 345 W/m 10,5 C 14,0 C 17,7 km/h (3 Bft) 96,15 %
20.04.2018 08:36 15,5 C 12,8 C 72 % 1024,9 hPa 0,0 l/m 14,3 km/h (3 Bft) O 96 1 min 0,000 mm 0,7 UV-I 348 W/m 10,5 C 12,0 C 20,9 km/h (4 Bft) 100,00 %
20.04.2018 08:37 15,6 C 12,8 C 71 % 1024,9 hPa 0,0 l/m 15,0 km/h (3 Bft) O-NO 65 1 min 0,000 mm 0,7 UV-I 351 W/m 10,4 C 11,9 C 19,3 km/h (3 Bft) 96,15 %
20.04.2018 08:38 15,6 C 12,8 C 72 % 1024,9 hPa 0,0 l/m 17,3 km/h (3 Bft) O-SO 105 1 min 0,000 mm 0,7 UV-I 354 W/m 10,6 C 11,2 C 24,1 km/h (4 Bft) 95,83 %
20.04.2018 08:39 15,6 C 12,8 C 71 % 1024,9 hPa 0,0 l/m 16,4 km/h (3 Bft) O-NO 59 1 min 0,000 mm 0,7 UV-I 356 W/m 10,4 C 11,5 C 19,3 km/h (3 Bft) 100,00 %
20.04.2018 08:40 15,6 C 12,8 C 71 % 1024,9 hPa 0,0 l/m 13,5 km/h (3 Bft) O-NO 66 1 min 0,000 mm 0,8 UV-I 359 W/m 10,4 C 12,4 C 19,3 km/h (3 Bft) 100,00 %
20.04.2018 08:41 15,7 C 12,8 C 71 % 1024,9 hPa 0,0 l/m 16,0 km/h (3 Bft) O-NO 74 1 min 0,000 mm 0,8 UV-I 362 W/m 10,5 C 11,7 C 19,3 km/h (3 Bft) 96,30 %
20.04.2018 08:42 15,7 C 12,8 C 71 % 1024,9 hPa 0,0 l/m 18,9 km/h (3 Bft) O 86 1 min 0,000 mm 0,8 UV-I 365 W/m 10,5 C 10,9 C 22,5 km/h (4 Bft) 100,00 %
20.04.2018 08:44 15,7 C 12,8 C 71 % 1024,9 hPa 0,0 l/m 17,5 km/h (3 Bft) O-NO 69 2 min 0,000 mm 0,8 UV-I 369 W/m 10,5 C 11,3 C 24,1 km/h (4 Bft) 100,00 %
20.04.2018 08:45 15,7 C 12,2 C 71 % 1024,9 hPa 0,0 l/m 16,0 km/h (3 Bft) O-NO 74 1 min 0,000 mm 0,8 UV-I 373 W/m 10,5 C 11,7 C 20,9 km/h (4 Bft) 100,00 %
20.04.2018 08:46 15,8 C 12,8 C 71 % 1025,0 hPa 0,0 l/m 16,7 km/h (3 Bft) O 80 1 min 0,000 mm 0,8 UV-I 376 W/m 10,6 C 11,7 C 20,9 km/h (4 Bft) 100,00 %
20.04.2018 08:47 15,8 C 12,8 C 70 % 1024,9 hPa 0,0 l/m 16,9 km/h (3 Bft) O 97 1 min 0,000 mm 0,8 UV-I 378 W/m 10,3 C 11,6 C 20,9 km/h (4 Bft) 95,83 %
20.04.2018 08:48 15,8 C 12,8 C 70 % 1024,9 hPa 0,0 l/m 17,9 km/h (3 Bft) O-NO 58 1 min 0,000 mm 0,8 UV-I 380 W/m 10,3 C 11,3 C 22,5 km/h (4 Bft) 100,00 %
20.04.2018 08:49 15,8 C 12,8 C 71 % 1025,0 hPa 0,0 l/m 16,3 km/h (3 Bft) O-NO 63 1 min 0,000 mm 0,9 UV-I 382 W/m 10,6 C 11,8 C 22,5 km/h (4 Bft) 92,59 %
20.04.2018 08:50 15,9 C 12,8 C 71 % 1024,9 hPa 0,0 l/m 21,7 km/h (4 Bft) O 94 1 min 0,000 mm 0,9 UV-I 384 W/m 10,6 C 10,5 C 25,7 km/h (4 Bft) 100,00 %
20.04.2018 08:51 15,9 C 12,8 C 70 % 1025,0 hPa 0,0 l/m 20,0 km/h (4 Bft) O-NO 59 1 min 0,000 mm 0,9 UV-I 387 W/m 10,4 C 10,9 C 25,7 km/h (4 Bft) 94,44 %
20.04.2018 08:52 15,9 C 12,8 C 70 % 1024,9 hPa 0,0 l/m 19,2 km/h (3 Bft) O-NO 68 1 min 0,000 mm 0,9 UV-I 390 W/m 10,4 C 11,1 C 24,1 km/h (4 Bft) 100,00 %
20.04.2018 08:53 15,9 C 12,8 C 71 % 1024,9 hPa 0,0 l/m 16,7 km/h (3 Bft) O 83 1 min 0,000 mm 0,9 UV-I 392 W/m 10,6 C 11,8 C 20,9 km/h (4 Bft) 96,67 %
20.04.2018 08:54 16,1 C 12,8 C 71 % 1024,9 hPa 0,0 l/m 15,5 km/h (3 Bft) O 96 1 min 0,000 mm 0,9 UV-I 394 W/m 10,8 C 12,4 C 19,3 km/h (3 Bft) 95,65 %
20.04.2018 08:55 16,1 C 12,8 C 70 % 1024,9 hPa 0,0 l/m 15,4 km/h (3 Bft) O 79 1 min 0,000 mm 0,9 UV-I 397 W/m 10,6 C 12,4 C 20,9 km/h (4 Bft) 100,00 %
20.04.2018 08:56 16,1 C 12,8 C 71 % 1024,9 hPa 0,0 l/m 14,8 km/h (3 Bft) O 98 1 min 0,000 mm 0,9 UV-I 400 W/m 10,8 C 12,6 C 22,5 km/h (4 Bft) 95,83 %
20.04.2018 08:57 16,2 C 12,8 C 71 % 1024,9 hPa 0,0 l/m 13,8 km/h (3 Bft) O-NO 74 1 min 0,000 mm 0,9 UV-I 403 W/m 10,9 C 13,0 C 19,3 km/h (3 Bft) 100,00 %
20.04.2018 08:58 16,2 C 12,8 C 70 % 1024,9 hPa 0,0 l/m 14,6 km/h (3 Bft) O-NO 69 1 min 0,000 mm 0,9 UV-I 406 W/m 10,7 C 12,8 C 17,7 km/h (3 Bft) 95,83 %
20.04.2018 08:59 16,2 C 12,8 C 70 % 1024,9 hPa 0,0 l/m 14,0 km/h (3 Bft) O 98 1 min 0,000 mm 1,0 UV-I 408 W/m 10,7 C 13,0 C 17,7 km/h (3 Bft) 100,00 %
20.04.2018 09:00 16,2 C 12,8 C 70 % 1024,9 hPa 0,0 l/m 7,8 km/h (2 Bft) O 84 1 min 0,228 mm 1,0 UV-I 411 W/m 10,7 C 15,5 C 12,9 km/h (3 Bft) 95,83 %
20.04.2018 09:01 16,3 C 12,8 C 70 % 1024,9 hPa 0,0 l/m 9,4 km/h (2 Bft) O-NO 76 1 min 0,000 mm 1,0 UV-I 413 W/m 10,8 C 14,8 C 17,7 km/h (3 Bft) 100,00 %
20.04.2018 09:02 16,3 C 12,8 C 70 % 1024,8 hPa 0,0 l/m 15,7 km/h (3 Bft) O-NO 78 1 min 0,000 mm 1,0 UV-I 415 W/m 10,8 C 12,6 C 19,3 km/h (3 Bft) 96,30 %
20.04.2018 09:03 16,4 C 12,8 C 70 % 1024,9 hPa 0,0 l/m 14,0 km/h (3 Bft) O-NO 69 1 min 0,000 mm 1,0 UV-I 418 W/m 10,9 C 13,2 C 22,5 km/h (4 Bft) 100,00 %
20.04.2018 09:04 16,4 C 12,8 C 70 % 1024,9 hPa 0,0 l/m 16,8 km/h (3 Bft) O-NO 76 1 min 0,000 mm 1,0 UV-I 422 W/m 10,9 C 12,4 C 20,9 km/h (4 Bft) 96,30 %
20.04.2018 09:05 16,4 C 12,8 C 69 % 1024,9 hPa 0,0 l/m 13,4 km/h (3 Bft) O-NO 66 1 min 0,000 mm 1,0 UV-I 424 W/m 10,7 C 13,4 C 20,9 km/h (4 Bft) 96,15 %
20.04.2018 09:06 16,5 C 12,8 C 70 % 1024,8 hPa 0,0 l/m 14,8 km/h (3 Bft) O-NO 61 1 min 0,000 mm 1,1 UV-I 426 W/m 11,0 C 13,1 C 19,3 km/h (3 Bft) 100,00 %
20.04.2018 09:07 16,5 C 12,8 C 69 % 1024,9 hPa 0,0 l/m 13,9 km/h (3 Bft) O 84 1 min 0,000 mm 1,1 UV-I 428 W/m 10,8 C 13,4 C 17,7 km/h (3 Bft) 88,24 %
20.04.2018 09:08 16,6 C 12,8 C 70 % 1024,9 hPa 0,0 l/m 11,1 km/h (2 Bft) O-NO 65 1 min 0,000 mm 1,1 UV-I 430 W/m 11,1 C 14,4 C 17,7 km/h (3 Bft) 100,00 %
20.04.2018 09:09 16,7 C 12,8 C 71 % 1024,9 hPa 0,0 l/m 14,3 km/h (3 Bft) O-NO 76 1 min 0,000 mm 1,1 UV-I 433 W/m 11,4 C 13,5 C 16,1 km/h (3 Bft) 96,15 %
20.04.2018 09:10 16,7 C 12,8 C 69 % 1024,9 hPa 0,0 l/m 17,5 km/h (3 Bft) O-NO 76 1 min 0,000 mm 1,1 UV-I 436 W/m 11,0 C 12,6 C 22,5 km/h (4 Bft) 96,30 %
20.04.2018 09:11 16,7 C 12,8 C 69 % 1024,9 hPa 0,0 l/m 14,8 km/h (3 Bft) O 88 1 min 0,000 mm 1,1 UV-I 439 W/m 11,0 C 13,3 C 19,3 km/h (3 Bft) 100,00 %
20.04.2018 09:12 16,8 C 12,8 C 69 % 1024,8 hPa 0,0 l/m 14,6 km/h (3 Bft) O 80 1 min 0,000 mm 1,1 UV-I 441 W/m 11,1 C 13,5 C 19,3 km/h (3 Bft) 95,83 %
20.04.2018 09:13 16,8 C 12,8 C 69 % 1024,8 hPa 0,0 l/m 15,0 km/h (3 Bft) O 92 1 min 0,000 mm 1,1 UV-I 442 W/m 11,1 C 13,4 C 17,7 km/h (3 Bft) 100,00 %
20.04.2018 09:14 16,8 C 12,8 C 69 % 1024,8 hPa 0,0 l/m 12,6 km/h (3 Bft) O 88 1 min 0,000 mm 1,2 UV-I 445 W/m 11,1 C 14,1 C 16,1 km/h (3 Bft) 96,55 %
20.04.2018 09:15 16,8 C 12,8 C 69 % 1024,8 hPa 0,0 l/m 15,5 km/h (3 Bft) O-NO 74 1 min 0,000 mm 1,2 UV-I 448 W/m 11,1 C 13,2 C 17,7 km/h (3 Bft) 100,00 %
20.04.2018 09:16 16,9 C 12,8 C 68 % 1024,9 hPa 0,0 l/m 16,5 km/h (3 Bft) O 82 1 min 0,000 mm 1,2 UV-I 452 W/m 11,0 C 13,1 C 20,9 km/h (4 Bft) 95,83 %
20.04.2018 09:17 16,9 C 12,8 C 68 % 1024,8 hPa 0,0 l/m 11,7 km/h (2 Bft) O 93 1 min 0,000 mm 1,2 UV-I 455 W/m 11,0 C 14,6 C 14,5 km/h (3 Bft) 100,00 %
20.04.2018 09:18 16,9 C 12,8 C 69 % 1024,8 hPa 0,0 l/m 15,9 km/h (3 Bft) O-NO 61 1 min 0,000 mm 1,2 UV-I 456 W/m 11,2 C 13,2 C 20,9 km/h (4 Bft) 100,00 %
20.04.2018 09:19 17,0 C 12,8 C 69 % 1024,9 hPa 0,0 l/m 13,5 km/h (3 Bft) O 94 1 min 0,000 mm 1,2 UV-I 461 W/m 11,3 C 14,1 C 17,7 km/h (3 Bft) 96,30 %
20.04.2018 09:20 17,1 C 12,8 C 69 % 1024,9 hPa 0,0 l/m 15,8 km/h (3 Bft) O-NO 71 1 min 0,000 mm 1,2 UV-I 462 W/m 11,4 C 13,5 C 19,3 km/h (3 Bft) 100,00 %
20.04.2018 09:21 17,1 C 12,8 C 69 % 1024,7 hPa 0,0 l/m 10,7 km/h (2 Bft) O-NO 57 1 min 0,000 mm 1,3 UV-I 465 W/m 11,4 C 15,2 C 12,9 km/h (3 Bft) 96,67 %
20.04.2018 09:22 17,2 C 12,8 C 69 % 1024,7 hPa 0,0 l/m 10,6 km/h (2 Bft) O-NO 76 1 min 0,000 mm 1,3 UV-I 468 W/m 11,5 C 15,3 C 14,5 km/h (3 Bft) 100,00 %
20.04.2018 09:23 17,2 C 12,8 C 69 % 1024,8 hPa 0,0 l/m 10,8 km/h (2 Bft) O 82 1 min 0,000 mm 1,3 UV-I 472 W/m 11,5 C 15,2 C 14,5 km/h (3 Bft) 100,00 %
20.04.2018 09:24 17,3 C 12,8 C 69 % 1024,8 hPa 0,0 l/m 12,9 km/h (3 Bft) O-NO 68 1 min 0,000 mm 1,3 UV-I 475 W/m 11,6 C 14,6 C 17,7 km/h (3 Bft) 100,00 %
20.04.2018 09:25 17,3 C 12,8 C 68 % 1024,8 hPa 0,0 l/m 14,1 km/h (3 Bft) O 98 1 min 0,000 mm 1,3 UV-I 477 W/m 11,3 C 14,2 C 17,7 km/h (3 Bft) 100,00 %
20.04.2018 09:26 17,3 C 12,8 C 68 % 1024,8 hPa 0,0 l/m 14,2 km/h (3 Bft) O 88 1 min 0,000 mm 1,3 UV-I 481 W/m 11,3 C 14,2 C 22,5 km/h (4 Bft) 100,00 %
20.04.2018 09:27 17,4 C 12,8 C 67 % 1024,8 hPa 0,0 l/m 20,4 km/h (4 Bft) O 94 1 min 0,000 mm 1,3 UV-I 483 W/m 11,2 C 12,8 C 27,4 km/h (4 Bft) 100,00 %
20.04.2018 09:28 17,3 C 12,8 C 67 % 1024,8 hPa 0,0 l/m 25,3 km/h (4 Bft) O 94 1 min 0,000 mm 1,3 UV-I 485 W/m 11,1 C 11,7 C 33,8 km/h (5 Bft) 100,00 %
20.04.2018 09:29 17,3 C 12,8 C 66 % 1024,9 hPa 0,0 l/m 26,5 km/h (4 Bft) O-NO 71 1 min 0,000 mm 1,4 UV-I 488 W/m 10,9 C 11,5 C 32,2 km/h (5 Bft) 100,00 %
20.04.2018 09:30 17,3 C 12,8 C 66 % 1024,8 hPa 0,0 l/m 17,2 km/h (3 Bft) O-SO 105 1 min 0,000 mm 1,4 UV-I 489 W/m 10,9 C 13,4 C 25,7 km/h (4 Bft) 100,00 %
20.04.2018 09:31 17,3 C 12,2 C 67 % 1024,9 hPa 0,0 l/m 20,5 km/h (4 Bft) NO 54 1 min 0,000 mm 1,4 UV-I 491 W/m 11,1 C 12,6 C 25,7 km/h (4 Bft) 100,00 %
20.04.2018 09:32 17,4 C 12,2 C 68 % 1024,8 hPa 0,0 l/m 19,4 km/h (3 Bft) O 91 1 min 0,000 mm 1,4 UV-I 493 W/m 11,4 C 13,0 C 25,7 km/h (4 Bft) 100,00 %
20.04.2018 09:33 17,4 C 12,8 C 67 % 1024,8 hPa 0,0 l/m 18,5 km/h (3 Bft) O 83 1 min 0,000 mm 1,4 UV-I 496 W/m 11,2 C 13,2 C 25,7 km/h (4 Bft) 100,00 %
20.04.2018 09:34 17,4 C 12,8 C 67 % 1024,9 hPa 0,0 l/m 21,3 km/h (4 Bft) O 85 1 min 0,000 mm 1,4 UV-I 498 W/m 11,2 C 12,6 C 27,4 km/h (4 Bft) 100,00 %
20.04.2018 09:35 17,4 C 12,8 C 67 % 1024,9 hPa 0,0 l/m 22,3 km/h (4 Bft) O 81 1 min 0,000 mm 1,4 UV-I 502 W/m 11,2 C 12,4 C 25,7 km/h (4 Bft) 100,00 %
20.04.2018 09:36 17,4 C 12,8 C 66 % 1024,9 hPa 0,0 l/m 22,5 km/h (4 Bft) O-NO 67 1 min 0,000 mm 1,5 UV-I 504 W/m 11,0 C 12,3 C 27,4 km/h (4 Bft) 100,00 %
20.04.2018 09:37 17,5 C 12,8 C 67 % 1024,8 hPa 0,0 l/m 21,2 km/h (4 Bft) O 101 1 min 0,000 mm 1,5 UV-I 507 W/m 11,3 C 12,7 C 29,0 km/h (5 Bft) 100,00 %
20.04.2018 09:38 17,5 C 12,8 C 67 % 1024,9 hPa 0,0 l/m 22,1 km/h (4 Bft) O 89 1 min 0,000 mm 1,5 UV-I 509 W/m 11,3 C 12,5 C 30,6 km/h (5 Bft) 96,15 %
20.04.2018 09:39 17,6 C 12,2 C 66 % 1024,9 hPa 0,0 l/m 24,0 km/h (4 Bft) NO 50 1 min 0,000 mm 1,5 UV-I 512 W/m 11,2 C 12,3 C 30,6 km/h (5 Bft) 100,00 %
20.04.2018 09:40 17,6 C 12,8 C 67 % 1024,9 hPa 0,0 l/m 21,1 km/h (4 Bft) NO 53 1 min 0,000 mm 1,5 UV-I 512 W/m 11,4 C 12,9 C 29,0 km/h (5 Bft) 100,00 %
20.04.2018 09:41 17,6 C 12,8 C 67 % 1024,8 hPa 0,0 l/m 20,8 km/h (4 Bft) O-NO 63 1 min 0,000 mm 1,5 UV-I 516 W/m 11,4 C 12,9 C 25,7 km/h (4 Bft) 100,00 %
20.04.2018 09:42 17,7 C 12,8 C 67 % 1024,9 hPa 0,0 l/m 16,7 km/h (3 Bft) O-NO 76 1 min 0,000 mm 1,5 UV-I 519 W/m 11,5 C 14,0 C 20,9 km/h (4 Bft) 100,00 %
20.04.2018 09:43 17,7 C 12,8 C 67 % 1024,9 hPa 0,0 l/m 18,2 km/h (3 Bft) NO 45 1 min 0,000 mm 1,6 UV-I 520 W/m 11,5 C 13,6 C 24,1 km/h (4 Bft) 100,00 %
20.04.2018 09:44 17,8 C 12,8 C 66 % 1024,9 hPa 0,0 l/m 20,3 km/h (4 Bft) O-NO 70 1 min 0,000 mm 1,6 UV-I 522 W/m 11,4 C 13,3 C 25,7 km/h (4 Bft) 100,00 %
20.04.2018 09:45 17,8 C 12,8 C 66 % 1024,9 hPa 0,0 l/m 22,9 km/h (4 Bft) O 92 1 min 0,000 mm 1,6 UV-I 524 W/m 11,4 C 12,8 C 30,6 km/h (5 Bft) 100,00 %
20.04.2018 09:46 17,8 C 12,8 C 66 % 1024,9 hPa 0,0 l/m 20,9 km/h (4 Bft) O-NO 67 1 min 0,000 mm 1,6 UV-I 529 W/m 11,4 C 13,2 C 27,4 km/h (4 Bft) 100,00 %
20.04.2018 09:47 17,9 C 12,8 C 67 % 1024,9 hPa 0,0 l/m 18,5 km/h (3 Bft) O 81 1 min 0,000 mm 1,6 UV-I 528 W/m 11,7 C 13,8 C 27,4 km/h (4 Bft) 95,65 %
20.04.2018 09:48 17,9 C 12,2 C 66 % 1024,9 hPa 0,0 l/m 16,5 km/h (3 Bft) O-NO 57 1 min 0,000 mm 1,6 UV-I 531 W/m 11,5 C 14,3 C 20,9 km/h (4 Bft) 100,00 %
20.04.2018 09:49 18,0 C 12,8 C 66 % 1024,9 hPa 0,0 l/m 18,3 km/h (3 Bft) O-NO 69 1 min 0,000 mm 1,6 UV-I 534 W/m 11,6 C 14,0 C 24,1 km/h (4 Bft) 100,00 %
20.04.2018 09:50 18,0 C 12,8 C 66 % 1024,9 hPa 0,0 l/m 21,9 km/h (4 Bft) O 88 1 min 0,000 mm 1,7 UV-I 537 W/m 11,6 C 13,2 C 27,4 km/h (4 Bft) 95,83 %
20.04.2018 09:51 18,1 C 12,8 C 65 % 1024,8 hPa 0,0 l/m 19,7 km/h (3 Bft) O-NO 65 1 min 0,000 mm 1,7 UV-I 540 W/m 11,4 C 13,8 C 27,4 km/h (4 Bft) 96,15 %
20.04.2018 09:52 18,1 C 12,8 C 65 % 1024,9 hPa 0,0 l/m 21,7 km/h (4 Bft) O-NO 60 1 min 0,000 mm 1,7 UV-I 541 W/m 11,4 C 13,4 C 25,7 km/h (4 Bft) 100,00 %
20.04.2018 09:53 18,1 C 12,8 C 65 % 1024,8 hPa 0,0 l/m 20,6 km/h (4 Bft) O-NO 74 1 min 0,000 mm 1,7 UV-I 543 W/m 11,4 C 13,6 C 27,4 km/h (4 Bft) 100,00 %
20.04.2018 09:54 18,1 C 12,8 C 65 % 1024,9 hPa 0,0 l/m 21,3 km/h (4 Bft) O-NO 69 1 min 0,000 mm 1,7 UV-I 545 W/m 11,4 C 13,5 C 27,4 km/h (4 Bft) 100,00 %
20.04.2018 09:55 18,2 C 12,8 C 65 % 1024,8 hPa 0,0 l/m 21,1 km/h (4 Bft) O-NO 75 1 min 0,000 mm 1,7 UV-I 548 W/m 11,5 C 13,7 C 30,6 km/h (5 Bft) 100,00 %
20.04.2018 09:56 18,2 C 12,2 C 64 % 1024,9 hPa 0,0 l/m 22,0 km/h (4 Bft) O 96 1 min 0,000 mm 1,8 UV-I 551 W/m 11,3 C 13,5 C 32,2 km/h (5 Bft) 100,00 %
20.04.2018 09:57 18,2 C 12,8 C 65 % 1024,9 hPa 0,0 l/m 21,1 km/h (4 Bft) O 100 1 min 0,000 mm 1,8 UV-I 554 W/m 11,5 C 13,7 C 30,6 km/h (5 Bft) 100,00 %
20.04.2018 09:58 18,2 C 12,8 C 64 % 1024,8 hPa 0,0 l/m 22,6 km/h (4 Bft) O 84 1 min 0,000 mm 1,8 UV-I 555 W/m 11,3 C 13,4 C 27,4 km/h (4 Bft) 92,31 %
20.04.2018 09:59 18,2 C 12,8 C 65 % 1024,8 hPa 0,0 l/m 19,1 km/h (3 Bft) O 89 1 min 0,000 mm 1,8 UV-I 558 W/m 11,5 C 14,1 C 22,5 km/h (4 Bft) 100,00 %
20.04.2018 10:00 18,2 C 12,8 C 64 % 1024,8 hPa 0,0 l/m 20,9 km/h (4 Bft) O-NO 70 1 min 0,000 mm 1,8 UV-I 561 W/m 11,3 C 13,7 C 24,1 km/h (4 Bft) 98,04 %
20.04.2018 10:01 18,2 C 12,8 C 64 % 1024,8 hPa 0,0 l/m 22,1 km/h (4 Bft) O-NO 59 1 min 0,330 mm 1,8 UV-I 563 W/m 11,3 C 13,5 C 25,7 km/h (4 Bft) 100,00 %
20.04.2018 10:02 18,3 C 12,8 C 64 % 1024,8 hPa 0,0 l/m 22,1 km/h (4 Bft) O-SO 113 1 min 0,000 mm 1,8 UV-I 565 W/m 11,4 C 13,6 C 29,0 km/h (5 Bft) 96,15 %
20.04.2018 10:03 18,3 C 12,8 C 64 % 1024,8 hPa 0,0 l/m 22,3 km/h (4 Bft) O 84 1 min 0,000 mm 1,9 UV-I 568 W/m 11,4 C 13,6 C 29,0 km/h (5 Bft) 96,30 %
20.04.2018 10:04 18,3 C 12,2 C 64 % 1024,8 hPa 0,0 l/m 19,4 km/h (3 Bft) O-NO 72 1 min 0,000 mm 1,9 UV-I 570 W/m 11,4 C 14,1 C 24,1 km/h (4 Bft) 100,00 %
20.04.2018 10:05 18,3 C 12,8 C 65 % 1024,8 hPa 0,0 l/m 19,3 km/h (3 Bft) O 85 1 min 0,000 mm 1,9 UV-I 572 W/m 11,6 C 14,2 C 25,7 km/h (4 Bft) 96,30 %
20.04.2018 10:06 18,4 C 12,8 C 64 % 1024,8 hPa 0,0 l/m 17,9 km/h (3 Bft) O-NO 68 1 min 0,000 mm 1,9 UV-I 573 W/m 11,5 C 14,6 C 24,1 km/h (4 Bft) 100,00 %
20.04.2018 10:07 18,4 C 12,8 C 64 % 1024,7 hPa 0,0 l/m 17,5 km/h (3 Bft) NO 56 1 min 0,000 mm 1,9 UV-I 574 W/m 11,5 C 14,7 C 22,5 km/h (4 Bft) 95,83 %
20.04.2018 10:08 18,5 C 12,8 C 64 % 1024,7 hPa 0,0 l/m 14,6 km/h (3 Bft) O-NO 69 1 min 0,000 mm 2,0 UV-I 577 W/m 11,6 C 15,5 C 24,1 km/h (4 Bft) 100,00 %
20.04.2018 10:09 18,6 C 12,2 C 63 % 1024,9 hPa 0,0 l/m 21,8 km/h (4 Bft) O-NO 67 1 min 0,000 mm 2,0 UV-I 578 W/m 11,4 C 14,0 C 29,0 km/h (5 Bft) 95,83 %
20.04.2018 10:10 18,6 C 12,8 C 63 % 1024,9 hPa 0,0 l/m 22,9 km/h (4 Bft) O 94 1 min 0,000 mm 2,0 UV-I 580 W/m 11,4 C 13,8 C 32,2 km/h (5 Bft) 100,00 %
20.04.2018 10:11 18,6 C 12,8 C 63 % 1024,7 hPa 0,0 l/m 17,8 km/h (3 Bft) O-NO 76 1 min 0,000 mm 2,0 UV-I 583 W/m 11,4 C 14,9 C 24,1 km/h (4 Bft) 95,83 %
20.04.2018 10:12 18,7 C 12,8 C 63 % 1024,8 hPa 0,0 l/m 22,6 km/h (4 Bft) O-NO 74 1 min 0,000 mm 2,0 UV-I 586 W/m 11,5 C 14,0 C 30,6 km/h (5 Bft) 95,65 %
20.04.2018 10:13 18,7 C 12,8 C 63 % 1024,8 hPa 0,0 l/m 18,1 km/h (3 Bft) NO 46 1 min 0,000 mm 2,0 UV-I 589 W/m 11,5 C 14,9 C 22,5 km/h (4 Bft) 93,33 %
20.04.2018 10:14 18,8 C 12,8 C 63 % 1024,7 hPa 0,0 l/m 20,2 km/h (4 Bft) O 94 1 min 0,000 mm 2,1 UV-I 591 W/m 11,6 C 14,6 C 25,7 km/h (4 Bft) 100,00 %
20.04.2018 10:15 18,8 C 12,8 C 63 % 1024,8 hPa 0,0 l/m 18,9 km/h (3 Bft) O-NO 71 1 min 0,000 mm 2,1 UV-I 592 W/m 11,6 C 14,9 C 25,7 km/h (4 Bft) 96,15 %
20.04.2018 10:16 18,8 C 12,8 C 62 % 1024,7 hPa 0,0 l/m 18,7 km/h (3 Bft) O-NO 78 1 min 0,000 mm 2,1 UV-I 593 W/m 11,4 C 14,9 C 27,4 km/h (4 Bft) 95,83 %
20.04.2018 10:17 18,8 C 12,8 C 61 % 1024,7 hPa 0,0 l/m 19,2 km/h (3 Bft) O-NO 63 1 min 0,000 mm 2,1 UV-I 596 W/m 11,1 C 14,8 C 24,1 km/h (4 Bft) 100,00 %
20.04.2018 10:18 18,8 C 12,8 C 62 % 1024,7 hPa 0,0 l/m 19,2 km/h (3 Bft) O-NO 69 1 min 0,000 mm 2,1 UV-I 598 W/m 11,4 C 14,8 C 29,0 km/h (5 Bft) 95,83 %
20.04.2018 10:19 18,9 C 12,8 C 62 % 1024,7 hPa 0,0 l/m 22,0 km/h (4 Bft) O 80 1 min 0,000 mm 2,1 UV-I 599 W/m 11,5 C 14,4 C 29,0 km/h (5 Bft) 91,30 %
20.04.2018 10:20 18,9 C 12,8 C 61 % 1024,6 hPa 0,0 l/m 18,6 km/h (3 Bft) O-NO 76 1 min 0,000 mm 2,2 UV-I 603 W/m 11,2 C 15,1 C 25,7 km/h (4 Bft) 96,30 %
20.04.2018 10:21 18,9 C 12,8 C 62 % 1024,7 hPa 0,0 l/m 18,9 km/h (3 Bft) O-NO 74 1 min 0,000 mm 2,2 UV-I 603 W/m 11,5 C 15,0 C 24,1 km/h (4 Bft) 96,55 %
20.04.2018 10:22 19,0 C 12,8 C 62 % 1024,7 hPa 0,0 l/m 18,1 km/h (3 Bft) O-NO 61 1 min 0,000 mm 2,2 UV-I 606 W/m 11,6 C 15,3 C 24,1 km/h (4 Bft) 95,83 %
20.04.2018 10:23 19,0 C 12,8 C 62 % 1024,7 hPa 0,0 l/m 17,2 km/h (3 Bft) O-NO 75 1 min 0,000 mm 2,2 UV-I 608 W/m 11,6 C 15,5 C 20,9 km/h (4 Bft) 100,00 %
20.04.2018 10:24 19,1 C 12,8 C 62 % 1024,7 hPa 0,0 l/m 17,0 km/h (3 Bft) O-NO 67 1 min 0,000 mm 2,2 UV-I 610 W/m 11,6 C 15,7 C 19,3 km/h (3 Bft) 91,67 %
20.04.2018 10:25 19,2 C 12,8 C 62 % 1024,7 hPa 0,0 l/m 19,2 km/h (3 Bft) NO 56 1 min 0,000 mm 2,2 UV-I 613 W/m 11,7 C 15,3 C 24,1 km/h (4 Bft) 100,00 %
20.04.2018 10:26 19,2 C 12,8 C 61 % 1024,7 hPa 0,0 l/m 18,0 km/h (3 Bft) O-NO 67 1 min 0,000 mm 2,3 UV-I 613 W/m 11,5 C 15,6 C 20,9 km/h (4 Bft) 94,44 %
20.04.2018 10:27 19,3 C 12,8 C 61 % 1024,7 hPa 0,0 l/m 18,9 km/h (3 Bft) O 84 1 min 0,000 mm 2,3 UV-I 619 W/m 11,6 C 15,5 C 25,7 km/h (4 Bft) 100,00 %
20.04.2018 10:28 19,3 C 12,8 C 60 % 1024,7 hPa 0,0 l/m 19,0 km/h (3 Bft) O 93 1 min 0,000 mm 1,8 UV-I 619 W/m 11,3 C 15,5 C 27,4 km/h (4 Bft) 93,33 %
20.04.2018 10:29 19,3 C 12,8 C 60 % 1024,7 hPa 0,0 l/m 21,0 km/h (4 Bft) NO 50 1 min 0,000 mm 2,3 UV-I 623 W/m 11,3 C 15,1 C 25,7 km/h (4 Bft) 96,88 %
20.04.2018 10:30 19,4 C 12,8 C 62 % 1024,7 hPa 0,0 l/m 16,2 km/h (3 Bft) O 100 1 min 0,000 mm 2,3 UV-I 626 W/m 11,9 C 16,2 C 19,3 km/h (3 Bft) 100,00 %
20.04.2018 10:31 19,5 C 12,8 C 60 % 1024,7 hPa 0,0 l/m 17,0 km/h (3 Bft) O-NO 74 1 min 0,000 mm 2,4 UV-I 628 W/m 11,5 C 16,2 C 22,5 km/h (4 Bft) 97,73 %
20.04.2018 10:32 19,6 C 12,8 C 61 % 1024,7 hPa 0,0 l/m 17,1 km/h (3 Bft) NO 41 1 min 0,000 mm 2,4 UV-I 629 W/m 11,9 C 16,3 C 20,9 km/h (4 Bft) 100,00 %
20.04.2018 10:33 19,7 C 12,8 C 62 % 1024,7 hPa 0,0 l/m 15,2 km/h (3 Bft) O 84 1 min 0,000 mm 2,4 UV-I 630 W/m 12,2 C 16,8 C 24,1 km/h (4 Bft) 96,55 %
20.04.2018 10:34 19,7 C 12,8 C 61 % 1024,7 hPa 0,0 l/m 15,5 km/h (3 Bft) O-NO 64 1 min 0,000 mm 2,4 UV-I 635 W/m 12,0 C 16,8 C 25,7 km/h (4 Bft) 96,30 %
20.04.2018 10:35 19,8 C 12,8 C 60 % 1024,7 hPa 0,0 l/m 17,0 km/h (3 Bft) O-NO 73 1 min 0,000 mm 2,4 UV-I 636 W/m 11,8 C 16,6 C 22,5 km/h (4 Bft) 94,44 %
20.04.2018 10:36 19,8 C 12,8 C 61 % 1024,6 hPa 0,0 l/m 20,1 km/h (4 Bft) O-NO 71 1 min 0,000 mm 2,5 UV-I 638 W/m 12,1 C 15,9 C 24,1 km/h (4 Bft) 93,10 %
20.04.2018 10:37 19,9 C 12,8 C 60 % 1024,7 hPa 0,0 l/m 15,3 km/h (3 Bft) NO 55 1 min 0,000 mm 2,5 UV-I 640 W/m 11,9 C 17,1 C 19,3 km/h (3 Bft) 100,00 %
20.04.2018 10:38 19,9 C 12,8 C 61 % 1024,6 hPa 0,0 l/m 19,0 km/h (3 Bft) O-NO 76 1 min 0,000 mm 2,5 UV-I 642 W/m 12,2 C 16,3 C 24,1 km/h (4 Bft) 93,10 %
20.04.2018 10:39 20,0 C 12,8 C 59 % 1024,7 hPa 0,0 l/m 16,2 km/h (3 Bft) O 82 1 min 0,000 mm 2,5 UV-I 643 W/m 11,7 C 17,0 C 20,9 km/h (4 Bft) 100,00 %
20.04.2018 10:40 20,0 C 12,8 C 58 % 1024,6 hPa 0,0 l/m 17,3 km/h (3 Bft) O 81 1 min 0,000 mm 2,5 UV-I 648 W/m 11,5 C 16,7 C 20,9 km/h (4 Bft) 91,43 %
20.04.2018 10:41 20,1 C 12,8 C 60 % 1024,7 hPa 0,0 l/m 19,9 km/h (4 Bft) NO 51 1 min 0,000 mm 2,6 UV-I 650 W/m 12,1 C 16,4 C 24,1 km/h (4 Bft) 100,00 %
20.04.2018 10:42 20,2 C 12,8 C 58 % 1024,6 hPa 0,0 l/m 15,5 km/h (3 Bft) NO 47 1 min 0,000 mm 2,6 UV-I 648 W/m 11,7 C 17,4 C 24,1 km/h (4 Bft) 95,65 %
20.04.2018 10:43 20,2 C 12,8 C 60 % 1024,7 hPa 0,0 l/m 14,2 km/h (3 Bft) O-NO 57 1 min 0,000 mm 2,6 UV-I 648 W/m 12,2 C 17,7 C 20,9 km/h (4 Bft) 100,00 %
20.04.2018 10:44 20,2 C 12,8 C 59 % 1024,6 hPa 0,0 l/m 15,6 km/h (3 Bft) NO 53 1 min 0,000 mm 2,6 UV-I 649 W/m 11,9 C 17,4 C 19,3 km/h (3 Bft) 92,31 %
20.04.2018 10:45 20,3 C 12,8 C 58 % 1024,6 hPa 0,0 l/m 16,8 km/h (3 Bft) O-NO 67 1 min 0,000 mm 2,6 UV-I 653 W/m 11,8 C 17,2 C 20,9 km/h (4 Bft) 100,00 %
20.04.2018 10:46 20,3 C 12,8 C 58 % 1024,6 hPa 0,0 l/m 19,9 km/h (4 Bft) O 90 1 min 0,000 mm 2,6 UV-I 654 W/m 11,8 C 16,6 C 25,7 km/h (4 Bft) 92,31 %
20.04.2018 10:47 20,3 C 12,8 C 58 % 1024,6 hPa 0,0 l/m 20,7 km/h (4 Bft) O-NO 73 1 min 0,000 mm 2,7 UV-I 656 W/m 11,8 C 16,5 C 25,7 km/h (4 Bft) 100,00 %
20.04.2018 10:48 20,3 C 12,8 C 55 % 1024,7 hPa 0,0 l/m 19,1 km/h (3 Bft) O-NO 73 1 min 0,000 mm 2,7 UV-I 659 W/m 11,0 C 16,8 C 22,5 km/h (4 Bft) 90,32 %
20.04.2018 10:49 20,2 C 12,8 C 55 % 1024,7 hPa 0,0 l/m 22,7 km/h (4 Bft) O-NO 69 1 min 0,000 mm 2,7 UV-I 661 W/m 10,9 C 16,0 C 27,4 km/h (4 Bft) 91,67 %
20.04.2018 10:50 20,2 C 12,8 C 55 % 1024,6 hPa 0,0 l/m 22,4 km/h (4 Bft) O-NO 67 1 min 0,000 mm 2,7 UV-I 661 W/m 10,9 C 16,1 C 27,4 km/h (4 Bft) 100,00 %
20.04.2018 10:51 20,2 C 12,8 C 56 % 1024,6 hPa 0,0 l/m 18,6 km/h (3 Bft) O-NO 78 1 min 0,000 mm 2,7 UV-I 661 W/m 11,1 C 16,7 C 25,7 km/h (4 Bft) 91,67 %
20.04.2018 10:52 20,2 C 12,8 C 56 % 1024,7 hPa 0,0 l/m 19,5 km/h (3 Bft) O 92 1 min 0,000 mm 2,7 UV-I 661 W/m 11,1 C 16,6 C 24,1 km/h (4 Bft) 100,00 %
20.04.2018 10:53 20,2 C 12,8 C 56 % 1024,6 hPa 0,0 l/m 20,9 km/h (4 Bft) O 90 1 min 0,000 mm 2,8 UV-I 664 W/m 11,1 C 16,3 C 27,4 km/h (4 Bft) 87,50 %
20.04.2018 10:54 20,2 C 12,8 C 57 % 1024,6 hPa 0,0 l/m 18,5 km/h (3 Bft) O 83 1 min 0,000 mm 2,8 UV-I 665 W/m 11,4 C 16,7 C 22,5 km/h (4 Bft) 95,65 %
20.04.2018 10:55 20,3 C 12,8 C 56 % 1024,6 hPa 0,0 l/m 19,6 km/h (3 Bft) O 80 1 min 0,000 mm 2,8 UV-I 664 W/m 11,2 C 16,7 C 24,1 km/h (4 Bft) 95,83 %
20.04.2018 10:56 20,3 C 12,8 C 57 % 1024,6 hPa 0,0 l/m 20,3 km/h (4 Bft) O-NO 66 1 min 0,000 mm 2,8 UV-I 659 W/m 11,5 C 16,5 C 24,1 km/h (4 Bft) 100,00 %
20.04.2018 10:57 20,3 C 12,8 C 56 % 1024,6 hPa 0,0 l/m 14,6 km/h (3 Bft) O 80 1 min 0,000 mm 2,8 UV-I 665 W/m 11,2 C 17,7 C 19,3 km/h (3 Bft) 92,31 %
20.04.2018 10:58 20,4 C 12,8 C 57 % 1024,6 hPa 0,0 l/m 12,6 km/h (3 Bft) NO 49 1 min 0,000 mm 2,8 UV-I 668 W/m 11,6 C 18,3 C 19,3 km/h (3 Bft) 96,30 %
20.04.2018 10:59 20,6 C 12,8 C 57 % 1024,5 hPa 0,0 l/m 19,2 km/h (3 Bft) O 84 1 min 0,000 mm 2,8 UV-I 662 W/m 11,8 C 17,1 C 24,1 km/h (4 Bft) 96,55 %
20.04.2018 11:00 20,7 C 12,8 C 57 % 1024,5 hPa 0,0 l/m 15,4 km/h (3 Bft) O-NO 63 1 min 0,458 mm 2,9 UV-I 663 W/m 11,9 C 18,0 C 20,9 km/h (4 Bft) 91,67 %
20.04.2018 11:02 20,8 C 12,8 C 56 % 1024,5 hPa 0,0 l/m 12,9 km/h (3 Bft) O 79 2 min 0,000 mm 2,9 UV-I 678 W/m 11,7 C 18,7 C 19,3 km/h (3 Bft) 93,18 %
20.04.2018 11:03 20,8 C 12,8 C 55 % 1024,6 hPa 0,0 l/m 12,1 km/h (2 Bft) O-NO 76 1 min 0,000 mm 2,9 UV-I 686 W/m 11,4 C 18,9 C 17,7 km/h (3 Bft) 96,88 %
20.04.2018 11:04 20,8 C 12,8 C 55 % 1024,6 hPa 0,0 l/m 11,7 km/h (2 Bft) O-SO 103 1 min 0,000 mm 2,9 UV-I 685 W/m 11,4 C 19,0 C 17,7 km/h (3 Bft) 92,59 %
20.04.2018 11:05 20,9 C 12,8 C 57 % 1024,6 hPa 0,0 l/m 13,3 km/h (3 Bft) O-NO 75 1 min 0,000 mm 3,0 UV-I 686 W/m 12,1 C 18,7 C 19,3 km/h (3 Bft) 100,00 %
20.04.2018 11:06 20,9 C 12,8 C 56 % 1024,6 hPa 0,0 l/m 14,9 km/h (3 Bft) O-NO 69 1 min 0,000 mm 3,0 UV-I 688 W/m 11,8 C 18,4 C 20,9 km/h (4 Bft) 95,83 %
20.04.2018 11:07 20,8 C 12,8 C 54 % 1024,6 hPa 0,0 l/m 22,4 km/h (4 Bft) O-NO 61 1 min 0,000 mm 3,0 UV-I 692 W/m 11,1 C 16,8 C 27,4 km/h (4 Bft) 100,00 %
20.04.2018 11:08 20,8 C 12,8 C 54 % 1024,6 hPa 0,0 l/m 22,9 km/h (4 Bft) O-NO 69 1 min 0,000 mm 3,0 UV-I 687 W/m 11,1 C 16,8 C 27,4 km/h (4 Bft) 95,83 %
20.04.2018 11:09 20,8 C 12,8 C 54 % 1024,6 hPa 0,0 l/m 22,0 km/h (4 Bft) O-NO 69 1 min 0,000 mm 3,0 UV-I 692 W/m 11,1 C 16,9 C 27,4 km/h (4 Bft) 95,65 %
20.04.2018 11:10 20,8 C 12,8 C 53 % 1024,5 hPa 0,0 l/m 21,7 km/h (4 Bft) O-NO 63 1 min 0,000 mm 3,0 UV-I 696 W/m 10,9 C 17,0 C 27,4 km/h (4 Bft) 100,00 %
20.04.2018 11:11 20,8 C 12,8 C 53 % 1024,6 hPa 0,0 l/m 18,7 km/h (3 Bft) O-NO 63 1 min 0,000 mm 3,1 UV-I 695 W/m 10,9 C 17,5 C 27,4 km/h (4 Bft) 100,00 %
20.04.2018 11:12 20,8 C 12,8 C 53 % 1024,6 hPa 0,0 l/m 21,4 km/h (4 Bft) O-NO 71 1 min 0,000 mm 3,1 UV-I 694 W/m 10,9 C 17,0 C 27,4 km/h (4 Bft) 95,65 %
20.04.2018 11:13 20,8 C 12,8 C 52 % 1024,6 hPa 0,0 l/m 22,0 km/h (4 Bft) O-NO 62 1 min 0,000 mm 3,1 UV-I 690 W/m 10,6 C 16,9 C 25,7 km/h (4 Bft) 96,30 %
20.04.2018 11:14 20,8 C 12,8 C 53 % 1024,5 hPa 0,0 l/m 22,4 km/h (4 Bft) O 80 1 min 0,000 mm 3,1 UV-I 690 W/m 10,9 C 16,8 C 25,7 km/h (4 Bft) 96,15 %
20.04.2018 11:15 20,8 C 12,8 C 52 % 1024,5 hPa 0,0 l/m 23,9 km/h (4 Bft) O 86 1 min 0,000 mm 3,1 UV-I 687 W/m 10,6 C 16,6 C 29,0 km/h (5 Bft) 96,30 %
20.04.2018 11:16 20,8 C 12,8 C 51 % 1024,5 hPa 0,0 l/m 21,8 km/h (4 Bft) O 84 1 min 0,000 mm 3,1 UV-I 684 W/m 10,3 C 16,9 C 27,4 km/h (4 Bft) 100,00 %
20.04.2018 11:17 20,9 C 12,8 C 52 % 1024,5 hPa 0,0 l/m 21,7 km/h (4 Bft) O-NO 60 1 min 0,000 mm 3,1 UV-I 691 W/m 10,7 C 17,1 C 25,7 km/h (4 Bft) 100,00 %
20.04.2018 11:18 20,9 C 12,8 C 52 % 1024,6 hPa 0,0 l/m 22,6 km/h (4 Bft) O-NO 60 1 min 0,000 mm 3,1 UV-I 684 W/m 10,7 C 16,9 C 27,4 km/h (4 Bft) 100,00 %
20.04.2018 11:19 20,9 C 12,8 C 52 % 1024,6 hPa 0,0 l/m 20,3 km/h (4 Bft) O-NO 69 1 min 0,000 mm 3,1 UV-I 680 W/m 10,7 C 17,3 C 25,7 km/h (4 Bft) 100,00 %
20.04.2018 11:20 20,9 C 12,8 C 52 % 1024,6 hPa 0,0 l/m 19,8 km/h (3 Bft) O 88 1 min 0,000 mm 3,1 UV-I 693 W/m 10,7 C 17,4 C 27,4 km/h (4 Bft) 100,00 %
20.04.2018 11:21 20,9 C 12,8 C 52 % 1024,5 hPa 0,0 l/m 17,7 km/h (3 Bft) O-NO 71 1 min 0,000 mm 3,1 UV-I 706 W/m 10,7 C 17,8 C 24,1 km/h (4 Bft) 100,00 %
20.04.2018 11:22 20,9 C 12,8 C 52 % 1024,5 hPa 0,0 l/m 16,2 km/h (3 Bft) O 94 1 min 0,000 mm 3,2 UV-I 708 W/m 10,7 C 18,1 C 24,1 km/h (4 Bft) 100,00 %
20.04.2018 11:23 21,0 C 12,8 C 53 % 1024,5 hPa 0,0 l/m 11,1 km/h (2 Bft) O 84 1 min 0,000 mm 3,2 UV-I 713 W/m 11,0 C 19,4 C 14,5 km/h (3 Bft) 100,00 %
20.04.2018 11:24 21,1 C 12,8 C 54 % 1024,5 hPa 0,0 l/m 15,4 km/h (3 Bft) O 90 1 min 0,000 mm 3,2 UV-I 719 W/m 11,4 C 18,5 C 19,3 km/h (3 Bft) 100,00 %
20.04.2018 11:25 21,2 C 12,8 C 52 % 1024,5 hPa 0,0 l/m 18,7 km/h (3 Bft) O 79 1 min 0,000 mm 3,2 UV-I 722 W/m 10,9 C 18,0 C 22,5 km/h (4 Bft) 100,00 %
20.04.2018 11:26 21,2 C 12,8 C 51 % 1024,5 hPa 0,0 l/m 17,3 km/h (3 Bft) O-NO 74 1 min 0,000 mm 3,3 UV-I 722 W/m 10,7 C 18,2 C 20,9 km/h (4 Bft) 100,00 %
20.04.2018 11:27 21,3 C 12,8 C 52 % 1024,4 hPa 0,0 l/m 14,6 km/h (3 Bft) O 81 1 min 0,000 mm 3,3 UV-I 722 W/m 11,0 C 18,9 C 17,7 km/h (3 Bft) 93,33 %
20.04.2018 11:28 21,3 C 12,8 C 53 % 1024,5 hPa 0,0 l/m 20,9 km/h (4 Bft) O-NO 58 1 min 0,000 mm 3,3 UV-I 721 W/m 11,3 C 17,7 C 29,0 km/h (5 Bft) 100,00 %
20.04.2018 11:29 21,4 C 12,8 C 51 % 1024,5 hPa 0,0 l/m 16,7 km/h (3 Bft) O 96 1 min 0,000 mm 3,3 UV-I 723 W/m 10,8 C 18,6 C 27,4 km/h (4 Bft) 100,00 %
20.04.2018 11:30 21,4 C 12,8 C 49 % 1024,5 hPa 0,0 l/m 18,7 km/h (3 Bft) O 82 1 min 0,000 mm 3,3 UV-I 724 W/m 10,2 C 18,2 C 25,7 km/h (4 Bft) 96,15 %
20.04.2018 11:31 21,4 C 12,8 C 49 % 1024,6 hPa 0,0 l/m 17,7 km/h (3 Bft) O-NO 60 1 min 0,000 mm 3,3 UV-I 727 W/m 10,2 C 18,4 C 20,9 km/h (4 Bft) 100,00 %
20.04.2018 11:32 21,4 C 12,8 C 49 % 1024,5 hPa 0,0 l/m 18,3 km/h (3 Bft) O-NO 74 1 min 0,000 mm 3,3 UV-I 726 W/m 10,2 C 18,3 C 24,1 km/h (4 Bft) 100,00 %
20.04.2018 11:33 21,4 C 12,8 C 50 % 1024,5 hPa 0,0 l/m 15,9 km/h (3 Bft) O-NO 76 1 min 0,000 mm 3,3 UV-I 723 W/m 10,5 C 18,8 C 19,3 km/h (3 Bft) 100,00 %
20.04.2018 11:34 21,5 C 12,8 C 52 % 1024,5 hPa 0,0 l/m 15,7 km/h (3 Bft) NO 53 1 min 0,000 mm 3,3 UV-I 726 W/m 11,2 C 18,9 C 24,1 km/h (4 Bft) 96,67 %
20.04.2018 11:35 21,6 C 12,8 C 51 % 1024,4 hPa 0,0 l/m 15,3 km/h (3 Bft) O-NO 63 1 min 0,000 mm 3,4 UV-I 731 W/m 11,0 C 19,1 C 20,9 km/h (4 Bft) 97,80 %
20.04.2018 11:36 21,6 C 12,8 C 50 % 1024,5 hPa 0,0 l/m 20,1 km/h (4 Bft) O-NO 67 1 min 0,000 mm 3,4 UV-I 733 W/m 10,7 C 18,3 C 25,7 km/h (4 Bft) 100,00 %
20.04.2018 11:37 21,6 C 12,8 C 49 % 1024,4 hPa 0,0 l/m 16,3 km/h (3 Bft) O-NO 68 1 min 0,000 mm 3,4 UV-I 733 W/m 10,4 C 18,9 C 24,1 km/h (4 Bft) 100,00 %
20.04.2018 11:38 21,6 C 12,8 C 50 % 1024,4 hPa 0,0 l/m 17,2 km/h (3 Bft) O 88 1 min 0,000 mm 3,4 UV-I 733 W/m 10,7 C 18,8 C 22,5 km/h (4 Bft) 100,00 %
20.04.2018 11:39 21,7 C 12,8 C 50 % 1024,4 hPa 0,0 l/m 15,0 km/h (3 Bft) NO 41 1 min 0,000 mm 3,4 UV-I 736 W/m 10,8 C 19,3 C 19,3 km/h (3 Bft) 100,00 %
20.04.2018 11:40 21,7 C 12,8 C 49 % 1024,4 hPa 0,0 l/m 15,9 km/h (3 Bft) O-NO 78 1 min 0,000 mm 3,4 UV-I 722 W/m 10,5 C 19,1 C 20,9 km/h (4 Bft) 97,83 %
20.04.2018 11:41 21,7 C 12,8 C 49 % 1024,4 hPa 0,0 l/m 20,2 km/h (4 Bft) O-NO 60 1 min 0,000 mm 3,4 UV-I 711 W/m 10,5 C 18,4 C 25,7 km/h (4 Bft) 100,00 %
20.04.2018 11:42 21,8 C 12,8 C 47 % 1024,4 hPa 0,0 l/m 24,4 km/h (4 Bft) O-NO 64 1 min 0,000 mm 3,5 UV-I 736 W/m 10,0 C 17,9 C 27,4 km/h (4 Bft) 100,00 %
20.04.2018 11:43 21,7 C 12,8 C 46 % 1024,4 hPa 0,0 l/m 18,7 km/h (3 Bft) O-SO 114 1 min 0,000 mm 3,5 UV-I 740 W/m 9,6 C 18,6 C 25,7 km/h (4 Bft) 93,94 %
20.04.2018 11:44 21,7 C 12,8 C 47 % 1024,4 hPa 0,0 l/m 19,8 km/h (3 Bft) O-SO 107 1 min 0,000 mm 3,5 UV-I 740 W/m 9,9 C 18,4 C 22,5 km/h (4 Bft) 100,00 %
20.04.2018 11:45 21,7 C 12,8 C 48 % 1024,3 hPa 0,0 l/m 20,0 km/h (4 Bft) O 86 1 min 0,000 mm 3,5 UV-I 740 W/m 10,2 C 18,4 C 24,1 km/h (4 Bft) 95,65 %
20.04.2018 11:46 21,7 C 12,8 C 48 % 1024,3 hPa 0,0 l/m 13,5 km/h (3 Bft) O 94 1 min 0,000 mm 3,5 UV-I 740 W/m 10,2 C 19,6 C 20,9 km/h (4 Bft) 100,00 %
20.04.2018 11:47 21,8 C 12,8 C 50 % 1024,3 hPa 0,0 l/m 19,9 km/h (4 Bft) O-NO 76 1 min 0,000 mm 3,5 UV-I 739 W/m 10,9 C 18,5 C 29,0 km/h (5 Bft) 100,00 %
20.04.2018 11:48 21,8 C 12,8 C 48 % 1024,3 hPa 0,0 l/m 19,0 km/h (3 Bft) O-NO 71 1 min 0,000 mm 3,5 UV-I 738 W/m 10,3 C 18,7 C 22,5 km/h (4 Bft) 100,00 %
20.04.2018 11:49 21,9 C 12,8 C 47 % 1024,3 hPa 0,0 l/m 15,7 km/h (3 Bft) O 88 1 min 0,000 mm 3,5 UV-I 740 W/m 10,1 C 19,4 C 19,3 km/h (3 Bft) 100,00 %
20.04.2018 11:50 21,9 C 12,8 C 48 % 1024,3 hPa 0,0 l/m 15,6 km/h (3 Bft) O 82 1 min 0,000 mm 3,5 UV-I 739 W/m 10,4 C 19,4 C 24,1 km/h (4 Bft) 95,65 %
20.04.2018 11:51 22,0 C 12,8 C 47 % 1024,3 hPa 0,0 l/m 21,9 km/h (4 Bft) O 101 1 min 0,000 mm 3,6 UV-I 744 W/m 10,2 C 18,5 C 27,4 km/h (4 Bft) 100,00 %
20.04.2018 11:52 21,9 C 12,8 C 47 % 1024,3 hPa 0,0 l/m 16,9 km/h (3 Bft) O-NO 68 1 min 0,000 mm 3,6 UV-I 743 W/m 10,1 C 19,2 C 22,5 km/h (4 Bft) 100,00 %
20.04.2018 11:53 22,0 C 12,8 C 47 % 1024,3 hPa 0,0 l/m 15,3 km/h (3 Bft) O 90 1 min 0,000 mm 3,6 UV-I 745 W/m 10,2 C 19,6 C 19,3 km/h (3 Bft) 100,00 %
20.04.2018 11:54 22,0 C 12,8 C 47 % 1024,3 hPa 0,0 l/m 12,9 km/h (3 Bft) O-NO 63 1 min 0,000 mm 3,6 UV-I 747 W/m 10,2 C 20,1 C 20,9 km/h (4 Bft) 100,00 %
20.04.2018 11:55 22,2 C 12,8 C 51 % 1024,2 hPa 0,0 l/m 18,5 km/h (3 Bft) O-NO 71 1 min 0,000 mm 3,6 UV-I 747 W/m 11,6 C 19,3 C 22,5 km/h (4 Bft) 100,00 %
20.04.2018 11:56 22,2 C 12,8 C 46 % 1024,2 hPa 0,0 l/m 19,9 km/h (4 Bft) O 83 1 min 0,000 mm 3,6 UV-I 748 W/m 10,0 C 19,1 C 24,1 km/h (4 Bft) 100,00 %
20.04.2018 11:57 22,2 C 12,8 C 45 % 1024,2 hPa 0,0 l/m 17,2 km/h (3 Bft) O 83 1 min 0,000 mm 3,6 UV-I 750 W/m 9,7 C 19,5 C 22,5 km/h (4 Bft) 100,00 %
20.04.2018 11:58 22,3 C 12,8 C 46 % 1024,2 hPa 0,0 l/m 19,8 km/h (3 Bft) O-SO 115 1 min 0,000 mm 3,7 UV-I 752 W/m 10,1 C 19,2 C 25,7 km/h (4 Bft) 96,15 %
20.04.2018 11:59 22,3 C 12,8 C 45 % 1024,2 hPa 0,0 l/m 20,4 km/h (4 Bft) O-NO 64 1 min 0,000 mm 3,7 UV-I 754 W/m 9,8 C 19,1 C 25,7 km/h (4 Bft) 100,00 %
20.04.2018 12:00 22,2 C 12,8 C 45 % 1024,2 hPa 0,0 l/m 16,9 km/h (3 Bft) O-SO 107 1 min 0,558 mm 3,7 UV-I 756 W/m 9,7 C 19,6 C 24,1 km/h (4 Bft) 96,15 %
20.04.2018 12:01 22,3 C 12,8 C 47 % 1024,1 hPa 0,0 l/m 14,8 km/h (3 Bft) NO 56 1 min 0,000 mm 3,7 UV-I 756 W/m 10,4 C 20,1 C 19,3 km/h (3 Bft) 100,00 %
20.04.2018 12:02 22,4 C 12,8 C 49 % 1024,1 hPa 0,0 l/m 19,2 km/h (3 Bft) NO 51 1 min 0,000 mm 3,7 UV-I 757 W/m 11,2 C 19,4 C 24,1 km/h (4 Bft) 100,00 %
20.04.2018 12:03 22,5 C 12,8 C 46 % 1024,1 hPa 0,0 l/m 22,2 km/h (4 Bft) NO 38 1 min 0,000 mm 3,7 UV-I 758 W/m 10,3 C 19,1 C 27,4 km/h (4 Bft) 100,00 %
20.04.2018 12:04 22,6 C 12,8 C 46 % 1024,1 hPa 0,0 l/m 18,3 km/h (3 Bft) O-NO 68 1 min 0,000 mm 3,7 UV-I 758 W/m 10,4 C 19,8 C 25,7 km/h (4 Bft) 96,15 %
20.04.2018 12:05 22,6 C 12,8 C 45 % 1024,1 hPa 0,0 l/m 15,6 km/h (3 Bft) O-SO 116 1 min 0,000 mm 3,7 UV-I 759 W/m 10,1 C 20,3 C 24,1 km/h (4 Bft) 100,00 %
20.04.2018 12:06 22,5 C 12,8 C 45 % 1024,1 hPa 0,0 l/m 16,1 km/h (3 Bft) O-NO 74 1 min 0,000 mm 3,6 UV-I 740 W/m 10,0 C 20,1 C 27,4 km/h (4 Bft) 100,00 %
20.04.2018 12:07 22,5 C 12,8 C 42 % 1024,1 hPa 0,0 l/m 22,4 km/h (4 Bft) O-NO 65 1 min 0,000 mm 3,7 UV-I 744 W/m 8,9 C 19,1 C 29,0 km/h (5 Bft) 96,55 %
20.04.2018 12:08 22,4 C 12,8 C 42 % 1024,1 hPa 0,0 l/m 21,6 km/h (4 Bft) O-NO 78 1 min 0,000 mm 3,8 UV-I 748 W/m 8,9 C 19,1 C 29,0 km/h (5 Bft) 100,00 %
20.04.2018 12:09 22,4 C 12,8 C 44 % 1024,0 hPa 0,0 l/m 17,9 km/h (3 Bft) O-NO 64 1 min 0,000 mm 3,8 UV-I 760 W/m 9,5 C 19,6 C 22,5 km/h (4 Bft) 100,00 %
20.04.2018 12:10 22,5 C 12,8 C 46 % 1024,1 hPa 0,0 l/m 17,2 km/h (3 Bft) NO 55 1 min 0,000 mm 3,8 UV-I 757 W/m 10,3 C 19,9 C 20,9 km/h (4 Bft) 100,00 %
20.04.2018 12:11 22,6 C 12,8 C 47 % 1024,0 hPa 0,0 l/m 17,9 km/h (3 Bft) NO 34 1 min 0,000 mm 3,7 UV-I 746 W/m 10,7 C 19,9 C 24,1 km/h (4 Bft) 100,00 %
20.04.2018 12:12 22,7 C 12,8 C 45 % 1024,0 hPa 0,0 l/m 18,4 km/h (3 Bft) NO 46 1 min 0,000 mm 3,7 UV-I 740 W/m 10,1 C 19,9 C 24,1 km/h (4 Bft) 100,00 %
20.04.2018 12:13 22,8 C 12,8 C 47 % 1024,0 hPa 0,0 l/m 20,2 km/h (4 Bft) NO 36 1 min 0,000 mm 3,8 UV-I 760 W/m 10,9 C 19,8 C 29,0 km/h (5 Bft) 100,00 %
20.04.2018 12:14 22,9 C 12,8 C 47 % 1024,0 hPa 0,0 l/m 26,1 km/h (4 Bft) O-NO 65 1 min 0,000 mm 3,8 UV-I 768 W/m 11,0 C 19,2 C 32,2 km/h (5 Bft) 100,00 %
20.04.2018 12:15 22,9 C 12,8 C 45 % 1024,0 hPa 0,0 l/m 20,1 km/h (4 Bft) NO 56 1 min 0,000 mm 3,8 UV-I 767 W/m 10,3 C 19,9 C 29,0 km/h (5 Bft) 95,65 %
20.04.2018 12:16 22,9 C 12,8 C 47 % 1024,0 hPa 0,0 l/m 18,1 km/h (3 Bft) O 86 1 min 0,000 mm 3,8 UV-I 765 W/m 11,0 C 20,2 C 25,7 km/h (4 Bft) 95,83 %
20.04.2018 12:17 22,8 C 12,8 C 45 % 1024,0 hPa 0,0 l/m 15,9 km/h (3 Bft) O-NO 67 1 min 0,000 mm 3,8 UV-I 753 W/m 10,2 C 20,5 C 24,1 km/h (4 Bft) 100,00 %
20.04.2018 12:18 22,8 C 12,8 C 46 % 1024,0 hPa 0,0 l/m 18,6 km/h (3 Bft) O-NO 78 1 min 0,000 mm 3,8 UV-I 742 W/m 10,6 C 20,0 C 24,1 km/h (4 Bft) 100,00 %
20.04.2018 12:19 22,8 C 12,8 C 44 % 1024,0 hPa 0,0 l/m 14,7 km/h (3 Bft) O-NO 74 1 min 0,000 mm 3,8 UV-I 756 W/m 9,9 C 20,7 C 19,3 km/h (3 Bft) 100,00 %
20.04.2018 12:20 22,9 C 12,8 C 47 % 1023,9 hPa 0,0 l/m 17,1 km/h (3 Bft) O 88 1 min 0,000 mm 3,8 UV-I 770 W/m 11,0 C 20,4 C 22,5 km/h (4 Bft) 100,00 %
20.04.2018 12:21 22,9 C 12,8 C 44 % 1024,0 hPa 0,0 l/m 16,0 km/h (3 Bft) NO 40 1 min 0,000 mm 3,8 UV-I 767 W/m 10,0 C 20,6 C 19,3 km/h (3 Bft) 100,00 %
20.04.2018 12:22 22,8 C 12,8 C 44 % 1023,9 hPa 0,0 l/m 13,0 km/h (3 Bft) O 86 1 min 0,000 mm 3,9 UV-I 768 W/m 9,9 C 21,0 C 17,7 km/h (3 Bft) 100,00 %
20.04.2018 12:23 22,8 C 12,8 C 47 % 1023,9 hPa 0,0 l/m 20,8 km/h (4 Bft) N-NO 23 1 min 0,000 mm 3,9 UV-I 766 W/m 10,9 C 19,7 C 29,0 km/h (5 Bft) 100,00 %
20.04.2018 12:24 22,8 C 12,8 C 46 % 1023,8 hPa 0,0 l/m 19,8 km/h (3 Bft) NO 39 1 min 0,000 mm 3,9 UV-I 769 W/m 10,6 C 19,9 C 24,1 km/h (4 Bft) 96,67 %
20.04.2018 12:25 22,9 C 12,8 C 47 % 1023,9 hPa 0,0 l/m 20,2 km/h (4 Bft) O-NO 61 1 min 0,000 mm 3,9 UV-I 772 W/m 11,0 C 19,9 C 24,1 km/h (4 Bft) 100,00 %
20.04.2018 12:26 22,9 C 12,8 C 46 % 1023,9 hPa 0,0 l/m 17,3 km/h (3 Bft) NO 39 1 min 0,000 mm 3,9 UV-I 772 W/m 10,7 C 20,4 C 22,5 km/h (4 Bft) 92,31 %
20.04.2018 12:27 23,1 C 12,8 C 47 % 1023,8 hPa 0,0 l/m 21,4 km/h (4 Bft) NO 46 1 min 0,000 mm 3,9 UV-I 771 W/m 11,2 C 20,0 C 25,7 km/h (4 Bft) 100,00 %
20.04.2018 12:28 23,2 C 12,8 C 47 % 1023,8 hPa 0,0 l/m 19,6 km/h (3 Bft) NO 43 1 min 0,000 mm 3,9 UV-I 767 W/m 11,3 C 20,4 C 25,7 km/h (4 Bft) 90,91 %
20.04.2018 12:29 23,3 C 12,8 C 47 % 1023,8 hPa 0,0 l/m 18,9 km/h (3 Bft) NO 53 1 min 0,000 mm 3,9 UV-I 766 W/m 11,3 C 20,6 C 24,1 km/h (4 Bft) 100,00 %
20.04.2018 12:30 23,3 C 12,8 C 45 % 1023,8 hPa 0,0 l/m 19,6 km/h (3 Bft) O-NO 71 1 min 0,000 mm 3,9 UV-I 768 W/m 10,7 C 20,5 C 24,1 km/h (4 Bft) 96,15 %
20.04.2018 12:31 23,3 C 12,8 C 43 % 1023,8 hPa 0,0 l/m 21,3 km/h (4 Bft) O-NO 69 1 min 0,000 mm 3,9 UV-I 768 W/m 10,0 C 20,3 C 24,1 km/h (4 Bft) 97,92 %
20.04.2018 12:33 23,2 C 12,8 C 46 % 1023,7 hPa 0,0 l/m 18,2 km/h (3 Bft) NO 46 2 min 0,000 mm 3,9 UV-I 772 W/m 10,9 C 20,6 C 24,1 km/h (4 Bft) 96,10 %
20.04.2018 12:34 23,3 C 12,8 C 46 % 1023,7 hPa 0,0 l/m 16,1 km/h (3 Bft) O 82 1 min 0,000 mm 3,9 UV-I 763 W/m 11,0 C 21,1 C 17,7 km/h (3 Bft) 97,91 %
20.04.2018 12:35 23,2 C 12,8 C 43 % 1023,8 hPa 0,0 l/m 12,8 km/h (3 Bft) NO 49 1 min 0,000 mm 3,9 UV-I 769 W/m 9,9 C 21,5 C 20,9 km/h (4 Bft) 97,73 %
20.04.2018 12:36 23,3 C 12,8 C 45 % 1023,8 hPa 0,0 l/m 20,1 km/h (4 Bft) O-NO 57 1 min 0,000 mm 3,9 UV-I 772 W/m 10,7 C 20,5 C 24,1 km/h (4 Bft) 100,00 %
20.04.2018 12:37 23,3 C 12,8 C 43 % 1023,7 hPa 0,0 l/m 15,7 km/h (3 Bft) NO 34 1 min 0,000 mm 3,9 UV-I 772 W/m 10,0 C 21,1 C 20,9 km/h (4 Bft) 96,30 %
20.04.2018 12:38 23,3 C 12,8 C 43 % 1023,8 hPa 0,0 l/m 15,0 km/h (3 Bft) O-NO 62 1 min 0,000 mm 3,9 UV-I 772 W/m 10,0 C 21,2 C 25,7 km/h (4 Bft) 96,88 %
20.04.2018 12:39 23,2 C 12,8 C 43 % 1023,8 hPa 0,0 l/m 20,4 km/h (4 Bft) O-NO 65 1 min 0,000 mm 3,9 UV-I 772 W/m 9,9 C 20,3 C 27,4 km/h (4 Bft) 100,00 %
20.04.2018 12:40 23,2 C 12,8 C 43 % 1023,7 hPa 0,0 l/m 20,0 km/h (4 Bft) O-NO 60 1 min 0,000 mm 3,9 UV-I 773 W/m 9,9 C 20,3 C 25,7 km/h (4 Bft) 100,00 %
20.04.2018 12:41 23,2 C 12,8 C 43 % 1023,7 hPa 0,0 l/m 19,2 km/h (3 Bft) O-SO 107 1 min 0,000 mm 3,9 UV-I 762 W/m 9,9 C 20,5 C 22,5 km/h (4 Bft) 95,65 %
20.04.2018 12:42 23,1 C 12,8 C 43 % 1023,7 hPa 0,0 l/m 16,7 km/h (3 Bft) NO 55 1 min 0,000 mm 3,9 UV-I 767 W/m 9,8 C 20,7 C 20,9 km/h (4 Bft) 96,55 %
20.04.2018 12:43 23,1 C 12,8 C 45 % 1023,7 hPa 0,0 l/m 16,5 km/h (3 Bft) NO 53 1 min 0,000 mm 3,9 UV-I 773 W/m 10,5 C 20,7 C 19,3 km/h (3 Bft) 100,00 %
20.04.2018 12:44 23,2 C 12,8 C 48 % 1023,6 hPa 0,0 l/m 18,1 km/h (3 Bft) N-NO 30 1 min 0,000 mm 3,9 UV-I 773 W/m 11,6 C 20,6 C 22,5 km/h (4 Bft) 97,91 %
20.04.2018 12:45 23,3 C 12,8 C 47 % 1023,7 hPa 0,0 l/m 17,5 km/h (3 Bft) O-NO 71 1 min 0,000 mm 3,9 UV-I 762 W/m 11,3 C 20,8 C 24,1 km/h (4 Bft) 97,73 %
20.04.2018 12:46 23,4 C 12,8 C 47 % 1023,7 hPa 0,0 l/m 18,5 km/h (3 Bft) O-NO 65 1 min 0,000 mm 3,9 UV-I 769 W/m 11,4 C 20,8 C 24,1 km/h (4 Bft) 96,15 %
20.04.2018 12:48 23,4 C 12,8 C 45 % 1023,6 hPa 0,0 l/m 18,7 km/h (3 Bft) NO 38 2 min 0,000 mm 3,9 UV-I 765 W/m 10,8 C 20,8 C 29,0 km/h (5 Bft) 97,78 %
20.04.2018 12:49 23,4 C 12,8 C 46 % 1023,6 hPa 0,0 l/m 20,7 km/h (4 Bft) NO 55 1 min 0,000 mm 3,9 UV-I 761 W/m 11,1 C 20,5 C 24,1 km/h (4 Bft) 91,30 %
20.04.2018 12:50 23,6 C 12,8 C 46 % 1023,6 hPa 0,0 l/m 14,9 km/h (3 Bft) NO 45 1 min 0,000 mm 3,9 UV-I 771 W/m 11,3 C 21,6 C 22,5 km/h (4 Bft) 100,00 %
20.04.2018 12:51 23,7 C 12,8 C 45 % 1023,6 hPa 0,0 l/m 15,7 km/h (3 Bft) N-NO 32 1 min 0,000 mm 4,0 UV-I 780 W/m 11,1 C 21,6 C 22,5 km/h (4 Bft) 94,12 %
20.04.2018 12:52 23,7 C 12,8 C 45 % 1023,6 hPa 0,0 l/m 17,9 km/h (3 Bft) O-NO 76 1 min 0,000 mm 3,9 UV-I 772 W/m 11,1 C 21,3 C 20,9 km/h (4 Bft) 100,00 %
20.04.2018 12:53 23,7 C 12,8 C 44 % 1023,6 hPa 0,0 l/m 17,5 km/h (3 Bft) NO 43 1 min 0,000 mm 3,9 UV-I 747 W/m 10,7 C 21,3 C 24,1 km/h (4 Bft) 96,15 %
20.04.2018 12:54 23,7 C 12,8 C 46 % 1023,5 hPa 0,0 l/m 19,2 km/h (3 Bft) NO 36 1 min 0,000 mm 3,9 UV-I 768 W/m 11,4 C 21,1 C 25,7 km/h (4 Bft) 100,00 %
20.04.2018 12:55 23,8 C 12,8 C 48 % 1023,5 hPa 0,0 l/m 21,2 km/h (4 Bft) O 83 1 min 0,000 mm 4,0 UV-I 781 W/m 12,1 C 21,0 C 29,0 km/h (5 Bft) 94,12 %
20.04.2018 12:56 23,8 C 12,8 C 42 % 1023,5 hPa 0,0 l/m 18,7 km/h (3 Bft) O-NO 74 1 min 0,000 mm 4,0 UV-I 784 W/m 10,1 C 21,3 C 22,5 km/h (4 Bft) 100,00 %
20.04.2018 12:58 23,7 C 12,8 C 45 % 1023,5 hPa 0,0 l/m 18,5 km/h (3 Bft) NO 54 2 min 0,000 mm 4,0 UV-I 782 W/m 11,1 C 21,2 C 24,1 km/h (4 Bft) 98,00 %
20.04.2018 12:59 23,7 C 12,8 C 44 % 1023,5 hPa 0,0 l/m 19,3 km/h (3 Bft) O-NO 76 1 min 0,000 mm 4,0 UV-I 779 W/m 10,7 C 21,1 C 25,7 km/h (4 Bft) 100,00 %
20.04.2018 13:00 23,7 C 12,8 C 43 % 1023,5 hPa 0,0 l/m 17,8 km/h (3 Bft) O-NO 59 1 min 0,000 mm 4,0 UV-I 779 W/m 10,4 C 21,3 C 20,9 km/h (4 Bft) 100,00 %
20.04.2018 13:02 23,7 C 12,8 C 42 % 1023,5 hPa 0,0 l/m 22,4 km/h (4 Bft) O-NO 72 2 min 0,610 mm 3,9 UV-I 753 W/m 10,0 C 20,7 C 29,0 km/h (5 Bft) 95,74 %
20.04.2018 13:03 23,8 C 12,8 C 44 % 1023,4 hPa 0,0 l/m 21,2 km/h (4 Bft) O-NO 73 1 min 0,000 mm 4,0 UV-I 778 W/m 10,8 C 21,0 C 25,7 km/h (4 Bft) 100,00 %
20.04.2018 13:04 23,8 C 12,8 C 43 % 1023,4 hPa 0,0 l/m 24,3 km/h (4 Bft) NO 46 1 min 0,000 mm 4,0 UV-I 779 W/m 10,5 C 20,6 C 30,6 km/h (5 Bft) 100,00 %
20.04.2018 13:05 23,8 C 12,8 C 42 % 1023,3 hPa 0,0 l/m 22,9 km/h (4 Bft) NO 47 1 min 0,000 mm 4,0 UV-I 776 W/m 10,1 C 20,8 C 30,6 km/h (5 Bft) 100,00 %
20.04.2018 13:06 23,8 C 12,8 C 44 % 1023,4 hPa 0,0 l/m 20,6 km/h (4 Bft) NO 55 1 min 0,000 mm 4,0 UV-I 763 W/m 10,8 C 21,0 C 25,7 km/h (4 Bft) 95,65 %
20.04.2018 13:07 23,8 C 12,8 C 42 % 1023,4 hPa 0,0 l/m 18,2 km/h (3 Bft) NO 54 1 min 0,000 mm 3,9 UV-I 761 W/m 10,1 C 21,4 C 24,1 km/h (4 Bft) 100,00 %
20.04.2018 13:08 23,8 C 12,8 C 44 % 1023,4 hPa 0,0 l/m 24,1 km/h (4 Bft) NO 41 1 min 0,000 mm 4,0 UV-I 765 W/m 10,8 C 20,6 C 29,0 km/h (5 Bft) 100,00 %
20.04.2018 13:09 23,9 C 12,8 C 44 % 1023,4 hPa 0,0 l/m 18,9 km/h (3 Bft) NO 37 1 min 0,000 mm 4,0 UV-I 773 W/m 10,9 C 21,4 C 25,7 km/h (4 Bft) 100,00 %
20.04.2018 13:10 24,0 C 12,8 C 42 % 1023,4 hPa 0,0 l/m 23,8 km/h (4 Bft) NO 54 1 min 0,000 mm 4,0 UV-I 779 W/m 10,3 C 20,9 C 29,0 km/h (5 Bft) 100,00 %
20.04.2018 13:11 24,0 C 12,8 C 40 % 1023,3 hPa 0,0 l/m 20,5 km/h (4 Bft) NO 36 1 min 0,000 mm 4,0 UV-I 774 W/m 9,6 C 21,3 C 29,0 km/h (5 Bft) 100,00 %
20.04.2018 13:12 24,0 C 12,8 C 42 % 1023,3 hPa 0,0 l/m 23,4 km/h (4 Bft) NO 56 1 min 0,000 mm 4,0 UV-I 776 W/m 10,3 C 21,0 C 29,0 km/h (5 Bft) 100,00 %
20.04.2018 13:13 24,1 C 12,8 C 42 % 1023,4 hPa 0,0 l/m 20,0 km/h (4 Bft) O-NO 71 1 min 0,000 mm 4,0 UV-I 774 W/m 10,4 C 21,5 C 27,4 km/h (4 Bft) 100,00 %
20.04.2018 13:14 24,1 C 12,8 C 42 % 1023,3 hPa 0,0 l/m 20,9 km/h (4 Bft) NO 55 1 min 0,000 mm 4,0 UV-I 776 W/m 10,4 C 21,4 C 29,0 km/h (5 Bft) 100,00 %
20.04.2018 13:15 24,1 C 12,8 C 42 % 1023,3 hPa 0,0 l/m 21,2 km/h (4 Bft) NO 51 1 min 0,000 mm 4,0 UV-I 780 W/m 10,4 C 21,4 C 25,7 km/h (4 Bft) 96,30 %
20.04.2018 13:16 24,1 C 12,8 C 40 % 1023,3 hPa 0,0 l/m 21,6 km/h (4 Bft) NO 43 1 min 0,000 mm 4,0 UV-I 782 W/m 9,6 C 21,3 C 27,4 km/h (4 Bft) 100,00 %
20.04.2018 13:17 24,1 C 12,8 C 41 % 1023,3 hPa 0,0 l/m 20,5 km/h (4 Bft) NO 50 1 min 0,000 mm 4,0 UV-I 780 W/m 10,0 C 21,4 C 30,6 km/h (5 Bft) 100,00 %
20.04.2018 13:18 24,1 C 12,8 C 41 % 1023,3 hPa 0,0 l/m 20,5 km/h (4 Bft) N-NO 32 1 min 0,000 mm 4,0 UV-I 778 W/m 10,0 C 21,4 C 27,4 km/h (4 Bft) 100,00 %
20.04.2018 13:19 24,2 C 12,8 C 42 % 1023,3 hPa 0,0 l/m 23,0 km/h (4 Bft) O-NO 59 1 min 0,000 mm 4,0 UV-I 770 W/m 10,5 C 21,3 C 27,4 km/h (4 Bft) 100,00 %
20.04.2018 13:20 24,2 C 12,8 C 45 % 1023,3 hPa 0,0 l/m 21,5 km/h (4 Bft) NO 51 1 min 0,000 mm 4,0 UV-I 771 W/m 11,5 C 21,5 C 30,6 km/h (5 Bft) 100,00 %
20.04.2018 13:21 24,2 C 12,8 C 41 % 1023,3 hPa 0,0 l/m 27,5 km/h (4 Bft) NO 34 1 min 0,000 mm 4,0 UV-I 774 W/m 10,1 C 20,8 C 37,0 km/h (5 Bft) 100,00 %
20.04.2018 13:22 24,2 C 12,8 C 41 % 1023,3 hPa 0,0 l/m 21,3 km/h (4 Bft) O-NO 78 1 min 0,000 mm 4,0 UV-I 768 W/m 10,1 C 21,5 C 25,7 km/h (4 Bft) 100,00 %
20.04.2018 13:23 24,2 C 12,8 C 42 % 1023,3 hPa 0,0 l/m 18,4 km/h (3 Bft) NO 51 1 min 0,000 mm 4,0 UV-I 769 W/m 10,5 C 21,8 C 25,7 km/h (4 Bft) 96,55 %
20.04.2018 13:24 24,1 C 12,8 C 42 % 1023,3 hPa 0,0 l/m 23,7 km/h (4 Bft) NO 42 1 min 0,000 mm 4,0 UV-I 768 W/m 10,4 C 21,1 C 29,0 km/h (5 Bft) 100,00 %
20.04.2018 13:25 24,1 C 12,8 C 43 % 1023,3 hPa 0,0 l/m 21,1 km/h (4 Bft) NO 47 1 min 0,000 mm 4,0 UV-I 775 W/m 10,7 C 21,4 C 27,4 km/h (4 Bft) 100,00 %
20.04.2018 13:26 24,1 C 12,8 C 40 % 1023,2 hPa 0,0 l/m 20,7 km/h (4 Bft) NO 54 1 min 0,000 mm 4,0 UV-I 774 W/m 9,6 C 21,4 C 25,7 km/h (4 Bft) 100,00 %
20.04.2018 13:27 24,2 C 12,8 C 41 % 1023,2 hPa 0,0 l/m 20,7 km/h (4 Bft) NO 48 1 min 0,000 mm 4,0 UV-I 772 W/m 10,1 C 21,5 C 25,7 km/h (4 Bft) 100,00 %
20.04.2018 13:28 24,3 C 12,8 C 42 % 1023,2 hPa 0,0 l/m 19,1 km/h (3 Bft) O-NO 76 1 min 0,000 mm 4,0 UV-I 773 W/m 10,6 C 21,9 C 25,7 km/h (4 Bft) 100,00 %
20.04.2018 13:29 24,3 C 12,8 C 38 % 1023,2 hPa 0,0 l/m 21,3 km/h (4 Bft) NO 54 1 min 0,000 mm 4,0 UV-I 772 W/m 9,1 C 21,6 C 29,0 km/h (5 Bft) 100,00 %
20.04.2018 13:30 24,2 C 12,8 C 38 % 1023,2 hPa 0,0 l/m 21,0 km/h (4 Bft) O-NO 59 1 min 0,000 mm 4,0 UV-I 772 W/m 9,0 C 21,5 C 25,7 km/h (4 Bft) 100,00 %
20.04.2018 13:31 24,3 C 12,8 C 41 % 1023,2 hPa 0,0 l/m 18,3 km/h (3 Bft) O-NO 70 1 min 0,000 mm 4,0 UV-I 772 W/m 10,2 C 22,0 C 22,5 km/h (4 Bft) 100,00 %
20.04.2018 13:32 24,3 C 12,8 C 41 % 1023,2 hPa 0,0 l/m 14,8 km/h (3 Bft) O-NO 67 1 min 0,000 mm 4,0 UV-I 771 W/m 10,2 C 22,5 C 19,3 km/h (3 Bft) 100,00 %
20.04.2018 13:33 24,3 C 12,8 C 41 % 1023,1 hPa 0,0 l/m 21,8 km/h (4 Bft) O-NO 69 1 min 0,000 mm 4,0 UV-I 770 W/m 10,2 C 21,5 C 27,4 km/h (4 Bft) 100,00 %
20.04.2018 13:34 24,3 C 12,8 C 41 % 1023,2 hPa 0,0 l/m 16,9 km/h (3 Bft) O-NO 73 1 min 0,000 mm 4,0 UV-I 771 W/m 10,2 C 22,2 C 22,5 km/h (4 Bft) 100,00 %
20.04.2018 13:35 24,4 C 12,8 C 42 % 1023,1 hPa 0,0 l/m 19,1 km/h (3 Bft) O-NO 63 1 min 0,000 mm 4,0 UV-I 769 W/m 10,6 C 22,0 C 24,1 km/h (4 Bft) 100,00 %
20.04.2018 13:36 24,3 C 12,8 C 39 % 1023,2 hPa 0,0 l/m 21,8 km/h (4 Bft) O 86 1 min 0,000 mm 4,0 UV-I 768 W/m 9,4 C 21,5 C 27,4 km/h (4 Bft) 100,00 %
20.04.2018 13:37 24,3 C 12,8 C 41 % 1023,1 hPa 0,0 l/m 19,6 km/h (3 Bft) NO 42 1 min 0,000 mm 4,0 UV-I 768 W/m 10,2 C 21,8 C 27,4 km/h (4 Bft) 100,00 %
20.04.2018 13:38 24,3 C 12,8 C 41 % 1023,1 hPa 0,0 l/m 23,5 km/h (4 Bft) NO 34 1 min 0,000 mm 3,9 UV-I 768 W/m 10,2 C 21,4 C 30,6 km/h (5 Bft) 98,00 %
20.04.2018 13:39 24,4 C 12,8 C 39 % 1023,1 hPa 0,0 l/m 21,6 km/h (4 Bft) NO 38 1 min 0,000 mm 3,9 UV-I 766 W/m 9,5 C 21,7 C 29,0 km/h (5 Bft) 100,00 %
20.04.2018 13:40 24,4 C 12,8 C 39 % 1023,1 hPa 0,0 l/m 19,8 km/h (3 Bft) NO 51 1 min 0,000 mm 3,9 UV-I 765 W/m 9,5 C 21,9 C 25,7 km/h (4 Bft) 100,00 %
20.04.2018 13:41 24,4 C 12,8 C 39 % 1023,1 hPa 0,0 l/m 18,3 km/h (3 Bft) O 88 1 min 0,000 mm 3,9 UV-I 765 W/m 9,5 C 22,1 C 22,5 km/h (4 Bft) 100,00 %
20.04.2018 13:42 24,4 C 12,8 C 41 % 1023,1 hPa 0,0 l/m 23,4 km/h (4 Bft) O-NO 69 1 min 0,000 mm 3,9 UV-I 763 W/m 10,3 C 21,5 C 30,6 km/h (5 Bft) 100,00 %
20.04.2018 13:43 24,4 C 12,8 C 39 % 1023,1 hPa 0,0 l/m 17,7 km/h (3 Bft) NO 36 1 min 0,000 mm 3,9 UV-I 760 W/m 9,5 C 22,2 C 25,7 km/h (4 Bft) 100,00 %
20.04.2018 13:44 24,5 C 12,8 C 43 % 1023,1 hPa 0,0 l/m 23,2 km/h (4 Bft) O 81 1 min 0,000 mm 3,9 UV-I 763 W/m 11,1 C 21,7 C 30,6 km/h (5 Bft) 100,00 %
20.04.2018 13:45 24,5 C 12,8 C 39 % 1023,1 hPa 0,0 l/m 22,8 km/h (4 Bft) O 92 1 min 0,000 mm 3,9 UV-I 763 W/m 9,6 C 21,7 C 27,4 km/h (4 Bft) 98,02 %
20.04.2018 13:46 24,5 C 12,8 C 38 % 1023,1 hPa 0,0 l/m 20,0 km/h (4 Bft) O 86 1 min 0,000 mm 3,9 UV-I 763 W/m 9,2 C 22,0 C 22,5 km/h (4 Bft) 97,73 %
20.04.2018 13:47 24,5 C 12,8 C 39 % 1023,1 hPa 0,0 l/m 25,3 km/h (4 Bft) NO 53 1 min 0,000 mm 3,9 UV-I 760 W/m 9,6 C 21,5 C 33,8 km/h (5 Bft) 100,00 %
20.04.2018 13:48 24,6 C 12,8 C 40 % 1023,1 hPa 0,0 l/m 20,4 km/h (4 Bft) O 91 1 min 0,000 mm 3,9 UV-I 758 W/m 10,1 C 22,1 C 29,0 km/h (5 Bft) 100,00 %
20.04.2018 13:49 24,5 C 12,8 C 37 % 1023,1 hPa 0,0 l/m 18,9 km/h (3 Bft) O-NO 74 1 min 0,000 mm 3,9 UV-I 758 W/m 8,8 C 22,2 C 24,1 km/h (4 Bft) 100,00 %
20.04.2018 13:50 24,4 C 12,8 C 37 % 1023,1 hPa 0,0 l/m 18,2 km/h (3 Bft) NO 38 1 min 0,000 mm 3,9 UV-I 757 W/m 8,8 C 22,1 C 22,5 km/h (4 Bft) 100,00 %
20.04.2018 13:51 24,5 C 12,8 C 38 % 1023,1 hPa 0,0 l/m 24,8 km/h (4 Bft) NO 38 1 min 0,000 mm 3,9 UV-I 756 W/m 9,2 C 21,5 C 29,0 km/h (5 Bft) 100,00 %
20.04.2018 13:52 24,6 C 12,8 C 38 % 1023,0 hPa 0,0 l/m 18,3 km/h (3 Bft) O-NO 74 1 min 0,000 mm 3,9 UV-I 754 W/m 9,3 C 22,4 C 24,1 km/h (4 Bft) 100,00 %
20.04.2018 13:53 24,6 C 12,8 C 38 % 1023,0 hPa 0,0 l/m 18,4 km/h (3 Bft) O 84 1 min 0,000 mm 3,8 UV-I 754 W/m 9,3 C 22,3 C 22,5 km/h (4 Bft) 100,00 %
20.04.2018 13:54 24,7 C 12,8 C 38 % 1023,0 hPa 0,0 l/m 19,5 km/h (3 Bft) NO 48 1 min 0,000 mm 3,8 UV-I 753 W/m 9,4 C 22,3 C 24,1 km/h (4 Bft) 100,00 %
20.04.2018 13:55 24,6 C 12,8 C 37 % 1023,0 hPa 0,0 l/m 18,0 km/h (3 Bft) O-NO 78 1 min 0,000 mm 3,8 UV-I 752 W/m 8,9 C 22,4 C 27,4 km/h (4 Bft) 100,00 %
20.04.2018 13:56 24,7 C 12,8 C 39 % 1023,0 hPa 0,0 l/m 18,2 km/h (3 Bft) O-NO 63 1 min 0,000 mm 3,8 UV-I 754 W/m 9,8 C 22,5 C 20,9 km/h (4 Bft) 100,00 %
20.04.2018 13:57 24,7 C 12,8 C 39 % 1022,9 hPa 0,0 l/m 22,3 km/h (4 Bft) O-NO 58 1 min 0,000 mm 3,8 UV-I 754 W/m 9,8 C 22,0 C 27,4 km/h (4 Bft) 100,00 %
20.04.2018 13:58 24,8 C 12,8 C 38 % 1022,9 hPa 0,0 l/m 20,8 km/h (4 Bft) O 86 1 min 0,000 mm 3,8 UV-I 752 W/m 9,5 C 22,3 C 29,0 km/h (5 Bft) 100,00 %
20.04.2018 13:59 24,8 C 12,8 C 35 % 1023,0 hPa 0,0 l/m 22,0 km/h (4 Bft) O-NO 71 1 min 0,000 mm 3,8 UV-I 753 W/m 8,3 C 22,2 C 27,4 km/h (4 Bft) 100,00 %
20.04.2018 14:00 24,8 C 12,8 C 35 % 1022,9 hPa 0,0 l/m 22,1 km/h (4 Bft) O 84 1 min 0,000 mm 3,8 UV-I 752 W/m 8,3 C 22,2 C 27,4 km/h (4 Bft) 100,00 %
20.04.2018 14:01 24,8 C 12,8 C 35 % 1023,0 hPa 0,0 l/m 21,8 km/h (4 Bft) O-NO 67 1 min 0,660 mm 3,8 UV-I 751 W/m 8,3 C 22,2 C 30,6 km/h (5 Bft) 100,00 %
20.04.2018 14:02 24,8 C 12,8 C 35 % 1023,0 hPa 0,0 l/m 17,6 km/h (3 Bft) O-NO 67 1 min 0,000 mm 3,8 UV-I 751 W/m 8,3 C 22,7 C 22,5 km/h (4 Bft) 100,00 %
20.04.2018 14:03 24,8 C 13,3 C 35 % 1023,0 hPa 0,0 l/m 17,5 km/h (3 Bft) O-NO 68 1 min 0,000 mm 3,8 UV-I 749 W/m 8,3 C 22,7 C 27,4 km/h (4 Bft) 96,77 %
20.04.2018 14:04 24,8 C 12,8 C 35 % 1022,9 hPa 0,0 l/m 18,5 km/h (3 Bft) O-NO 59 1 min 0,000 mm 3,8 UV-I 747 W/m 8,3 C 22,6 C 22,5 km/h (4 Bft) 100,00 %
20.04.2018 14:05 24,8 C 12,8 C 38 % 1023,0 hPa 0,0 l/m 19,2 km/h (3 Bft) O-NO 61 1 min 0,000 mm 3,8 UV-I 746 W/m 9,5 C 22,5 C 25,7 km/h (4 Bft) 100,00 %
20.04.2018 14:06 24,8 C 12,8 C 37 % 1022,9 hPa 0,0 l/m 17,6 km/h (3 Bft) NO 54 1 min 0,000 mm 3,8 UV-I 745 W/m 9,1 C 22,7 C 22,5 km/h (4 Bft) 100,00 %
20.04.2018 14:07 24,8 C 12,8 C 39 % 1022,9 hPa 0,0 l/m 20,7 km/h (4 Bft) NO 40 1 min 0,000 mm 3,7 UV-I 743 W/m 9,9 C 22,3 C 29,0 km/h (5 Bft) 95,65 %
20.04.2018 14:08 24,9 C 12,8 C 38 % 1022,9 hPa 0,0 l/m 19,8 km/h (3 Bft) O 81 1 min 0,000 mm 3,7 UV-I 740 W/m 9,6 C 22,6 C 25,7 km/h (4 Bft) 100,00 %
20.04.2018 14:09 25,0 C 12,8 C 37 % 1022,9 hPa 0,0 l/m 15,8 km/h (3 Bft) NO 55 1 min 0,000 mm 3,7 UV-I 735 W/m 9,3 C 23,2 C 24,1 km/h (4 Bft) 100,00 %
20.04.2018 14:10 25,1 C 12,8 C 39 % 1022,9 hPa 0,0 l/m 21,2 km/h (4 Bft) NO 36 1 min 0,000 mm 3,7 UV-I 735 W/m 10,2 C 22,7 C 25,7 km/h (4 Bft) 100,00 %
20.04.2018 14:11 25,1 C 13,3 C 37 % 1022,8 hPa 0,0 l/m 17,2 km/h (3 Bft) O-NO 58 1 min 0,000 mm 3,7 UV-I 740 W/m 9,4 C 23,1 C 22,5 km/h (4 Bft) 98,08 %
20.04.2018 14:12 25,1 C 12,8 C 35 % 1022,9 hPa 0,0 l/m 18,6 km/h (3 Bft) O-NO 70 1 min 0,000 mm 3,7 UV-I 738 W/m 8,6 C 23,0 C 25,7 km/h (4 Bft) 100,00 %
20.04.2018 14:13 25,0 C 12,8 C 36 % 1022,8 hPa 0,0 l/m 16,2 km/h (3 Bft) O-NO 65 1 min 0,000 mm 3,7 UV-I 737 W/m 8,9 C 23,1 C 22,5 km/h (4 Bft) 100,00 %
20.04.2018 14:14 25,0 C 12,8 C 36 % 1022,8 hPa 0,0 l/m 20,0 km/h (4 Bft) O-NO 63 1 min 0,000 mm 3,7 UV-I 737 W/m 8,9 C 22,7 C 25,7 km/h (4 Bft) 100,00 %
20.04.2018 14:15 25,1 C 12,8 C 36 % 1022,8 hPa 0,0 l/m 20,0 km/h (4 Bft) O 89 1 min 0,000 mm 3,7 UV-I 735 W/m 9,0 C 22,8 C 24,1 km/h (4 Bft) 100,00 %
20.04.2018 14:16 25,1 C 12,8 C 36 % 1022,9 hPa 0,0 l/m 21,3 km/h (4 Bft) O-NO 65 1 min 0,000 mm 3,7 UV-I 733 W/m 9,0 C 22,7 C 27,4 km/h (4 Bft) 95,83 %
20.04.2018 14:17 25,1 C 12,8 C 35 % 1022,8 hPa 0,0 l/m 20,0 km/h (4 Bft) O 80 1 min 0,000 mm 3,6 UV-I 731 W/m 8,6 C 22,8 C 27,4 km/h (4 Bft) 100,00 %
20.04.2018 14:18 25,0 C 12,8 C 34 % 1022,9 hPa 0,0 l/m 26,0 km/h (4 Bft) O 99 1 min 0,000 mm 3,6 UV-I 730 W/m 8,0 C 22,1 C 30,6 km/h (5 Bft) 100,00 %
20.04.2018 14:19 24,9 C 12,8 C 32 % 1022,8 hPa 0,0 l/m 24,4 km/h (4 Bft) O 86 1 min 0,000 mm 3,6 UV-I 731 W/m 7,1 C 22,1 C 27,4 km/h (4 Bft) 94,44 %
20.04.2018 14:20 24,8 C 12,8 C 33 % 1022,8 hPa 0,0 l/m 22,5 km/h (4 Bft) O-NO 74 1 min 0,000 mm 3,6 UV-I 731 W/m 7,4 C 22,1 C 27,4 km/h (4 Bft) 100,00 %
20.04.2018 14:21 24,8 C 12,8 C 34 % 1022,8 hPa 0,0 l/m 20,7 km/h (4 Bft) O-NO 59 1 min 0,000 mm 3,6 UV-I 729 W/m 7,9 C 22,3 C 25,7 km/h (4 Bft) 95,83 %
20.04.2018 14:22 24,9 C 12,8 C 34 % 1022,8 hPa 0,0 l/m 17,9 km/h (3 Bft) O-NO 63 1 min 0,000 mm 3,6 UV-I 731 W/m 7,9 C 22,8 C 24,1 km/h (4 Bft) 100,00 %
20.04.2018 14:23 25,0 C 12,8 C 35 % 1022,8 hPa 0,0 l/m 28,3 km/h (4 Bft) NO 39 1 min 0,000 mm 3,6 UV-I 729 W/m 8,5 C 21,9 C 35,4 km/h (5 Bft) 96,97 %
20.04.2018 14:24 25,1 C 13,3 C 33 % 1022,8 hPa 0,0 l/m 18,7 km/h (3 Bft) O 82 1 min 0,000 mm 3,6 UV-I 730 W/m 7,7 C 22,9 C 24,1 km/h (4 Bft) 100,00 %
20.04.2018 14:25 25,1 C 12,8 C 32 % 1022,8 hPa 0,0 l/m 19,6 km/h (3 Bft) O-NO 65 1 min 0,000 mm 3,5 UV-I 724 W/m 7,2 C 22,8 C 27,4 km/h (4 Bft) 91,67 %
20.04.2018 14:26 25,1 C 12,8 C 35 % 1022,8 hPa 0,0 l/m 16,5 km/h (3 Bft) NO 53 1 min 0,000 mm 3,6 UV-I 727 W/m 8,6 C 23,2 C 20,9 km/h (4 Bft) 98,10 %
20.04.2018 14:27 25,1 C 12,8 C 34 % 1022,8 hPa 0,0 l/m 18,2 km/h (3 Bft) O-NO 63 1 min 0,000 mm 3,5 UV-I 725 W/m 8,1 C 23,0 C 30,6 km/h (5 Bft) 96,77 %
20.04.2018 14:28 25,2 C 12,8 C 35 % 1022,8 hPa 0,0 l/m 15,6 km/h (3 Bft) O 84 1 min 0,000 mm 3,5 UV-I 722 W/m 8,6 C 23,5 C 20,9 km/h (4 Bft) 95,65 %
20.04.2018 14:29 25,2 C 12,8 C 35 % 1022,8 hPa 0,0 l/m 18,2 km/h (3 Bft) O 88 1 min 0,000 mm 3,5 UV-I 721 W/m 8,6 C 23,1 C 22,5 km/h (4 Bft) 96,30 %
20.04.2018 14:30 25,2 C 12,8 C 34 % 1022,7 hPa 0,0 l/m 18,4 km/h (3 Bft) O 101 1 min 0,000 mm 3,5 UV-I 721 W/m 8,2 C 23,1 C 24,1 km/h (4 Bft) 95,00 %
20.04.2018 14:31 25,2 C 12,8 C 33 % 1022,8 hPa 0,0 l/m 18,5 km/h (3 Bft) O 86 1 min 0,000 mm 3,5 UV-I 719 W/m 7,8 C 23,1 C 27,4 km/h (4 Bft) 92,59 %
20.04.2018 14:32 25,2 C 12,8 C 34 % 1022,8 hPa 0,0 l/m 21,2 km/h (4 Bft) O 98 1 min 0,000 mm 3,5 UV-I 719 W/m 8,2 C 22,8 C 27,4 km/h (4 Bft) 95,65 %
20.04.2018 14:33 25,2 C 12,8 C 32 % 1022,7 hPa 0,0 l/m 17,9 km/h (3 Bft) O-NO 73 1 min 0,000 mm 3,5 UV-I 716 W/m 7,3 C 23,2 C 27,4 km/h (4 Bft) 100,00 %
20.04.2018 14:34 25,2 C 12,8 C 33 % 1022,7 hPa 0,0 l/m 16,6 km/h (3 Bft) O 98 1 min 0,000 mm 3,5 UV-I 715 W/m 7,8 C 23,3 C 25,7 km/h (4 Bft) 93,75 %
20.04.2018 14:35 25,2 C 12,8 C 33 % 1022,7 hPa 0,0 l/m 21,2 km/h (4 Bft) O 82 1 min 0,000 mm 3,4 UV-I 715 W/m 7,8 C 22,8 C 27,4 km/h (4 Bft) 96,30 %
20.04.2018 14:36 25,1 C 12,8 C 33 % 1022,7 hPa 0,0 l/m 17,9 km/h (3 Bft) O 81 1 min 0,000 mm 3,4 UV-I 714 W/m 7,7 C 23,0 C 25,7 km/h (4 Bft) 95,65 %
20.04.2018 14:37 25,1 C 12,8 C 33 % 1022,7 hPa 0,0 l/m 11,9 km/h (2 Bft) O-NO 60 1 min 0,000 mm 3,4 UV-I 714 W/m 7,7 C 23,9 C 16,1 km/h (3 Bft) 90,48 %
20.04.2018 14:38 25,1 C 12,2 C 34 % 1022,7 hPa 0,0 l/m 19,8 km/h (3 Bft) O-NO 76 1 min 0,000 mm 3,4 UV-I 710 W/m 8,1 C 22,8 C 25,7 km/h (4 Bft) 96,30 %
20.04.2018 14:39 25,1 C 13,3 C 33 % 1022,6 hPa 0,0 l/m 18,5 km/h (3 Bft) O 83 1 min 0,000 mm 3,4 UV-I 708 W/m 7,7 C 23,0 C 22,5 km/h (4 Bft) 90,91 %
20.04.2018 14:40 25,1 C 13,3 C 32 % 1022,7 hPa 0,0 l/m 25,2 km/h (4 Bft) O 101 1 min 0,000 mm 3,4 UV-I 708 W/m 7,2 C 22,3 C 29,0 km/h (5 Bft) 96,30 %
20.04.2018 14:41 25,1 C 12,8 C 31 % 1022,6 hPa 0,0 l/m 17,8 km/h (3 Bft) O 86 1 min 0,000 mm 3,4 UV-I 703 W/m 6,8 C 23,1 C 19,3 km/h (3 Bft) 96,88 %
20.04.2018 14:42 25,1 C 12,8 C 31 % 1022,6 hPa 0,0 l/m 17,0 km/h (3 Bft) O-NO 71 1 min 0,000 mm 3,4 UV-I 702 W/m 6,8 C 23,2 C 22,5 km/h (4 Bft) 91,67 %
20.04.2018 14:43 25,1 C 12,8 C 34 % 1022,6 hPa 0,0 l/m 15,4 km/h (3 Bft) O-NO 78 1 min 0,000 mm 3,3 UV-I 704 W/m 8,1 C 23,4 C 24,1 km/h (4 Bft) 96,55 %
20.04.2018 14:44 25,1 C 12,8 C 33 % 1022,6 hPa 0,0 l/m 13,4 km/h (3 Bft) NO 53 1 min 0,000 mm 3,3 UV-I 701 W/m 7,7 C 23,7 C 20,9 km/h (4 Bft) 93,33 %
20.04.2018 14:45 25,2 C 12,8 C 32 % 1022,5 hPa 0,0 l/m 16,3 km/h (3 Bft) O-NO 67 1 min 0,000 mm 3,3 UV-I 701 W/m 7,3 C 23,4 C 20,9 km/h (4 Bft) 95,65 %
20.04.2018 14:46 25,2 C 12,8 C 31 % 1022,6 hPa 0,0 l/m 20,9 km/h (4 Bft) O-NO 75 1 min 0,000 mm 3,3 UV-I 700 W/m 6,9 C 22,8 C 29,0 km/h (5 Bft) 95,83 %
20.04.2018 14:47 25,2 C 12,8 C 33 % 1022,5 hPa 0,0 l/m 20,0 km/h (4 Bft) O-NO 78 1 min 0,000 mm 3,3 UV-I 700 W/m 7,8 C 22,9 C 25,7 km/h (4 Bft) 92,86 %
20.04.2018 14:48 25,3 C 12,8 C 34 % 1022,5 hPa 0,0 l/m 19,6 km/h (3 Bft) NO 44 1 min 0,000 mm 3,3 UV-I 699 W/m 8,3 C 23,1 C 25,7 km/h (4 Bft) 91,67 %
20.04.2018 14:49 25,3 C 12,8 C 32 % 1022,5 hPa 0,0 l/m 18,9 km/h (3 Bft) O-NO 74 1 min 0,000 mm 3,3 UV-I 700 W/m 7,4 C 23,2 C 27,4 km/h (4 Bft) 93,75 %
20.04.2018 14:50 25,3 C 12,8 C 31 % 1022,5 hPa 0,0 l/m 22,1 km/h (4 Bft) O 83 1 min 0,000 mm 3,3 UV-I 687 W/m 6,9 C 22,8 C 30,6 km/h (5 Bft) 100,00 %
20.04.2018 14:51 25,3 C 12,8 C 29 % 1022,5 hPa 0,0 l/m 19,5 km/h (3 Bft) O 79 1 min 0,000 mm 3,1 UV-I 625 W/m 6,0 C 23,1 C 25,7 km/h (4 Bft) 96,15 %
20.04.2018 14:52 25,2 C 13,3 C 30 % 1022,5 hPa 0,0 l/m 19,2 km/h (3 Bft) O-NO 72 1 min 0,000 mm 3,2 UV-I 695 W/m 6,4 C 23,0 C 24,1 km/h (4 Bft) 100,00 %
20.04.2018 14:53 25,2 C 12,8 C 31 % 1022,5 hPa 0,0 l/m 20,5 km/h (4 Bft) O-NO 66 1 min 0,000 mm 3,2 UV-I 691 W/m 6,9 C 22,9 C 25,7 km/h (4 Bft) 96,55 %
20.04.2018 14:54 25,2 C 12,8 C 30 % 1022,5 hPa 0,0 l/m 20,6 km/h (4 Bft) O-NO 67 1 min 0,000 mm 3,2 UV-I 688 W/m 6,4 C 22,9 C 25,7 km/h (4 Bft) 100,00 %
20.04.2018 14:55 25,2 C 12,8 C 31 % 1022,5 hPa 0,0 l/m 18,1 km/h (3 Bft) O 90 1 min 0,000 mm 3,2 UV-I 685 W/m 6,9 C 23,1 C 22,5 km/h (4 Bft) 96,30 %
20.04.2018 14:56 25,2 C 12,8 C 31 % 1022,4 hPa 0,0 l/m 24,7 km/h (4 Bft) O 94 1 min 0,000 mm 3,2 UV-I 682 W/m 6,9 C 22,5 C 30,6 km/h (5 Bft) 96,15 %
20.04.2018 14:57 25,2 C 12,8 C 31 % 1022,5 hPa 0,0 l/m 20,3 km/h (4 Bft) O-SO 102 1 min 0,000 mm 3,1 UV-I 680 W/m 6,9 C 22,9 C 25,7 km/h (4 Bft) 100,00 %
20.04.2018 14:58 25,2 C 12,8 C 32 % 1022,5 hPa 0,0 l/m 21,5 km/h (4 Bft) O-NO 73 1 min 0,000 mm 3,1 UV-I 680 W/m 7,3 C 22,8 C 25,7 km/h (4 Bft) 93,33 %
20.04.2018 14:59 25,2 C 12,8 C 32 % 1022,4 hPa 0,0 l/m 18,5 km/h (3 Bft) O 83 1 min 0,000 mm 3,1 UV-I 679 W/m 7,3 C 23,1 C 24,1 km/h (4 Bft) 100,00 %
20.04.2018 15:00 25,2 C 12,8 C 33 % 1022,4 hPa 0,0 l/m 19,3 km/h (3 Bft) NO 49 1 min 0,000 mm 3,1 UV-I 678 W/m 7,8 C 23,0 C 22,5 km/h (4 Bft) 96,15 %
20.04.2018 15:02 25,2 C 12,8 C 33 % 1022,3 hPa 0,0 l/m 11,7 km/h (2 Bft) O-NO 61 2 min 0,635 mm 3,1 UV-I 670 W/m 7,8 C 24,1 C 19,3 km/h (3 Bft) 95,12 %
20.04.2018 15:03 25,3 C 12,8 C 34 % 1022,4 hPa 0,0 l/m 13,5 km/h (3 Bft) O 84 1 min 0,000 mm 3,1 UV-I 670 W/m 8,3 C 23,9 C 20,9 km/h (4 Bft) 100,00 %
20.04.2018 15:04 25,3 C 12,8 C 33 % 1022,4 hPa 0,0 l/m 13,0 km/h (3 Bft) O-NO 61 1 min 0,000 mm 3,1 UV-I 669 W/m 7,9 C 24,0 C 16,1 km/h (3 Bft) 88,46 %
20.04.2018 15:05 25,4 C 12,8 C 30 % 1022,3 hPa 0,0 l/m 19,6 km/h (3 Bft) O-NO 74 1 min 0,000 mm 3,0 UV-I 668 W/m 6,6 C 23,2 C 25,7 km/h (4 Bft) 96,30 %
20.04.2018 15:06 25,4 C 12,8 C 30 % 1022,3 hPa 0,0 l/m 20,8 km/h (4 Bft) O-SO 109 1 min 0,000 mm 3,0 UV-I 666 W/m 6,6 C 23,1 C 25,7 km/h (4 Bft) 100,00 %
20.04.2018 15:07 25,4 C 12,8 C 30 % 1022,4 hPa 0,0 l/m 16,8 km/h (3 Bft) O 90 1 min 0,000 mm 3,0 UV-I 663 W/m 6,6 C 23,6 C 24,1 km/h (4 Bft) 96,67 %
20.04.2018 15:08 25,3 C 12,8 C 31 % 1022,3 hPa 0,0 l/m 19,2 km/h (3 Bft) O-NO 78 1 min 0,000 mm 3,0 UV-I 666 W/m 6,9 C 23,1 C 24,1 km/h (4 Bft) 100,00 %
20.04.2018 15:09 25,3 C 12,8 C 32 % 1022,3 hPa 0,0 l/m 19,9 km/h (4 Bft) O 84 1 min 0,000 mm 3,0 UV-I 662 W/m 7,4 C 23,1 C 29,0 km/h (5 Bft) 92,59 %
20.04.2018 15:10 25,4 C 12,8 C 32 % 1022,3 hPa 0,0 l/m 16,3 km/h (3 Bft) O-NO 76 1 min 0,000 mm 3,0 UV-I 660 W/m 7,5 C 23,6 C 19,3 km/h (3 Bft) 100,00 %
20.04.2018 15:11 25,3 C 12,8 C 31 % 1022,3 hPa 0,0 l/m 18,9 km/h (3 Bft) O-NO 69 1 min 0,000 mm 3,0 UV-I 658 W/m 6,9 C 23,2 C 24,1 km/h (4 Bft) 96,77 %
20.04.2018 15:12 25,3 C 12,8 C 30 % 1022,2 hPa 0,0 l/m 18,7 km/h (3 Bft) O-NO 72 1 min 0,000 mm 2,9 UV-I 656 W/m 6,5 C 23,2 C 24,1 km/h (4 Bft) 100,00 %
20.04.2018 15:13 25,3 C 12,8 C 31 % 1022,2 hPa 0,0 l/m 17,8 km/h (3 Bft) O 98 1 min 0,000 mm 2,9 UV-I 656 W/m 6,9 C 23,3 C 27,4 km/h (4 Bft) 91,67 %
20.04.2018 15:14 25,3 C 12,8 C 32 % 1022,2 hPa 0,0 l/m 21,6 km/h (4 Bft) O-NO 59 1 min 0,000 mm 2,9 UV-I 654 W/m 7,4 C 22,9 C 25,7 km/h (4 Bft) 100,00 %
20.04.2018 15:15 25,3 C 12,8 C 30 % 1022,2 hPa 0,0 l/m 17,3 km/h (3 Bft) O-NO 78 1 min 0,000 mm 2,9 UV-I 651 W/m 6,5 C 23,4 C 20,9 km/h (4 Bft) 93,75 %
20.04.2018 15:16 25,3 C 12,8 C 31 % 1022,2 hPa 0,0 l/m 17,2 km/h (3 Bft) O 92 1 min 0,000 mm 2,9 UV-I 649 W/m 6,9 C 23,4 C 25,7 km/h (4 Bft) 100,00 %
20.04.2018 15:17 25,3 C 12,8 C 31 % 1022,2 hPa 0,0 l/m 15,4 km/h (3 Bft) O 100 1 min 0,000 mm 2,9 UV-I 651 W/m 6,9 C 23,6 C 24,1 km/h (4 Bft) 95,65 %
20.04.2018 15:18 25,3 C 12,8 C 31 % 1022,2 hPa 0,0 l/m 18,5 km/h (3 Bft) O-NO 61 1 min 0,000 mm 2,8 UV-I 650 W/m 6,9 C 23,2 C 22,5 km/h (4 Bft) 100,00 %
20.04.2018 15:19 25,4 C 12,8 C 31 % 1022,1 hPa 0,0 l/m 15,6 km/h (3 Bft) O-NO 71 1 min 0,000 mm 2,8 UV-I 640 W/m 7,0 C 23,7 C 22,5 km/h (4 Bft) 96,15 %
20.04.2018 15:20 25,4 C 12,8 C 32 % 1022,1 hPa 0,0 l/m 20,8 km/h (4 Bft) O-NO 67 1 min 0,000 mm 2,5 UV-I 550 W/m 7,5 C 23,1 C 25,7 km/h (4 Bft) 100,00 %
20.04.2018 15:21 25,4 C 12,8 C 32 % 1022,1 hPa 0,0 l/m 18,7 km/h (3 Bft) NO 55 1 min 0,000 mm 2,8 UV-I 595 W/m 7,5 C 23,3 C 22,5 km/h (4 Bft) 96,55 %
20.04.2018 15:22 25,5 C 12,8 C 32 % 1022,0 hPa 0,0 l/m 18,3 km/h (3 Bft) NO 52 1 min 0,000 mm 2,7 UV-I 659 W/m 7,6 C 23,5 C 25,7 km/h (4 Bft) 100,00 %
20.04.2018 15:23 25,4 C 12,8 C 33 % 1022,0 hPa 0,0 l/m 17,1 km/h (3 Bft) O-NO 76 1 min 0,000 mm 2,6 UV-I 659 W/m 7,9 C 23,5 C 20,9 km/h (4 Bft) 96,88 %
20.04.2018 15:24 25,5 C 12,8 C 33 % 1022,0 hPa 0,0 l/m 15,4 km/h (3 Bft) NO 49 1 min 0,000 mm 2,7 UV-I 659 W/m 8,0 C 23,9 C 20,9 km/h (4 Bft) 96,30 %
20.04.2018 15:25 25,6 C 12,8 C 32 % 1022,0 hPa 0,0 l/m 20,0 km/h (4 Bft) NO 48 1 min 0,000 mm 2,7 UV-I 636 W/m 7,7 C 23,4 C 25,7 km/h (4 Bft) 100,00 %
20.04.2018 15:26 25,6 C 12,8 C 34 % 1021,9 hPa 0,0 l/m 19,7 km/h (3 Bft) O-NO 73 1 min 0,000 mm 2,7 UV-I 629 W/m 8,6 C 23,5 C 22,5 km/h (4 Bft) 94,44 %
20.04.2018 15:28 25,6 C 12,8 C 31 % 1022,1 hPa 0,0 l/m 19,3 km/h (3 Bft) O 93 2 min 0,000 mm 2,7 UV-I 629 W/m 7,2 C 23,5 C 24,1 km/h (4 Bft) 98,21 %
20.04.2018 15:29 25,5 C 12,8 C 31 % 1022,1 hPa 0,0 l/m 16,2 km/h (3 Bft) NO 52 1 min 0,000 mm 2,7 UV-I 626 W/m 7,1 C 23,8 C 19,3 km/h (3 Bft) 94,12 %
20.04.2018 15:30 25,6 C 12,8 C 33 % 1022,0 hPa 0,0 l/m 17,5 km/h (3 Bft) NO 50 1 min 0,000 mm 2,7 UV-I 624 W/m 8,1 C 23,7 C 19,3 km/h (3 Bft) 96,30 %
20.04.2018 15:31 25,6 C 12,8 C 32 % 1022,0 hPa 0,0 l/m 18,7 km/h (3 Bft) O-NO 65 1 min 0,000 mm 2,6 UV-I 624 W/m 7,7 C 23,6 C 20,9 km/h (4 Bft) 93,33 %
20.04.2018 15:32 25,7 C 12,8 C 31 % 1022,0 hPa 0,0 l/m 19,3 km/h (3 Bft) O-NO 74 1 min 0,000 mm 2,6 UV-I 620 W/m 7,3 C 23,6 C 24,1 km/h (4 Bft) 100,00 %
20.04.2018 15:33 25,7 C 12,8 C 30 % 1022,0 hPa 0,0 l/m 15,5 km/h (3 Bft) O 95 1 min 0,000 mm 2,6 UV-I 616 W/m 6,8 C 24,1 C 20,9 km/h (4 Bft) 96,55 %
20.04.2018 15:34 25,7 C 12,8 C 31 % 1022,0 hPa 0,0 l/m 16,3 km/h (3 Bft) O 82 1 min 0,000 mm 2,6 UV-I 612 W/m 7,3 C 24,0 C 20,9 km/h (4 Bft) 100,00 %
20.04.2018 15:35 25,7 C 12,8 C 30 % 1022,0 hPa 0,0 l/m 15,5 km/h (3 Bft) O 87 1 min 0,000 mm 2,6 UV-I 611 W/m 6,8 C 24,1 C 20,9 km/h (4 Bft) 100,00 %
20.04.2018 15:36 25,6 C 12,8 C 30 % 1021,9 hPa 0,0 l/m 19,2 km/h (3 Bft) NO 52 1 min 0,000 mm 2,6 UV-I 613 W/m 6,7 C 23,5 C 22,5 km/h (4 Bft) 96,15 %
20.04.2018 15:37 25,6 C 13,3 C 29 % 1021,9 hPa 0,0 l/m 16,4 km/h (3 Bft) O-NO 77 1 min 0,000 mm 2,5 UV-I 612 W/m 6,2 C 23,9 C 24,1 km/h (4 Bft) 100,00 %
20.04.2018 15:38 25,6 C 12,8 C 29 % 1021,9 hPa 0,0 l/m 18,7 km/h (3 Bft) O 84 1 min 0,000 mm 2,5 UV-I 612 W/m 6,2 C 23,6 C 24,1 km/h (4 Bft) 100,00 %
20.04.2018 15:39 25,6 C 12,8 C 30 % 1021,9 hPa 0,0 l/m 22,0 km/h (4 Bft) O-NO 61 1 min 0,000 mm 2,5 UV-I 610 W/m 6,7 C 23,2 C 25,7 km/h (4 Bft) 100,00 %
20.04.2018 15:40 25,6 C 12,8 C 32 % 1021,9 hPa 0,0 l/m 18,4 km/h (3 Bft) O-NO 69 1 min 0,000 mm 2,5 UV-I 608 W/m 7,7 C 23,6 C 25,7 km/h (4 Bft) 100,00 %
20.04.2018 15:41 25,6 C 12,8 C 31 % 1021,9 hPa 0,0 l/m 15,8 km/h (3 Bft) O 93 1 min 0,000 mm 2,5 UV-I 608 W/m 7,2 C 23,9 C 19,3 km/h (3 Bft) 100,00 %
20.04.2018 15:42 25,6 C 12,8 C 29 % 1021,8 hPa 0,0 l/m 17,4 km/h (3 Bft) O-NO 72 1 min 0,000 mm 2,5 UV-I 605 W/m 6,2 C 23,7 C 20,9 km/h (4 Bft) 100,00 %
20.04.2018 15:43 25,6 C 12,8 C 29 % 1021,8 hPa 0,0 l/m 17,5 km/h (3 Bft) O-NO 72 1 min 0,000 mm 2,4 UV-I 601 W/m 6,2 C 23,7 C 22,5 km/h (4 Bft) 100,00 %
20.04.2018 15:44 25,6 C 13,3 C 30 % 1021,8 hPa 0,0 l/m 16,0 km/h (3 Bft) O 86 1 min 0,000 mm 2,4 UV-I 604 W/m 6,7 C 23,9 C 20,9 km/h (4 Bft) 100,00 %
20.04.2018 15:45 25,6 C 12,8 C 28 % 1021,8 hPa 0,0 l/m 18,6 km/h (3 Bft) O-NO 78 1 min 0,000 mm 2,4 UV-I 598 W/m 5,7 C 23,6 C 25,7 km/h (4 Bft) 100,00 %
20.04.2018 15:46 25,6 C 12,8 C 29 % 1021,8 hPa 0,0 l/m 12,6 km/h (3 Bft) O-NO 63 1 min 0,000 mm 2,4 UV-I 598 W/m 6,2 C 24,4 C 22,5 km/h (4 Bft) 100,00 %
20.04.2018 15:47 25,7 C 12,8 C 29 % 1021,7 hPa 0,0 l/m 18,4 km/h (3 Bft) O-NO 76 1 min 0,000 mm 2,4 UV-I 598 W/m 6,3 C 23,7 C 25,7 km/h (4 Bft) 100,00 %
20.04.2018 15:48 25,7 C 12,8 C 30 % 1021,8 hPa 0,0 l/m 16,2 km/h (3 Bft) O-SO 107 1 min 0,000 mm 2,3 UV-I 583 W/m 6,8 C 24,0 C 20,9 km/h (4 Bft) 96,15 %
20.04.2018 15:49 25,7 C 12,8 C 29 % 1021,8 hPa 0,0 l/m 16,8 km/h (3 Bft) O-NO 63 1 min 0,000 mm 2,3 UV-I 596 W/m 6,3 C 23,9 C 22,5 km/h (4 Bft) 100,00 %
20.04.2018 15:50 25,7 C 12,8 C 28 % 1021,7 hPa 0,0 l/m 17,4 km/h (3 Bft) O 87 1 min 0,000 mm 2,3 UV-I 570 W/m 5,8 C 23,9 C 20,9 km/h (4 Bft) 100,00 %
20.04.2018 15:51 25,7 C 12,8 C 28 % 1021,7 hPa 0,0 l/m 16,7 km/h (3 Bft) O-NO 72 1 min 0,000 mm 2,2 UV-I 548 W/m 5,8 C 23,9 C 20,9 km/h (4 Bft) 100,00 %
20.04.2018 15:52 25,7 C 13,3 C 29 % 1021,7 hPa 0,0 l/m 15,9 km/h (3 Bft) O-NO 78 1 min 0,000 mm 2,3 UV-I 557 W/m 6,3 C 24,0 C 19,3 km/h (3 Bft) 100,00 %
20.04.2018 15:53 25,7 C 12,8 C 28 % 1021,7 hPa 0,0 l/m 14,6 km/h (3 Bft) O 92 1 min 0,000 mm 2,2 UV-I 525 W/m 5,8 C 24,2 C 17,7 km/h (3 Bft) 100,00 %
20.04.2018 15:54 25,7 C 12,8 C 29 % 1021,7 hPa 0,0 l/m 18,3 km/h (3 Bft) O-NO 65 1 min 0,000 mm 2,3 UV-I 589 W/m 6,3 C 23,8 C 24,1 km/h (4 Bft) 100,00 %
20.04.2018 15:55 25,7 C 12,8 C 29 % 1021,7 hPa 0,0 l/m 20,4 km/h (4 Bft) O-NO 58 1 min 0,000 mm 2,2 UV-I 591 W/m 6,3 C 23,5 C 27,4 km/h (4 Bft) 100,00 %
20.04.2018 15:56 25,7 C 12,8 C 28 % 1021,7 hPa 0,0 l/m 20,7 km/h (4 Bft) NO 51 1 min 0,000 mm 2,2 UV-I 591 W/m 5,8 C 23,5 C 25,7 km/h (4 Bft) 91,67 %
20.04.2018 15:57 25,7 C 12,8 C 28 % 1021,6 hPa 0,0 l/m 19,7 km/h (3 Bft) O 87 1 min 0,000 mm 2,2 UV-I 586 W/m 5,8 C 23,6 C 24,1 km/h (4 Bft) 100,00 %
20.04.2018 15:58 25,7 C 12,8 C 29 % 1021,6 hPa 0,0 l/m 20,0 km/h (4 Bft) O-NO 68 1 min 0,000 mm 2,2 UV-I 563 W/m 6,3 C 23,6 C 24,1 km/h (4 Bft) 96,67 %
20.04.2018 15:59 25,7 C 13,3 C 29 % 1021,6 hPa 0,0 l/m 20,2 km/h (4 Bft) O-NO 71 1 min 0,000 mm 2,1 UV-I 509 W/m 6,3 C 23,5 C 25,7 km/h (4 Bft) 100,00 %
20.04.2018 16:00 25,6 C 12,8 C 30 % 1021,6 hPa 0,0 l/m 19,2 km/h (3 Bft) O-NO 72 1 min 0,000 mm 2,2 UV-I 576 W/m 6,7 C 23,5 C 22,5 km/h (4 Bft) 100,00 %
20.04.2018 16:02 25,6 C 12,8 C 28 % 1021,6 hPa 0,0 l/m 19,2 km/h (3 Bft) O-NO 66 2 min 0,585 mm 2,1 UV-I 558 W/m 5,7 C 23,5 C 25,7 km/h (4 Bft) 98,00 %
20.04.2018 16:03 25,6 C 13,3 C 29 % 1021,6 hPa 0,0 l/m 17,4 km/h (3 Bft) O-NO 78 1 min 0,000 mm 2,1 UV-I 553 W/m 6,2 C 23,7 C 20,9 km/h (4 Bft) 100,00 %
20.04.2018 16:04 25,6 C 12,8 C 29 % 1021,6 hPa 0,0 l/m 12,8 km/h (3 Bft) O 96 1 min 0,000 mm 2,0 UV-I 512 W/m 6,2 C 24,4 C 17,7 km/h (3 Bft) 100,00 %
20.04.2018 16:05 25,7 C 12,8 C 30 % 1021,6 hPa 0,0 l/m 16,2 km/h (3 Bft) NO 55 1 min 0,000 mm 1,9 UV-I 478 W/m 6,8 C 24,0 C 20,9 km/h (4 Bft) 100,00 %
20.04.2018 16:06 25,7 C 12,8 C 31 % 1021,5 hPa 0,0 l/m 18,5 km/h (3 Bft) NO 51 1 min 0,000 mm 1,9 UV-I 470 W/m 7,3 C 23,7 C 20,9 km/h (4 Bft) 100,00 %
20.04.2018 16:08 25,7 C 12,8 C 29 % 1021,5 hPa 0,0 l/m 19,2 km/h (3 Bft) O-NO 71 2 min 0,000 mm 2,0 UV-I 516 W/m 6,3 C 23,7 C 24,1 km/h (4 Bft) 100,00 %
20.04.2018 16:09 25,7 C 12,8 C 28 % 1021,5 hPa 0,0 l/m 18,6 km/h (3 Bft) O-NO 66 1 min 0,000 mm 2,0 UV-I 514 W/m 5,8 C 23,7 C 22,5 km/h (4 Bft) 93,33 %
20.04.2018 16:10 25,6 C 12,8 C 28 % 1021,4 hPa 0,0 l/m 20,6 km/h (4 Bft) O-NO 76 1 min 0,000 mm 2,0 UV-I 513 W/m 5,7 C 23,4 C 22,5 km/h (4 Bft) 94,12 %
20.04.2018 16:11 25,6 C 12,8 C 27 % 1021,5 hPa 0,0 l/m 19,0 km/h (3 Bft) O-NO 70 1 min 0,000 mm 1,9 UV-I 510 W/m 5,2 C 23,5 C 20,9 km/h (4 Bft) 88,89 %
20.04.2018 16:12 25,6 C 12,8 C 28 % 1021,4 hPa 0,0 l/m 13,3 km/h (3 Bft) NO 50 1 min 0,000 mm 2,0 UV-I 540 W/m 5,7 C 24,3 C 24,1 km/h (4 Bft) 100,00 %
20.04.2018 16:13 25,6 C 12,8 C 28 % 1021,4 hPa 0,0 l/m 20,7 km/h (4 Bft) O-NO 67 1 min 0,000 mm 2,0 UV-I 543 W/m 5,7 C 23,4 C 29,0 km/h (5 Bft) 96,67 %
20.04.2018 16:14 25,6 C 12,8 C 28 % 1021,3 hPa 0,0 l/m 21,3 km/h (4 Bft) O-NO 69 1 min 0,000 mm 1,9 UV-I 539 W/m 5,7 C 23,3 C 25,7 km/h (4 Bft) 100,00 %
20.04.2018 16:15 25,6 C 12,8 C 27 % 1021,4 hPa 0,0 l/m 17,5 km/h (3 Bft) NO 51 1 min 0,000 mm 1,9 UV-I 534 W/m 5,2 C 23,7 C 24,1 km/h (4 Bft) 100,00 %
20.04.2018 16:16 25,6 C 12,8 C 28 % 1021,4 hPa 0,0 l/m 13,8 km/h (3 Bft) O-NO 76 1 min 0,000 mm 1,9 UV-I 536 W/m 5,7 C 24,2 C 20,9 km/h (4 Bft) 96,15 %
20.04.2018 16:17 25,7 C 12,8 C 28 % 1021,4 hPa 0,0 l/m 16,7 km/h (3 Bft) O-NO 69 1 min 0,000 mm 1,9 UV-I 524 W/m 5,8 C 23,9 C 20,9 km/h (4 Bft) 95,83 %
20.04.2018 16:18 25,7 C 13,3 C 29 % 1021,3 hPa 0,0 l/m 14,9 km/h (3 Bft) NO 51 1 min 0,000 mm 1,9 UV-I 512 W/m 6,3 C 24,2 C 17,7 km/h (3 Bft) 100,00 %
20.04.2018 16:19 25,8 C 12,8 C 29 % 1021,3 hPa 0,0 l/m 14,3 km/h (3 Bft) O 80 1 min 0,000 mm 1,9 UV-I 522 W/m 6,4 C 24,4 C 19,3 km/h (3 Bft) 96,30 %
20.04.2018 16:20 25,8 C 12,8 C 26 % 1021,3 hPa 0,0 l/m 16,1 km/h (3 Bft) O 80 1 min 0,000 mm 1,8 UV-I 519 W/m 4,8 C 24,1 C 22,5 km/h (4 Bft) 100,00 %
20.04.2018 16:21 25,7 C 12,8 C 27 % 1021,3 hPa 0,0 l/m 18,5 km/h (3 Bft) O-NO 70 1 min 0,000 mm 1,8 UV-I 506 W/m 5,3 C 23,7 C 22,5 km/h (4 Bft) 91,67 %
20.04.2018 16:23 25,7 C 12,8 C 30 % 1021,2 hPa 0,0 l/m 19,5 km/h (3 Bft) O-NO 59 2 min 0,000 mm 1,8 UV-I 511 W/m 6,8 C 23,6 C 27,4 km/h (4 Bft) 97,37 %
20.04.2018 16:24 25,8 C 12,8 C 30 % 1021,2 hPa 0,0 l/m 21,3 km/h (4 Bft) NO 54 1 min 0,000 mm 1,8 UV-I 513 W/m 6,9 C 23,6 C 24,1 km/h (4 Bft) 96,30 %
20.04.2018 16:25 25,8 C 13,3 C 28 % 1021,2 hPa 0,0 l/m 18,5 km/h (3 Bft) O-NO 66 1 min 0,000 mm 1,8 UV-I 510 W/m 5,9 C 23,9 C 20,9 km/h (4 Bft) 97,37 %
20.04.2018 16:26 25,8 C 12,8 C 29 % 1021,2 hPa 0,0 l/m 16,6 km/h (3 Bft) NO 51 1 min 0,000 mm 1,7 UV-I 504 W/m 6,4 C 24,1 C 22,5 km/h (4 Bft) 94,12 %
20.04.2018 16:27 25,8 C 12,8 C 31 % 1021,2 hPa 0,0 l/m 16,9 km/h (3 Bft) NO 47 1 min 0,000 mm 1,7 UV-I 500 W/m 7,4 C 24,0 C 20,9 km/h (4 Bft) 100,00 %
20.04.2018 16:28 25,8 C 12,8 C 29 % 1021,2 hPa 0,0 l/m 18,0 km/h (3 Bft) O-NO 72 1 min 0,000 mm 1,7 UV-I 492 W/m 6,4 C 23,9 C 22,5 km/h (4 Bft) 95,65 %
20.04.2018 16:29 25,8 C 13,3 C 28 % 1021,1 hPa 0,0 l/m 16,6 km/h (3 Bft) O-NO 57 1 min 0,000 mm 1,7 UV-I 489 W/m 5,9 C 24,1 C 20,9 km/h (4 Bft) 100,00 %
20.04.2018 16:30 25,8 C 12,8 C 28 % 1021,1 hPa 0,0 l/m 17,6 km/h (3 Bft) NO 53 1 min 0,000 mm 1,7 UV-I 493 W/m 5,9 C 24,0 C 24,1 km/h (4 Bft) 91,67 %
20.04.2018 16:31 25,8 C 12,8 C 29 % 1021,2 hPa 0,0 l/m 18,6 km/h (3 Bft) NO 47 1 min 0,000 mm 1,7 UV-I 487 W/m 6,4 C 23,8 C 25,7 km/h (4 Bft) 100,00 %
20.04.2018 16:32 25,8 C 12,8 C 27 % 1021,1 hPa 0,0 l/m 20,6 km/h (4 Bft) NO 49 1 min 0,000 mm 1,6 UV-I 481 W/m 5,4 C 23,6 C 25,7 km/h (4 Bft) 95,83 %
20.04.2018 16:33 25,8 C 12,8 C 25 % 1021,1 hPa 0,0 l/m 19,7 km/h (3 Bft) NO 49 1 min 0,000 mm 1,6 UV-I 479 W/m 4,3 C 23,7 C 24,1 km/h (4 Bft) 96,88 %
20.04.2018 16:34 25,8 C 12,8 C 25 % 1021,1 hPa 0,0 l/m 17,6 km/h (3 Bft) NO 37 1 min 0,000 mm 1,6 UV-I 483 W/m 4,3 C 24,0 C 25,7 km/h (4 Bft) 100,00 %
20.04.2018 16:35 25,8 C 12,8 C 27 % 1021,1 hPa 0,0 l/m 19,2 km/h (3 Bft) O-NO 57 1 min 0,000 mm 1,6 UV-I 482 W/m 5,4 C 23,8 C 29,0 km/h (5 Bft) 94,12 %
20.04.2018 16:36 25,8 C 13,3 C 27 % 1021,1 hPa 0,0 l/m 21,7 km/h (4 Bft) O-NO 59 1 min 0,000 mm 1,6 UV-I 482 W/m 5,4 C 23,5 C 27,4 km/h (4 Bft) 100,00 %
20.04.2018 16:37 25,8 C 12,8 C 26 % 1021,1 hPa 0,0 l/m 19,2 km/h (3 Bft) O-NO 57 1 min 0,000 mm 1,6 UV-I 482 W/m 4,8 C 23,8 C 25,7 km/h (4 Bft) 95,65 %
20.04.2018 16:38 25,8 C 12,8 C 26 % 1021,1 hPa 0,0 l/m 16,0 km/h (3 Bft) NO 42 1 min 0,000 mm 1,6 UV-I 478 W/m 4,8 C 24,1 C 20,9 km/h (4 Bft) 100,00 %
20.04.2018 16:39 25,8 C 12,8 C 25 % 1021,0 hPa 0,0 l/m 20,3 km/h (4 Bft) O-NO 71 1 min 0,000 mm 1,5 UV-I 472 W/m 4,3 C 23,7 C 25,7 km/h (4 Bft) 95,65 %
20.04.2018 16:40 25,8 C 12,8 C 25 % 1021,1 hPa 0,0 l/m 18,8 km/h (3 Bft) O-NO 78 1 min 0,000 mm 1,5 UV-I 465 W/m 4,3 C 23,8 C 22,5 km/h (4 Bft) 100,00 %
20.04.2018 16:41 25,8 C 12,8 C 26 % 1021,1 hPa 0,0 l/m 14,9 km/h (3 Bft) O 86 1 min 0,000 mm 1,5 UV-I 459 W/m 4,8 C 24,3 C 22,5 km/h (4 Bft) 96,15 %
20.04.2018 16:42 25,8 C 12,8 C 26 % 1021,0 hPa 0,0 l/m 17,1 km/h (3 Bft) O-NO 57 1 min 0,000 mm 1,5 UV-I 454 W/m 4,8 C 24,0 C 25,7 km/h (4 Bft) 100,00 %
20.04.2018 16:43 25,8 C 12,8 C 27 % 1021,0 hPa 0,0 l/m 22,3 km/h (4 Bft) O-NO 59 1 min 0,000 mm 1,5 UV-I 456 W/m 5,4 C 23,5 C 27,4 km/h (4 Bft) 96,15 %
20.04.2018 16:44 25,8 C 12,8 C 26 % 1021,0 hPa 0,0 l/m 22,7 km/h (4 Bft) O-NO 67 1 min 0,000 mm 1,5 UV-I 459 W/m 4,8 C 23,4 C 27,4 km/h (4 Bft) 96,30 %
20.04.2018 16:45 25,8 C 12,8 C 24 % 1021,0 hPa 0,0 l/m 18,2 km/h (3 Bft) O 91 1 min 0,000 mm 1,4 UV-I 451 W/m 3,7 C 23,9 C 24,1 km/h (4 Bft) 100,00 %
20.04.2018 16:46 25,8 C 12,8 C 25 % 1021,0 hPa 0,0 l/m 20,5 km/h (4 Bft) O-NO 66 1 min 0,000 mm 1,4 UV-I 454 W/m 4,3 C 23,6 C 25,7 km/h (4 Bft) 96,55 %
20.04.2018 16:47 25,8 C 12,8 C 25 % 1021,0 hPa 0,0 l/m 24,3 km/h (4 Bft) O 90 1 min 0,000 mm 1,4 UV-I 455 W/m 4,3 C 23,3 C 29,0 km/h (5 Bft) 100,00 %
20.04.2018 16:48 25,8 C 13,3 C 24 % 1021,0 hPa 0,0 l/m 20,2 km/h (4 Bft) O-NO 76 1 min 0,000 mm 1,4 UV-I 457 W/m 3,7 C 23,7 C 25,7 km/h (4 Bft) 100,00 %
20.04.2018 16:49 25,7 C 12,8 C 23 % 1021,0 hPa 0,0 l/m 18,7 km/h (3 Bft) NO 47 1 min 0,000 mm 1,4 UV-I 447 W/m 3,0 C 23,7 C 22,5 km/h (4 Bft) 100,00 %
20.04.2018 16:50 25,7 C 12,8 C 24 % 1021,0 hPa 0,0 l/m 16,3 km/h (3 Bft) O-NO 62 1 min 0,000 mm 1,4 UV-I 437 W/m 3,6 C 24,0 C 19,3 km/h (3 Bft) 95,65 %
20.04.2018 16:51 25,7 C 13,3 C 24 % 1020,9 hPa 0,0 l/m 17,2 km/h (3 Bft) N-NO 31 1 min 0,000 mm 1,3 UV-I 431 W/m 3,6 C 23,9 C 24,1 km/h (4 Bft) 100,00 %
20.04.2018 16:52 25,7 C 12,8 C 25 % 1020,9 hPa 0,0 l/m 16,1 km/h (3 Bft) O-NO 78 1 min 0,000 mm 1,3 UV-I 409 W/m 4,2 C 24,0 C 20,9 km/h (4 Bft) 100,00 %
20.04.2018 16:53 25,7 C 12,8 C 27 % 1020,9 hPa 0,0 l/m 20,6 km/h (4 Bft) O-NO 68 1 min 0,000 mm 1,3 UV-I 431 W/m 5,3 C 23,5 C 25,7 km/h (4 Bft) 100,00 %
20.04.2018 16:54 25,7 C 12,8 C 26 % 1020,9 hPa 0,0 l/m 18,0 km/h (3 Bft) O-NO 68 1 min 0,000 mm 1,3 UV-I 438 W/m 4,7 C 23,8 C 20,9 km/h (4 Bft) 100,00 %
20.04.2018 16:55 25,7 C 12,8 C 26 % 1020,9 hPa 0,0 l/m 21,6 km/h (4 Bft) O 88 1 min 0,000 mm 1,3 UV-I 435 W/m 4,7 C 23,4 C 25,7 km/h (4 Bft) 100,00 %
20.04.2018 16:56 25,7 C 12,8 C 25 % 1020,9 hPa 0,0 l/m 17,9 km/h (3 Bft) NO 41 1 min 0,000 mm 1,3 UV-I 432 W/m 4,2 C 23,8 C 24,1 km/h (4 Bft) 100,00 %
20.04.2018 16:57 25,7 C 12,8 C 26 % 1020,9 hPa 0,0 l/m 19,4 km/h (3 Bft) NO 54 1 min 0,000 mm 1,3 UV-I 427 W/m 4,7 C 23,6 C 27,4 km/h (4 Bft) 100,00 %
20.04.2018 16:58 25,7 C 12,8 C 27 % 1020,9 hPa 0,0 l/m 18,0 km/h (3 Bft) O 80 1 min 0,000 mm 1,3 UV-I 427 W/m 5,3 C 23,8 C 24,1 km/h (4 Bft) 100,00 %
20.04.2018 16:59 25,7 C 12,8 C 25 % 1020,9 hPa 0,0 l/m 12,6 km/h (3 Bft) NO 53 1 min 0,000 mm 1,2 UV-I 410 W/m 4,2 C 24,5 C 17,7 km/h (3 Bft) 93,33 %
20.04.2018 17:00 25,7 C 12,8 C 25 % 1020,9 hPa 0,0 l/m 13,5 km/h (3 Bft) O-NO 76 1 min 0,000 mm 1,2 UV-I 396 W/m 4,2 C 24,4 C 17,7 km/h (3 Bft) 100,00 %
20.04.2018 17:02 25,7 C 13,3 C 26 % 1020,9 hPa 0,0 l/m 18,5 km/h (3 Bft) NO 51 2 min 0,508 mm 1,2 UV-I 392 W/m 4,7 C 23,7 C 27,4 km/h (4 Bft) 100,00 %
20.04.2018 17:03 25,7 C 12,8 C 25 % 1020,9 hPa 0,0 l/m 20,9 km/h (4 Bft) O-NO 69 1 min 0,000 mm 1,2 UV-I 399 W/m 4,2 C 23,5 C 29,0 km/h (5 Bft) 100,00 %
20.04.2018 17:04 25,7 C 12,8 C 25 % 1020,9 hPa 0,0 l/m 20,9 km/h (4 Bft) NO 36 1 min 0,000 mm 1,2 UV-I 410 W/m 4,2 C 23,5 C 29,0 km/h (5 Bft) 100,00 %
20.04.2018 17:05 25,7 C 12,8 C 25 % 1020,8 hPa 0,0 l/m 17,8 km/h (3 Bft) O-NO 71 1 min 0,000 mm 1,2 UV-I 404 W/m 4,2 C 23,8 C 20,9 km/h (4 Bft) 100,00 %
20.04.2018 17:06 25,7 C 12,8 C 25 % 1020,8 hPa 0,0 l/m 17,2 km/h (3 Bft) O-NO 64 1 min 0,000 mm 1,2 UV-I 402 W/m 4,2 C 23,9 C 22,5 km/h (4 Bft) 95,83 %
20.04.2018 17:07 25,7 C 12,8 C 25 % 1020,8 hPa 0,0 l/m 19,2 km/h (3 Bft) NO 51 1 min 0,000 mm 1,1 UV-I 399 W/m 4,2 C 23,7 C 22,5 km/h (4 Bft) 100,00 %
20.04.2018 17:08 25,7 C 12,8 C 25 % 1020,8 hPa 0,0 l/m 17,0 km/h (3 Bft) O-NO 66 1 min 0,000 mm 1,1 UV-I 399 W/m 4,2 C 23,9 C 24,1 km/h (4 Bft) 100,00 %
20.04.2018 17:09 25,7 C 12,8 C 26 % 1020,8 hPa 0,0 l/m 17,5 km/h (3 Bft) NO 42 1 min 0,000 mm 1,1 UV-I 397 W/m 4,7 C 23,8 C 22,5 km/h (4 Bft) 100,00 %
20.04.2018 17:10 25,7 C 12,8 C 27 % 1020,7 hPa 0,0 l/m 23,0 km/h (4 Bft) NO 45 1 min 0,000 mm 1,1 UV-I 396 W/m 5,3 C 23,3 C 25,7 km/h (4 Bft) 98,00 %
20.04.2018 17:11 25,6 C 12,8 C 25 % 1020,8 hPa 0,0 l/m 22,3 km/h (4 Bft) O-NO 62 1 min 0,000 mm 1,1 UV-I 396 W/m 4,1 C 23,2 C 27,4 km/h (4 Bft) 100,00 %
20.04.2018 17:12 25,7 C 12,8 C 25 % 1020,8 hPa 0,0 l/m 17,0 km/h (3 Bft) O 88 1 min 0,000 mm 1,1 UV-I 392 W/m 4,2 C 23,9 C 22,5 km/h (4 Bft) 100,00 %
20.04.2018 17:13 25,7 C 12,8 C 25 % 1020,8 hPa 0,0 l/m 18,0 km/h (3 Bft) O 96 1 min 0,000 mm 1,1 UV-I 389 W/m 4,2 C 23,8 C 22,5 km/h (4 Bft) 100,00 %
20.04.2018 17:14 25,7 C 12,8 C 26 % 1020,8 hPa 0,0 l/m 15,2 km/h (3 Bft) O-NO 70 1 min 0,000 mm 1,1 UV-I 378 W/m 4,7 C 24,1 C 20,9 km/h (4 Bft) 100,00 %
20.04.2018 17:15 25,7 C 13,3 C 27 % 1020,8 hPa 0,0 l/m 13,9 km/h (3 Bft) O-NO 61 1 min 0,000 mm 1,0 UV-I 380 W/m 5,3 C 24,3 C 17,7 km/h (3 Bft) 100,00 %
20.04.2018 17:16 25,7 C 12,8 C 27 % 1020,8 hPa 0,0 l/m 13,4 km/h (3 Bft) NO 49 1 min 0,000 mm 1,0 UV-I 378 W/m 5,3 C 24,4 C 16,1 km/h (3 Bft) 100,00 %
20.04.2018 17:17 25,8 C 12,8 C 27 % 1020,8 hPa 0,0 l/m 10,3 km/h (2 Bft) O 83 1 min 0,000 mm 1,0 UV-I 372 W/m 5,4 C 25,0 C 16,1 km/h (3 Bft) 100,00 %
20.04.2018 17:18 25,8 C 12,8 C 28 % 1020,8 hPa 0,0 l/m 12,8 km/h (3 Bft) O-NO 70 1 min 0,000 mm 1,0 UV-I 369 W/m 5,9 C 24,6 C 17,7 km/h (3 Bft) 96,88 %
20.04.2018 17:19 25,8 C 12,8 C 27 % 1020,8 hPa 0,0 l/m 10,9 km/h (2 Bft) O 93 1 min 0,000 mm 1,0 UV-I 368 W/m 5,4 C 24,9 C 14,5 km/h (3 Bft) 100,00 %
20.04.2018 17:20 25,8 C 12,8 C 28 % 1020,7 hPa 0,0 l/m 16,1 km/h (3 Bft) O-NO 62 1 min 0,000 mm 1,0 UV-I 366 W/m 5,9 C 24,1 C 25,7 km/h (4 Bft) 96,30 %
20.04.2018 17:21 25,8 C 13,3 C 27 % 1020,7 hPa 0,0 l/m 20,1 km/h (4 Bft) NO 41 1 min 0,000 mm 1,0 UV-I 362 W/m 5,4 C 23,7 C 27,4 km/h (4 Bft) 100,00 %
20.04.2018 17:22 25,8 C 13,3 C 25 % 1020,7 hPa 0,0 l/m 17,1 km/h (3 Bft) O-NO 66 1 min 0,000 mm 0,3 UV-I 359 W/m 4,3 C 24,0 C 24,1 km/h (4 Bft) 100,00 %
20.04.2018 17:23 25,8 C 12,8 C 25 % 1020,7 hPa 0,0 l/m 19,5 km/h (3 Bft) O-NO 69 1 min 0,000 mm 0,8 UV-I 355 W/m 4,3 C 23,8 C 24,1 km/h (4 Bft) 92,31 %
20.04.2018 17:24 25,7 C 12,8 C 25 % 1020,7 hPa 0,0 l/m 19,0 km/h (3 Bft) O 89 1 min 0,000 mm 0,9 UV-I 353 W/m 4,2 C 23,7 C 22,5 km/h (4 Bft) 100,00 %
20.04.2018 17:25 25,7 C 12,8 C 25 % 1020,7 hPa 0,0 l/m 13,7 km/h (3 Bft) NO 48 1 min 0,000 mm 0,9 UV-I 351 W/m 4,2 C 24,3 C 17,7 km/h (3 Bft) 100,00 %
20.04.2018 17:26 25,7 C 12,8 C 26 % 1020,7 hPa 0,0 l/m 13,8 km/h (3 Bft) N-NO 30 1 min 0,000 mm 0,9 UV-I 347 W/m 4,7 C 24,3 C 17,7 km/h (3 Bft) 100,00 %
20.04.2018 17:27 25,7 C 12,8 C 25 % 1020,6 hPa 0,0 l/m 12,1 km/h (2 Bft) O 88 1 min 0,000 mm 0,9 UV-I 342 W/m 4,2 C 24,6 C 16,1 km/h (3 Bft) 91,67 %
20.04.2018 17:28 25,7 C 12,8 C 26 % 1020,7 hPa 0,0 l/m 16,7 km/h (3 Bft) O-NO 78 1 min 0,000 mm 0,9 UV-I 345 W/m 4,7 C 23,9 C 20,9 km/h (4 Bft) 100,00 %
20.04.2018 17:29 25,7 C 12,8 C 26 % 1020,7 hPa 0,0 l/m 14,5 km/h (3 Bft) O-NO 69 1 min 0,000 mm 0,9 UV-I 340 W/m 4,7 C 24,2 C 17,7 km/h (3 Bft) 100,00 %
20.04.2018 17:30 25,6 C 12,8 C 26 % 1020,7 hPa 0,0 l/m 17,4 km/h (3 Bft) NO 48 1 min 0,000 mm 0,9 UV-I 339 W/m 4,7 C 23,7 C 20,9 km/h (4 Bft) 100,00 %
20.04.2018 17:31 25,6 C 12,8 C 26 % 1020,7 hPa 0,0 l/m 17,2 km/h (3 Bft) O 98 1 min 0,000 mm 0,8 UV-I 338 W/m 4,7 C 23,8 C 24,1 km/h (4 Bft) 100,00 %
20.04.2018 17:32 25,6 C 12,8 C 26 % 1020,7 hPa 0,0 l/m 12,1 km/h (2 Bft) NO 43 1 min 0,000 mm 0,8 UV-I 334 W/m 4,7 C 24,5 C 16,1 km/h (3 Bft) 100,00 %
20.04.2018 17:33 25,6 C 12,8 C 26 % 1020,6 hPa 0,0 l/m 17,7 km/h (3 Bft) NO 53 1 min 0,000 mm 0,8 UV-I 330 W/m 4,7 C 23,7 C 24,1 km/h (4 Bft) 100,00 %
20.04.2018 17:34 25,6 C 13,3 C 25 % 1020,6 hPa 0,0 l/m 15,3 km/h (3 Bft) O 80 1 min 0,000 mm 0,8 UV-I 329 W/m 4,1 C 24,0 C 19,3 km/h (3 Bft) 100,00 %
20.04.2018 17:35 25,6 C 13,3 C 26 % 1020,6 hPa 0,0 l/m 13,7 km/h (3 Bft) NO 55 1 min 0,000 mm 0,8 UV-I 327 W/m 4,7 C 24,2 C 16,1 km/h (3 Bft) 100,00 %
20.04.2018 17:36 25,6 C 12,8 C 27 % 1020,6 hPa 0,0 l/m 9,9 km/h (2 Bft) O-NO 59 1 min 0,000 mm 0,8 UV-I 323 W/m 5,2 C 24,8 C 14,5 km/h (3 Bft) 100,00 %
20.04.2018 17:37 25,6 C 12,8 C 27 % 1020,6 hPa 0,0 l/m 16,0 km/h (3 Bft) O 87 1 min 0,000 mm 0,8 UV-I 321 W/m 5,2 C 23,9 C 22,5 km/h (4 Bft) 100,00 %
20.04.2018 17:38 25,6 C 12,8 C 28 % 1020,6 hPa 0,0 l/m 14,0 km/h (3 Bft) NO 51 1 min 0,000 mm 0,8 UV-I 319 W/m 5,7 C 24,2 C 17,7 km/h (3 Bft) 100,00 %
20.04.2018 17:39 25,6 C 12,8 C 29 % 1020,6 hPa 0,0 l/m 16,0 km/h (3 Bft) O-SO 113 1 min 0,000 mm 0,7 UV-I 316 W/m 6,2 C 23,9 C 22,5 km/h (4 Bft) 100,00 %
20.04.2018 17:40 25,6 C 12,8 C 27 % 1020,6 hPa 0,0 l/m 17,6 km/h (3 Bft) O 90 1 min 0,000 mm 0,7 UV-I 316 W/m 5,2 C 23,7 C 22,5 km/h (4 Bft) 100,00 %
20.04.2018 17:41 25,5 C 13,3 C 27 % 1020,6 hPa 0,0 l/m 16,1 km/h (3 Bft) O-SO 103 1 min 0,000 mm 0,7 UV-I 314 W/m 5,1 C 23,8 C 19,3 km/h (3 Bft) 100,00 %
20.04.2018 17:42 25,4 C 12,8 C 27 % 1020,6 hPa 0,0 l/m 12,3 km/h (3 Bft) O 80 1 min 0,000 mm 0,7 UV-I 310 W/m 5,0 C 24,2 C 16,1 km/h (3 Bft) 100,00 %
20.04.2018 17:43 25,4 C 12,8 C 27 % 1020,5 hPa 0,0 l/m 12,0 km/h (2 Bft) O 89 1 min 0,000 mm 0,7 UV-I 308 W/m 5,0 C 24,2 C 16,1 km/h (3 Bft) 100,00 %
20.04.2018 17:44 25,4 C 12,8 C 27 % 1020,6 hPa 0,0 l/m 14,5 km/h (3 Bft) O 89 1 min 0,000 mm 0,7 UV-I 306 W/m 5,0 C 23,9 C 19,3 km/h (3 Bft) 96,30 %
20.04.2018 17:45 25,3 C 12,8 C 29 % 1020,5 hPa 0,0 l/m 11,1 km/h (2 Bft) O-SO 102 1 min 0,000 mm 0,7 UV-I 304 W/m 6,0 C 24,3 C 16,1 km/h (3 Bft) 100,00 %
20.04.2018 17:46 25,3 C 12,8 C 28 % 1020,5 hPa 0,0 l/m 9,9 km/h (2 Bft) O-SO 105 1 min 0,000 mm 0,7 UV-I 300 W/m 5,5 C 24,5 C 14,5 km/h (3 Bft) 100,00 %
20.04.2018 17:47 25,3 C 12,8 C 28 % 1020,5 hPa 0,0 l/m 8,9 km/h (2 Bft) O-NO 78 1 min 0,000 mm 0,7 UV-I 293 W/m 5,5 C 24,7 C 12,9 km/h (3 Bft) 95,65 %
20.04.2018 17:48 25,3 C 12,8 C 29 % 1020,5 hPa 0,0 l/m 11,5 km/h (2 Bft) O-NO 73 1 min 0,000 mm 0,7 UV-I 287 W/m 6,0 C 24,2 C 16,1 km/h (3 Bft) 100,00 %
20.04.2018 17:49 25,3 C 12,8 C 29 % 1020,5 hPa 0,0 l/m 13,9 km/h (3 Bft) O 84 1 min 0,000 mm 0,6 UV-I 290 W/m 6,0 C 23,8 C 19,3 km/h (3 Bft) 100,00 %
20.04.2018 17:50 25,3 C 12,8 C 26 % 1020,5 hPa 0,0 l/m 17,4 km/h (3 Bft) O 82 1 min 0,000 mm 0,6 UV-I 289 W/m 4,4 C 23,4 C 24,1 km/h (4 Bft) 100,00 %
20.04.2018 17:51 25,3 C 12,8 C 27 % 1020,5 hPa 0,0 l/m 18,7 km/h (3 Bft) O-SO 104 1 min 0,000 mm 0,6 UV-I 287 W/m 4,9 C 23,2 C 24,1 km/h (4 Bft) 100,00 %
20.04.2018 17:52 25,3 C 12,8 C 27 % 1020,5 hPa 0,0 l/m 16,9 km/h (3 Bft) O 96 1 min 0,000 mm 0,6 UV-I 287 W/m 4,9 C 23,4 C 22,5 km/h (4 Bft) 100,00 %
20.04.2018 17:53 25,3 C 12,8 C 26 % 1020,5 hPa 0,0 l/m 18,0 km/h (3 Bft) O-NO 69 1 min 0,000 mm 0,6 UV-I 285 W/m 4,4 C 23,3 C 24,1 km/h (4 Bft) 96,15 %
20.04.2018 17:54 25,2 C 13,3 C 26 % 1020,5 hPa 0,0 l/m 18,5 km/h (3 Bft) O 81 1 min 0,000 mm 0,6 UV-I 282 W/m 4,3 C 23,1 C 24,1 km/h (4 Bft) 100,00 %
20.04.2018 17:55 25,2 C 12,8 C 27 % 1020,5 hPa 0,0 l/m 16,6 km/h (3 Bft) O-NO 71 1 min 0,000 mm 0,6 UV-I 280 W/m 4,9 C 23,3 C 22,5 km/h (4 Bft) 100,00 %
20.04.2018 17:56 25,2 C 12,8 C 26 % 1020,5 hPa 0,0 l/m 16,2 km/h (3 Bft) O 82 1 min 0,000 mm 0,6 UV-I 278 W/m 4,3 C 23,4 C 24,1 km/h (4 Bft) 100,00 %
20.04.2018 17:57 25,2 C 12,8 C 25 % 1020,5 hPa 0,0 l/m 17,1 km/h (3 Bft) O 81 1 min 0,000 mm 0,6 UV-I 274 W/m 3,8 C 23,3 C 20,9 km/h (4 Bft) 100,00 %
20.04.2018 17:58 25,2 C 12,8 C 25 % 1020,5 hPa 0,0 l/m 17,2 km/h (3 Bft) O 81 1 min 0,000 mm 0,6 UV-I 272 W/m 3,8 C 23,3 C 20,9 km/h (4 Bft) 100,00 %
20.04.2018 17:59 25,2 C 12,8 C 26 % 1020,5 hPa 0,0 l/m 16,0 km/h (3 Bft) O 79 1 min 0,000 mm 0,5 UV-I 267 W/m 4,3 C 23,4 C 20,9 km/h (4 Bft) 100,00 %
20.04.2018 18:00 25,2 C 12,8 C 27 % 1020,5 hPa 0,0 l/m 11,9 km/h (2 Bft) O 89 1 min 0,000 mm 0,5 UV-I 265 W/m 4,9 C 24,0 C 17,7 km/h (3 Bft) 100,00 %
20.04.2018 18:01 25,2 C 12,8 C 28 % 1020,4 hPa 0,0 l/m 11,9 km/h (2 Bft) O 84 1 min 0,406 mm 0,5 UV-I 262 W/m 5,4 C 24,0 C 16,1 km/h (3 Bft) 100,00 %
20.04.2018 18:02 25,2 C 13,3 C 28 % 1020,5 hPa 0,0 l/m 11,7 km/h (2 Bft) O-NO 60 1 min 0,000 mm 0,5 UV-I 258 W/m 5,4 C 24,1 C 17,7 km/h (3 Bft) 100,00 %
20.04.2018 18:03 25,1 C 12,8 C 28 % 1020,5 hPa 0,0 l/m 12,1 km/h (2 Bft) O 84 1 min 0,000 mm 0,5 UV-I 255 W/m 5,3 C 23,9 C 17,7 km/h (3 Bft) 100,00 %
20.04.2018 18:04 25,1 C 12,8 C 29 % 1020,4 hPa 0,0 l/m 12,6 km/h (3 Bft) NO 56 1 min 0,000 mm 0,5 UV-I 253 W/m 5,8 C 23,8 C 17,7 km/h (3 Bft) 97,37 %
20.04.2018 18:05 25,1 C 12,8 C 28 % 1020,4 hPa 0,0 l/m 13,7 km/h (3 Bft) O-NO 61 1 min 0,000 mm 0,5 UV-I 251 W/m 5,3 C 23,6 C 16,1 km/h (3 Bft) 100,00 %
20.04.2018 18:06 25,1 C 12,8 C 27 % 1020,4 hPa 0,0 l/m 13,1 km/h (3 Bft) O-NO 67 1 min 0,000 mm 0,5 UV-I 249 W/m 4,8 C 23,7 C 17,7 km/h (3 Bft) 100,00 %
20.04.2018 18:07 25,1 C 12,8 C 29 % 1020,4 hPa 0,0 l/m 11,5 km/h (2 Bft) O-NO 63 1 min 0,000 mm 0,5 UV-I 246 W/m 5,8 C 24,0 C 16,1 km/h (3 Bft) 100,00 %
20.04.2018 18:08 25,1 C 12,8 C 29 % 1020,4 hPa 0,0 l/m 10,9 km/h (2 Bft) O 97 1 min 0,000 mm 0,5 UV-I 241 W/m 5,8 C 24,1 C 16,1 km/h (3 Bft) 100,00 %
20.04.2018 18:09 25,1 C 12,8 C 28 % 1020,4 hPa 0,0 l/m 10,5 km/h (2 Bft) O-NO 63 1 min 0,000 mm 0,2 UV-I 237 W/m 5,3 C 24,2 C 12,9 km/h (3 Bft) 100,00 %
20.04.2018 18:10 25,1 C 12,8 C 29 % 1020,4 hPa 0,0 l/m 13,4 km/h (3 Bft) O-NO 66 1 min 0,000 mm 0,0 UV-I 236 W/m 5,8 C 23,7 C 16,1 km/h (3 Bft) 92,86 %
20.04.2018 18:11 25,1 C 12,8 C 29 % 1020,4 hPa 0,0 l/m 13,2 km/h (3 Bft) O-NO 74 1 min 0,000 mm 0,0 UV-I 233 W/m 5,8 C 23,7 C 17,7 km/h (3 Bft) 100,00 %
20.04.2018 18:12 25,1 C 12,8 C 29 % 1020,3 hPa 0,0 l/m 12,8 km/h (3 Bft) NO 49 1 min 0,000 mm 0,0 UV-I 231 W/m 5,8 C 23,8 C 17,7 km/h (3 Bft) 95,65 %
20.04.2018 18:13 25,1 C 12,8 C 29 % 1020,3 hPa 0,0 l/m 13,4 km/h (3 Bft) O-NO 59 1 min 0,000 mm 0,0 UV-I 227 W/m 5,8 C 23,7 C 16,1 km/h (3 Bft) 100,00 %
20.04.2018 18:14 25,0 C 12,8 C 28 % 1020,3 hPa 0,0 l/m 17,0 km/h (3 Bft) O-NO 77 1 min 0,000 mm 0,0 UV-I 225 W/m 5,2 C 23,0 C 19,3 km/h (3 Bft) 96,55 %
20.04.2018 18:15 25,0 C 13,3 C 28 % 1020,3 hPa 0,0 l/m 14,7 km/h (3 Bft) O-NO 71 1 min 0,000 mm 0,0 UV-I 221 W/m 5,2 C 23,4 C 17,7 km/h (3 Bft) 95,83 %
20.04.2018 18:16 25,0 C 12,8 C 28 % 1020,3 hPa 0,0 l/m 15,1 km/h (3 Bft) O-NO 65 1 min 0,000 mm 0,0 UV-I 220 W/m 5,2 C 23,3 C 16,1 km/h (3 Bft) 100,00 %
20.04.2018 18:18 24,9 C 12,8 C 28 % 1020,2 hPa 0,0 l/m 13,6 km/h (3 Bft) O-NO 78 2 min 0,000 mm 0,0 UV-I 214 W/m 5,1 C 23,4 C 17,7 km/h (3 Bft) 97,92 %
20.04.2018 18:19 24,9 C 12,8 C 30 % 1020,2 hPa 0,0 l/m 13,2 km/h (3 Bft) O-NO 63 1 min 0,000 mm 0,0 UV-I 209 W/m 6,1 C 23,5 C 17,7 km/h (3 Bft) 96,15 %
20.04.2018 18:20 24,9 C 12,8 C 29 % 1020,1 hPa 0,0 l/m 12,0 km/h (2 Bft) O 96 1 min 0,000 mm 0,0 UV-I 206 W/m 5,6 C 23,7 C 14,5 km/h (3 Bft) 100,00 %
20.04.2018 18:21 24,8 C 12,8 C 29 % 1020,1 hPa 0,0 l/m 12,5 km/h (3 Bft) O-NO 66 1 min 0,000 mm 0,0 UV-I 202 W/m 5,5 C 23,5 C 17,7 km/h (3 Bft) 91,30 %
20.04.2018 18:23 24,8 C 12,8 C 30 % 1020,1 hPa 0,0 l/m 13,5 km/h (3 Bft) O 94 2 min 0,000 mm 0,0 UV-I 197 W/m 6,0 C 23,3 C 16,1 km/h (3 Bft) 96,23 %
20.04.2018 18:24 24,7 C 12,8 C 30 % 1020,1 hPa 0,0 l/m 13,6 km/h (3 Bft) O-NO 77 1 min 0,000 mm 0,0 UV-I 191 W/m 6,0 C 23,2 C 17,7 km/h (3 Bft) 100,00 %
20.04.2018 18:25 24,7 C 12,8 C 30 % 1020,2 hPa 0,0 l/m 14,5 km/h (3 Bft) O-NO 59 1 min 0,000 mm 0,0 UV-I 189 W/m 6,0 C 23,0 C 16,1 km/h (3 Bft) 95,65 %
20.04.2018 18:26 24,7 C 12,8 C 29 % 1020,1 hPa 0,0 l/m 13,1 km/h (3 Bft) O-NO 76 1 min 0,000 mm 0,0 UV-I 185 W/m 5,5 C 23,2 C 16,1 km/h (3 Bft) 100,00 %
20.04.2018 18:27 24,6 C 12,8 C 30 % 1020,1 hPa 0,0 l/m 14,3 km/h (3 Bft) O-NO 61 1 min 0,000 mm 0,0 UV-I 185 W/m 5,9 C 22,9 C 16,1 km/h (3 Bft) 93,33 %
20.04.2018 18:28 24,6 C 12,8 C 31 % 1020,1 hPa 0,0 l/m 10,9 km/h (2 Bft) O-NO 75 1 min 0,000 mm 0,0 UV-I 183 W/m 6,3 C 23,5 C 14,5 km/h (3 Bft) 100,00 %
20.04.2018 18:29 24,6 C 12,8 C 29 % 1020,1 hPa 0,0 l/m 16,9 km/h (3 Bft) O 84 1 min 0,000 mm 0,0 UV-I 182 W/m 5,4 C 22,5 C 20,9 km/h (4 Bft) 96,15 %
20.04.2018 18:30 24,6 C 13,3 C 28 % 1020,1 hPa 0,0 l/m 17,6 km/h (3 Bft) O-NO 70 1 min 0,000 mm 0,0 UV-I 180 W/m 4,9 C 22,5 C 20,9 km/h (4 Bft) 95,83 %
20.04.2018 18:31 24,6 C 12,8 C 29 % 1020,1 hPa 0,0 l/m 16,2 km/h (3 Bft) O-NO 67 1 min 0,000 mm 0,0 UV-I 178 W/m 5,4 C 22,6 C 20,9 km/h (4 Bft) 100,00 %
20.04.2018 18:32 24,6 C 12,8 C 30 % 1020,1 hPa 0,0 l/m 16,4 km/h (3 Bft) O-NO 71 1 min 0,000 mm 0,0 UV-I 176 W/m 5,9 C 22,6 C 19,3 km/h (3 Bft) 95,83 %
20.04.2018 18:33 24,6 C 12,8 C 30 % 1020,0 hPa 0,0 l/m 17,1 km/h (3 Bft) O-NO 69 1 min 0,000 mm 0,0 UV-I 174 W/m 5,9 C 22,5 C 19,3 km/h (3 Bft) 100,00 %
20.04.2018 18:34 24,6 C 12,8 C 29 % 1020,0 hPa 0,0 l/m 13,8 km/h (3 Bft) O-NO 61 1 min 0,000 mm 0,0 UV-I 170 W/m 5,4 C 23,0 C 19,3 km/h (3 Bft) 87,50 %
20.04.2018 18:35 24,6 C 12,8 C 30 % 1020,1 hPa 0,0 l/m 9,4 km/h (2 Bft) O 101 1 min 0,000 mm 0,0 UV-I 168 W/m 5,9 C 23,9 C 12,9 km/h (3 Bft) 100,00 %
20.04.2018 18:36 24,5 C 12,8 C 30 % 1020,0 hPa 0,0 l/m 8,8 km/h (2 Bft) O-NO 57 1 min 0,000 mm 0,0 UV-I 166 W/m 5,8 C 23,9 C 11,3 km/h (2 Bft) 93,75 %
20.04.2018 18:37 24,4 C 12,8 C 30 % 1020,0 hPa 0,0 l/m 10,6 km/h (2 Bft) NO 56 1 min 0,000 mm 0,0 UV-I 163 W/m 5,7 C 23,4 C 16,1 km/h (3 Bft) 91,67 %
20.04.2018 18:38 24,4 C 12,8 C 31 % 1020,0 hPa 0,0 l/m 9,7 km/h (2 Bft) O-NO 65 1 min 0,000 mm 0,0 UV-I 156 W/m 6,2 C 23,6 C 14,5 km/h (3 Bft) 96,55 %
20.04.2018 18:39 24,4 C 12,8 C 31 % 1020,0 hPa 0,0 l/m 9,6 km/h (2 Bft) O-NO 68 1 min 0,000 mm 0,0 UV-I 153 W/m 6,2 C 23,6 C 14,5 km/h (3 Bft) 92,31 %
20.04.2018 18:40 24,3 C 12,8 C 31 % 1020,0 hPa 0,0 l/m 11,0 km/h (2 Bft) NO 44 1 min 0,000 mm 0,0 UV-I 151 W/m 6,1 C 23,2 C 16,1 km/h (3 Bft) 100,00 %
20.04.2018 18:41 24,3 C 12,8 C 31 % 1020,0 hPa 0,0 l/m 8,0 km/h (2 Bft) O-NO 63 1 min 0,000 mm 0,0 UV-I 147 W/m 6,1 C 23,9 C 11,3 km/h (2 Bft) 92,31 %
20.04.2018 18:42 24,2 C 12,8 C 31 % 1020,1 hPa 0,0 l/m 9,5 km/h (2 Bft) O-NO 71 1 min 0,000 mm 0,0 UV-I 145 W/m 6,0 C 23,4 C 14,5 km/h (3 Bft) 95,83 %
20.04.2018 18:43 24,2 C 12,8 C 30 % 1020,0 hPa 0,0 l/m 12,3 km/h (3 Bft) O 87 1 min 0,000 mm 0,0 UV-I 144 W/m 5,5 C 22,8 C 16,1 km/h (3 Bft) 91,67 %
20.04.2018 18:44 24,2 C 12,8 C 30 % 1020,0 hPa 0,0 l/m 9,6 km/h (2 Bft) O 86 1 min 0,000 mm 0,0 UV-I 142 W/m 5,5 C 23,4 C 12,9 km/h (3 Bft) 100,00 %
20.04.2018 18:45 24,2 C 12,8 C 31 % 1020,0 hPa 0,0 l/m 10,3 km/h (2 Bft) O-NO 68 1 min 0,000 mm 0,0 UV-I 142 W/m 6,0 C 23,2 C 12,9 km/h (3 Bft) 95,83 %
20.04.2018 18:46 24,1 C 12,8 C 30 % 1020,0 hPa 0,0 l/m 8,2 km/h (2 Bft) O-NO 75 1 min 0,000 mm 0,0 UV-I 139 W/m 5,4 C 23,6 C 12,9 km/h (3 Bft) 100,00 %
20.04.2018 18:47 24,1 C 12,8 C 31 % 1020,0 hPa 0,0 l/m 6,2 km/h (2 Bft) O 88 1 min 0,000 mm 0,0 UV-I 136 W/m 5,9 C 24,1 C 8,0 km/h (2 Bft) 95,83 %
20.04.2018 18:48 24,1 C 12,8 C 31 % 1020,1 hPa 0,0 l/m 7,6 km/h (2 Bft) O-NO 71 1 min 0,000 mm 0,0 UV-I 133 W/m 5,9 C 23,8 C 12,9 km/h (3 Bft) 95,65 %
20.04.2018 18:49 24,0 C 12,8 C 32 % 1020,0 hPa 0,0 l/m 7,9 km/h (2 Bft) O 92 1 min 0,000 mm 0,0 UV-I 130 W/m 6,3 C 23,6 C 12,9 km/h (3 Bft) 96,30 %
20.04.2018 18:50 23,9 C 12,8 C 32 % 1020,1 hPa 0,0 l/m 6,6 km/h (2 Bft) O-NO 69 1 min 0,000 mm 0,0 UV-I 127 W/m 6,2 C 23,9 C 11,3 km/h (2 Bft) 100,00 %
20.04.2018 18:51 23,9 C 12,8 C 32 % 1020,0 hPa 0,0 l/m 9,7 km/h (2 Bft) O 86 1 min 0,000 mm 0,0 UV-I 122 W/m 6,2 C 23,0 C 12,9 km/h (3 Bft) 95,83 %
20.04.2018 18:52 23,8 C 12,8 C 31 % 1020,0 hPa 0,0 l/m 10,5 km/h (2 Bft) O-NO 67 1 min 0,000 mm 0,0 UV-I 119 W/m 5,6 C 22,7 C 16,1 km/h (3 Bft) 96,55 %
20.04.2018 18:53 23,8 C 12,8 C 31 % 1020,1 hPa 0,0 l/m 9,6 km/h (2 Bft) O 83 1 min 0,000 mm 0,0 UV-I 119 W/m 5,6 C 22,9 C 12,9 km/h (3 Bft) 100,00 %
20.04.2018 18:54 23,7 C 12,8 C 31 % 1020,0 hPa 0,0 l/m 10,0 km/h (2 Bft) O 98 1 min 0,000 mm 0,0 UV-I 120 W/m 5,6 C 22,7 C 16,1 km/h (3 Bft) 92,86 %
20.04.2018 18:55 23,7 C 12,8 C 32 % 1020,0 hPa 0,0 l/m 9,1 km/h (2 Bft) O 90 1 min 0,000 mm 0,0 UV-I 120 W/m 6,0 C 22,9 C 12,9 km/h (3 Bft) 100,00 %
20.04.2018 18:56 23,6 C 12,8 C 32 % 1020,0 hPa 0,0 l/m 10,2 km/h (2 Bft) O 87 1 min 0,000 mm 0,0 UV-I 121 W/m 5,9 C 22,6 C 14,5 km/h (3 Bft) 100,00 %
20.04.2018 18:57 23,5 C 12,8 C 32 % 1020,1 hPa 0,0 l/m 11,9 km/h (2 Bft) O-NO 69 1 min 0,000 mm 0,0 UV-I 120 W/m 5,8 C 22,1 C 14,5 km/h (3 Bft) 96,55 %
20.04.2018 18:58 23,5 C 12,8 C 32 % 1020,1 hPa 0,0 l/m 12,7 km/h (3 Bft) O 99 1 min 0,000 mm 0,0 UV-I 117 W/m 5,8 C 21,9 C 17,7 km/h (3 Bft) 96,88 %
20.04.2018 18:59 23,5 C 12,8 C 32 % 1020,0 hPa 0,0 l/m 13,0 km/h (3 Bft) O 88 1 min 0,000 mm 0,0 UV-I 115 W/m 5,8 C 21,9 C 16,1 km/h (3 Bft) 100,00 %
20.04.2018 19:00 23,4 C 12,8 C 32 % 1020,0 hPa 0,0 l/m 12,4 km/h (3 Bft) O-NO 74 1 min 0,000 mm 0,0 UV-I 114 W/m 5,8 C 21,9 C 16,1 km/h (3 Bft) 95,83 %
20.04.2018 19:02 23,4 C 12,8 C 31 % 1020,0 hPa 0,0 l/m 14,0 km/h (3 Bft) O-SO 107 2 min 0,254 mm 0,0 UV-I 112 W/m 5,3 C 21,5 C 22,5 km/h (4 Bft) 95,12 %
20.04.2018 19:03 23,5 C 12,8 C 31 % 1020,0 hPa 0,0 l/m 11,7 km/h (2 Bft) O 84 1 min 0,000 mm 0,0 UV-I 104 W/m 5,4 C 22,1 C 14,5 km/h (3 Bft) 100,00 %
20.04.2018 19:04 23,5 C 12,8 C 31 % 1020,0 hPa 0,0 l/m 9,8 km/h (2 Bft) O 91 1 min 0,000 mm 0,0 UV-I 100 W/m 5,4 C 22,6 C 11,3 km/h (2 Bft) 96,67 %
20.04.2018 19:05 23,4 C 12,8 C 32 % 1020,0 hPa 0,0 l/m 8,9 km/h (2 Bft) O 98 1 min 0,000 mm 0,0 UV-I 94 W/m 5,8 C 22,7 C 12,9 km/h (3 Bft) 96,15 %
20.04.2018 19:06 23,3 C 12,8 C 32 % 1020,0 hPa 0,0 l/m 11,2 km/h (2 Bft) O 89 1 min 0,000 mm 0,0 UV-I 87 W/m 5,7 C 22,0 C 14,5 km/h (3 Bft) 100,00 %
20.04.2018 19:07 23,3 C 12,8 C 33 % 1020,0 hPa 0,0 l/m 10,0 km/h (2 Bft) O-SO 120 1 min 0,000 mm 0,0 UV-I 84 W/m 6,1 C 22,3 C 14,5 km/h (3 Bft) 96,55 %
20.04.2018 19:08 23,3 C 12,8 C 32 % 1020,0 hPa 0,0 l/m 6,8 km/h (2 Bft) SO 132 1 min 0,000 mm 0,0 UV-I 83 W/m 5,7 C 23,2 C 8,0 km/h (2 Bft) 100,00 %
20.04.2018 19:09 23,2 C 12,8 C 33 % 1020,0 hPa 0,0 l/m 8,0 km/h (2 Bft) SO 134 1 min 0,000 mm 0,0 UV-I 83 W/m 6,0 C 22,7 C 11,3 km/h (2 Bft) 96,15 %
20.04.2018 19:10 23,2 C 12,8 C 32 % 1020,0 hPa 0,0 l/m 7,4 km/h (2 Bft) O 81 1 min 0,000 mm 0,0 UV-I 83 W/m 5,6 C 22,9 C 12,9 km/h (3 Bft) 100,00 %
20.04.2018 19:11 23,2 C 12,8 C 32 % 1020,0 hPa 0,0 l/m 8,9 km/h (2 Bft) SO 132 1 min 0,000 mm 0,0 UV-I 82 W/m 5,6 C 22,5 C 12,9 km/h (3 Bft) 92,86 %
20.04.2018 19:12 23,2 C 12,8 C 33 % 1020,0 hPa 0,0 l/m 7,4 km/h (2 Bft) O-SO 121 1 min 0,000 mm 0,0 UV-I 80 W/m 6,0 C 22,9 C 11,3 km/h (2 Bft) 100,00 %
20.04.2018 19:13 23,2 C 12,8 C 32 % 1020,0 hPa 0,0 l/m 11,5 km/h (2 Bft) O 95 1 min 0,000 mm 0,0 UV-I 77 W/m 5,6 C 21,8 C 16,1 km/h (3 Bft) 96,55 %
20.04.2018 19:14 23,3 C 12,8 C 32 % 1020,0 hPa 0,0 l/m 9,4 km/h (2 Bft) O 88 1 min 0,000 mm 0,0 UV-I 76 W/m 5,7 C 22,4 C 12,9 km/h (3 Bft) 91,67 %
20.04.2018 19:15 23,2 C 12,8 C 33 % 1020,0 hPa 0,0 l/m 7,6 km/h (2 Bft) O-SO 108 1 min 0,000 mm 0,0 UV-I 76 W/m 6,0 C 22,8 C 12,9 km/h (3 Bft) 98,00 %
20.04.2018 19:16 23,2 C 12,8 C 32 % 1020,0 hPa 0,0 l/m 12,4 km/h (3 Bft) O-SO 113 1 min 0,000 mm 0,0 UV-I 76 W/m 5,6 C 21,6 C 17,7 km/h (3 Bft) 97,73 %
20.04.2018 19:17 23,2 C 12,8 C 31 % 1020,0 hPa 0,0 l/m 14,8 km/h (3 Bft) O-SO 106 1 min 0,000 mm 0,0 UV-I 76 W/m 5,1 C 21,2 C 17,7 km/h (3 Bft) 100,00 %
20.04.2018 19:18 23,2 C 12,8 C 31 % 1020,0 hPa 0,0 l/m 8,9 km/h (2 Bft) O 100 1 min 0,000 mm 0,0 UV-I 74 W/m 5,1 C 22,5 C 14,5 km/h (3 Bft) 97,14 %
20.04.2018 19:19 23,2 C 12,8 C 32 % 1020,0 hPa 0,0 l/m 11,3 km/h (2 Bft) O 91 1 min 0,000 mm 0,0 UV-I 70 W/m 5,6 C 21,9 C 14,5 km/h (3 Bft) 100,00 %
20.04.2018 19:20 23,1 C 12,8 C 31 % 1020,0 hPa 0,0 l/m 13,3 km/h (3 Bft) O 87 1 min 0,000 mm 0,0 UV-I 68 W/m 5,0 C 21,3 C 17,7 km/h (3 Bft) 96,15 %
20.04.2018 19:21 23,1 C 12,8 C 31 % 1020,0 hPa 0,0 l/m 12,5 km/h (3 Bft) O-SO 108 1 min 0,000 mm 0,0 UV-I 66 W/m 5,0 C 21,5 C 17,7 km/h (3 Bft) 100,00 %
20.04.2018 19:22 23,1 C 12,8 C 31 % 1020,0 hPa 0,0 l/m 8,7 km/h (2 Bft) O 88 1 min 0,000 mm 0,0 UV-I 64 W/m 5,0 C 22,4 C 16,1 km/h (3 Bft) 91,30 %
20.04.2018 19:23 23,0 C 12,8 C 32 % 1020,1 hPa 0,0 l/m 11,2 km/h (2 Bft) O-SO 119 1 min 0,000 mm 0,0 UV-I 62 W/m 5,4 C 21,7 C 16,1 km/h (3 Bft) 100,00 %
20.04.2018 19:24 22,9 C 12,8 C 32 % 1020,1 hPa 0,0 l/m 10,0 km/h (2 Bft) O-SO 119 1 min 0,000 mm 0,0 UV-I 60 W/m 5,3 C 21,8 C 12,9 km/h (3 Bft) 92,31 %
20.04.2018 19:25 22,9 C 12,8 C 31 % 1020,0 hPa 0,0 l/m 8,8 km/h (2 Bft) O-SO 122 1 min 0,000 mm 0,0 UV-I 58 W/m 4,9 C 22,2 C 12,9 km/h (3 Bft) 100,00 %
20.04.2018 19:26 22,8 C 12,8 C 32 % 1020,0 hPa 0,0 l/m 7,5 km/h (2 Bft) O-SO 111 1 min 0,000 mm 0,0 UV-I 58 W/m 5,2 C 22,4 C 12,9 km/h (3 Bft) 96,55 %
20.04.2018 19:27 22,9 C 12,8 C 31 % 1020,0 hPa 0,0 l/m 11,3 km/h (2 Bft) O-SO 104 1 min 0,000 mm 0,0 UV-I 57 W/m 4,9 C 21,5 C 14,5 km/h (3 Bft) 96,30 %
20.04.2018 19:28 22,8 C 12,8 C 32 % 1020,0 hPa 0,0 l/m 9,5 km/h (2 Bft) O-SO 115 1 min 0,000 mm 0,0 UV-I 56 W/m 5,2 C 21,9 C 12,9 km/h (3 Bft) 100,00 %
20.04.2018 19:29 22,8 C 12,8 C 33 % 1020,0 hPa 0,0 l/m 9,2 km/h (2 Bft) O-SO 109 1 min 0,000 mm 0,0 UV-I 56 W/m 5,7 C 21,9 C 12,9 km/h (3 Bft) 92,59 %
20.04.2018 19:30 22,7 C 12,8 C 32 % 1020,0 hPa 0,0 l/m 8,6 km/h (2 Bft) O-SO 121 1 min 0,000 mm 0,0 UV-I 54 W/m 5,2 C 22,0 C 11,3 km/h (2 Bft) 100,00 %
20.04.2018 19:31 22,7 C 12,8 C 33 % 1020,0 hPa 0,0 l/m 9,5 km/h (2 Bft) O 86 1 min 0,000 mm 0,0 UV-I 53 W/m 5,6 C 21,8 C 16,1 km/h (3 Bft) 95,83 %
20.04.2018 19:32 22,6 C 12,8 C 33 % 1020,0 hPa 0,0 l/m 11,6 km/h (2 Bft) O-SO 111 1 min 0,000 mm 0,0 UV-I 50 W/m 5,5 C 21,1 C 16,1 km/h (3 Bft) 100,00 %
20.04.2018 19:33 22,6 C 12,8 C 32 % 1020,0 hPa 0,0 l/m 12,2 km/h (2 Bft) O-SO 105 1 min 0,000 mm 0,0 UV-I 47 W/m 5,1 C 21,0 C 14,5 km/h (3 Bft) 95,83 %
20.04.2018 19:34 22,5 C 12,8 C 33 % 1020,0 hPa 0,0 l/m 11,2 km/h (2 Bft) O 98 1 min 0,000 mm 0,0 UV-I 45 W/m 5,4 C 21,1 C 14,5 km/h (3 Bft) 100,00 %
20.04.2018 19:35 22,5 C 12,8 C 32 % 1020,0 hPa 0,0 l/m 9,8 km/h (2 Bft) O-SO 104 1 min 0,000 mm 0,0 UV-I 44 W/m 5,0 C 21,5 C 12,9 km/h (3 Bft) 96,55 %
20.04.2018 19:36 22,5 C 12,8 C 32 % 1020,0 hPa 0,0 l/m 11,8 km/h (2 Bft) O 101 1 min 0,000 mm 0,0 UV-I 44 W/m 5,0 C 21,0 C 14,5 km/h (3 Bft) 100,00 %
20.04.2018 19:37 22,6 C 12,8 C 32 % 1020,0 hPa 0,0 l/m 13,7 km/h (3 Bft) O-SO 113 1 min 0,000 mm 0,0 UV-I 42 W/m 5,1 C 20,7 C 17,7 km/h (3 Bft) 92,31 %
20.04.2018 19:38 22,6 C 12,8 C 32 % 1020,0 hPa 0,0 l/m 12,5 km/h (3 Bft) O 97 1 min 0,000 mm 0,0 UV-I 40 W/m 5,1 C 20,9 C 19,3 km/h (3 Bft) 96,67 %
20.04.2018 19:39 22,6 C 12,8 C 32 % 1020,0 hPa 0,0 l/m 11,4 km/h (2 Bft) O 90 1 min 0,000 mm 0,0 UV-I 40 W/m 5,1 C 21,2 C 16,1 km/h (3 Bft) 100,00 %
20.04.2018 19:40 22,4 C 12,8 C 32 % 1020,0 hPa 0,0 l/m 13,8 km/h (3 Bft) O-SO 105 1 min 0,000 mm 0,0 UV-I 38 W/m 4,9 C 20,4 C 17,7 km/h (3 Bft) 92,59 %
20.04.2018 19:41 22,4 C 12,8 C 32 % 1020,0 hPa 0,0 l/m 12,6 km/h (3 Bft) O 97 1 min 0,000 mm 0,0 UV-I 34 W/m 4,9 C 20,7 C 17,7 km/h (3 Bft) 100,00 %
20.04.2018 19:42 22,4 C 12,8 C 32 % 1020,0 hPa 0,0 l/m 11,5 km/h (2 Bft) O-NO 66 1 min 0,000 mm 0,0 UV-I 32 W/m 4,9 C 20,9 C 16,1 km/h (3 Bft) 95,83 %
20.04.2018 19:43 22,4 C 12,8 C 33 % 1020,0 hPa 0,0 l/m 10,0 km/h (2 Bft) O 101 1 min 0,000 mm 0,0 UV-I 32 W/m 5,3 C 21,3 C 12,9 km/h (3 Bft) 96,15 %
20.04.2018 19:44 22,3 C 12,8 C 33 % 1020,0 hPa 0,0 l/m 13,1 km/h (3 Bft) O-SO 105 1 min 0,000 mm 0,0 UV-I 29 W/m 5,2 C 20,4 C 16,1 km/h (3 Bft) 95,83 %
20.04.2018 19:45 22,2 C 12,8 C 33 % 1020,0 hPa 0,0 l/m 11,6 km/h (2 Bft) O 88 1 min 0,000 mm 0,0 UV-I 27 W/m 5,2 C 20,7 C 14,5 km/h (3 Bft) 100,00 %
20.04.2018 19:46 22,1 C 12,8 C 34 % 1020,0 hPa 0,0 l/m 11,5 km/h (2 Bft) O 91 1 min 0,000 mm 0,0 UV-I 25 W/m 5,5 C 20,6 C 16,1 km/h (3 Bft) 100,00 %
20.04.2018 19:47 22,0 C 12,8 C 35 % 1020,0 hPa 0,0 l/m 11,3 km/h (2 Bft) O 86 1 min 0,000 mm 0,0 UV-I 24 W/m 5,8 C 20,5 C 16,1 km/h (3 Bft) 100,00 %
20.04.2018 19:48 21,8 C 12,8 C 35 % 1020,0 hPa 0,0 l/m 11,2 km/h (2 Bft) O 90 1 min 0,000 mm 0,0 UV-I 21 W/m 5,7 C 20,3 C 16,1 km/h (3 Bft) 96,30 %
20.04.2018 19:49 21,6 C 12,8 C 36 % 1020,0 hPa 0,0 l/m 11,7 km/h (2 Bft) O 99 1 min 0,000 mm 0,0 UV-I 21 W/m 5,9 C 19,9 C 14,5 km/h (3 Bft) 92,86 %
20.04.2018 19:50 21,4 C 12,8 C 36 % 1020,0 hPa 0,0 l/m 10,5 km/h (2 Bft) O 90 1 min 0,000 mm 0,0 UV-I 19 W/m 5,7 C 20,0 C 14,5 km/h (3 Bft) 100,00 %
20.04.2018 19:51 21,3 C 12,8 C 36 % 1020,0 hPa 0,0 l/m 12,1 km/h (2 Bft) SO 128 0 min 0,000 mm 0,0 UV-I 18 W/m 5,6 C 19,5 C 16,1 km/h (3 Bft) 100,00 %
20.04.2018 19:52 21,3 C 12,8 C 36 % 1020,0 hPa 0,0 l/m 8,6 km/h (2 Bft) O-SO 111 0 min 0,000 mm 0,0 UV-I 16 W/m 5,6 C 20,5 C 12,9 km/h (3 Bft) 100,00 %
20.04.2018 19:53 21,2 C 12,8 C 37 % 1020,0 hPa 0,0 l/m 10,2 km/h (2 Bft) O-SO 107 0 min 0,000 mm 0,0 UV-I 16 W/m 5,9 C 19,9 C 12,9 km/h (3 Bft) 100,00 %
20.04.2018 19:54 21,2 C 12,8 C 37 % 1020,0 hPa 0,0 l/m 9,7 km/h (2 Bft) O 84 0 min 0,000 mm 0,0 UV-I 14 W/m 5,9 C 20,1 C 12,9 km/h (3 Bft) 100,00 %
20.04.2018 19:55 21,2 C 12,8 C 37 % 1020,0 hPa 0,0 l/m 8,7 km/h (2 Bft) O 96 0 min 0,000 mm 0,0 UV-I 12 W/m 5,9 C 20,4 C 11,3 km/h (2 Bft) 93,33 %
20.04.2018 19:56 21,1 C 12,8 C 37 % 1020,0 hPa 0,0 l/m 10,0 km/h (2 Bft) O 95 0 min 0,000 mm 0,0 UV-I 12 W/m 5,8 C 19,9 C 12,9 km/h (3 Bft) 100,00 %
20.04.2018 19:57 21,1 C 12,8 C 37 % 1020,1 hPa 0,0 l/m 9,9 km/h (2 Bft) O-SO 112 0 min 0,000 mm 0,0 UV-I 12 W/m 5,8 C 19,9 C 12,9 km/h (3 Bft) 95,83 %
20.04.2018 19:58 21,1 C 12,8 C 37 % 1020,1 hPa 0,0 l/m 8,5 km/h (2 Bft) O 99 0 min 0,000 mm 0,0 UV-I 11 W/m 5,8 C 20,3 C 11,3 km/h (2 Bft) 100,00 %
20.04.2018 19:59 21,1 C 12,8 C 37 % 1020,1 hPa 0,0 l/m 7,5 km/h (2 Bft) O-SO 107 0 min 0,000 mm 0,0 UV-I 11 W/m 5,8 C 20,7 C 11,3 km/h (2 Bft) 100,00 %
20.04.2018 20:00 21,1 C 12,8 C 37 % 1020,1 hPa 0,0 l/m 7,0 km/h (2 Bft) O-SO 119 0 min 0,000 mm 0,0 UV-I 11 W/m 5,8 C 20,9 C 12,9 km/h (3 Bft) 100,00 %
20.04.2018 20:02 21,1 C 12,8 C 37 % 1020,1 hPa 0,0 l/m 5,9 km/h (2 Bft) O 98 0 min 0,152 mm 0,0 UV-I 9 W/m 5,8 C 21,1 C 9,7 km/h (2 Bft) 100,00 %
20.04.2018 20:03 21,1 C 12,8 C 37 % 1020,1 hPa 0,0 l/m 8,4 km/h (2 Bft) O-SO 117 0 min 0,000 mm 0,0 UV-I 9 W/m 5,8 C 20,4 C 11,3 km/h (2 Bft) 93,33 %
20.04.2018 20:04 21,0 C 12,8 C 37 % 1020,1 hPa 0,0 l/m 5,4 km/h (1 Bft) SO 128 0 min 0,000 mm 0,0 UV-I 8 W/m 5,8 C 21,0 C 9,7 km/h (2 Bft) 100,00 %
20.04.2018 20:05 21,0 C 12,8 C 36 % 1020,1 hPa 0,0 l/m 8,4 km/h (2 Bft) SO 144 0 min 0,000 mm 0,0 UV-I 7 W/m 5,4 C 20,3 C 12,9 km/h (3 Bft) 100,00 %
20.04.2018 20:06 21,0 C 12,8 C 37 % 1020,1 hPa 0,0 l/m 5,3 km/h (1 Bft) O-SO 104 0 min 0,000 mm 0,0 UV-I 7 W/m 5,8 C 21,0 C 8,0 km/h (2 Bft) 100,00 %
20.04.2018 20:07 20,9 C 12,8 C 37 % 1020,2 hPa 0,0 l/m 5,6 km/h (1 Bft) O-SO 103 0 min 0,000 mm 0,0 UV-I 7 W/m 5,7 C 20,9 C 14,5 km/h (3 Bft) 100,00 %
20.04.2018 20:08 21,0 C 12,8 C 37 % 1020,1 hPa 0,0 l/m 8,8 km/h (2 Bft) O-SO 107 0 min 0,000 mm 0,0 UV-I 7 W/m 5,8 C 20,1 C 12,9 km/h (3 Bft) 100,00 %
20.04.2018 20:09 21,0 C 12,8 C 37 % 1020,1 hPa 0,0 l/m 5,6 km/h (1 Bft) SO 131 0 min 0,000 mm 0,0 UV-I 7 W/m 5,8 C 21,0 C 8,0 km/h (2 Bft) 95,83 %
20.04.2018 20:10 20,9 C 12,8 C 37 % 1020,1 hPa 0,0 l/m 6,0 km/h (2 Bft) O-SO 117 0 min 0,000 mm 0,0 UV-I 7 W/m 5,7 C 20,9 C 11,3 km/h (2 Bft) 100,00 %
20.04.2018 20:11 20,9 C 12,8 C 37 % 1020,2 hPa 0,0 l/m 6,0 km/h (2 Bft) O-SO 114 0 min 0,000 mm 0,0 UV-I 5 W/m 5,7 C 20,9 C 8,0 km/h (2 Bft) 96,55 %
20.04.2018 20:12 20,8 C 12,8 C 38 % 1020,2 hPa 0,0 l/m 4,6 km/h (1 Bft) O-SO 110 0 min 0,000 mm 0,0 UV-I 5 W/m 6,0 C 20,8 C 6,4 km/h (2 Bft) 95,83 %
20.04.2018 20:13 20,7 C 12,8 C 39 % 1020,2 hPa 0,0 l/m 4,5 km/h (1 Bft) SO 138 0 min 0,000 mm 0,0 UV-I 5 W/m 6,2 C 20,7 C 6,4 km/h (2 Bft) 100,00 %
20.04.2018 20:14 20,4 C 12,8 C 40 % 1020,2 hPa 0,0 l/m 5,1 km/h (1 Bft) SO 142 0 min 0,000 mm 0,0 UV-I 5 W/m 6,3 C 20,4 C 6,4 km/h (2 Bft) 95,83 %
20.04.2018 20:15 20,3 C 12,8 C 40 % 1020,2 hPa 0,0 l/m 6,3 km/h (2 Bft) O-SO 114 0 min 0,000 mm 0,0 UV-I 3 W/m 6,3 C 20,3 C 11,3 km/h (2 Bft) 100,00 %
20.04.2018 20:16 20,2 C 12,8 C 40 % 1020,2 hPa 0,0 l/m 5,5 km/h (1 Bft) O-SO 120 0 min 0,000 mm 0,0 UV-I 0 W/m 6,2 C 20,2 C 6,4 km/h (2 Bft) 96,67 %
20.04.2018 20:17 20,1 C 12,8 C 40 % 1020,2 hPa 0,0 l/m 8,6 km/h (2 Bft) O-SO 103 0 min 0,000 mm 0,0 UV-I 0 W/m 6,1 C 19,2 C 11,3 km/h (2 Bft) 100,00 %
20.04.2018 20:18 20,1 C 12,8 C 39 % 1020,2 hPa 0,0 l/m 6,4 km/h (2 Bft) O-SO 118 0 min 0,000 mm 0,0 UV-I 0 W/m 5,7 C 20,1 C 11,3 km/h (2 Bft) 95,83 %
20.04.2018 20:19 20,2 C 12,8 C 39 % 1020,2 hPa 0,0 l/m 7,4 km/h (2 Bft) O-SO 119 0 min 0,000 mm 0,0 UV-I 0 W/m 5,8 C 19,8 C 11,3 km/h (2 Bft) 96,15 %
20.04.2018 20:20 20,3 C 12,8 C 39 % 1020,2 hPa 0,0 l/m 4,7 km/h (1 Bft) O-SO 119 0 min 0,000 mm 0,0 UV-I 0 W/m 5,9 C 20,3 C 6,4 km/h (2 Bft) 100,00 %
20.04.2018 20:21 20,4 C 12,8 C 39 % 1020,2 hPa 0,0 l/m 5,4 km/h (1 Bft) O-SO 117 0 min 0,000 mm 0,0 UV-I 0 W/m 6,0 C 20,4 C 6,4 km/h (2 Bft) 95,65 %
20.04.2018 20:23 20,5 C 12,8 C 38 % 1020,2 hPa 0,0 l/m 6,8 km/h (2 Bft) O 98 0 min 0,000 mm 0,0 UV-I 0 W/m 5,7 C 20,3 C 11,3 km/h (2 Bft) 98,11 %
20.04.2018 20:24 20,4 C 12,8 C 39 % 1020,2 hPa 0,0 l/m 8,5 km/h (2 Bft) O 84 0 min 0,000 mm 0,0 UV-I 0 W/m 6,0 C 19,6 C 11,3 km/h (2 Bft) 100,00 %
20.04.2018 20:25 20,4 C 12,8 C 39 % 1020,2 hPa 0,0 l/m 7,8 km/h (2 Bft) O-SO 109 0 min 0,000 mm 0,0 UV-I 0 W/m 6,0 C 19,8 C 12,9 km/h (3 Bft) 85,71 %
20.04.2018 20:26 20,4 C 12,8 C 39 % 1020,3 hPa 0,0 l/m 6,8 km/h (2 Bft) O-SO 105 0 min 0,000 mm 0,0 UV-I 0 W/m 6,0 C 20,2 C 11,3 km/h (2 Bft) 100,00 %
20.04.2018 20:27 20,4 C 12,8 C 38 % 1020,2 hPa 0,0 l/m 8,9 km/h (2 Bft) O-SO 105 0 min 0,000 mm 0,0 UV-I 0 W/m 5,6 C 19,4 C 12,9 km/h (3 Bft) 95,65 %
20.04.2018 20:28 20,5 C 12,8 C 38 % 1020,2 hPa 0,0 l/m 7,6 km/h (2 Bft) O-SO 110 0 min 0,000 mm 0,0 UV-I 0 W/m 5,7 C 20,0 C 12,9 km/h (3 Bft) 96,30 %
20.04.2018 20:29 20,5 C 12,8 C 39 % 1020,3 hPa 0,0 l/m 6,6 km/h (2 Bft) O-SO 115 0 min 0,000 mm 0,0 UV-I 0 W/m 6,1 C 20,4 C 9,7 km/h (2 Bft) 100,00 %
20.04.2018 20:30 20,4 C 12,8 C 38 % 1020,2 hPa 0,0 l/m 8,9 km/h (2 Bft) O 96 0 min 0,000 mm 0,0 UV-I 0 W/m 5,6 C 19,4 C 11,3 km/h (2 Bft) 93,33 %
20.04.2018 20:31 20,5 C 12,8 C 38 % 1020,2 hPa 0,0 l/m 5,6 km/h (1 Bft) O-SO 104 0 min 0,000 mm 0,0 UV-I 0 W/m 5,7 C 20,5 C 9,7 km/h (2 Bft) 100,00 %
20.04.2018 20:32 20,5 C 12,8 C 38 % 1020,2 hPa 0,0 l/m 7,1 km/h (2 Bft) O-SO 112 0 min 0,000 mm 0,0 UV-I 0 W/m 5,7 C 20,2 C 11,3 km/h (2 Bft) 95,65 %
20.04.2018 20:33 20,4 C 12,8 C 39 % 1020,3 hPa 0,0 l/m 3,4 km/h (1 Bft) SO 128 0 min 0,000 mm 0,0 UV-I 0 W/m 6,0 C 20,4 C 4,8 km/h (1 Bft) 100,00 %
20.04.2018 20:34 20,4 C 12,8 C 39 % 1020,2 hPa 0,0 l/m 4,7 km/h (1 Bft) SO 144 0 min 0,000 mm 0,0 UV-I 0 W/m 6,0 C 20,4 C 6,4 km/h (2 Bft) 95,65 %
20.04.2018 20:35 20,4 C 12,8 C 39 % 1020,2 hPa 0,0 l/m 5,7 km/h (1 Bft) SO 132 0 min 0,000 mm 0,0 UV-I 0 W/m 6,0 C 20,4 C 9,7 km/h (2 Bft) 93,33 %
20.04.2018 20:36 20,3 C 12,8 C 39 % 1020,2 hPa 0,0 l/m 4,5 km/h (1 Bft) O-SO 117 0 min 0,000 mm 0,0 UV-I 0 W/m 5,9 C 20,3 C 9,7 km/h (2 Bft) 96,15 %
20.04.2018 20:37 20,2 C 12,8 C 39 % 1020,2 hPa 0,0 l/m 3,7 km/h (1 Bft) O-SO 111 0 min 0,000 mm 0,0 UV-I 0 W/m 5,8 C 20,2 C 6,4 km/h (2 Bft) 95,83 %
20.04.2018 20:38 20,2 C 12,8 C 39 % 1020,2 hPa 0,0 l/m 6,2 km/h (2 Bft) O-SO 114 0 min 0,000 mm 0,0 UV-I 0 W/m 5,8 C 20,2 C 9,7 km/h (2 Bft) 100,00 %
20.04.2018 20:39 20,2 C 12,8 C 39 % 1020,2 hPa 0,0 l/m 3,8 km/h (1 Bft) O 98 0 min 0,000 mm 0,0 UV-I 0 W/m 5,8 C 20,2 C 4,8 km/h (1 Bft) 96,15 %
20.04.2018 20:40 20,2 C 12,8 C 39 % 1020,2 hPa 0,0 l/m 5,7 km/h (1 Bft) O-SO 104 0 min 0,000 mm 0,0 UV-I 0 W/m 5,8 C 20,2 C 9,7 km/h (2 Bft) 100,00 %
20.04.2018 20:41 20,3 C 12,8 C 39 % 1020,2 hPa 0,0 l/m 5,4 km/h (1 Bft) O 98 0 min 0,000 mm 0,0 UV-I 0 W/m 5,9 C 20,3 C 8,0 km/h (2 Bft) 95,83 %
20.04.2018 20:42 20,2 C 12,8 C 39 % 1020,2 hPa 0,0 l/m 8,2 km/h (2 Bft) O-SO 103 0 min 0,000 mm 0,0 UV-I 0 W/m 5,8 C 19,5 C 12,9 km/h (3 Bft) 100,00 %
20.04.2018 20:43 20,2 C 12,8 C 39 % 1020,2 hPa 0,0 l/m 6,4 km/h (2 Bft) O 98 0 min 0,000 mm 0,0 UV-I 0 W/m 5,8 C 20,2 C 9,7 km/h (2 Bft) 100,00 %
20.04.2018 20:44 20,2 C 12,8 C 39 % 1020,3 hPa 0,0 l/m 5,8 km/h (2 Bft) O-SO 105 0 min 0,000 mm 0,0 UV-I 0 W/m 5,8 C 20,2 C 9,7 km/h (2 Bft) 100,00 %
20.04.2018 20:45 20,3 C 12,8 C 39 % 1020,3 hPa 0,0 l/m 6,2 km/h (2 Bft) O-SO 103 0 min 0,000 mm 0,0 UV-I 0 W/m 5,9 C 20,3 C 9,7 km/h (2 Bft) 100,00 %
20.04.2018 20:46 20,3 C 12,8 C 39 % 1020,2 hPa 0,0 l/m 8,7 km/h (2 Bft) O-SO 107 0 min 0,000 mm 0,0 UV-I 0 W/m 5,9 C 19,4 C 12,9 km/h (3 Bft) 95,65 %
20.04.2018 20:48 20,3 C 12,8 C 39 % 1020,3 hPa 0,0 l/m 6,6 km/h (2 Bft) O-SO 102 0 min 0,000 mm 0,0 UV-I 0 W/m 5,9 C 20,2 C 9,7 km/h (2 Bft) 98,11 %
20.04.2018 20:49 20,3 C 12,8 C 39 % 1020,3 hPa 0,0 l/m 8,4 km/h (2 Bft) O 98 0 min 0,000 mm 0,0 UV-I 0 W/m 5,9 C 19,5 C 11,3 km/h (2 Bft) 100,00 %
20.04.2018 20:50 20,3 C 12,8 C 39 % 1020,3 hPa 0,0 l/m 7,9 km/h (2 Bft) O 87 0 min 0,000 mm 0,0 UV-I 0 W/m 5,9 C 19,7 C 11,3 km/h (2 Bft) 100,00 %
20.04.2018 20:51 20,3 C 12,8 C 39 % 1020,3 hPa 0,0 l/m 7,7 km/h (2 Bft) O 96 0 min 0,000 mm 0,0 UV-I 0 W/m 5,9 C 19,8 C 11,3 km/h (2 Bft) 100,00 %
20.04.2018 20:52 20,3 C 12,8 C 39 % 1020,3 hPa 0,0 l/m 9,5 km/h (2 Bft) O 98 0 min 0,000 mm 0,0 UV-I 0 W/m 5,9 C 19,1 C 11,3 km/h (2 Bft) 92,59 %
20.04.2018 20:53 20,2 C 12,8 C 39 % 1020,3 hPa 0,0 l/m 6,5 km/h (2 Bft) O-SO 103 0 min 0,000 mm 0,0 UV-I 0 W/m 5,8 C 20,2 C 11,3 km/h (2 Bft) 100,00 %
20.04.2018 20:54 20,2 C 12,8 C 39 % 1020,3 hPa 0,0 l/m 7,5 km/h (2 Bft) O 88 0 min 0,000 mm 0,0 UV-I 0 W/m 5,8 C 19,8 C 11,3 km/h (2 Bft) 100,00 %
20.04.2018 20:55 20,2 C 12,8 C 39 % 1020,3 hPa 0,0 l/m 7,2 km/h (2 Bft) O 92 0 min 0,000 mm 0,0 UV-I 0 W/m 5,8 C 19,9 C 9,7 km/h (2 Bft) 96,15 %
20.04.2018 20:56 20,2 C 12,8 C 39 % 1020,3 hPa 0,0 l/m 5,8 km/h (2 Bft) O 86 0 min 0,000 mm 0,0 UV-I 0 W/m 5,8 C 20,2 C 6,4 km/h (2 Bft) 100,00 %
20.04.2018 20:57 20,1 C 12,8 C 39 % 1020,3 hPa 0,0 l/m 9,1 km/h (2 Bft) O-SO 121 0 min 0,000 mm 0,0 UV-I 0 W/m 5,7 C 19,1 C 12,9 km/h (3 Bft) 100,00 %
20.04.2018 20:58 20,0 C 12,8 C 40 % 1020,3 hPa 0,0 l/m 8,0 km/h (2 Bft) O 96 0 min 0,000 mm 0,0 UV-I 0 W/m 6,0 C 19,4 C 11,3 km/h (2 Bft) 100,00 %
20.04.2018 20:59 19,9 C 12,8 C 39 % 1020,3 hPa 0,0 l/m 7,0 km/h (2 Bft) O 98 0 min 0,000 mm 0,0 UV-I 0 W/m 5,5 C 19,7 C 9,7 km/h (2 Bft) 100,00 %
20.04.2018 21:00 19,9 C 12,8 C 40 % 1020,3 hPa 0,0 l/m 8,8 km/h (2 Bft) O-SO 102 0 min 0,000 mm 0,0 UV-I 0 W/m 5,9 C 18,9 C 12,9 km/h (3 Bft) 96,30 %
20.04.2018 21:02 19,8 C 12,8 C 40 % 1020,3 hPa 0,0 l/m 9,1 km/h (2 Bft) O-SO 104 0 min 0,077 mm 0,0 UV-I 0 W/m 5,8 C 18,7 C 14,5 km/h (3 Bft) 100,00 %
20.04.2018 21:03 19,8 C 12,8 C 40 % 1020,3 hPa 0,0 l/m 9,5 km/h (2 Bft) O 94 0 min 0,000 mm 0,0 UV-I 0 W/m 5,8 C 18,6 C 11,3 km/h (2 Bft) 100,00 %
20.04.2018 21:04 19,8 C 12,8 C 40 % 1020,3 hPa 0,0 l/m 8,5 km/h (2 Bft) O-SO 109 0 min 0,000 mm 0,0 UV-I 0 W/m 5,8 C 18,9 C 11,3 km/h (2 Bft) 100,00 %
20.04.2018 21:05 19,8 C 12,8 C 40 % 1020,3 hPa 0,0 l/m 9,8 km/h (2 Bft) O-SO 108 0 min 0,000 mm 0,0 UV-I 0 W/m 5,8 C 18,5 C 12,9 km/h (3 Bft) 100,00 %
20.04.2018 21:06 19,8 C 12,8 C 40 % 1020,3 hPa 0,0 l/m 11,1 km/h (2 Bft) O 88 0 min 0,000 mm 0,0 UV-I 0 W/m 5,8 C 18,1 C 12,9 km/h (3 Bft) 100,00 %
20.04.2018 21:07 19,8 C 12,8 C 41 % 1020,4 hPa 0,0 l/m 7,7 km/h (2 Bft) O 100 0 min 0,000 mm 0,0 UV-I 0 W/m 6,2 C 19,3 C 11,3 km/h (2 Bft) 93,33 %
20.04.2018 21:08 19,8 C 12,8 C 40 % 1020,4 hPa 0,0 l/m 8,3 km/h (2 Bft) O-SO 109 0 min 0,000 mm 0,0 UV-I 0 W/m 5,8 C 19,0 C 11,3 km/h (2 Bft) 100,00 %
20.04.2018 21:09 19,8 C 12,8 C 40 % 1020,4 hPa 0,0 l/m 9,8 km/h (2 Bft) O-SO 116 0 min 0,000 mm 0,0 UV-I 0 W/m 5,8 C 18,5 C 14,5 km/h (3 Bft) 100,00 %
20.04.2018 21:10 19,8 C 12,8 C 40 % 1020,4 hPa 0,0 l/m 11,5 km/h (2 Bft) O-SO 112 0 min 0,000 mm 0,0 UV-I 0 W/m 5,8 C 17,9 C 14,5 km/h (3 Bft) 100,00 %
20.04.2018 21:11 19,7 C 12,8 C 40 % 1020,4 hPa 0,0 l/m 8,7 km/h (2 Bft) O-SO 113 0 min 0,000 mm 0,0 UV-I 0 W/m 5,7 C 18,8 C 11,3 km/h (2 Bft) 100,00 %
20.04.2018 21:12 19,7 C 12,8 C 41 % 1020,4 hPa 0,0 l/m 6,1 km/h (2 Bft) O-SO 110 0 min 0,000 mm 0,0 UV-I 0 W/m 6,1 C 19,7 C 9,7 km/h (2 Bft) 100,00 %
20.04.2018 21:13 19,6 C 12,8 C 41 % 1020,4 hPa 0,0 l/m 7,6 km/h (2 Bft) O 93 0 min 0,000 mm 0,0 UV-I 0 W/m 6,0 C 19,1 C 11,3 km/h (2 Bft) 91,67 %
20.04.2018 21:14 19,6 C 12,8 C 41 % 1020,4 hPa 0,0 l/m 7,9 km/h (2 Bft) O 99 0 min 0,000 mm 0,0 UV-I 0 W/m 6,0 C 19,0 C 12,9 km/h (3 Bft) 100,00 %
20.04.2018 21:15 19,6 C 12,8 C 41 % 1020,4 hPa 0,0 l/m 10,0 km/h (2 Bft) O-SO 105 0 min 0,000 mm 0,0 UV-I 0 W/m 6,0 C 18,2 C 16,1 km/h (3 Bft) 100,00 %
20.04.2018 21:16 19,6 C 12,8 C 42 % 1020,4 hPa 0,0 l/m 5,7 km/h (1 Bft) O 95 0 min 0,000 mm 0,0 UV-I 0 W/m 6,3 C 19,6 C 9,7 km/h (2 Bft) 100,00 %
20.04.2018 21:17 19,4 C 12,8 C 41 % 1020,4 hPa 0,0 l/m 7,0 km/h (2 Bft) O-SO 107 0 min 0,000 mm 0,0 UV-I 0 W/m 5,8 C 19,1 C 11,3 km/h (2 Bft) 100,00 %
20.04.2018 21:18 19,3 C 12,8 C 42 % 1020,4 hPa 0,0 l/m 5,3 km/h (1 Bft) O-SO 115 0 min 0,000 mm 0,0 UV-I 0 W/m 6,1 C 19,3 C 8,0 km/h (2 Bft) 100,00 %
20.04.2018 21:19 19,2 C 12,8 C 42 % 1020,4 hPa 0,0 l/m 5,8 km/h (2 Bft) O-SO 117 0 min 0,000 mm 0,0 UV-I 0 W/m 6,0 C 19,2 C 9,7 km/h (2 Bft) 100,00 %
20.04.2018 21:20 19,2 C 12,8 C 42 % 1020,4 hPa 0,0 l/m 6,3 km/h (2 Bft) O 86 0 min 0,000 mm 0,0 UV-I 0 W/m 6,0 C 19,2 C 12,9 km/h (3 Bft) 95,65 %
20.04.2018 21:21 19,1 C 12,8 C 43 % 1020,5 hPa 0,0 l/m 7,2 km/h (2 Bft) SO 124 0 min 0,000 mm 0,0 UV-I 0 W/m 6,2 C 18,7 C 11,3 km/h (2 Bft) 100,00 %
20.04.2018 21:22 19,2 C 12,8 C 42 % 1020,5 hPa 0,0 l/m 8,0 km/h (2 Bft) O 99 0 min 0,000 mm 0,0 UV-I 0 W/m 6,0 C 18,5 C 12,9 km/h (3 Bft) 100,00 %
20.04.2018 21:23 19,2 C 12,8 C 43 % 1020,4 hPa 0,0 l/m 7,6 km/h (2 Bft) O-SO 119 0 min 0,000 mm 0,0 UV-I 0 W/m 6,3 C 18,7 C 12,9 km/h (3 Bft) 100,00 %
20.04.2018 21:24 19,2 C 12,8 C 42 % 1020,4 hPa 0,0 l/m 7,1 km/h (2 Bft) O-SO 105 0 min 0,000 mm 0,0 UV-I 0 W/m 6,0 C 18,9 C 12,9 km/h (3 Bft) 100,00 %
20.04.2018 21:25 19,3 C 12,8 C 42 % 1020,4 hPa 0,0 l/m 6,0 km/h (2 Bft) O-SO 109 0 min 0,000 mm 0,0 UV-I 0 W/m 6,1 C 19,3 C 9,7 km/h (2 Bft) 100,00 %
20.04.2018 21:26 19,3 C 12,8 C 42 % 1020,4 hPa 0,0 l/m 8,7 km/h (2 Bft) O 101 0 min 0,000 mm 0,0 UV-I 0 W/m 6,1 C 18,3 C 12,9 km/h (3 Bft) 96,15 %
20.04.2018 21:27 19,3 C 12,8 C 42 % 1020,4 hPa 0,0 l/m 9,3 km/h (2 Bft) O-SO 104 0 min 0,000 mm 0,0 UV-I 0 W/m 6,1 C 18,1 C 11,3 km/h (2 Bft) 100,00 %
20.04.2018 21:28 19,3 C 12,8 C 42 % 1020,4 hPa 0,0 l/m 10,0 km/h (2 Bft) O-SO 102 0 min 0,000 mm 0,0 UV-I 0 W/m 6,1 C 17,9 C 12,9 km/h (3 Bft) 100,00 %
20.04.2018 21:29 19,3 C 12,8 C 42 % 1020,4 hPa 0,0 l/m 7,3 km/h (2 Bft) SO 130 0 min 0,000 mm 0,0 UV-I 0 W/m 6,1 C 18,9 C 11,3 km/h (2 Bft) 96,55 %
20.04.2018 21:30 19,2 C 12,8 C 42 % 1020,4 hPa 0,0 l/m 9,2 km/h (2 Bft) O-SO 103 0 min 0,000 mm 0,0 UV-I 0 W/m 6,0 C 18,0 C 12,9 km/h (3 Bft) 100,00 %
20.04.2018 21:31 19,2 C 12,8 C 42 % 1020,4 hPa 0,0 l/m 7,1 km/h (2 Bft) O 101 0 min 0,000 mm 0,0 UV-I 0 W/m 6,0 C 18,9 C 9,7 km/h (2 Bft) 100,00 %
20.04.2018 21:33 19,1 C 12,8 C 42 % 1020,4 hPa 0,0 l/m 8,3 km/h (2 Bft) O-SO 105 0 min 0,000 mm 0,0 UV-I 0 W/m 5,9 C 18,3 C 12,9 km/h (3 Bft) 98,00 %
20.04.2018 21:34 19,1 C 12,8 C 42 % 1020,3 hPa 0,0 l/m 10,5 km/h (2 Bft) O-SO 118 0 min 0,000 mm 0,0 UV-I 0 W/m 5,9 C 17,5 C 12,9 km/h (3 Bft) 96,30 %
20.04.2018 21:35 19,1 C 12,8 C 43 % 1020,4 hPa 0,0 l/m 6,2 km/h (2 Bft) O 85 0 min 0,000 mm 0,0 UV-I 0 W/m 6,2 C 19,1 C 8,0 km/h (2 Bft) 100,00 %
20.04.2018 21:36 19,1 C 12,8 C 42 % 1020,4 hPa 0,0 l/m 8,8 km/h (2 Bft) O 94 0 min 0,000 mm 0,0 UV-I 0 W/m 5,9 C 18,1 C 14,5 km/h (3 Bft) 100,00 %
20.04.2018 21:37 19,1 C 12,8 C 42 % 1020,3 hPa 0,0 l/m 8,3 km/h (2 Bft) O 88 0 min 0,000 mm 0,0 UV-I 0 W/m 5,9 C 18,3 C 11,3 km/h (2 Bft) 100,00 %
20.04.2018 21:38 19,2 C 12,8 C 42 % 1020,4 hPa 0,0 l/m 7,9 km/h (2 Bft) O 93 0 min 0,000 mm 0,0 UV-I 0 W/m 6,0 C 18,6 C 11,3 km/h (2 Bft) 100,00 %
20.04.2018 21:39 19,2 C 12,8 C 42 % 1020,4 hPa 0,0 l/m 8,5 km/h (2 Bft) O 97 0 min 0,000 mm 0,0 UV-I 0 W/m 6,0 C 18,3 C 11,3 km/h (2 Bft) 100,00 %
20.04.2018 21:40 19,1 C 12,8 C 43 % 1020,3 hPa 0,0 l/m 8,3 km/h (2 Bft) O 92 0 min 0,000 mm 0,0 UV-I 0 W/m 6,2 C 18,3 C 11,3 km/h (2 Bft) 100,00 %
20.04.2018 21:41 19,1 C 12,8 C 43 % 1020,4 hPa 0,0 l/m 8,2 km/h (2 Bft) O 94 0 min 0,000 mm 0,0 UV-I 0 W/m 6,2 C 18,3 C 11,3 km/h (2 Bft) 100,00 %
20.04.2018 21:42 19,0 C 12,8 C 43 % 1020,4 hPa 0,0 l/m 9,3 km/h (2 Bft) O 86 0 min 0,000 mm 0,0 UV-I 0 W/m 6,1 C 17,8 C 11,3 km/h (2 Bft) 100,00 %
20.04.2018 21:43 18,9 C 12,8 C 43 % 1020,4 hPa 0,0 l/m 10,7 km/h (2 Bft) O 95 0 min 0,000 mm 0,0 UV-I 0 W/m 6,0 C 17,2 C 12,9 km/h (3 Bft) 100,00 %
20.04.2018 21:44 18,8 C 12,8 C 43 % 1020,3 hPa 0,0 l/m 8,6 km/h (2 Bft) O 99 0 min 0,000 mm 0,0 UV-I 0 W/m 6,0 C 17,8 C 11,3 km/h (2 Bft) 100,00 %
20.04.2018 21:45 18,7 C 12,8 C 44 % 1020,3 hPa 0,0 l/m 9,7 km/h (2 Bft) O 94 0 min 0,000 mm 0,0 UV-I 0 W/m 6,2 C 17,3 C 11,3 km/h (2 Bft) 100,00 %
20.04.2018 21:46 18,7 C 12,8 C 44 % 1020,3 hPa 0,0 l/m 9,8 km/h (2 Bft) O 93 0 min 0,000 mm 0,0 UV-I 0 W/m 6,2 C 17,3 C 11,3 km/h (2 Bft) 100,00 %
20.04.2018 21:47 18,7 C 12,8 C 44 % 1020,3 hPa 0,0 l/m 10,3 km/h (2 Bft) O 87 0 min 0,000 mm 0,0 UV-I 0 W/m 6,2 C 17,1 C 12,9 km/h (3 Bft) 100,00 %
20.04.2018 21:48 18,7 C 12,8 C 44 % 1020,4 hPa 0,0 l/m 8,0 km/h (2 Bft) O 89 0 min 0,000 mm 0,0 UV-I 0 W/m 6,2 C 18,0 C 11,3 km/h (2 Bft) 100,00 %
20.04.2018 21:49 18,7 C 12,8 C 44 % 1020,3 hPa 0,0 l/m 6,6 km/h (2 Bft) O 101 0 min 0,000 mm 0,0 UV-I 0 W/m 6,2 C 18,6 C 11,3 km/h (2 Bft) 100,00 %
20.04.2018 21:50 18,6 C 12,8 C 44 % 1020,3 hPa 0,0 l/m 7,2 km/h (2 Bft) O 98 0 min 0,000 mm 0,0 UV-I 0 W/m 6,1 C 18,2 C 11,3 km/h (2 Bft) 100,00 %
20.04.2018 21:51 18,6 C 12,8 C 45 % 1020,3 hPa 0,0 l/m 7,7 km/h (2 Bft) O-SO 119 0 min 0,000 mm 0,0 UV-I 0 W/m 6,4 C 18,0 C 11,3 km/h (2 Bft) 100,00 %
20.04.2018 21:52 18,4 C 12,8 C 45 % 1020,3 hPa 0,0 l/m 9,1 km/h (2 Bft) O 92 0 min 0,000 mm 0,0 UV-I 0 W/m 6,3 C 17,2 C 12,9 km/h (3 Bft) 100,00 %
20.04.2018 21:53 18,4 C 12,8 C 45 % 1020,3 hPa 0,0 l/m 5,4 km/h (1 Bft) O-SO 108 0 min 0,000 mm 0,0 UV-I 0 W/m 6,3 C 18,4 C 6,4 km/h (2 Bft) 100,00 %
20.04.2018 21:54 18,5 C 12,8 C 45 % 1020,3 hPa 0,0 l/m 8,4 km/h (2 Bft) SO 127 0 min 0,000 mm 0,0 UV-I 0 W/m 6,3 C 17,6 C 11,3 km/h (2 Bft) 100,00 %
20.04.2018 21:55 18,6 C 12,8 C 45 % 1020,3 hPa 0,0 l/m 8,3 km/h (2 Bft) SO 128 0 min 0,000 mm 0,0 UV-I 0 W/m 6,4 C 17,8 C 14,5 km/h (3 Bft) 100,00 %
20.04.2018 21:56 18,7 C 12,8 C 44 % 1020,3 hPa 0,0 l/m 5,9 km/h (2 Bft) O-SO 111 0 min 0,000 mm 0,0 UV-I 0 W/m 6,2 C 18,7 C 11,3 km/h (2 Bft) 95,65 %
20.04.2018 21:57 18,7 C 12,8 C 45 % 1020,3 hPa 0,0 l/m 7,4 km/h (2 Bft) O 88 0 min 0,000 mm 0,0 UV-I 0 W/m 6,5 C 18,2 C 9,7 km/h (2 Bft) 100,00 %
20.04.2018 21:58 18,7 C 12,8 C 45 % 1020,3 hPa 0,0 l/m 7,4 km/h (2 Bft) O-SO 103 0 min 0,000 mm 0,0 UV-I 0 W/m 6,5 C 18,2 C 11,3 km/h (2 Bft) 100,00 %
20.04.2018 21:59 18,6 C 12,8 C 44 % 1020,3 hPa 0,0 l/m 6,7 km/h (2 Bft) O 96 0 min 0,000 mm 0,0 UV-I 0 W/m 6,1 C 18,5 C 14,5 km/h (3 Bft) 100,00 %
20.04.2018 22:00 18,7 C 12,8 C 44 % 1020,3 hPa 0,0 l/m 10,3 km/h (2 Bft) O-SO 107 0 min 0,000 mm 0,0 UV-I 0 W/m 6,2 C 17,1 C 12,9 km/h (3 Bft) 100,00 %
20.04.2018 22:02 18,8 C 12,8 C 44 % 1020,3 hPa 0,0 l/m 9,5 km/h (2 Bft) O-SO 103 0 min 0,076 mm 0,0 UV-I 0 W/m 6,3 C 17,5 C 16,1 km/h (3 Bft) 100,00 %
20.04.2018 22:03 18,8 C 12,8 C 44 % 1020,3 hPa 0,0 l/m 8,4 km/h (2 Bft) O-SO 115 0 min 0,000 mm 0,0 UV-I 0 W/m 6,3 C 17,9 C 12,9 km/h (3 Bft) 100,00 %
20.04.2018 22:04 18,8 C 12,8 C 45 % 1020,3 hPa 0,0 l/m 6,8 km/h (2 Bft) O 96 0 min 0,000 mm 0,0 UV-I 0 W/m 6,6 C 18,6 C 11,3 km/h (2 Bft) 100,00 %
20.04.2018 22:05 18,7 C 12,8 C 44 % 1020,3 hPa 0,0 l/m 8,9 km/h (2 Bft) O-SO 121 0 min 0,000 mm 0,0 UV-I 0 W/m 6,2 C 17,6 C 14,5 km/h (3 Bft) 100,00 %
20.04.2018 22:06 18,7 C 12,8 C 45 % 1020,3 hPa 0,0 l/m 6,3 km/h (2 Bft) O-SO 109 0 min 0,000 mm 0,0 UV-I 0 W/m 6,5 C 18,7 C 9,7 km/h (2 Bft) 100,00 %
20.04.2018 22:07 18,7 C 12,8 C 45 % 1020,3 hPa 0,0 l/m 7,5 km/h (2 Bft) O-SO 115 0 min 0,000 mm 0,0 UV-I 0 W/m 6,5 C 18,2 C 12,9 km/h (3 Bft) 100,00 %
20.04.2018 22:08 18,7 C 12,8 C 45 % 1020,3 hPa 0,0 l/m 11,1 km/h (2 Bft) O 97 0 min 0,000 mm 0,0 UV-I 0 W/m 6,5 C 16,8 C 12,9 km/h (3 Bft) 100,00 %
20.04.2018 22:09 18,8 C 12,8 C 44 % 1020,3 hPa 0,0 l/m 9,1 km/h (2 Bft) O 101 0 min 0,000 mm 0,0 UV-I 0 W/m 6,3 C 17,6 C 11,3 km/h (2 Bft) 100,00 %
20.04.2018 22:10 18,8 C 12,8 C 45 % 1020,3 hPa 0,0 l/m 9,3 km/h (2 Bft) O 92 0 min 0,000 mm 0,0 UV-I 0 W/m 6,6 C 17,6 C 11,3 km/h (2 Bft) 100,00 %
20.04.2018 22:11 18,7 C 12,8 C 45 % 1020,3 hPa 0,0 l/m 8,4 km/h (2 Bft) O-SO 122 0 min 0,000 mm 0,0 UV-I 0 W/m 6,5 C 17,8 C 14,5 km/h (3 Bft) 92,86 %
20.04.2018 22:12 18,7 C 12,8 C 45 % 1020,3 hPa 0,0 l/m 9,5 km/h (2 Bft) O-SO 113 0 min 0,000 mm 0,0 UV-I 0 W/m 6,5 C 17,4 C 14,5 km/h (3 Bft) 100,00 %
20.04.2018 22:13 18,7 C 12,8 C 45 % 1020,3 hPa 0,0 l/m 12,3 km/h (3 Bft) O-SO 108 0 min 0,000 mm 0,0 UV-I 0 W/m 6,5 C 16,4 C 16,1 km/h (3 Bft) 93,75 %
20.04.2018 22:14 18,7 C 12,8 C 45 % 1020,2 hPa 0,0 l/m 11,3 km/h (2 Bft) O-SO 102 0 min 0,000 mm 0,0 UV-I 0 W/m 6,5 C 16,8 C 12,9 km/h (3 Bft) 96,30 %
20.04.2018 22:15 18,7 C 12,8 C 45 % 1020,2 hPa 0,0 l/m 9,8 km/h (2 Bft) O 94 0 min 0,000 mm 0,0 UV-I 0 W/m 6,5 C 17,3 C 12,9 km/h (3 Bft) 100,00 %
20.04.2018 22:16 18,6 C 12,8 C 46 % 1020,3 hPa 0,0 l/m 11,8 km/h (2 Bft) O-SO 115 0 min 0,000 mm 0,0 UV-I 0 W/m 6,8 C 16,5 C 14,5 km/h (3 Bft) 96,30 %
20.04.2018 22:17 18,6 C 12,8 C 45 % 1020,2 hPa 0,0 l/m 10,5 km/h (2 Bft) O 98 0 min 0,000 mm 0,0 UV-I 0 W/m 6,4 C 16,9 C 14,5 km/h (3 Bft) 100,00 %
20.04.2018 22:18 18,7 C 12,8 C 46 % 1020,2 hPa 0,0 l/m 12,0 km/h (2 Bft) O 98 0 min 0,000 mm 0,0 UV-I 0 W/m 6,8 C 16,5 C 14,5 km/h (3 Bft) 95,83 %
20.04.2018 22:19 18,6 C 12,8 C 46 % 1020,2 hPa 0,0 l/m 10,7 km/h (2 Bft) O 99 0 min 0,000 mm 0,0 UV-I 0 W/m 6,8 C 16,8 C 12,9 km/h (3 Bft) 92,31 %
20.04.2018 22:20 18,5 C 12,8 C 46 % 1020,1 hPa 0,0 l/m 11,1 km/h (2 Bft) O 98 0 min 0,000 mm 0,0 UV-I 0 W/m 6,7 C 16,6 C 12,9 km/h (3 Bft) 100,00 %
20.04.2018 22:21 18,4 C 12,8 C 46 % 1020,1 hPa 0,0 l/m 9,9 km/h (2 Bft) O-SO 105 0 min 0,000 mm 0,0 UV-I 0 W/m 6,6 C 16,9 C 12,9 km/h (3 Bft) 95,65 %
20.04.2018 22:22 18,3 C 12,8 C 47 % 1020,2 hPa 0,0 l/m 7,8 km/h (2 Bft) O 92 0 min 0,000 mm 0,0 UV-I 0 W/m 6,8 C 17,7 C 11,3 km/h (2 Bft) 100,00 %
20.04.2018 22:23 18,2 C 12,8 C 47 % 1020,1 hPa 0,0 l/m 7,4 km/h (2 Bft) O 98 0 min 0,000 mm 0,0 UV-I 0 W/m 6,7 C 17,7 C 12,9 km/h (3 Bft) 96,15 %
20.04.2018 22:24 18,1 C 12,8 C 48 % 1020,1 hPa 0,0 l/m 6,5 km/h (2 Bft) O 89 0 min 0,000 mm 0,0 UV-I 0 W/m 6,9 C 18,1 C 9,7 km/h (2 Bft) 95,83 %
20.04.2018 22:25 17,9 C 12,8 C 48 % 1020,1 hPa 0,0 l/m 6,4 km/h (2 Bft) O-NO 75 0 min 0,000 mm 0,0 UV-I 0 W/m 6,7 C 17,9 C 9,7 km/h (2 Bft) 95,83 %
20.04.2018 22:26 17,9 C 12,8 C 48 % 1020,1 hPa 0,0 l/m 5,9 km/h (2 Bft) O 100 0 min 0,000 mm 0,0 UV-I 0 W/m 6,7 C 17,9 C 8,0 km/h (2 Bft) 100,00 %
20.04.2018 22:27 17,8 C 12,8 C 49 % 1020,1 hPa 0,0 l/m 7,9 km/h (2 Bft) O 97 0 min 0,000 mm 0,0 UV-I 0 W/m 6,9 C 17,1 C 9,7 km/h (2 Bft) 96,15 %
20.04.2018 22:28 17,7 C 12,8 C 49 % 1020,0 hPa 0,0 l/m 8,0 km/h (2 Bft) O-NO 67 0 min 0,000 mm 0,0 UV-I 0 W/m 6,9 C 16,9 C 12,9 km/h (3 Bft) 95,83 %
20.04.2018 22:29 17,7 C 12,8 C 49 % 1020,0 hPa 0,0 l/m 6,2 km/h (2 Bft) O 89 0 min 0,000 mm 0,0 UV-I 0 W/m 6,9 C 17,7 C 9,7 km/h (2 Bft) 100,00 %
20.04.2018 22:30 17,6 C 12,8 C 50 % 1020,0 hPa 0,0 l/m 8,7 km/h (2 Bft) O 101 0 min 0,000 mm 0,0 UV-I 0 W/m 7,1 C 16,5 C 12,9 km/h (3 Bft) 100,00 %
20.04.2018 22:31 17,6 C 12,8 C 50 % 1020,0 hPa 0,0 l/m 6,4 km/h (2 Bft) O 91 0 min 0,000 mm 0,0 UV-I 0 W/m 7,1 C 17,6 C 9,7 km/h (2 Bft) 96,30 %
20.04.2018 22:32 17,6 C 12,8 C 50 % 1020,0 hPa 0,0 l/m 7,3 km/h (2 Bft) O-SO 108 0 min 0,000 mm 0,0 UV-I 0 W/m 7,1 C 17,2 C 11,3 km/h (2 Bft) 96,15 %
20.04.2018 22:33 17,5 C 12,8 C 50 % 1020,0 hPa 0,0 l/m 9,7 km/h (2 Bft) O 100 0 min 0,000 mm 0,0 UV-I 0 W/m 7,0 C 16,0 C 11,3 km/h (2 Bft) 100,00 %
20.04.2018 22:34 17,5 C 12,8 C 50 % 1020,0 hPa 0,0 l/m 9,1 km/h (2 Bft) O 94 0 min 0,000 mm 0,0 UV-I 0 W/m 7,0 C 16,2 C 11,3 km/h (2 Bft) 95,65 %
20.04.2018 22:35 17,5 C 12,8 C 50 % 1020,0 hPa 0,0 l/m 9,7 km/h (2 Bft) O-SO 107 0 min 0,000 mm 0,0 UV-I 0 W/m 7,0 C 16,0 C 11,3 km/h (2 Bft) 100,00 %
20.04.2018 22:36 17,5 C 12,8 C 50 % 1020,0 hPa 0,0 l/m 7,7 km/h (2 Bft) O 98 0 min 0,000 mm 0,0 UV-I 0 W/m 7,0 C 16,9 C 11,3 km/h (2 Bft) 92,31 %
20.04.2018 22:37 17,5 C 12,8 C 50 % 1020,0 hPa 0,0 l/m 7,5 km/h (2 Bft) O 90 0 min 0,000 mm 0,0 UV-I 0 W/m 7,0 C 17,0 C 9,7 km/h (2 Bft) 96,30 %
20.04.2018 22:38 17,5 C 12,8 C 50 % 1019,9 hPa 0,0 l/m 9,2 km/h (2 Bft) O-SO 108 0 min 0,000 mm 0,0 UV-I 0 W/m 7,0 C 16,2 C 11,3 km/h (2 Bft) 98,05 %
20.04.2018 22:39 17,5 C 12,8 C 50 % 1019,9 hPa 0,0 l/m 7,2 km/h (2 Bft) O 101 0 min 0,000 mm 0,0 UV-I 0 W/m 7,0 C 17,1 C 9,7 km/h (2 Bft) 95,45 %
20.04.2018 22:40 17,5 C 12,8 C 50 % 1019,9 hPa 0,0 l/m 6,8 km/h (2 Bft) O 94 0 min 0,000 mm 0,0 UV-I 0 W/m 7,0 C 17,3 C 11,3 km/h (2 Bft) 96,15 %
20.04.2018 22:41 17,5 C 12,8 C 50 % 1019,9 hPa 0,0 l/m 7,4 km/h (2 Bft) O 89 0 min 0,000 mm 0,0 UV-I 0 W/m 7,0 C 17,0 C 9,7 km/h (2 Bft) 86,67 %
20.04.2018 22:42 17,6 C 12,8 C 50 % 1019,9 hPa 0,0 l/m 5,6 km/h (1 Bft) O-NO 68 0 min 0,000 mm 0,0 UV-I 0 W/m 7,1 C 17,6 C 8,0 km/h (2 Bft) 100,00 %
20.04.2018 22:43 17,6 C 12,8 C 50 % 1019,9 hPa 0,0 l/m 7,7 km/h (2 Bft) O 89 0 min 0,000 mm 0,0 UV-I 0 W/m 7,1 C 17,0 C 11,3 km/h (2 Bft) 93,94 %
20.04.2018 22:44 17,6 C 12,8 C 50 % 1019,9 hPa 0,0 l/m 7,7 km/h (2 Bft) O 81 0 min 0,000 mm 0,0 UV-I 0 W/m 7,1 C 17,0 C 11,3 km/h (2 Bft) 100,00 %
20.04.2018 22:45 17,5 C 12,8 C 51 % 1019,8 hPa 0,0 l/m 7,2 km/h (2 Bft) O-NO 69 0 min 0,000 mm 0,0 UV-I 0 W/m 7,3 C 17,1 C 11,3 km/h (2 Bft) 92,86 %
20.04.2018 22:46 17,3 C 12,8 C 51 % 1019,8 hPa 0,0 l/m 7,5 km/h (2 Bft) O-NO 66 0 min 0,000 mm 0,0 UV-I 0 W/m 7,1 C 16,8 C 9,7 km/h (2 Bft) 100,00 %
20.04.2018 22:47 17,2 C 12,8 C 51 % 1019,8 hPa 0,0 l/m 8,2 km/h (2 Bft) O-NO 71 0 min 0,000 mm 0,0 UV-I 0 W/m 7,0 C 16,3 C 11,3 km/h (2 Bft) 97,22 %
20.04.2018 22:48 17,2 C 12,8 C 51 % 1019,8 hPa 0,0 l/m 7,8 km/h (2 Bft) O 85 0 min 0,000 mm 0,0 UV-I 0 W/m 7,0 C 16,5 C 12,9 km/h (3 Bft) 100,00 %
20.04.2018 22:49 17,1 C 12,8 C 52 % 1019,8 hPa 0,0 l/m 7,6 km/h (2 Bft) O-NO 66 0 min 0,000 mm 0,0 UV-I 0 W/m 7,2 C 16,5 C 11,3 km/h (2 Bft) 92,31 %
20.04.2018 22:50 17,1 C 12,8 C 52 % 1019,8 hPa 0,0 l/m 9,5 km/h (2 Bft) O-NO 57 0 min 0,000 mm 0,0 UV-I 0 W/m 7,2 C 15,6 C 12,9 km/h (3 Bft) 95,83 %
20.04.2018 22:51 17,1 C 12,8 C 52 % 1019,8 hPa 0,0 l/m 9,3 km/h (2 Bft) O-NO 77 0 min 0,000 mm 0,0 UV-I 0 W/m 7,2 C 15,7 C 14,5 km/h (3 Bft) 100,00 %
20.04.2018 22:52 17,0 C 12,8 C 52 % 1019,8 hPa 0,0 l/m 8,3 km/h (2 Bft) O-NO 63 0 min 0,000 mm 0,0 UV-I 0 W/m 7,1 C 16,1 C 12,9 km/h (3 Bft) 96,30 %
20.04.2018 22:53 16,9 C 12,8 C 52 % 1019,8 hPa 0,0 l/m 8,6 km/h (2 Bft) O-NO 73 0 min 0,000 mm 0,0 UV-I 0 W/m 7,0 C 15,8 C 11,3 km/h (2 Bft) 100,00 %
20.04.2018 22:54 16,9 C 12,8 C 52 % 1019,8 hPa 0,0 l/m 8,1 km/h (2 Bft) O-NO 69 0 min 0,000 mm 0,0 UV-I 0 W/m 7,0 C 16,0 C 11,3 km/h (2 Bft) 95,83 %
20.04.2018 22:55 16,9 C 12,8 C 52 % 1019,8 hPa 0,0 l/m 8,2 km/h (2 Bft) O-NO 73 0 min 0,000 mm 0,0 UV-I 0 W/m 7,0 C 16,0 C 12,9 km/h (3 Bft) 98,03 %
20.04.2018 22:56 16,9 C 12,8 C 52 % 1019,7 hPa 0,0 l/m 8,3 km/h (2 Bft) NO 53 0 min 0,000 mm 0,0 UV-I 0 W/m 7,0 C 16,0 C 11,3 km/h (2 Bft) 97,56 %
20.04.2018 22:57 16,9 C 12,8 C 52 % 1019,7 hPa 0,0 l/m 10,0 km/h (2 Bft) NO 46 0 min 0,000 mm 0,0 UV-I 0 W/m 7,0 C 15,2 C 12,9 km/h (3 Bft) 100,00 %
20.04.2018 22:58 16,9 C 12,8 C 52 % 1019,7 hPa 0,0 l/m 7,4 km/h (2 Bft) O-NO 75 0 min 0,000 mm 0,0 UV-I 0 W/m 7,0 C 16,4 C 12,9 km/h (3 Bft) 95,83 %
20.04.2018 22:59 16,9 C 12,8 C 52 % 1019,7 hPa 0,0 l/m 7,2 km/h (2 Bft) NO 56 0 min 0,000 mm 0,0 UV-I 0 W/m 7,0 C 16,5 C 11,3 km/h (2 Bft) 96,55 %
20.04.2018 23:00 16,9 C 12,8 C 52 % 1019,7 hPa 0,0 l/m 8,3 km/h (2 Bft) O-NO 57 0 min 0,000 mm 0,0 UV-I 0 W/m 7,0 C 16,0 C 12,9 km/h (3 Bft) 100,00 %
20.04.2018 23:02 16,9 C 12,8 C 52 % 1019,7 hPa 0,0 l/m 8,2 km/h (2 Bft) O 88 0 min 0,076 mm 0,0 UV-I 0 W/m 7,0 C 16,0 C 11,3 km/h (2 Bft) 95,45 %
20.04.2018 23:03 16,9 C 12,8 C 52 % 1019,7 hPa 0,0 l/m 8,3 km/h (2 Bft) O 90 0 min 0,000 mm 0,0 UV-I 0 W/m 7,0 C 16,0 C 11,3 km/h (2 Bft) 96,15 %
20.04.2018 23:04 16,8 C 12,8 C 53 % 1019,7 hPa 0,0 l/m 7,3 km/h (2 Bft) O-NO 65 0 min 0,000 mm 0,0 UV-I 0 W/m 7,2 C 16,3 C 12,9 km/h (3 Bft) 100,00 %
20.04.2018 23:05 16,8 C 12,8 C 53 % 1019,7 hPa 0,0 l/m 9,3 km/h (2 Bft) O 81 0 min 0,000 mm 0,0 UV-I 0 W/m 7,2 C 15,4 C 12,9 km/h (3 Bft) 95,83 %
20.04.2018 23:06 16,7 C 12,8 C 54 % 1019,7 hPa 0,0 l/m 7,2 km/h (2 Bft) O-NO 67 0 min 0,000 mm 0,0 UV-I 0 W/m 7,3 C 16,3 C 11,3 km/h (2 Bft) 100,00 %
20.04.2018 23:07 16,6 C 12,8 C 54 % 1019,7 hPa 0,0 l/m 7,4 km/h (2 Bft) O-NO 76 0 min 0,000 mm 0,0 UV-I 0 W/m 7,3 C 16,1 C 11,3 km/h (2 Bft) 95,83 %
20.04.2018 23:08 16,6 C 12,8 C 54 % 1019,7 hPa 0,0 l/m 7,8 km/h (2 Bft) O-NO 76 0 min 0,000 mm 0,0 UV-I 0 W/m 7,3 C 15,9 C 9,7 km/h (2 Bft) 100,00 %
20.04.2018 23:09 16,5 C 12,8 C 54 % 1019,7 hPa 0,0 l/m 7,2 km/h (2 Bft) O-NO 76 0 min 0,000 mm 0,0 UV-I 0 W/m 7,2 C 16,1 C 11,3 km/h (2 Bft) 96,30 %
20.04.2018 23:10 16,5 C 12,8 C 54 % 1019,7 hPa 0,0 l/m 7,7 km/h (2 Bft) O-NO 69 0 min 0,000 mm 0,0 UV-I 0 W/m 7,2 C 15,8 C 11,3 km/h (2 Bft) 96,15 %
20.04.2018 23:11 16,5 C 12,8 C 54 % 1019,7 hPa 0,0 l/m 9,1 km/h (2 Bft) O-NO 65 0 min 0,000 mm 0,0 UV-I 0 W/m 7,2 C 15,2 C 12,9 km/h (3 Bft) 100,00 %
20.04.2018 23:12 16,5 C 12,8 C 54 % 1019,7 hPa 0,0 l/m 8,0 km/h (2 Bft) O 86 0 min 0,000 mm 0,0 UV-I 0 W/m 7,2 C 15,7 C 12,9 km/h (3 Bft) 92,31 %
20.04.2018 23:13 16,5 C 12,8 C 54 % 1019,7 hPa 0,0 l/m 8,6 km/h (2 Bft) O-NO 69 0 min 0,000 mm 0,0 UV-I 0 W/m 7,2 C 15,4 C 11,3 km/h (2 Bft) 100,00 %
20.04.2018 23:14 16,6 C 12,8 C 54 % 1019,7 hPa 0,0 l/m 8,9 km/h (2 Bft) O-NO 74 0 min 0,000 mm 0,0 UV-I 0 W/m 7,3 C 15,4 C 12,9 km/h (3 Bft) 92,86 %
20.04.2018 23:15 16,6 C 12,8 C 54 % 1019,7 hPa 0,0 l/m 8,3 km/h (2 Bft) O 82 0 min 0,000 mm 0,0 UV-I 0 W/m 7,3 C 15,6 C 11,3 km/h (2 Bft) 100,00 %
20.04.2018 23:16 16,6 C 12,8 C 54 % 1019,7 hPa 0,0 l/m 7,3 km/h (2 Bft) O-NO 66 0 min 0,000 mm 0,0 UV-I 0 W/m 7,3 C 16,1 C 8,0 km/h (2 Bft) 96,55 %
20.04.2018 23:17 16,6 C 12,8 C 54 % 1019,7 hPa 0,0 l/m 7,6 km/h (2 Bft) O-NO 69 0 min 0,000 mm 0,0 UV-I 0 W/m 7,3 C 16,0 C 11,3 km/h (2 Bft) 100,00 %
20.04.2018 23:18 16,6 C 12,8 C 54 % 1019,7 hPa 0,0 l/m 8,5 km/h (2 Bft) NO 55 0 min 0,000 mm 0,0 UV-I 0 W/m 7,3 C 15,5 C 12,9 km/h (3 Bft) 95,65 %
20.04.2018 23:19 16,6 C 12,8 C 54 % 1019,7 hPa 0,0 l/m 8,5 km/h (2 Bft) O-NO 71 0 min 0,000 mm 0,0 UV-I 0 W/m 7,3 C 15,5 C 12,9 km/h (3 Bft) 100,00 %
20.04.2018 23:20 16,7 C 12,8 C 54 % 1019,7 hPa 0,0 l/m 7,8 km/h (2 Bft) O 94 0 min 0,000 mm 0,0 UV-I 0 W/m 7,3 C 16,0 C 11,3 km/h (2 Bft) 95,65 %
20.04.2018 23:21 16,7 C 12,8 C 54 % 1019,7 hPa 0,0 l/m 7,7 km/h (2 Bft) O 79 0 min 0,000 mm 0,0 UV-I 0 W/m 7,3 C 16,0 C 11,3 km/h (2 Bft) 95,83 %
20.04.2018 23:22 16,8 C 12,8 C 54 % 1019,7 hPa 0,0 l/m 8,8 km/h (2 Bft) O-NO 73 0 min 0,000 mm 0,0 UV-I 0 W/m 7,4 C 15,6 C 11,3 km/h (2 Bft) 100,00 %
20.04.2018 23:23 16,8 C 12,8 C 54 % 1019,7 hPa 0,0 l/m 9,6 km/h (2 Bft) O-NO 76 0 min 0,000 mm 0,0 UV-I 0 W/m 7,4 C 15,3 C 12,9 km/h (3 Bft) 100,00 %
20.04.2018 23:24 16,8 C 12,8 C 54 % 1019,7 hPa 0,0 l/m 7,7 km/h (2 Bft) O 81 0 min 0,000 mm 0,0 UV-I 0 W/m 7,4 C 16,1 C 9,7 km/h (2 Bft) 93,33 %
20.04.2018 23:25 16,7 C 12,8 C 54 % 1019,7 hPa 0,0 l/m 8,0 km/h (2 Bft) O 96 0 min 0,000 mm 0,0 UV-I 0 W/m 7,3 C 15,9 C 11,3 km/h (2 Bft) 97,56 %
20.04.2018 23:26 16,7 C 12,8 C 55 % 1019,7 hPa 0,0 l/m 8,7 km/h (2 Bft) O-NO 78 0 min 0,000 mm 0,0 UV-I 0 W/m 7,6 C 15,6 C 12,9 km/h (3 Bft) 100,00 %
20.04.2018 23:27 16,6 C 12,8 C 55 % 1019,7 hPa 0,0 l/m 9,7 km/h (2 Bft) O 88 0 min 0,000 mm 0,0 UV-I 0 W/m 7,5 C 15,0 C 12,9 km/h (3 Bft) 81,82 %
20.04.2018 23:28 16,6 C 12,8 C 55 % 1019,7 hPa 0,0 l/m 8,5 km/h (2 Bft) O-NO 77 0 min 0,000 mm 0,0 UV-I 0 W/m 7,5 C 15,5 C 12,9 km/h (3 Bft) 100,00 %
20.04.2018 23:29 16,6 C 12,8 C 55 % 1019,7 hPa 0,0 l/m 8,7 km/h (2 Bft) O-NO 77 0 min 0,000 mm 0,0 UV-I 0 W/m 7,5 C 15,5 C 14,5 km/h (3 Bft) 92,86 %
20.04.2018 23:30 16,6 C 12,8 C 55 % 1019,7 hPa 0,0 l/m 8,9 km/h (2 Bft) O-NO 59 0 min 0,000 mm 0,0 UV-I 0 W/m 7,5 C 15,4 C 12,9 km/h (3 Bft) 100,00 %
20.04.2018 23:31 16,6 C 12,8 C 55 % 1019,7 hPa 0,0 l/m 10,2 km/h (2 Bft) O 83 0 min 0,000 mm 0,0 UV-I 0 W/m 7,5 C 14,8 C 12,9 km/h (3 Bft) 90,91 %
20.04.2018 23:32 16,5 C 12,8 C 55 % 1019,7 hPa 0,0 l/m 9,3 km/h (2 Bft) O 80 0 min 0,000 mm 0,0 UV-I 0 W/m 7,4 C 15,1 C 14,5 km/h (3 Bft) 97,06 %
20.04.2018 23:33 16,5 C 12,8 C 55 % 1019,7 hPa 0,0 l/m 6,2 km/h (2 Bft) O-NO 70 0 min 0,000 mm 0,0 UV-I 0 W/m 7,4 C 16,5 C 11,3 km/h (2 Bft) 100,00 %
20.04.2018 23:34 16,5 C 12,8 C 56 % 1019,6 hPa 0,0 l/m 7,4 km/h (2 Bft) O-NO 70 0 min 0,000 mm 0,0 UV-I 0 W/m 7,7 C 16,0 C 9,7 km/h (2 Bft) 98,01 %
20.04.2018 23:35 16,4 C 12,8 C 56 % 1019,6 hPa 0,0 l/m 7,5 km/h (2 Bft) O-NO 74 0 min 0,000 mm 0,0 UV-I 0 W/m 7,6 C 15,8 C 11,3 km/h (2 Bft) 97,73 %
20.04.2018 23:36 16,4 C 12,8 C 56 % 1019,6 hPa 0,0 l/m 7,5 km/h (2 Bft) O-NO 69 0 min 0,000 mm 0,0 UV-I 0 W/m 7,6 C 15,8 C 11,3 km/h (2 Bft) 96,30 %
20.04.2018 23:38 16,3 C 12,8 C 57 % 1019,6 hPa 0,0 l/m 7,9 km/h (2 Bft) O 82 0 min 0,000 mm 0,0 UV-I 0 W/m 7,8 C 15,5 C 12,9 km/h (3 Bft) 96,23 %
20.04.2018 23:39 16,3 C 12,8 C 57 % 1019,6 hPa 0,0 l/m 7,3 km/h (2 Bft) O-NO 76 0 min 0,000 mm 0,0 UV-I 0 W/m 7,8 C 15,8 C 11,3 km/h (2 Bft) 100,00 %
20.04.2018 23:40 16,3 C 12,8 C 57 % 1019,6 hPa 0,0 l/m 7,8 km/h (2 Bft) O-NO 78 0 min 0,000 mm 0,0 UV-I 0 W/m 7,8 C 15,6 C 12,9 km/h (3 Bft) 93,33 %
20.04.2018 23:41 16,3 C 12,8 C 57 % 1019,6 hPa 0,0 l/m 6,7 km/h (2 Bft) O 80 0 min 0,000 mm 0,0 UV-I 0 W/m 7,8 C 16,2 C 8,0 km/h (2 Bft) 100,00 %
20.04.2018 23:43 16,2 C 12,8 C 57 % 1019,6 hPa 0,0 l/m 6,4 km/h (2 Bft) O-NO 64 0 min 0,000 mm 0,0 UV-I 0 W/m 7,7 C 16,2 C 11,3 km/h (2 Bft) 96,00 %
20.04.2018 23:44 16,2 C 12,8 C 57 % 1019,6 hPa 0,0 l/m 6,7 km/h (2 Bft) O-NO 76 0 min 0,000 mm 0,0 UV-I 0 W/m 7,7 C 16,1 C 11,3 km/h (2 Bft) 91,30 %
20.04.2018 23:45 16,2 C 12,8 C 57 % 1019,6 hPa 0,0 l/m 5,6 km/h (1 Bft) O-NO 78 0 min 0,000 mm 0,0 UV-I 0 W/m 7,7 C 16,2 C 6,4 km/h (2 Bft) 100,00 %
20.04.2018 23:46 16,2 C 12,8 C 57 % 1019,6 hPa 0,0 l/m 5,4 km/h (1 Bft) O-NO 71 0 min 0,000 mm 0,0 UV-I 0 W/m 7,7 C 16,2 C 6,4 km/h (2 Bft) 100,00 %
20.04.2018 23:47 16,3 C 12,8 C 57 % 1019,5 hPa 0,0 l/m 7,1 km/h (2 Bft) O 82 0 min 0,000 mm 0,0 UV-I 0 W/m 7,8 C 15,9 C 11,3 km/h (2 Bft) 100,00 %
20.04.2018 23:48 16,2 C 12,8 C 57 % 1019,5 hPa 0,0 l/m 5,6 km/h (1 Bft) O-NO 70 0 min 0,000 mm 0,0 UV-I 0 W/m 7,7 C 16,2 C 8,0 km/h (2 Bft) 100,00 %
20.04.2018 23:49 16,2 C 12,8 C 57 % 1019,5 hPa 0,0 l/m 6,9 km/h (2 Bft) O-NO 76 0 min 0,000 mm 0,0 UV-I 0 W/m 7,7 C 15,9 C 11,3 km/h (2 Bft) 100,00 %
20.04.2018 23:50 16,2 C 12,8 C 57 % 1019,5 hPa 0,0 l/m 7,5 km/h (2 Bft) O-NO 72 0 min 0,000 mm 0,0 UV-I 0 W/m 7,7 C 15,6 C 12,9 km/h (3 Bft) 100,00 %
20.04.2018 23:51 16,2 C 12,8 C 57 % 1019,5 hPa 0,0 l/m 8,4 km/h (2 Bft) O-NO 66 0 min 0,000 mm 0,0 UV-I 0 W/m 7,7 C 15,2 C 12,9 km/h (3 Bft) 100,00 %
20.04.2018 23:52 16,2 C 12,8 C 58 % 1019,5 hPa 0,0 l/m 8,4 km/h (2 Bft) O 96 0 min 0,000 mm 0,0 UV-I 0 W/m 7,9 C 15,2 C 11,3 km/h (2 Bft) 100,00 %
20.04.2018 23:53 16,1 C 12,8 C 58 % 1019,5 hPa 0,0 l/m 7,7 km/h (2 Bft) O-NO 74 0 min 0,000 mm 0,0 UV-I 0 W/m 7,8 C 15,4 C 11,3 km/h (2 Bft) 100,00 %
20.04.2018 23:54 16,1 C 12,8 C 58 % 1019,5 hPa 0,0 l/m 8,6 km/h (2 Bft) O-SO 103 0 min 0,000 mm 0,0 UV-I 0 W/m 7,8 C 15,0 C 12,9 km/h (3 Bft) 100,00 %
20.04.2018 23:55 16,1 C 12,8 C 58 % 1019,5 hPa 0,0 l/m 11,0 km/h (2 Bft) O-NO 76 0 min 0,000 mm 0,0 UV-I 0 W/m 7,8 C 13,9 C 12,9 km/h (3 Bft) 96,88 %
20.04.2018 23:56 16,1 C 12,8 C 58 % 1019,5 hPa 0,0 l/m 10,7 km/h (2 Bft) O 89 0 min 0,000 mm 0,0 UV-I 0 W/m 7,8 C 14,0 C 16,1 km/h (3 Bft) 100,00 %
20.04.2018 23:57 16,1 C 12,8 C 58 % 1019,4 hPa 0,0 l/m 8,3 km/h (2 Bft) O 86 0 min 0,000 mm 0,0 UV-I 0 W/m 7,8 C 15,1 C 12,9 km/h (3 Bft) 100,00 %
20.04.2018 23:58 16,1 C 12,8 C 58 % 1019,4 hPa 0,0 l/m 10,1 km/h (2 Bft) O 95 0 min 0,000 mm 0,0 UV-I 0 W/m 7,8 C 14,3 C 14,5 km/h (3 Bft) 96,30 %
20.04.2018 23:59 16,1 C 12,8 C 58 % 1019,4 hPa 0,0 l/m 10,4 km/h (2 Bft) O 86 0 min 0,000 mm 0,0 UV-I 0 W/m 7,8 C 14,2 C 14,5 km/h (3 Bft) 100,00 %
_ Min-Zeit 06:08 08:19 16:49 23:57 - 00:14 - - - - - - 16:49 04:38 00:14 23:27
Minimum _ 9,7 C 12,2 C 23 % 1019,4 hPa - 0,0 km/h (0 Bft) - - - - - - 3,0 C 8,9 C 0,0 km/h (0 Bft) 81,82 %
_ Max-Zeit 16:33 14:03 06:10 00:00 00:00 14:23 - - 06:59 14:01 12:51 12:56 10:33 17:17 13:21 00:00
Maximum _ 25,9 C 13,3 C 85 % 1026,1 hPa 0,0 l/m 28,3 km/h
NO (4 Bft)
- - 2 min 0,660 mm 4,0 UV-I 784 W/m 12,2 C 25,0 C 37,0 km/h
NO (5 Bft)
100,00 %
Durchschnitt _ 18,3 C 12,8 C 55 % 1023,1 hPa #0,0 l/m 11,2 km/h (2 Bft) O - #13:23 h #5,842 mm 2,4 UV-I 437 W/m 8,0 C 16,9 C 15,0 km/h (3 Bft) 97,98 %